# Wetter Temperatur Luftdruck Luftfeuchtigkeit Sichtweite Windgeschwindigkeit Windrichtung Zeit
1 Clouds 28 1004 44 10000 3.28 65 08:56 14.08.2022
2 Clouds 25 1006 51 10000 1.94 39 06:23 14.08.2022
3 Clouds 23 1007 54 10000 1.44 25 04:21 14.08.2022
4 Clouds 24 1004 35 10000 2.2 14 00:42 14.08.2022
5 Clouds 25 1004 32 10000 1.6 9 22:56 13.08.2022
6 Clouds 25 1004 33 10000 1.79 11 21:55 13.08.2022
7 Clouds 26 1004 35 10000 2.01 10 20:49 13.08.2022
8 Clouds 26 1004 38 10000 2.37 14 19:47 13.08.2022
9 Clouds 27 1003 38 10000 2.25 28 18:47 13.08.2022
10 Clouds 30 1000 31 10000 4.01 89 16:23 13.08.2022
11 Clouds 31 999 25 10000 4.54 83 14:41 13.08.2022
12 Clouds 32 999 20 10000 4.37 71 13:48 13.08.2022
13 Clouds 32 999 19 10000 3.69 71 13:23 13.08.2022
14 Clouds 32 1000 18 10000 2.43 66 11:27 13.08.2022
15 Clouds 30 1003 19 10000 1.66 52 09:23 13.08.2022
16 Clouds 27 1005 28 10000 1.8 36 06:44 13.08.2022
17 Clouds 22 1005 60 10000 1.3 22 01:36 13.08.2022
18 Clouds 23 1006 61 10000 0.38 356 23:25 12.08.2022
19 Clouds 23 1006 61 10000 0.81 14 21:35 12.08.2022
20 Clouds 24 1006 59 10000 2.01 43 19:47 12.08.2022
21 Clouds 24 1005 57 10000 1.96 63 19:23 12.08.2022
22 Clouds 25 1005 55 10000 1.9 68 18:21 12.08.2022
23 Clouds 26 1002 51 10000 4.05 69 16:26 12.08.2022
24 Clouds 27 1002 46 10000 4.65 70 14:50 12.08.2022
25 Clouds 29 1001 40 10000 5.63 78 13:30 12.08.2022
26 Clouds 31 1000 34 10000 4.16 85 12:25 12.08.2022
27 Clouds 28 1004 36 10000 1.97 98 08:51 12.08.2022
28 Clouds 27 1005 38 10000 1.45 106 07:45 12.08.2022
29 Clouds 24 1006 49 10000 0.82 46 06:21 12.08.2022
30 Clouds 21 1006 70 10000 0.71 233 00:32 12.08.2022
31 Clouds 21 1006 69 10000 1.35 177 23:55 11.08.2022
32 Clouds 21 1006 69 10000 1.72 185 22:45 11.08.2022
33 Clouds 21 1006 68 10000 1.95 219 21:53 11.08.2022
34 Clouds 21 1007 68 10000 3.03 179 21:26 11.08.2022
35 Clouds 21 1007 68 10000 3.03 179 20:30 11.08.2022
36 Clouds 23 1006 61 10000 3.56 196 19:33 11.08.2022
37 Clouds 24 1005 57 10000 0.59 160 18:41 11.08.2022
38 Clouds 25 1002 58 10000 4.42 352 16:46 11.08.2022
39 Clouds 28 1000 43 10000 4.48 68 15:42 11.08.2022
40 Clouds 30 1000 37 10000 4.89 88 14:32 11.08.2022
41 Clear 33 999 23 10000 5.29 81 11:53 11.08.2022
42 Clear 30 1002 17 10000 1.7 59 08:48 11.08.2022
43 Clouds 25 1005 22 10000 1.25 23 05:44 11.08.2022
44 Clouds 21 1005 29 10000 0.72 326 02:33 11.08.2022
45 Clear 21 1004 28 10000 1.07 346 22:59 10.08.2022
46 Clear 22 1004 27 10000 1.18 328 21:46 10.08.2022
47 Clear 23 1004 25 10000 1.27 347 20:56 10.08.2022
48 Clear 23 1004 24 10000 1.66 1 20:24 10.08.2022
49 Clear 24 1003 22 10000 2.08 359 18:46 10.08.2022
50 Clear 27 1001 19 10000 3.31 10 17:26 10.08.2022
51 Clear 33 998 12 10000 4.3 23 14:25 10.08.2022
52 Clear 33 998 12 10000 2.67 34 12:54 10.08.2022
53 Clear 32 1000 13 10000 1.64 56 10:47 10.08.2022
54 Clear 29 1002 15 10000 1.26 52 08:37 10.08.2022
55 Clear 26 1005 20 10000 1.25 39 07:23 10.08.2022
56 Clear 23 1007 26 10000 0.92 6 04:50 10.08.2022
57 Clear 20 1006 33 10000 1.17 325 00:50 10.08.2022
58 Clear 22 1005 30 10000 1.41 352 23:29 09.08.2022
59 Clear 22 1005 29 10000 1.61 356 21:41 09.08.2022
60 Clear 23 1005 27 10000 1.98 357 21:22 09.08.2022
61 Clear 25 1004 24 10000 2.43 5 18:56 09.08.2022
62 Clear 26 1003 22 10000 3.11 2 17:37 09.08.2022
63 Clear 28 1002 20 10000 3.86 16 17:19 09.08.2022
64 Clear 30 1000 16 10000 5.26 20 16:22 09.08.2022
65 Clear 32 1000 11 10000 3.01 41 14:50 09.08.2022
66 Clear 31 1002 11 10000 1.49 73 11:29 09.08.2022
67 Clear 29 1004 14 10000 1.23 59 08:52 09.08.2022
68 Clear 28 1006 16 10000 1.2 52 07:57 09.08.2022
69 Clear 23 1008 23 10000 0.68 18 05:24 09.08.2022
70 Clouds 20 1006 29 10000 0.91 345 00:36 09.08.2022
71 Clouds 21 1006 27 10000 1.25 350 23:24 08.08.2022
72 Clouds 21 1006 27 10000 1.25 350 22:40 08.08.2022
73 Clouds 22 1006 25 10000 1.7 2 21:44 08.08.2022
74 Clear 23 1006 24 10000 1.97 7 20:34 08.08.2022
75 Clear 24 1005 23 10000 2.1 11 19:34 08.08.2022
76 Clear 26 1004 19 10000 2.36 20 17:56 08.08.2022
77 Clear 29 1002 15 10000 4.74 16 15:48 08.08.2022
78 Clear 31 1000 12 10000 6.52 11 14:46 08.08.2022
79 Clear 33 999 9 10000 3.66 18 12:30 08.08.2022
80 Clear 31 1002 12 10000 1.49 79 10:28 08.08.2022
81 Clear 28 1005 16 10000 1.35 41 07:51 08.08.2022
82 Clear 22 1007 23 10000 0.78 354 03:42 08.08.2022
83 Clear 22 1005 23 10000 1.66 344 23:28 07.08.2022
84 Clear 23 1005 22 10000 1.7 355 21:41 07.08.2022
85 Clear 24 1004 23 10000 2.16 350 20:55 07.08.2022
86 Clear 25 1004 23 10000 2.38 3 20:18 07.08.2022
87 Clear 25 1004 23 10000 2.38 3 19:51 07.08.2022
88 Clear 26 1003 24 10000 3.51 12 18:49 07.08.2022
89 Clouds 29 1000 28 10000 4.46 39 17:22 07.08.2022
90 Clouds 29 1000 28 10000 4.46 39 16:51 07.08.2022
91 Clear 33 997 13 10000 4 22 15:26 07.08.2022
92 Clear 33 998 12 10000 3.02 27 13:47 07.08.2022
93 Clear 33 998 13 10000 2.49 53 12:38 07.08.2022
94 Clear 32 999 15 10000 1.52 61 10:42 07.08.2022
95 Clear 31 1001 16 10000 1.41 53 09:35 07.08.2022
96 Clear 24 1005 30 10000 1.41 12 04:33 07.08.2022
97 Clear 21 1003 30 10000 0.74 345 01:59 07.08.2022
98 Clear 22 1003 27 10000 1.19 335 22:33 06.08.2022
99 Clear 23 1003 27 10000 1.23 332 21:48 06.08.2022
100 Clear 25 1002 32 10000 2.64 13 19:43 06.08.2022
101 Clear 26 1002 27 10000 3.16 15 18:35 06.08.2022
102 Clear 26 1001 22 10000 2.85 8 17:44 06.08.2022
103 Clear 32 998 13 10000 4.73 75 15:21 06.08.2022
104 Clear 32 998 13 10000 4.55 67 13:50 06.08.2022
105 Clear 32 999 14 10000 3.2 70 12:21 06.08.2022
106 Clear 31 1000 15 10000 2.56 77 10:40 06.08.2022
107 Clear 29 1003 17 10000 1.5 68 09:24 06.08.2022
108 Clear 22 1006 26 10000 0.52 348 03:56 06.08.2022
109 Clear 21 1005 28 10000 0.76 329 00:27 06.08.2022
110 Clear 22 1005 26 10000 1.04 357 22:34 05.08.2022
111 Clear 23 1006 24 10000 1.89 353 20:37 05.08.2022
112 Clouds 26 1004 25 10000 2.84 20 18:55 05.08.2022
113 Clouds 26 1004 25 10000 2.84 20 18:36 05.08.2022
114 Clouds 27 1003 27 10000 1.41 277 16:52 05.08.2022
115 Clouds 30 1001 20 10000 6.89 317 15:24 05.08.2022
116 Clouds 30 1001 20 10000 6.89 317 14:34 05.08.2022
117 Clouds 32 1001 20 10000 3.85 1 13:26 05.08.2022
118 Clouds 32 1001 20 10000 3.85 1 12:59 05.08.2022
119 Clear 31 1002 19 10000 3.91 19 11:20 05.08.2022
120 Clear 29 1004 21 10000 1.63 65 08:46 05.08.2022
121 Clear 28 1005 22 10000 1.49 49 07:34 05.08.2022
122 Clear 22 1007 34 10000 0.88 341 02:33 05.08.2022
123 Clouds 24 1007 30 10000 1.11 4 23:18 04.08.2022
124 Clouds 25 1007 33 10000 2.43 10 21:28 04.08.2022
125 Clouds 25 1007 33 10000 2.43 10 20:57 04.08.2022
126 Clouds 25 1007 33 10000 2.43 10 20:35 04.08.2022
127 Clouds 26 1006 31 10000 2.32 14 18:58 04.08.2022
128 Clouds 26 1006 31 10000 2.32 14 18:33 04.08.2022
129 Clouds 28 1004 27 10000 6.03 298 15:51 04.08.2022
130 Clouds 31 1002 18 10000 2.35 348 13:26 04.08.2022
131 Clear 31 1003 18 10000 3.61 344 11:39 04.08.2022
132 Clear 30 1005 19 10000 1.2 90 10:21 04.08.2022
133 Clear 28 1007 23 10000 1.18 44 07:45 04.08.2022
134 Clear 21 1009 36 10000 1.22 328 02:48 04.08.2022
135 Clouds 21 1007 36 10000 0.93 355 00:33 04.08.2022
136 Clouds 22 1007 36 10000 1.33 344 23:39 03.08.2022
137 Clouds 24 1007 34 10000 1.38 4 21:27 03.08.2022
138 Clouds 25 1006 32 10000 2.43 7 20:21 03.08.2022
139 Clouds 26 1006 29 10000 2.19 336 19:19 03.08.2022
140 Clouds 28 1004 24 10000 0.96 72 16:48 03.08.2022
141 Clouds 29 1003 21 10000 2.07 339 16:22 03.08.2022
142 Clouds 30 1002 20 10000 3.89 354 13:40 03.08.2022
143 Clear 30 1004 20 10000 1.82 83 10:56 03.08.2022
144 Clear 25 1008 26 10000 1.15 44 07:26 03.08.2022
145 Clear 21 1009 34 10000 0.77 347 04:22 03.08.2022
146 Clear 20 1008 38 10000 0.85 344 03:23 03.08.2022
147 Clouds 20 1007 38 10000 1.63 350 00:49 03.08.2022
148 Clouds 22 1006 36 10000 1.56 5 22:37 02.08.2022
149 Clouds 22 1006 34 10000 1.85 5 21:51 02.08.2022
150 Clear 23 1006 38 10000 1.86 3 20:30 02.08.2022
151 Clouds 25 1005 34 10000 0.69 151 17:52 02.08.2022
152 Clouds 27 1003 30 10000 0.73 22 15:20 02.08.2022
153 Clear 30 1000 20 10000 1.54 359 10:51 02.08.2022
154 Clear 28 1002 23 10000 1.11 41 08:54 02.08.2022
155 Clear 27 1004 27 10000 1.46 40 07:52 02.08.2022
156 Clear 24 1005 39 10000 1.57 35 05:40 02.08.2022
157 Clear 21 1006 61 10000 1.23 20 03:40 02.08.2022
158 Clear 21 1005 63 10000 1.43 15 23:35 01.08.2022
159 Clear 22 1005 61 10000 1.9 42 22:21 01.08.2022
160 Clear 22 1005 59 10000 2.12 36 20:40 01.08.2022
161 Clouds 24 1004 52 10000 2.79 59 19:22 01.08.2022
162 Clouds 26 1001 40 10000 2.83 56 17:27 01.08.2022
163 Clouds 26 1001 40 10000 2.83 56 16:50 01.08.2022
164 Clouds 27 1000 36 10000 3.24 75 15:48 01.08.2022
165 Clear 29 999 27 10000 5.86 78 15:28 01.08.2022
166 Clear 31 998 20 10000 4.01 48 13:44 01.08.2022
167 Clear 30 1000 20 10000 3.13 59 11:49 01.08.2022
168 Clear 29 1001 23 10000 1.72 83 09:38 01.08.2022
169 Clear 26 1003 28 10000 1.25 52 08:20 01.08.2022
170 Clear 22 1005 37 10000 1.15 10 04:44 01.08.2022
171 Clear 20 1004 44 10000 1.36 354 02:31 01.08.2022
172 Clouds 21 1003 42 10000 1.06 20 23:42 31.07.2022
173 Clouds 22 1003 40 10000 1.48 9 22:36 31.07.2022
174 Clouds 23 1003 36 10000 1.89 358 20:49 31.07.2022
175 Clouds 24 1001 35 10000 1.09 2 19:25 31.07.2022
176 Clouds 25 1002 33 10000 0.35 131 17:43 31.07.2022
177 Clouds 25 1001 32 10000 0.48 257 15:30 31.07.2022
178 Clouds 25 1001 39 10000 3.17 251 13:21 31.07.2022
179 Clouds 29 1000 29 10000 8.22 262 11:45 31.07.2022
180 Clear 29 1001 22 10000 1.37 92 09:27 31.07.2022
181 Clouds 26 1003 24 10000 1.27 37 06:37 31.07.2022
182 Clear 22 1004 33 10000 1.45 343 02:56 31.07.2022
183 Clear 23 1003 32 10000 1.75 8 23:23 30.07.2022
184 Clear 24 1004 31 10000 1.98 29 22:19 30.07.2022
185 Clear 24 1004 31 10000 1.98 29 21:40 30.07.2022
186 Clear 24 1004 29 10000 2.38 15 20:51 30.07.2022
187 Clear 25 1003 31 10000 2.79 20 19:57 30.07.2022
188 Clear 27 1003 27 10000 4.14 34 18:23 30.07.2022
189 Clear 28 1002 21 10000 4.05 31 16:44 30.07.2022
190 Clouds 30 1001 18 10000 6.27 10 15:34 30.07.2022
191 Clouds 32 1000 15 10000 5.49 356 14:32 30.07.2022
192 Clouds 32 1000 14 10000 2.29 45 12:43 30.07.2022
193 Clouds 31 1001 15 10000 2.1 54 11:55 30.07.2022
194 Clouds 30 1003 18 10000 2.16 32 10:20 30.07.2022
195 Clouds 30 1003 18 10000 2.16 32 09:45 30.07.2022
196 Clouds 29 1005 20 10000 1.93 39 07:44 30.07.2022
197 Clouds 22 1006 59 10000 1.38 13 02:34 30.07.2022
198 Clouds 22 1006 59 10000 1.38 13 02:34 30.07.2022
199 Clouds 22 1005 60 10000 1.27 11 01:43 30.07.2022
200 Clouds 24 1006 63 10000 1 69 21:39 29.07.2022
201 Clear 24 1006 60 10000 1.76 53 20:58 29.07.2022
202 Clear 25 1006 56 10000 2.27 71 19:48 29.07.2022
203 Clouds 27 1005 47 10000 5.77 55 17:40 29.07.2022
204 Clouds 32 1001 21 10000 8.3 43 15:19 29.07.2022
205 Clear 35 1000 14 10000 3.54 31 12:59 29.07.2022
206 Clear 32 1003 19 10000 1.51 87 09:49 29.07.2022
207 Clear 31 1004 22 10000 1.52 87 08:48 29.07.2022
208 Clear 30 1005 25 10000 1.41 57 07:39 29.07.2022
209 Clouds 22 1006 76 10000 0.73 43 01:46 29.07.2022
210 Clear 24 1007 70 10000 1.34 54 21:57 28.07.2022
211 Clear 24 1007 69 10000 1.73 58 20:59 28.07.2022
212 Clouds 25 1007 68 10000 2.6 60 20:27 28.07.2022
213 Clear 25 1007 67 10000 2.54 59 19:42 28.07.2022
214 Clear 26 1006 61 10000 3.47 69 18:27 28.07.2022
215 Clear 26 1006 61 10000 3.47 69 17:43 28.07.2022
216 Clear 28 1004 51 10000 5.54 66 16:41 28.07.2022
217 Clear 33 1001 24 10000 6.22 66 15:24 28.07.2022
218 Clouds 34 1002 17 10000 1.97 76 12:51 28.07.2022
219 Clear 32 1005 22 10000 1.49 88 09:45 28.07.2022
220 Clear 26 1008 50 10000 1.47 46 06:24 28.07.2022
221 Clear 24 1009 64 10000 1.27 43 05:26 28.07.2022
222 Clear 23 1007 75 10000 1.43 42 00:45 28.07.2022
223 Clear 23 1007 72 10000 1.68 52 22:31 27.07.2022
224 Clear 24 1007 67 10000 2.46 53 20:56 27.07.2022
225 Clear 25 1007 63 10000 2.64 60 19:34 27.07.2022
226 Clear 28 1004 49 10000 3.7 64 17:23 27.07.2022
227 Clear 30 1002 37 10000 5.2 85 15:52 27.07.2022
228 Clear 32 1001 24 10000 4.57 85 14:48 27.07.2022
229 Clear 32 1001 24 10000 4.57 85 14:30 27.07.2022
230 Clouds 34 1002 17 10000 2.39 72 12:48 27.07.2022
231 Clear 29 1007 29 10000 1.53 73 07:53 27.07.2022
232 Clouds 26 1008 46 10000 1.35 46 06:18 27.07.2022
233 Clouds 23 1008 75 10000 1.31 41 00:46 27.07.2022
234 Clouds 24 1007 68 10000 2.1 57 22:25 26.07.2022
235 Clouds 24 1008 65 10000 2.16 63 21:20 26.07.2022
236 Clouds 24 1008 65 10000 2.17 62 21:20 26.07.2022
237 Clouds 25 1007 63 10000 2.51 66 19:59 26.07.2022
238 Clouds 26 1007 59 10000 2.74 68 18:41 26.07.2022
239 Clouds 27 1006 54 10000 3.32 68 17:57 26.07.2022
240 Clouds 29 1004 41 10000 3.42 84 15:50 26.07.2022
241 Clouds 31 1003 35 10000 5.2 90 14:49 26.07.2022
242 Clouds 33 1002 27 10000 3.79 78 12:50 26.07.2022
243 Clouds 31 1005 30 10000 2.29 76 10:58 26.07.2022
244 Clouds 29 1007 39 10000 1.96 76 08:43 26.07.2022
245 Clouds 25 1010 63 10000 1.69 59 05:30 26.07.2022
246 Clouds 23 1009 75 10000 1.26 47 00:27 26.07.2022
247 Clouds 23 1009 74 10000 1.55 45 22:51 25.07.2022
248 Clouds 23 1009 72 10000 1.8 42 22:22 25.07.2022
249 Clouds 23 1009 72 10000 1.8 42 21:38 25.07.2022
250 Clouds 24 1009 69 10000 1.98 43 20:40 25.07.2022
251 Clouds 25 1008 64 10000 2.72 55 19:27 25.07.2022
252 Clouds 26 1007 59 10000 2.98 69 18:18 25.07.2022
253 Clouds 27 1006 53 10000 3.58 70 17:26 25.07.2022
254 Clouds 31 1003 35 10000 6.36 86 14:23 25.07.2022
255 Clouds 32 1003 29 10000 4.54 81 11:50 25.07.2022
256 Clouds 29 1006 36 10000 2.33 67 08:32 25.07.2022
257 Clouds 21 1008 78 10000 1.5 37 02:21 25.07.2022
258 Clouds 22 1008 74 10000 1.46 40 23:51 24.07.2022
259 Clouds 22 1007 71 10000 1.57 53 22:54 24.07.2022
260 Clouds 23 1007 68 10000 1.38 54 22:24 24.07.2022
261 Clear 23 1007 66 10000 1.63 55 21:19 24.07.2022
262 Clear 23 1007 66 10000 1.63 55 20:47 24.07.2022
263 Clouds 24 1007 59 10000 2.17 56 19:54 24.07.2022
264 Clouds 25 1006 53 10000 2.37 61 18:30 24.07.2022
265 Clouds 25 1006 53 10000 2.37 61 18:30 24.07.2022
266 Clouds 28 1003 39 10000 3.79 74 16:28 24.07.2022
267 Clouds 28 1003 39 10000 3.79 74 15:45 24.07.2022
268 Clouds 31 1001 32 10000 4.95 78 13:54 24.07.2022
269 Clear 32 1001 29 10000 5.73 91 12:52 24.07.2022
270 Clear 32 1001 28 10000 4.98 89 11:37 24.07.2022
271 Clouds 32 1002 28 10000 3.96 83 10:59 24.07.2022
272 Clear 29 1005 34 10000 2.66 73 08:31 24.07.2022
273 Clouds 28 1005 38 10000 2.32 66 07:47 24.07.2022
274 Clouds 24 1007 59 10000 1.34 58 04:45 24.07.2022
275 Clouds 22 1007 67 10000 1.45 38 23:51 23.07.2022
276 Clouds 23 1007 64 10000 1.74 28 20:59 23.07.2022
277 Clouds 23 1007 63 10000 1.65 36 19:44 23.07.2022
278 Clouds 24 1008 60 10000 2.57 52 18:50 23.07.2022
279 Clouds 24 1007 60 10000 2.97 64 17:28 23.07.2022
280 Clouds 24 1007 60 10000 2.93 64 16:33 23.07.2022
281 Clouds 27 1004 49 10000 5.78 72 15:22 23.07.2022
282 Clouds 27 1004 49 10000 5.78 72 14:58 23.07.2022
283 Clouds 28 1004 46 10000 5.51 76 14:26 23.07.2022
284 Clouds 31 1002 37 10000 6.32 80 12:44 23.07.2022
285 Clouds 31 1003 36 10000 3.91 77 10:45 23.07.2022
286 Clouds 30 1004 39 10000 3.38 68 09:56 23.07.2022
287 Clouds 28 1005 43 10000 2.96 62 08:31 23.07.2022
288 Clouds 22 1008 77 10000 1.43 46 03:38 23.07.2022
289 Clouds 22 1007 78 10000 1.91 49 00:41 23.07.2022
290 Clouds 23 1006 72 10000 1.76 54 22:19 22.07.2022
291 Clouds 23 1006 71 10000 1.98 59 20:51 22.07.2022
292 Clouds 24 1006 68 10000 1.94 56 19:34 22.07.2022
293 Clouds 25 1005 63 10000 3.33 64 18:28 22.07.2022
294 Clouds 26 1004 56 10000 3.33 69 16:48 22.07.2022
295 Clouds 28 1003 48 10000 2.32 82 14:40 22.07.2022
296 Clouds 29 1004 49 10000 3.94 69 10:59 22.07.2022
297 Clouds 27 1006 57 10000 3.4 75 09:25 22.07.2022
298 Clouds 26 1007 61 10000 4.04 78 08:27 22.07.2022
299 Clouds 24 1008 73 10000 2.31 45 04:48 22.07.2022
300 Clouds 23 1005 79 10000 2.59 43 23:45 21.07.2022
301 Clouds 24 1005 75 10000 2.55 60 22:25 21.07.2022
302 Clouds 24 1005 74 10000 2.01 29 20:48 21.07.2022
303 Clouds 25 1004 71 10000 3.03 47 19:23 21.07.2022
304 Clear 25 1004 70 10000 2.61 41 17:39 21.07.2022
305 Clear 26 1003 66 10000 3.76 66 17:19 21.07.2022
306 Clear 30 1000 48 10000 6.47 80 14:52 21.07.2022
307 Clear 32 999 37 10000 7.83 86 14:24 21.07.2022
308 Clear 35 998 19 10000 4.12 76 12:27 21.07.2022
309 Clear 34 999 18 10000 2.4 66 10:39 21.07.2022
310 Clear 32 1001 20 10000 1.05 63 08:54 21.07.2022
311 Clear 32 1001 20 10000 1.04 61 08:35 21.07.2022
312 Clear 29 1002 25 10000 1.44 68 07:23 21.07.2022
313 Clear 25 1002 22 10000 0.7 359 03:55 21.07.2022
314 Clear 25 1001 24 10000 1.37 334 23:26 20.07.2022
315 Clear 26 1002 24 10000 1.92 353 22:21 20.07.2022
316 Clear 26 1002 23 10000 2.01 1 20:50 20.07.2022
317 Clear 27 1001 19 10000 2.3 2 19:48 20.07.2022
318 Clear 28 1001 16 10000 2.74 13 19:20 20.07.2022
319 Clear 28 1001 16 10000 2.74 13 18:33 20.07.2022
320 Clear 30 1000 14 10000 2.72 25 17:43 20.07.2022
321 Clear 33 997 11 10000 1.96 61 16:19 20.07.2022
322 Clear 34 997 9 10000 1.73 78 14:57 20.07.2022
323 Clear 34 997 9 10000 1.87 88 13:53 20.07.2022
324 Clear 33 999 9 10000 1.45 92 11:32 20.07.2022
325 Clear 30 1003 12 10000 1.31 67 07:39 20.07.2022
326 Clear 22 1004 23 10000 1 336 02:44 20.07.2022
327 Clear 23 1003 21 10000 1.34 334 00:44 20.07.2022
328 Clear 24 1003 21 10000 1.69 342 22:41 19.07.2022
329 Clear 25 1003 21 10000 2.16 355 22:21 19.07.2022
330 Clear 26 1003 22 10000 2.34 359 20:54 19.07.2022
331 Clear 27 1002 23 10000 2.49 5 20:18 19.07.2022
332 Clear 28 1002 24 10000 2.63 17 18:43 19.07.2022
333 Clear 29 1001 19 10000 2.9 27 17:56 19.07.2022
334 Clear 32 999 11 10000 5.6 21 16:26 19.07.2022
335 Clear 34 998 9 10000 6.05 16 14:31 19.07.2022
336 Clear 34 999 11 10000 1.21 67 11:35 19.07.2022
337 Clear 34 1001 13 10000 1.41 72 10:31 19.07.2022
338 Clear 31 1003 19 10000 1.38 83 08:48 19.07.2022
339 Clear 30 1004 22 10000 1.36 68 08:22 19.07.2022
340 Clear 29 1005 27 10000 1.72 47 07:18 19.07.2022
341 Clear 26 1006 45 10000 1.66 38 05:26 19.07.2022
342 Clear 26 1006 45 10000 1.66 38 04:41 19.07.2022
343 Clear 24 1004 52 10000 1.1 37 00:34 19.07.2022
344 Clear 25 1004 48 10000 1.3 35 23:22 18.07.2022
345 Clear 25 1004 48 10000 1.3 35 22:56 18.07.2022
346 Clear 26 1004 46 10000 1.82 41 21:53 18.07.2022
347 Clear 26 1004 45 10000 2.15 41 20:50 18.07.2022
348 Clear 28 1004 43 10000 2.3 47 19:25 18.07.2022
349 Clear 29 1002 38 10000 3.14 71 17:22 18.07.2022
350 Clear 31 1001 32 10000 4.29 91 15:46 18.07.2022
351 Clear 33 1000 24 10000 3.72 76 14:24 18.07.2022
352 Clear 33 1001 23 10000 3.03 71 12:45 18.07.2022
353 Clear 32 1003 26 10000 2.27 69 11:29 18.07.2022
354 Clear 30 1006 33 10000 1.78 72 08:51 18.07.2022
355 Clear 27 1008 48 10000 1.58 62 06:58 18.07.2022
356 Clear 23 1008 64 10000 1.15 44 00:36 18.07.2022
357 Clear 24 1008 58 10000 1.59 46 22:37 17.07.2022
358 Clear 24 1008 55 10000 1.81 45 21:49 17.07.2022
359 Clear 25 1008 51 10000 1.86 45 21:18 17.07.2022
360 Clear 25 1008 51 10000 1.86 45 20:37 17.07.2022
361 Clear 26 1008 43 10000 1.85 49 19:29 17.07.2022
362 Clear 27 1007 39 10000 2.59 70 18:27 17.07.2022
363 Clear 27 1007 39 10000 2.59 70 17:38 17.07.2022
364 Clear 27 1006 36 10000 3.58 73 16:50 17.07.2022
365 Clear 28 1005 33 10000 4.1 79 16:26 17.07.2022
366 Clear 30 1004 25 10000 5 82 14:37 17.07.2022
367 Clear 31 1004 25 10000 6.23 83 13:30 17.07.2022
368 Clear 31 1005 26 10000 6.05 85 11:32 17.07.2022
369 Clear 29 1007 31 10000 3.35 67 08:57 17.07.2022
370 Clear 24 1010 38 10000 1.8 25 03:43 17.07.2022
371 Clear 23 1010 39 10000 1.67 18 02:32 17.07.2022
372 Clear 24 1007 43 10000 1.66 22 23:20 16.07.2022
373 Clear 25 1007 43 10000 2.01 32 21:25 16.07.2022
374 Clear 26 1006 38 10000 2.03 38 19:26 16.07.2022
375 Clear 27 1005 36 10000 2.21 57 18:27 16.07.2022
376 Clear 27 1004 33 10000 3.02 80 16:31 16.07.2022
377 Clear 31 1003 16 10000 4.19 77 13:47 16.07.2022
378 Clear 30 1005 12 10000 2.94 79 10:50 16.07.2022
379 Clear 29 1005 12 10000 2.47 71 09:32 16.07.2022
380 Clear 28 1006 14 10000 1.89 62 08:43 16.07.2022
381 Clear 27 1007 17 10000 1.7 54 08:19 16.07.2022
382 Clear 22 1009 51 10000 0.55 34 03:58 16.07.2022
383 Clear 21 1008 57 10000 0.61 339 02:40 16.07.2022
384 Clear 22 1008 60 10000 1.33 29 23:29 15.07.2022
385 Clear 22 1008 60 10000 1.33 29 22:39 15.07.2022
386 Clear 23 1008 57 10000 2.21 52 21:28 15.07.2022
387 Clear 23 1008 54 10000 2.36 53 20:24 15.07.2022
388 Clear 24 1007 51 10000 2.51 57 18:40 15.07.2022
389 Clear 25 1006 47 10000 3.1 61 17:37 15.07.2022
390 Clear 28 1003 30 10000 6.19 93 14:53 15.07.2022
391 Clear 31 1002 17 10000 3.98 87 12:57 15.07.2022
392 Clear 30 1004 21 10000 2.98 72 11:20 15.07.2022
393 Clear 28 1006 26 10000 2.22 58 09:21 15.07.2022
394 Clouds 24 1008 42 10000 1.91 34 06:24 15.07.2022
395 Clear 21 1006 54 10000 1.96 17 00:53 15.07.2022
396 Clear 22 1005 54 10000 1.74 21 00:21 15.07.2022
397 Clear 22 1005 55 10000 2.07 26 22:45 14.07.2022
398 Clear 22 1005 55 10000 2.2 29 21:46 14.07.2022
399 Clear 23 1004 55 10000 2.39 45 21:28 14.07.2022
400 Clear 23 1004 55 10000 2.39 45 20:44 14.07.2022
401 Clear 24 1003 49 10000 4.07 51 20:20 14.07.2022
402 Clear 25 1003 38 10000 3.39 40 18:52 14.07.2022
403 Clear 29 999 23 10000 4.55 80 16:22 14.07.2022
404 Clear 29 999 23 10000 4.55 80 15:30 14.07.2022
405 Clear 31 998 14 10000 4.47 76 13:53 14.07.2022
406 Clear 31 998 14 10000 4.47 76 13:53 14.07.2022
407 Clear 31 998 14 10000 3.46 67 12:53 14.07.2022
408 Clear 31 999 14 10000 2.8 68 11:43 14.07.2022
409 Clear 30 1000 14 10000 2.26 72 11:22 14.07.2022
410 Clear 29 1001 15 10000 2.04 75 09:54 14.07.2022
411 Clear 25 1005 19 10000 1.06 41 06:54 14.07.2022
412 Clear 19 1004 30 10000 1.07 326 01:25 14.07.2022
413 Clear 19 1004 30 10000 1.07 326 00:53 14.07.2022
414 Clouds 21 1004 27 10000 1.51 352 22:33 13.07.2022
415 Clouds 21 1004 26 10000 1.93 12 21:57 13.07.2022
416 Clouds 22 1004 25 10000 1.83 2 20:53 13.07.2022
417 Clear 23 1003 23 10000 2.34 20 19:30 13.07.2022
418 Clear 25 1001 21 10000 3.31 26 17:51 13.07.2022
419 Clear 26 1000 20 10000 3.61 33 16:43 13.07.2022
420 Clouds 29 998 17 10000 8.41 7 15:24 13.07.2022
421 Clear 31 998 15 10000 3.87 29 12:56 13.07.2022
422 Clear 31 998 15 10000 3.87 29 12:56 13.07.2022
423 Clear 30 999 15 10000 2.05 41 10:46 13.07.2022
424 Clear 29 1000 16 10000 1.55 55 10:24 13.07.2022
425 Clear 28 1001 17 10000 1.25 62 09:25 13.07.2022
426 Clear 26 1003 19 10000 1.24 35 06:46 13.07.2022
427 Clear 21 1004 29 10000 0.08 7 02:38 13.07.2022
428 Clear 22 1003 26 10000 1.4 346 23:51 12.07.2022
429 Clouds 23 1003 24 10000 1.92 358 21:58 12.07.2022
430 Clouds 23 1003 24 10000 1.92 358 21:32 12.07.2022
431 Clouds 24 1004 23 10000 1.82 1 20:41 12.07.2022
432 Clear 25 1003 21 10000 3.11 2 19:28 12.07.2022
433 Clear 26 1002 20 10000 3.44 10 17:50 12.07.2022
434 Clear 29 1000 17 10000 5.98 14 16:20 12.07.2022
435 Clouds 31 999 15 10000 7.44 10 14:31 12.07.2022
436 Clear 32 999 19 10000 2.61 44 12:48 12.07.2022
437 Clear 31 1001 25 10000 1.79 71 11:26 12.07.2022
438 Clear 30 1002 28 10000 1.42 83 10:18 12.07.2022
439 Clear 30 1002 28 10000 1.42 83 10:18 12.07.2022
440 Clear 28 1004 29 10000 1.32 70 08:24 12.07.2022
441 Clear 26 1005 35 10000 1.23 55 06:59 12.07.2022
442 Clear 25 1006 40 10000 1.15 43 05:42 12.07.2022
443 Clear 22 1006 41 10000 0.52 332 02:52 12.07.2022
444 Clouds 23 1005 39 10000 1.55 339 23:42 11.07.2022
445 Clouds 23 1005 49 10000 1.64 331 22:31 11.07.2022
446 Clouds 24 1004 57 10000 2.47 25 20:41 11.07.2022
447 Clouds 25 1004 57 10000 2.73 34 19:50 11.07.2022
448 Clouds 25 1004 58 10000 3.18 50 18:32 11.07.2022
449 Clouds 26 1003 57 10000 3.18 63 17:53 11.07.2022
450 Clear 27 1001 52 10000 5.31 62 16:21 11.07.2022
451 Clear 30 999 43 10000 5.12 75 14:49 11.07.2022
452 Clear 32 1000 32 10000 3.73 60 12:18 11.07.2022
453 Clear 31 1001 33 10000 2.5 67 10:37 11.07.2022
454 Clear 30 1002 37 10000 1.7 80 09:49 11.07.2022
455 Clear 29 1002 39 10000 1.26 81 08:35 11.07.2022
456 Clear 26 1005 45 10000 1.34 56 07:24 11.07.2022
457 Clouds 23 1004 40 10000 1.28 337 00:23 11.07.2022
458 Clouds 23 1004 40 10000 1.28 337 23:32 10.07.2022
459 Clouds 23 1004 56 10000 1.81 355 22:21 10.07.2022
460 Clouds 24 1004 60 10000 2.7 11 20:54 10.07.2022
461 Clouds 25 1003 56 10000 3.51 34 19:50 10.07.2022
462 Clouds 25 1003 60 10000 3.05 44 18:53 10.07.2022
463 Clear 26 1002 59 10000 3.38 49 17:41 10.07.2022
464 Clear 26 1000 56 10000 3.79 62 16:59 10.07.2022
465 Clear 28 999 52 10000 4.27 71 16:20 10.07.2022
466 Clear 29 998 45 10000 5.33 71 14:35 10.07.2022
467 Clear 32 998 35 10000 7.98 80 12:38 10.07.2022
468 Clear 33 998 26 10000 5.26 74 11:34 10.07.2022
469 Clear 30 1000 24 10000 1.45 53 09:28 10.07.2022
470 Clear 30 1000 24 10000 1.45 53 08:38 10.07.2022
471 Clear 26 1003 29 10000 0.82 24 05:36 10.07.2022
472 Clouds 23 1002 31 10000 1.02 311 23:32 09.07.2022
473 Clouds 24 1002 30 10000 1.44 5 22:26 09.07.2022
474 Clouds 24 1002 30 10000 1.44 5 22:26 09.07.2022
475 Clouds 24 1002 30 10000 1.44 5 21:40 09.07.2022
476 Clear 27 1000 27 10000 3.51 9 19:19 09.07.2022
477 Clear 28 1000 24 10000 3.71 10 18:23 09.07.2022
478 Clear 29 999 15 10000 3.61 30 17:18 09.07.2022
479 Clear 31 997 11 10000 6.48 10 15:56 09.07.2022
480 Clear 31 997 11 10000 6.48 10 15:36 09.07.2022
481 Clear 34 996 9 10000 3.5 19 13:54 09.07.2022
482 Clear 34 997 9 10000 2.28 35 13:28 09.07.2022
483 Clear 34 998 10 10000 1.94 44 11:40 09.07.2022
484 Clear 32 1000 12 10000 1.29 53 10:25 09.07.2022
485 Clear 31 1001 14 10000 1.02 55 09:23 09.07.2022
486 Clear 30 1002 16 10000 1.49 37 07:43 09.07.2022
487 Clear 25 1004 22 10000 0.48 1 04:38 09.07.2022
488 Clouds 24 1003 39 10000 1.52 347 23:33 08.07.2022
489 Clouds 25 1002 41 10000 2.07 14 22:18 08.07.2022
490 Clouds 26 1002 41 10000 2.08 16 21:21 08.07.2022
491 Clouds 26 1002 41 10000 2.08 16 20:35 08.07.2022
492 Clear 28 1002 38 10000 2.37 25 18:45 08.07.2022
493 Clear 29 1001 38 10000 3.47 36 17:45 08.07.2022
494 Clear 32 999 31 10000 4.77 69 16:24 08.07.2022
495 Clear 33 998 25 10000 4.5 54 14:50 08.07.2022
496 Clear 33 999 25 10000 1.63 38 12:31 08.07.2022
497 Clear 32 1001 27 10000 0.95 58 10:46 08.07.2022
498 Clear 31 1003 29 10000 0.74 75 09:42 08.07.2022
499 Clear 27 1006 35 10000 1.06 33 06:59 08.07.2022
500 Clear 26 1006 41 10000 1.02 26 05:33 08.07.2022
501 Clouds 24 1006 43 10000 1.2 6 00:30 08.07.2022
502 Clouds 24 1006 40 10000 1.23 353 22:47 07.07.2022
503 Clouds 25 1006 38 10000 1.29 347 21:46 07.07.2022
504 Clouds 26 1005 36 10000 1.72 6 19:34 07.07.2022
505 Clouds 28 1005 44 10000 2.31 29 17:43 07.07.2022
506 Clouds 30 1003 43 10000 3.92 66 15:58 07.07.2022
507 Clouds 32 1002 33 10000 2.75 59 13:32 07.07.2022
508 Clouds 31 1003 34 10000 2.06 54 12:40 07.07.2022
509 Clouds 31 1004 35 10000 1.61 56 12:21 07.07.2022
510 Clouds 31 1004 35 10000 1.61 56 11:32 07.07.2022
511 Clouds 30 1005 37 10000 1.49 61 10:45 07.07.2022
512 Clouds 29 1007 40 10000 1.47 55 10:26 07.07.2022
513 Clouds 28 1008 44 10000 1.49 49 08:40 07.07.2022
514 Clouds 24 1011 57 10000 0.88 29 05:44 07.07.2022
515 Clouds 22 1009 64 10000 0.8 38 23:54 06.07.2022
516 Clouds 22 1009 64 10000 0.8 38 23:36 06.07.2022
517 Clouds 22 1009 63 10000 0.74 19 23:18 06.07.2022
518 Clouds 22 1009 63 10000 0.74 19 22:46 06.07.2022
519 Clouds 23 1009 61 10000 0.57 78 22:28 06.07.2022
520 Clouds 22 1010 65 10000 1.95 190 19:45 06.07.2022
521 Clouds 21 1010 67 10000 1.42 218 18:41 06.07.2022
522 Clouds 20 1011 77 10000 1.03 168 16:43 06.07.2022
523 Clouds 19 1010 88 4169 3.24 182 15:39 06.07.2022
524 Clouds 29 1003 49 10000 4.96 355 12:44 06.07.2022
525 Clear 32 1001 37 10000 5.75 60 11:49 06.07.2022
526 Clear 32 1002 34 10000 3.09 71 10:22 06.07.2022
527 Clouds 31 1003 37 10000 2.18 62 08:41 06.07.2022
528 Clouds 30 1004 41 10000 2.12 62 07:36 06.07.2022
529 Clouds 27 1006 47 10000 1.23 48 05:31 06.07.2022
530 Clouds 25 1004 54 10000 0.68 185 22:49 05.07.2022
531 Clouds 25 1004 53 10000 0.7 160 21:59 05.07.2022
532 Clouds 25 1004 54 10000 0.2 298 20:41 05.07.2022
533 Clouds 26 1004 45 10000 1.18 185 19:43 05.07.2022
534 Clouds 26 1003 45 10000 1.56 216 19:22 05.07.2022
535 Clouds 28 1002 40 10000 1.67 207 17:48 05.07.2022
536 Clouds 30 1000 33 10000 1.31 60 16:56 05.07.2022
537 Clouds 31 999 34 10000 3.82 69 15:37 05.07.2022
538 Clouds 32 997 31 10000 5.79 72 14:31 05.07.2022
539 Clear 35 996 17 10000 3.67 27 12:47 05.07.2022
540 Clear 35 997 18 10000 2.34 24 11:52 05.07.2022
541 Clear 34 999 19 10000 1.72 24 10:42 05.07.2022
542 Clear 32 1001 23 10000 1.47 18 09:24 05.07.2022
543 Clouds 30 1002 26 10000 1.44 20 07:52 05.07.2022
544 Clouds 26 1005 42 10000 1.35 8 05:29 05.07.2022
545 Clouds 24 1005 44 10000 1.23 356 04:24 05.07.2022
546 Clouds 24 1003 40 10000 1.42 359 00:26 05.07.2022
547 Clouds 24 1003 40 10000 1.42 359 23:31 04.07.2022
548 Clouds 25 1003 43 10000 1.57 2 22:27 04.07.2022
549 Clouds 25 1003 43 10000 1.57 2 21:41 04.07.2022
550 Clouds 26 1002 45 10000 1.95 5 20:53 04.07.2022
551 Clouds 26 1002 45 10000 1.95 5 20:33 04.07.2022
552 Clouds 27 1002 43 10000 3.29 12 19:54 04.07.2022
553 Clouds 27 1002 43 10000 3.29 12 19:35 04.07.2022
554 Clear 29 1000 35 10000 2.99 33 17:58 04.07.2022
555 Clear 32 998 26 10000 5.2 54 15:50 04.07.2022
556 Clear 32 998 28 10000 5.06 55 15:31 04.07.2022
557 Clear 36 997 16 10000 5.27 68 13:29 04.07.2022
558 Clear 36 998 16 10000 4.26 61 12:20 04.07.2022
559 Clear 35 999 17 10000 3.33 55 10:34 04.07.2022
560 Clear 34 1000 20 10000 2.71 55 09:41 04.07.2022
561 Clear 32 1001 26 10000 2.11 45 07:33 04.07.2022
562 Clear 25 1004 64 10000 0.58 25 03:36 04.07.2022
563 Clear 24 1003 71 10000 1.27 34 00:35 04.07.2022
564 Clear 25 1002 66 10000 1.37 44 22:58 03.07.2022
565 Clear 26 1002 61 10000 2.04 62 20:58 03.07.2022
566 Clear 27 1002 58 10000 2.53 54 20:25 03.07.2022
567 Clear 27 1001 55 10000 2.48 54 19:27 03.07.2022
568 Clear 27 1001 55 10000 2.48 55 18:35 03.07.2022
569 Clear 28 1000 51 10000 2.63 61 17:43 03.07.2022
570 Clear 31 998 34 10000 5.6 85 15:49 03.07.2022
571 Clear 34 997 22 10000 5 77 14:58 03.07.2022
572 Clear 35 997 17 10000 3.07 57 14:18 03.07.2022
573 Clear 35 997 12 10000 1.98 35 13:48 03.07.2022
574 Clear 35 997 12 10000 1.72 30 12:33 03.07.2022
575 Clear 34 999 14 10000 1.31 24 11:20 03.07.2022
576 Clear 34 999 14 10000 1.31 21 10:38 03.07.2022
577 Clear 33 1000 16 10000 1.16 30 09:31 03.07.2022
578 Clear 30 1002 24 10000 1.19 34 07:34 03.07.2022
579 Clear 22 1003 47 10000 1.45 27 01:42 03.07.2022
580 Clear 23 1002 47 10000 1.83 29 23:50 02.07.2022
581 Clear 24 1002 41 10000 1.9 30 22:33 02.07.2022
582 Clear 26 1002 29 10000 2.27 24 20:37 02.07.2022
583 Clear 27 1001 22 10000 2.34 19 19:51 02.07.2022
584 Clear 28 1000 17 10000 2.7 16 19:20 02.07.2022
585 Clear 29 999 14 10000 2.73 10 17:41 02.07.2022
586 Clear 30 998 13 10000 3.02 12 16:49 02.07.2022
587 Clear 35 996 8 10000 1.96 32 13:52 02.07.2022
588 Clear 34 998 9 10000 1.57 87 12:19 02.07.2022
589 Clear 33 999 10 10000 1.4 99 10:54 02.07.2022
590 Clear 33 999 10 10000 1.4 99 10:33 02.07.2022
591 Clear 31 1001 11 10000 1.18 97 08:54 02.07.2022
592 Clear 30 1002 11 10000 1.21 68 08:19 02.07.2022
593 Clear 28 1003 13 10000 1.2 54 06:51 02.07.2022
594 Clear 22 1003 27 10000 1.23 344 01:44 02.07.2022
595 Clear 23 1002 30 10000 1.88 3 23:37 01.07.2022
596 Clear 24 1003 29 10000 1.52 360 22:40 01.07.2022
597 Clear 25 1003 26 10000 1.5 7 21:40 01.07.2022
598 Clear 25 1003 23 10000 1.51 11 20:59 01.07.2022
599 Clear 25 1003 23 10000 1.51 11 20:37 01.07.2022
600 Clear 26 1003 20 10000 1.28 25 19:41 01.07.2022
601 Clear 28 1002 16 10000 2.39 29 17:53 01.07.2022
602 Clear 31 999 13 10000 7.16 29 15:50 01.07.2022
603 Clear 34 998 9 10000 8.33 22 13:54 01.07.2022
604 Clear 35 999 8 10000 7.38 22 11:50 01.07.2022
605 Clear 34 1001 8 10000 2.05 28 10:20 01.07.2022
606 Clear 34 1001 8 10000 2.05 28 09:31 01.07.2022
607 Clear 25 1005 17 10000 1.09 284 03:42 01.07.2022
608 Clear 23 1004 20 10000 0.97 321 00:26 01.07.2022
609 Clear 24 1004 20 10000 1.14 333 22:58 30.06.2022
610 Clear 24 1004 20 10000 1.14 333 22:33 30.06.2022
611 Clear 25 1004 18 10000 1.56 342 21:59 30.06.2022
612 Clear 25 1004 18 10000 1.56 342 21:41 30.06.2022
613 Clear 26 1003 17 10000 1.21 25 20:29 30.06.2022
614 Clear 26 1003 17 10000 1.21 25 19:54 30.06.2022
615 Clear 27 1003 17 10000 1.78 359 19:19 30.06.2022
616 Clear 27 1003 17 10000 1.78 360 18:42 30.06.2022
617 Clear 28 1002 15 10000 2.55 14 17:43 30.06.2022
618 Clear 30 1000 14 10000 3.76 16 16:48 30.06.2022
619 Clear 32 999 12 10000 6.08 18 15:38 30.06.2022
620 Clear 34 997 10 10000 9.58 10 13:34 30.06.2022
621 Clear 35 998 9 10000 8.45 15 12:35 30.06.2022
622 Clear 35 998 8 10000 6.05 16 11:37 30.06.2022
623 Clear 33 1001 9 10000 2.06 27 09:54 30.06.2022
624 Clear 33 1001 9 10000 2.11 23 09:34 30.06.2022
625 Clear 31 1003 10 10000 1.44 39 08:18 30.06.2022
626 Clear 28 1005 14 10000 0.91 31 06:21 30.06.2022
627 Clear 22 1003 23 10000 1.17 330 01:29 30.06.2022
628 Clear 23 1002 22 10000 1.03 339 23:34 29.06.2022
629 Clear 23 1002 21 10000 1.24 349 22:40 29.06.2022
630 Clear 24 1002 20 10000 1.47 357 21:39 29.06.2022
631 Clear 25 1002 18 10000 1.64 359 20:34 29.06.2022
632 Clear 26 1002 18 10000 1.68 356 19:37 29.06.2022
633 Clear 28 1001 16 10000 1.78 10 17:45 29.06.2022
634 Clear 29 1000 15 10000 2.43 15 16:41 29.06.2022
635 Clear 34 998 10 10000 5.35 21 15:26 29.06.2022
636 Clear 35 998 8 10000 2.37 45 12:47 29.06.2022
637 Clear 34 998 8 10000 1.92 57 11:32 29.06.2022
638 Clear 33 1000 9 10000 1.44 71 09:33 29.06.2022
639 Clear 30 1002 12 10000 1.36 52 08:26 29.06.2022
640 Clear 26 1004 18 10000 0.81 6 05:19 29.06.2022
641 Clear 22 1003 26 10000 0.86 346 01:48 29.06.2022
642 Clear 23 1003 25 10000 0.98 357 00:37 29.06.2022
643 Clear 24 1002 23 10000 1.29 359 22:56 28.06.2022
644 Clear 24 1002 23 10000 1.29 359 22:34 28.06.2022
645 Clear 25 1002 22 10000 1.37 8 21:55 28.06.2022
646 Clear 25 1002 22 10000 1.37 8 21:33 28.06.2022
647 Clear 26 1003 20 10000 1.57 5 20:50 28.06.2022
648 Clear 26 1003 19 10000 1.46 358 19:34 28.06.2022
649 Clear 27 1003 18 10000 1.75 8 18:53 28.06.2022
650 Clear 28 1002 17 10000 1.94 18 17:42 28.06.2022
651 Clear 31 1001 13 10000 6.28 23 16:24 28.06.2022
652 Clear 31 1001 13 10000 6.35 22 15:53 28.06.2022
653 Clear 34 1000 10 10000 7.84 11 14:21 28.06.2022
654 Clear 35 999 10 10000 6.79 8 13:54 28.06.2022
655 Clear 35 999 11 10000 2.82 18 13:20 28.06.2022
656 Clear 34 1001 12 10000 1.34 55 11:21 28.06.2022
657 Clear 33 1002 13 10000 1.29 68 09:36 28.06.2022
658 Clear 32 1003 14 10000 1.2 64 08:44 28.06.2022
659 Clear 31 1004 17 10000 1.15 52 07:43 28.06.2022
660 Clear 30 1005 18 10000 1.01 49 07:19 28.06.2022
661 Clear 23 1006 33 10000 0.95 324 01:33 28.06.2022
662 Clear 24 1005 33 10000 1.33 354 23:44 27.06.2022
663 Clear 25 1005 28 10000 1.41 358 22:54 27.06.2022
664 Clear 26 1005 28 10000 1.63 23 21:38 27.06.2022
665 Clear 27 1005 27 10000 1.81 30 20:53 27.06.2022
666 Clear 27 1005 25 10000 1.78 23 19:40 27.06.2022
667 Clear 28 1005 24 10000 1.87 23 18:33 27.06.2022
668 Clear 31 1002 18 10000 1.83 42 16:36 27.06.2022
669 Clear 33 1002 12 10000 1.44 53 15:24 27.06.2022
670 Clear 34 1002 12 10000 1.35 67 13:39 27.06.2022
671 Clear 33 1003 13 10000 1.39 73 12:56 27.06.2022
672 Clear 33 1004 15 10000 1.54 57 10:35 27.06.2022
673 Clear 31 1006 18 10000 1.06 50 09:23 27.06.2022
674 Clear 31 1006 18 10000 1.06 50 08:31 27.06.2022
675 Clear 30 1007 19 10000 1.38 44 07:38 27.06.2022
676 Clear 25 1009 21 10000 0.9 356 03:58 27.06.2022
677 Clear 22 1007 26 10000 0.46 346 01:18 27.06.2022
678 Clear 24 1006 22 10000 0.99 2 22:27 26.06.2022
679 Clear 25 1006 21 10000 1.1 20 20:53 26.06.2022
680 Clear 26 1006 19 10000 1.72 30 19:59 26.06.2022
681 Clear 27 1006 17 10000 1.76 32 18:32 26.06.2022
682 Clear 28 1005 15 10000 1.39 45 17:33 26.06.2022
683 Clear 31 1003 13 10000 1.28 45 15:31 26.06.2022
684 Clear 32 1003 9 10000 2.43 54 13:55 26.06.2022
685 Clear 32 1003 9 10000 2.22 55 13:23 26.06.2022
686 Clear 32 1004 10 10000 1.99 60 11:31 26.06.2022
687 Clear 31 1005 11 10000 1.27 60 10:28 26.06.2022
688 Clear 31 1005 11 10000 1.27 60 10:28 26.06.2022
689 Clear 31 1005 11 10000 1.27 60 09:39 26.06.2022
690 Clear 28 1007 13 10000 1.28 61 07:46 26.06.2022
691 Clear 21 1008 26 10000 1.14 303 03:19 26.06.2022
692 Clear 21 1006 26 10000 0.89 308 00:36 26.06.2022
693 Clear 21 1006 25 10000 0.98 319 00:18 26.06.2022
694 Clear 22 1006 24 10000 0.94 338 23:24 25.06.2022
695 Clear 23 1006 23 10000 0.81 346 22:28 25.06.2022
696 Clear 23 1006 23 10000 0.81 346 21:50 25.06.2022
697 Clear 23 1006 22 10000 0.81 4 21:20 25.06.2022
698 Clear 23 1006 22 10000 0.81 4 20:30 25.06.2022
699 Clear 24 1006 21 10000 0.93 6 19:55 25.06.2022
700 Clear 24 1006 21 10000 0.85 353 19:55 25.06.2022
701 Clear 26 1005 18 10000 2.1 12 18:21 25.06.2022
702 Clear 27 1004 17 10000 3.62 8 17:25 25.06.2022
703 Clouds 29 1003 14 10000 6.27 16 16:24 25.06.2022
704 Clear 31 1002 12 10000 7.6 14 13:51 25.06.2022
705 Clear 32 1002 12 10000 6.84 18 12:39 25.06.2022
706 Clear 32 1002 12 10000 6.39 20 11:34 25.06.2022
707 Clear 30 1005 13 10000 1.77 36 09:22 25.06.2022
708 Clear 30 1005 13 10000 1.77 36 08:46 25.06.2022
709 Clear 29 1006 14 10000 1.88 45 08:19 25.06.2022
710 Clear 25 1008 19 10000 0.84 359 05:26 25.06.2022
711 Clear 20 1006 25 10000 0.66 336 00:44 25.06.2022
712 Clear 20 1006 25 10000 0.66 336 00:44 25.06.2022
713 Clear 22 1006 22 10000 0.53 304 23:18 24.06.2022
714 Clear 22 1006 22 10000 1.16 319 21:57 24.06.2022
715 Clear 23 1007 21 10000 1.36 303 21:19 24.06.2022
716 Clear 24 1007 19 10000 1.59 325 20:20 24.06.2022
717 Clear 24 1007 19 10000 1.59 325 20:20 24.06.2022
718 Clear 25 1007 17 10000 2.23 340 19:22 24.06.2022
719 Clear 25 1007 17 10000 2.23 340 18:49 24.06.2022
720 Clear 25 1007 17 10000 2.23 340 18:30 24.06.2022
721 Clear 26 1007 16 10000 3.14 350 17:46 24.06.2022
722 Clear 29 1004 12 10000 7.75 8 15:56 24.06.2022
723 Clear 32 1003 8 10000 8.47 13 14:29 24.06.2022
724 Clear 32 1003 9 10000 4.94 11 13:55 24.06.2022
725 Clear 32 1003 9 10000 4.94 11 13:55 24.06.2022
726 Clear 31 1005 11 10000 0.9 58 11:54 24.06.2022
727 Clear 31 1005 11 10000 0.9 58 11:34 24.06.2022
728 Clear 30 1006 14 10000 1.71 119 10:22 24.06.2022
729 Clear 30 1006 14 10000 1.71 119 09:40 24.06.2022
730 Clear 29 1007 16 10000 1.4 125 08:52 24.06.2022
731 Clear 26 1009 23 10000 1.19 177 06:58 24.06.2022
732 Clear 26 1009 23 10000 1.21 175 06:40 24.06.2022
733 Clear 24 1009 26 10000 1.05 187 05:57 24.06.2022
734 Clear 19 1010 40 10000 1.12 235 02:31 24.06.2022
735 Clear 20 1009 36 10000 1.5 214 22:57 23.06.2022
736 Clear 20 1009 36 10000 1.5 214 22:38 23.06.2022
737 Clear 21 1010 37 10000 0.82 273 20:57 23.06.2022
738 Clear 21 1010 37 10000 0.82 273 20:32 23.06.2022
739 Clear 22 1010 31 10000 1.34 311 19:24 23.06.2022
740 Clear 23 1010 29 10000 1.44 331 17:50 23.06.2022
741 Clear 23 1009 30 10000 1.35 7 16:58 23.06.2022
742 Clear 25 1009 26 10000 0.63 70 15:49 23.06.2022
743 Clear 25 1009 24 10000 0.63 108 15:24 23.06.2022
744 Clear 25 1009 22 10000 1.17 80 13:32 23.06.2022
745 Clear 24 1012 26 10000 0.55 87 11:23 23.06.2022
746 Clear 24 1012 26 10000 0.55 87 10:31 23.06.2022
747 Clear 21 1014 34 10000 0.59 155 08:49 23.06.2022
748 Clear 12 1018 72 10000 0.87 199 02:46 23.06.2022
749 Clouds 12 1017 77 10000 0.65 231 00:26 23.06.2022
750 Clouds 12 1018 77 10000 0.59 331 23:27 22.06.2022
751 Clouds 12 1018 77 10000 0.59 331 22:39 22.06.2022
752 Clouds 12 1019 78 10000 1.04 16 21:22 22.06.2022
753 Clouds 12 1020 80 10000 0.82 183 20:34 22.06.2022
754 Clouds 14 1018 58 10000 1 162 19:52 22.06.2022
755 Rain 14 1018 56 10000 0.44 138 18:40 22.06.2022
756 Rain 15 1016 55 10000 3.18 38 17:26 22.06.2022
757 Clouds 15 1016 52 10000 2.83 37 16:18 22.06.2022
758 Clouds 15 1015 52 10000 2.65 40 15:26 22.06.2022
759 Clouds 15 1015 51 10000 2.18 47 14:18 22.06.2022
760 Rain 15 1015 53 10000 2.22 10 13:37 22.06.2022
761 Clouds 15 1015 52 10000 2.88 33 13:18 22.06.2022
762 Clouds 14 1015 57 10000 2.64 2 11:48 22.06.2022
763 Clouds 14 1015 59 10000 3.61 16 10:54 22.06.2022
764 Clouds 13 1016 64 10000 4.7 18 09:59 22.06.2022
765 Clouds 12 1014 67 10000 3.91 48 07:58 22.06.2022
766 Rain 9 1011 82 10000 1.56 99 03:40 22.06.2022
767 Rain 10 1007 83 6058 0.4 221 01:23 22.06.2022
768 Rain 10 1007 82 6757 0.92 237 23:42 21.06.2022
769 Clouds 11 1007 70 10000 1.16 137 21:49 21.06.2022
770 Clouds 14 1006 58 10000 2.26 87 19:50 21.06.2022
771 Rain 14 1005 56 10000 1.82 120 18:32 21.06.2022
772 Rain 14 1005 54 10000 2.04 111 17:31 21.06.2022
773 Clouds 16 1003 46 10000 3.14 82 13:45 21.06.2022
774 Rain 14 1005 58 10000 4.03 112 11:31 21.06.2022
775 Clouds 18 1002 35 10000 5.67 81 09:48 21.06.2022
776 Clouds 18 1003 35 10000 4.8 79 08:47 21.06.2022
777 Clouds 18 1003 35 10000 2.65 34 06:35 21.06.2022
778 Clouds 14 1003 45 10000 1.41 11 00:44 21.06.2022
779 Clouds 16 1004 38 10000 1.69 26 23:24 20.06.2022
780 Clouds 17 1004 36 10000 1.75 30 21:54 20.06.2022
781 Clouds 17 1004 34 10000 2.05 27 20:50 20.06.2022
782 Clouds 17 1004 35 10000 2.14 61 19:39 20.06.2022
783 Clouds 18 1004 35 10000 2.36 41 18:45 20.06.2022
784 Clouds 18 1004 33 10000 3.72 20 17:59 20.06.2022
785 Clouds 18 1004 33 10000 3.72 20 17:32 20.06.2022
786 Clouds 21 1001 26 10000 10.46 19 15:56 20.06.2022
787 Clouds 26 999 19 10000 7.75 23 12:54 20.06.2022
788 Clouds 27 1000 18 10000 6.47 30 10:58 20.06.2022
789 Clouds 25 1001 20 10000 2.65 38 09:41 20.06.2022
790 Clear 24 1002 23 10000 0.96 56 08:44 20.06.2022
791 Clear 20 1006 32 10000 1.59 38 06:19 20.06.2022
792 Clear 15 1006 41 10000 1.12 356 02:29 20.06.2022
793 Clear 16 1006 38 10000 0.65 3 00:26 20.06.2022
794 Clear 17 1006 36 10000 0.56 31 22:59 19.06.2022
795 Clear 17 1007 35 10000 0.79 39 21:58 19.06.2022
796 Clear 17 1007 35 10000 0.79 39 21:40 19.06.2022
797 Clear 18 1006 34 10000 1.8 4 20:39 19.06.2022
798 Clouds 19 1006 31 10000 3.88 353 19:48 19.06.2022
799 Clouds 20 1006 28 10000 5.49 345 18:57 19.06.2022
800 Clouds 20 1006 28 10000 5.49 345 18:30 19.06.2022
801 Clouds 22 1004 24 10000 7.04 359 17:22 19.06.2022
802 Clouds 22 1004 24 10000 7.04 359 16:35 19.06.2022
803 Clouds 24 1003 21 10000 8.22 358 15:43 19.06.2022
804 Clouds 26 1002 18 10000 8.73 358 15:24 19.06.2022
805 Clouds 27 1001 14 10000 11.1 348 14:20 19.06.2022
806 Clouds 27 1001 14 10000 11.1 348 14:20 19.06.2022
807 Clouds 27 1001 14 10000 11.1 348 13:37 19.06.2022
808 Clear 28 1001 13 10000 10.3 11 11:40 19.06.2022
809 Clear 28 1002 14 10000 8.81 6 10:47 19.06.2022
810 Clear 27 1004 15 10000 7.18 0 08:54 19.06.2022
811 Clear 26 1005 17 10000 3.92 359 08:22 19.06.2022
812 Clear 23 1007 20 10000 2.69 344 05:59 19.06.2022
813 Clear 17 1008 32 10000 1.67 278 02:59 19.06.2022
814 Clear 17 1007 32 10000 0.95 294 00:26 19.06.2022
815 Clear 17 1007 32 10000 0.95 294 23:36 18.06.2022
816 Clear 18 1007 31 10000 0.82 315 22:55 18.06.2022
817 Clear 18 1007 30 10000 0.94 338 21:52 18.06.2022
818 Clear 19 1007 28 10000 1.92 358 20:49 18.06.2022
819 Clear 20 1007 26 10000 3.28 358 19:48 18.06.2022
820 Clear 21 1006 24 10000 4.22 5 18:54 18.06.2022
821 Clear 22 1006 22 10000 4.85 12 17:54 18.06.2022
822 Clouds 23 1004 21 10000 4.82 18 17:23 18.06.2022
823 Clouds 25 1003 18 10000 7.24 18 15:38 18.06.2022
824 Clear 26 1002 16 10000 8.74 21 14:49 18.06.2022
825 Clear 27 1001 15 10000 9.7 19 13:54 18.06.2022
826 Clear 29 1002 14 10000 6.98 26 11:58 18.06.2022
827 Clear 28 1002 14 10000 4.11 24 10:57 18.06.2022
828 Clear 26 1005 16 10000 1.86 23 09:29 18.06.2022
829 Clear 26 1005 16 10000 1.86 23 08:33 18.06.2022
830 Clear 25 1005 18 10000 1.59 17 07:32 18.06.2022
831 Clear 19 1008 28 10000 0.82 269 04:20 18.06.2022
832 Clear 17 1007 36 10000 1.38 286 01:27 18.06.2022
833 Clear 17 1007 36 10000 1.38 286 01:27 18.06.2022
834 Clear 17 1007 36 10000 1.38 286 00:50 18.06.2022
835 Clear 17 1007 35 10000 1.35 306 00:22 18.06.2022
836 Clear 18 1007 35 10000 0.77 315 23:29 17.06.2022
837 Clear 18 1007 33 10000 0.88 358 21:44 17.06.2022
838 Clear 20 1007 30 10000 2.18 2 20:29 17.06.2022
839 Clear 21 1006 28 10000 3.19 356 19:19 17.06.2022
840 Clear 22 1005 27 10000 3.94 1 17:47 17.06.2022
841 Clear 23 1004 25 10000 5.18 354 16:44 17.06.2022
842 Clouds 25 1003 22 10000 7.83 354 16:19 17.06.2022
843 Clouds 25 1003 22 10000 7.83 354 15:37 17.06.2022
844 Clouds 28 1001 17 10000 8.45 3 14:23 17.06.2022
845 Clouds 28 1000 16 10000 8.84 3 13:57 17.06.2022
846 Clouds 28 1000 16 10000 8.84 3 13:37 17.06.2022
847 Clouds 28 1002 16 10000 7.04 7 12:20 17.06.2022
848 Clouds 28 1002 16 10000 7.04 7 11:49 17.06.2022
849 Clouds 28 1002 16 10000 7.04 7 11:30 17.06.2022
850 Clear 28 1003 16 10000 7.65 16 08:45 17.06.2022
851 Clouds 27 1004 17 10000 5.65 11 08:24 17.06.2022
852 Clouds 26 1005 19 10000 3.43 12 06:35 17.06.2022
853 Clouds 20 1006 26 10000 1.18 15 03:25 17.06.2022
854 Clouds 21 1005 21 10000 2.3 1 01:27 17.06.2022
855 Clouds 22 1005 21 10000 1.32 359 23:34 16.06.2022
856 Clouds 22 1005 20 10000 1.63 349 22:40 16.06.2022
857 Clouds 23 1006 19 10000 1.11 46 21:21 16.06.2022
858 Clouds 23 1006 19 10000 1.11 46 20:50 16.06.2022
859 Clear 22 1006 19 10000 0.97 62 20:21 16.06.2022
860 Clouds 23 1005 18 10000 1.39 20 18:51 16.06.2022
861 Clouds 24 1004 16 10000 3.54 359 17:50 16.06.2022
862 Clouds 26 1004 15 10000 5.7 0 17:27 16.06.2022
863 Clouds 27 1003 13 10000 7.62 5 16:20 16.06.2022
864 Clouds 29 1001 12 10000 8.64 5 15:21 16.06.2022
865 Clear 31 1001 11 10000 8.84 7 14:27 16.06.2022
866 Clear 32 1001 10 10000 7.12 11 12:53 16.06.2022
867 Clear 32 1001 10 10000 7.12 11 12:34 16.06.2022
868 Clear 32 1001 10 10000 4.92 29 11:48 16.06.2022
869 Clear 31 1002 11 10000 2.77 41 10:41 16.06.2022
870 Clear 31 1003 12 10000 1.9 33 09:43 16.06.2022
871 Clear 30 1004 13 10000 1.65 36 08:59 16.06.2022
872 Clear 29 1005 16 10000 1.76 37 07:42 16.06.2022
873 Clear 27 1005 18 10000 1.58 34 06:36 16.06.2022
874 Clear 23 1007 24 10000 0.74 324 04:24 16.06.2022
875 Clear 20 1006 30 10000 1.05 324 01:52 16.06.2022
876 Clear 21 1005 29 10000 1.09 340 01:29 16.06.2022
877 Clear 21 1005 28 10000 0.93 337 00:29 16.06.2022
878 Clear 22 1005 26 10000 0.78 340 22:54 15.06.2022
879 Clear 23 1005 25 10000 0.51 7 21:48 15.06.2022
880 Clear 23 1005 23 10000 1.04 9 21:19 15.06.2022
881 Clear 23 1005 23 10000 1.04 9 20:37 15.06.2022
882 Clear 24 1005 21 10000 1.77 15 20:18 15.06.2022
883 Clear 25 1005 21 10000 1.36 14 18:47 15.06.2022
884 Clear 26 1004 18 10000 2.99 11 17:53 15.06.2022
885 Clear 27 1003 16 10000 4.27 12 16:34 15.06.2022
886 Clear 31 1001 11 10000 8.29 11 15:22 15.06.2022
887 Clear 33 1000 8 10000 4.04 31 13:29 15.06.2022
888 Clear 33 1000 8 10000 4.04 31 12:47 15.06.2022
889 Clear 33 1001 8 10000 2.45 47 11:37 15.06.2022
890 Clear 31 1003 10 10000 1.36 60 10:22 15.06.2022
891 Clear 31 1003 10 10000 1.36 60 09:34 15.06.2022
892 Clear 29 1005 15 10000 1.35 41 07:58 15.06.2022
893 Clear 26 1007 23 10000 1.17 26 05:58 15.06.2022
894 Clear 20 1008 36 10000 0.69 319 03:28 15.06.2022
895 Clear 19 1007 35 10000 0.78 336 01:37 15.06.2022
896 Clear 20 1007 34 10000 1.07 344 00:41 15.06.2022
897 Clear 20 1007 31 10000 1.42 335 23:38 14.06.2022
898 Clear 21 1007 31 10000 1.1 338 22:51 14.06.2022
899 Clear 21 1007 28 10000 1.41 5 21:47 14.06.2022
900 Clear 22 1007 26 10000 1.5 359 21:26 14.06.2022
901 Clear 22 1007 26 10000 1.5 359 20:41 14.06.2022
902 Clouds 23 1007 25 10000 1.14 21 19:58 14.06.2022
903 Clouds 24 1006 27 10000 1.51 23 18:45 14.06.2022
904 Clouds 27 1005 21 10000 3.7 2 17:29 14.06.2022
905 Clouds 27 1005 21 10000 3.7 2 16:43 14.06.2022
906 Clouds 29 1004 19 10000 6.82 3 15:49 14.06.2022
907 Clouds 31 1003 14 10000 6.02 3 14:56 14.06.2022
908 Clear 32 1002 12 10000 3.26 38 14:18 14.06.2022
909 Clear 32 1002 13 10000 2.44 16 13:32 14.06.2022
910 Clear 32 1003 13 10000 2.5 69 12:25 14.06.2022
911 Clear 31 1004 14 10000 1.96 76 10:59 14.06.2022
912 Clear 31 1004 14 10000 1.96 76 10:59 14.06.2022
913 Clear 31 1005 16 10000 1.4 80 10:29 14.06.2022
914 Clear 30 1007 18 10000 0.91 83 09:28 14.06.2022
915 Clear 30 1007 18 10000 0.91 83 08:41 14.06.2022
916 Clear 27 1009 25 10000 0.29 125 06:54 14.06.2022
917 Clear 22 1010 36 10000 0.76 247 04:27 14.06.2022
918 Clear 19 1009 45 10000 0.66 224 01:50 14.06.2022
919 Clear 20 1008 44 10000 0.55 291 00:27 14.06.2022
920 Clear 20 1008 43 10000 0.83 290 22:59 13.06.2022
921 Clear 21 1008 42 10000 1.05 281 22:23 13.06.2022
922 Clear 21 1008 42 10000 1.05 281 21:41 13.06.2022
923 Clouds 22 1008 37 10000 0.86 195 19:59 13.06.2022
924 Clouds 22 1008 36 10000 0.54 254 19:25 13.06.2022
925 Clouds 24 1008 33 10000 2.12 348 17:57 13.06.2022
926 Clouds 23 1008 34 10000 0.8 196 17:27 13.06.2022
927 Clouds 23 1008 34 10000 0.8 196 16:31 13.06.2022
928 Clouds 26 1006 27 10000 5.88 10 14:52 13.06.2022
929 Clouds 26 1006 27 10000 5.88 10 14:32 13.06.2022
930 Clouds 28 1005 21 10000 6.57 351 13:36 13.06.2022
931 Clear 30 1004 15 10000 2.65 357 12:23 13.06.2022
932 Clear 30 1005 15 10000 1.19 129 10:58 13.06.2022
933 Clear 29 1007 19 10000 0.34 64 10:26 13.06.2022
934 Clear 27 1008 24 10000 0.45 62 09:00 13.06.2022
935 Clear 24 1010 30 10000 0.93 52 06:55 13.06.2022
936 Clear 23 1011 34 10000 0.92 29 05:36 13.06.2022
937 Clear 18 1011 47 10000 1.05 358 02:47 13.06.2022
938 Clear 17 1010 46 10000 1.07 5 01:36 13.06.2022
939 Clear 18 1009 45 10000 0.28 328 23:50 12.06.2022
940 Clear 18 1009 45 10000 0.08 39 22:44 12.06.2022
941 Clear 18 1009 45 10000 0.51 138 21:58 12.06.2022
942 Clear 19 1009 40 10000 0.3 29 20:54 12.06.2022
943 Clear 20 1008 40 10000 0.94 357 20:19 12.06.2022
944 Clear 20 1008 40 10000 0.94 357 19:30 12.06.2022
945 Clouds 21 1007 38 10000 2.7 22 17:41 12.06.2022
946 Clear 23 1004 29 10000 4.42 66 15:58 12.06.2022
947 Clear 26 1003 22 10000 7.87 74 14:56 12.06.2022
948 Clouds 28 1002 19 10000 5.74 55 14:20 12.06.2022
949 Clouds 28 1002 19 10000 5.74 55 13:49 12.06.2022
950 Clouds 28 1002 19 10000 4.1 39 12:35 12.06.2022
951 Clouds 29 1002 19 10000 4.72 7 11:36 12.06.2022
952 Clear 30 1002 14 10000 0.78 75 10:22 12.06.2022
953 Clear 29 1004 18 10000 0.53 110 08:54 12.06.2022
954 Clear 29 1004 18 10000 0.53 110 08:35 12.06.2022
955 Clear 27 1006 21 10000 1.12 70 07:32 12.06.2022
956 Clear 23 1007 30 10000 0.88 16 04:35 12.06.2022
957 Clear 19 1007 39 10000 0.85 230 02:38 12.06.2022
958 Clouds 19 1006 38 10000 0.55 171 01:36 12.06.2022
959 Clouds 19 1006 37 10000 0.97 314 00:58 12.06.2022
960 Clouds 20 1006 36 10000 0.94 337 00:20 12.06.2022
961 Clouds 20 1006 34 10000 0.74 345 23:29 11.06.2022
962 Clouds 20 1006 34 10000 0.74 345 22:38 11.06.2022
963 Clouds 21 1006 32 10000 1.5 5 21:37 11.06.2022
964 Clouds 21 1006 30 10000 1.86 356 20:33 11.06.2022
965 Clouds 23 1006 26 10000 2.41 345 19:39 11.06.2022
966 Clouds 23 1005 25 10000 1.78 336 18:56 11.06.2022
967 Clouds 23 1005 25 10000 1.78 336 18:33 11.06.2022
968 Clouds 23 1005 25 10000 0.86 245 17:50 11.06.2022
969 Clouds 24 1004 23 10000 1.7 186 17:26 11.06.2022
970 Clouds 24 1004 23 10000 1.7 186 16:50 11.06.2022
971 Clouds 27 1003 19 10000 1.78 232 16:26 11.06.2022
972 Clouds 28 1002 16 10000 2.63 281 15:27 11.06.2022
973 Clouds 28 1002 16 10000 7.16 296 13:53 11.06.2022
974 Clouds 28 1002 16 10000 7.16 296 13:53 11.06.2022
975 Clouds 30 1001 13 10000 4.69 357 12:25 11.06.2022
976 Clouds 28 1003 17 10000 4.36 341 10:46 11.06.2022
977 Clouds 29 1004 17 10000 7.3 329 09:43 11.06.2022
978 Clouds 29 1004 14 10000 1.52 47 08:46 11.06.2022
979 Clear 27 1006 17 10000 1.17 38 06:47 11.06.2022
980 Clear 25 1006 19 10000 1.03 20 06:24 11.06.2022
981 Clear 22 1007 24 10000 0.62 298 03:46 11.06.2022
982 Clouds 18 1006 30 10000 0.61 334 01:52 11.06.2022
983 Clouds 19 1006 30 10000 0.53 355 01:26 11.06.2022
984 Clouds 21 1005 29 10000 1.05 342 23:29 10.06.2022
985 Clouds 21 1006 28 10000 1.11 344 22:29 10.06.2022
986 Clouds 21 1006 28 10000 1.11 344 21:47 10.06.2022
987 Clouds 23 1006 25 10000 1.75 350 20:39 10.06.2022
988 Clouds 22 1005 27 10000 1.09 344 20:21 10.06.2022
989 Clouds 23 1005 26 10000 0.71 290 19:19 10.06.2022
990 Clouds 23 1005 26 10000 0.71 290 19:19 10.06.2022
991 Clouds 23 1005 26 10000 0.71 290 18:46 10.06.2022
992 Clouds 25 1004 24 10000 0.55 336 17:54 10.06.2022
993 Clouds 26 1004 21 10000 2.69 333 17:23 10.06.2022
994 Clouds 26 1004 21 10000 2.69 333 16:36 10.06.2022
995 Clouds 26 1003 20 10000 3.5 291 15:40 10.06.2022
996 Clouds 29 1001 14 10000 4.34 339 14:29 10.06.2022
997 Clouds 29 1001 14 10000 3.74 346 13:19 10.06.2022
998 Clouds 29 1002 17 10000 8.25 322 11:59 10.06.2022
999 Clear 30 1002 11 10000 2.36 341 10:51 10.06.2022
1000 Clear 29 1003 11 10000 0.57 8 09:57 10.06.2022
1001 Clear 28 1004 12 10000 1.17 27 08:58 10.06.2022
1002 Clear 27 1005 13 10000 1.32 46 07:50 10.06.2022
1003 Clear 26 1006 15 10000 1.12 42 06:47 10.06.2022
1004 Clear 24 1007 17 10000 0.54 14 06:28 10.06.2022
1005 Clear 23 1008 19 10000 0.56 320 04:53 10.06.2022
1006 Clear 18 1007 26 10000 0.66 341 01:59 10.06.2022
1007 Clouds 18 1007 26 10000 0.88 308 01:36 10.06.2022
1008 Clouds 18 1007 26 10000 0.88 308 01:36 10.06.2022
1009 Clear 19 1006 24 10000 1.13 349 23:57 09.06.2022
1010 Clear 20 1006 23 10000 1.01 347 22:24 09.06.2022
1011 Clear 20 1006 23 10000 1.01 347 21:43 09.06.2022
1012 Clear 21 1006 22 10000 1.47 343 21:24 09.06.2022
1013 Clear 21 1006 22 10000 1.47 343 20:36 09.06.2022
1014 Clouds 21 1006 21 10000 1.6 356 19:41 09.06.2022
1015 Clouds 23 1006 19 10000 1.67 22 18:36 09.06.2022
1016 Clouds 25 1004 18 10000 3.39 349 17:28 09.06.2022
1017 Clouds 27 1003 14 10000 5.36 343 16:28 09.06.2022
1018 Clouds 29 1001 11 10000 7.16 5 14:45 09.06.2022
1019 Clear 30 1000 12 10000 4.5 3 14:24 09.06.2022
1020 Clouds 30 1000 13 10000 4.92 358 13:30 09.06.2022
1021 Clouds 28 1001 16 10000 3.62 4 12:46 09.06.2022
1022 Clear 30 1001 12 10000 1.7 22 11:20 09.06.2022
1023 Clear 29 1003 13 10000 1.21 8 09:55 09.06.2022
1024 Clear 29 1003 13 10000 1.21 8 09:55 09.06.2022
1025 Clear 29 1003 13 10000 1.21 8 09:36 09.06.2022
1026 Clouds 27 1005 15 10000 1.43 29 08:27 09.06.2022
1027 Clear 25 1006 17 10000 1.41 25 07:23 09.06.2022
1028 Clear 18 1008 30 10000 0.92 334 03:28 09.06.2022
1029 Clouds 18 1006 29 10000 1.03 348 23:55 08.06.2022
1030 Clouds 19 1006 28 10000 1.02 342 22:59 08.06.2022
1031 Clouds 20 1006 28 10000 1.27 354 22:27 08.06.2022
1032 Clouds 20 1006 28 10000 1.27 354 21:57 08.06.2022
1033 Clouds 20 1006 28 10000 1.27 354 21:31 08.06.2022
1034 Clouds 22 1006 25 10000 2.4 354 20:24 08.06.2022
1035 Clouds 21 1006 23 10000 2.32 0 19:39 08.06.2022
1036 Clouds 21 1006 23 10000 2.32 0 19:39 08.06.2022
1037 Clouds 22 1006 25 10000 1.07 331 18:48 08.06.2022
1038 Clouds 23 1005 23 10000 0.69 234 17:35 08.06.2022
1039 Clouds 25 1004 22 10000 5.34 307 15:52 08.06.2022
1040 Clouds 30 1001 13 10000 4.09 15 14:18 08.06.2022
1041 Clouds 29 1002 15 10000 1.55 63 12:46 08.06.2022
1042 Clouds 26 1004 20 10000 1.77 90 11:35 08.06.2022
1043 Clouds 21 1008 39 10000 3.45 304 10:37 08.06.2022
1044 Clear 29 1005 16 10000 1.49 64 09:28 08.06.2022
1045 Clear 29 1005 16 10000 1.49 64 08:49 08.06.2022
1046 Clear 26 1007 20 10000 0.9 42 06:36 08.06.2022
1047 Clear 22 1008 28 10000 0.73 231 04:22 08.06.2022
1048 Clouds 19 1006 33 10000 0.46 305 00:56 08.06.2022
1049 Clouds 19 1006 33 10000 0.76 316 23:31 07.06.2022
1050 Clouds 20 1006 32 10000 0.73 340 22:49 07.06.2022
1051 Clouds 20 1006 32 10000 0.73 340 22:31 07.06.2022
1052 Clouds 20 1007 31 10000 1.1 6 21:35 07.06.2022
1053 Clouds 21 1007 31 10000 1.06 346 20:59 07.06.2022
1054 Clouds 21 1007 31 10000 1.06 346 20:33 07.06.2022
1055 Clouds 21 1007 31 10000 1.46 332 19:48 07.06.2022
1056 Clouds 22 1007 29 10000 1.64 328 18:24 07.06.2022
1057 Clouds 22 1007 29 10000 1.64 328 17:31 07.06.2022
1058 Clouds 23 1006 27 10000 1.55 1 16:43 07.06.2022
1059 Clouds 25 1005 24 10000 3.65 350 15:57 07.06.2022
1060 Clouds 27 1003 20 10000 7.27 328 15:27 07.06.2022
1061 Clouds 27 1003 20 10000 7.27 328 14:52 07.06.2022
1062 Clouds 27 1003 20 10000 7.27 328 14:34 07.06.2022
1063 Clouds 30 1001 11 10000 8.17 12 13:32 07.06.2022
1064 Clouds 31 1001 10 10000 7.54 5 12:52 07.06.2022
1065 Clouds 31 1001 9 10000 4.47 356 11:49 07.06.2022
1066 Clear 31 1002 9 10000 1.3 216 10:27 07.06.2022
1067 Clear 30 1003 11 10000 1.04 164 08:53 07.06.2022
1068 Clear 28 1005 15 10000 0.3 139 07:35 07.06.2022
1069 Clear 27 1006 19 10000 0.37 93 06:39 07.06.2022
1070 Clear 24 1007 24 10000 0.22 250 04:39 07.06.2022
1071 Clear 18 1006 33 10000 0.53 293 01:27 07.06.2022
1072 Clear 19 1006 33 10000 0.3 10 23:52 06.06.2022
1073 Clear 19 1006 32 10000 0.6 340 22:54 06.06.2022
1074 Clear 20 1006 31 10000 1.1 326 22:29 06.06.2022
1075 Clear 21 1006 29 10000 1.16 347 20:43 06.06.2022
1076 Clouds 23 1006 27 10000 1.14 346 19:28 06.06.2022
1077 Clouds 23 1006 27 10000 1.14 346 18:49 06.06.2022
1078 Clouds 24 1005 24 10000 2.04 343 18:21 06.06.2022
1079 Clouds 25 1004 20 10000 4 3 17:24 06.06.2022
1080 Clouds 28 1002 12 10000 3.79 21 16:18 06.06.2022
1081 Clouds 30 1001 9 10000 3.35 44 14:59 06.06.2022
1082 Clear 31 1001 8 10000 0.7 63 14:29 06.06.2022
1083 Clear 31 1001 8 10000 1.51 190 13:21 06.06.2022
1084 Clear 31 1001 8 10000 1.51 190 12:35 06.06.2022
1085 Clear 31 1002 8 10000 2.88 203 11:50 06.06.2022
1086 Clear 30 1004 10 10000 1.6 196 10:21 06.06.2022
1087 Clear 29 1006 13 10000 0.4 176 09:23 06.06.2022
1088 Clear 29 1006 13 10000 0.37 183 08:31 06.06.2022
1089 Clear 26 1007 19 10000 0.59 46 07:24 06.06.2022
1090 Clear 22 1008 25 10000 0.29 312 04:42 06.06.2022
1091 Clear 18 1008 34 10000 0.18 359 02:27 06.06.2022
1092 Clear 18 1007 31 10000 0.26 2 00:57 06.06.2022
1093 Clear 18 1007 31 10000 0.26 2 00:35 06.06.2022
1094 Clear 19 1007 30 10000 0.34 293 23:28 05.06.2022
1095 Clear 19 1007 30 10000 0.34 290 22:33 05.06.2022
1096 Clear 20 1008 29 10000 0.23 312 20:34 05.06.2022
1097 Clouds 22 1007 26 10000 1.68 352 19:26 05.06.2022
1098 Clouds 24 1006 20 10000 4.39 359 18:26 05.06.2022
1099 Clouds 24 1006 20 10000 4.39 359 17:46 05.06.2022
1100 Clouds 25 1004 17 10000 2.14 22 17:22 05.06.2022
1101 Clouds 25 1004 17 10000 2.14 22 16:48 05.06.2022
1102 Clouds 27 1003 16 10000 1.95 56 15:47 05.06.2022
1103 Clouds 29 1002 12 10000 6.6 97 14:21 05.06.2022
1104 Clear 30 1002 10 10000 6.76 106 12:34 05.06.2022
1105 Clear 31 1002 8 10000 1.81 170 11:30 05.06.2022
1106 Clear 29 1005 10 10000 1.37 196 10:25 05.06.2022
1107 Clear 29 1005 10 10000 1.37 196 09:58 05.06.2022
1108 Clear 26 1008 15 10000 0.73 48 08:25 05.06.2022
1109 Clear 24 1009 17 10000 0.71 36 06:48 05.06.2022
1110 Clear 21 1010 23 10000 0.46 289 05:20 05.06.2022
1111 Clear 17 1010 33 10000 0.43 217 02:58 05.06.2022
1112 Clouds 15 1010 33 10000 0.71 281 01:30 05.06.2022
1113 Clouds 16 1010 31 10000 0.67 338 23:49 04.06.2022
1114 Clouds 17 1010 29 10000 0.71 337 21:39 04.06.2022
1115 Clouds 19 1010 27 10000 1.69 356 19:49 04.06.2022
1116 Clouds 21 1009 23 10000 2.13 35 17:59 04.06.2022
1117 Clear 24 1006 18 10000 6.22 3 16:22 04.06.2022
1118 Clear 24 1006 18 10000 6.17 4 15:54 04.06.2022
1119 Clear 26 1005 14 10000 7.5 12 14:36 04.06.2022
1120 Clear 28 1005 11 10000 1.6 52 11:51 04.06.2022
1121 Clear 27 1006 12 10000 1.02 31 10:57 04.06.2022
1122 Clear 26 1008 13 10000 1.02 20 10:22 04.06.2022
1123 Clear 26 1008 13 10000 1.02 20 09:41 04.06.2022
1124 Clear 25 1009 14 10000 1.1 26 08:40 04.06.2022
1125 Clear 23 1010 16 10000 1.28 26 07:38 04.06.2022
1126 Clear 19 1012 22 10000 1.15 20 04:33 04.06.2022
1127 Clear 19 1012 22 10000 1.15 20 04:33 04.06.2022
1128 Clear 15 1011 29 10000 0.42 297 00:56 04.06.2022
1129 Clear 16 1011 28 10000 0.42 327 23:35 03.06.2022
1130 Clear 16 1010 27 10000 0.78 357 22:30 03.06.2022
1131 Clear 18 1011 24 10000 1.07 1 20:52 03.06.2022
1132 Clear 19 1011 23 10000 1.29 17 20:27 03.06.2022
1133 Clear 20 1010 19 10000 2.79 16 17:39 03.06.2022
1134 Clear 21 1009 17 10000 4.74 14 16:47 03.06.2022
1135 Clear 25 1006 13 10000 9.93 15 15:18 03.06.2022
1136 Clear 27 1006 11 10000 10.02 18 12:56 03.06.2022
1137 Clear 27 1007 10 10000 3.78 28 10:54 03.06.2022
1138 Clear 26 1008 11 10000 2.22 29 09:38 03.06.2022
1139 Clear 25 1009 13 10000 1.72 21 08:32 03.06.2022
1140 Clear 22 1011 18 10000 1.49 25 07:26 03.06.2022
1141 Clear 22 1011 18 10000 1.49 25 06:32 03.06.2022
1142 Clear 19 1012 23 10000 0.82 4 05:19 03.06.2022
1143 Clear 16 1011 29 10000 0.9 358 00:25 03.06.2022
1144 Clear 16 1011 28 10000 1.12 5 22:41 02.06.2022
1145 Clear 17 1011 26 10000 1.19 9 21:38 02.06.2022
1146 Clear 19 1011 22 10000 1.81 8 20:22 02.06.2022
1147 Clear 19 1010 22 10000 1.62 12 19:43 02.06.2022
1148 Clear 19 1010 21 10000 1.66 16 19:23 02.06.2022
1149 Clear 22 1008 17 10000 3.01 23 16:47 02.06.2022
1150 Clear 23 1007 15 10000 6.4 23 16:27 02.06.2022
1151 Clear 27 1006 10 10000 5.08 25 13:56 02.06.2022
1152 Clear 27 1006 11 10000 3.29 18 13:29 02.06.2022
1153 Clear 26 1008 13 10000 1.94 45 11:22 02.06.2022
1154 Clear 25 1009 13 10000 1.14 44 10:20 02.06.2022
1155 Clear 25 1009 13 10000 1.14 44 10:20 02.06.2022
1156 Clear 24 1010 14 10000 0.92 31 09:27 02.06.2022
1157 Clear 23 1011 17 10000 1.23 21 08:26 02.06.2022
1158 Clear 21 1012 20 10000 1.36 22 06:59 02.06.2022
1159 Clear 18 1013 26 10000 1.1 11 04:49 02.06.2022
1160 Clear 16 1013 35 10000 1.25 332 02:37 02.06.2022
1161 Clouds 16 1011 33 10000 0.89 6 23:43 01.06.2022
1162 Clouds 16 1011 33 10000 0.89 6 23:43 01.06.2022
1163 Clouds 16 1011 33 10000 0.89 6 23:43 01.06.2022
1164 Clouds 16 1011 33 10000 0.89 6 23:43 01.06.2022
1165 Clouds 18 1011 30 10000 1.58 1 22:23 01.06.2022
1166 Clouds 18 1011 30 10000 1.58 2 21:32 01.06.2022
1167 Clouds 18 1011 29 10000 1.59 6 20:40 01.06.2022
1168 Clouds 19 1011 30 10000 1.51 12 19:59 01.06.2022
1169 Clouds 20 1010 31 10000 1.67 262 19:19 01.06.2022
1170 Clouds 20 1010 32 10000 3.08 240 17:44 01.06.2022
1171 Clouds 21 1009 30 10000 3.39 264 16:34 01.06.2022
1172 Clouds 24 1006 17 10000 5.15 340 14:53 01.06.2022
1173 Clear 25 1005 15 10000 2.46 17 13:45 01.06.2022
1174 Clear 24 1007 20 10000 3.68 3 12:26 01.06.2022
1175 Clear 25 1007 15 10000 1.3 39 09:40 01.06.2022
1176 Clear 24 1008 16 10000 0.99 43 08:40 01.06.2022
1177 Clear 22 1010 19 10000 1.28 30 07:22 01.06.2022
1178 Clouds 19 1011 25 10000 0.88 24 05:23 01.06.2022
1179 Clouds 16 1009 33 10000 1.3 339 00:22 01.06.2022
1180 Clouds 17 1008 31 10000 1.44 340 23:28 31.05.2022
1181 Clouds 17 1008 31 10000 1.44 340 22:36 31.05.2022
1182 Clouds 18 1008 30 10000 1.11 58 21:45 31.05.2022
1183 Clouds 19 1009 28 10000 1.4 10 20:45 31.05.2022
1184 Clouds 19 1008 30 10000 1.76 8 20:18 31.05.2022
1185 Clouds 20 1008 28 10000 2.75 355 18:52 31.05.2022
1186 Clouds 21 1007 27 10000 0.81 357 17:50 31.05.2022
1187 Clouds 21 1006 27 10000 0.88 39 16:56 31.05.2022
1188 Clouds 21 1006 27 10000 2.88 330 15:41 31.05.2022
1189 Clear 26 1003 15 10000 4.83 359 14:18 31.05.2022
1190 Clear 25 1004 17 10000 6.28 338 12:20 31.05.2022
1191 Clear 26 1004 16 10000 5.43 345 10:55 31.05.2022
1192 Clear 24 1006 14 10000 0.64 53 09:29 31.05.2022
1193 Clouds 22 1008 18 10000 1.1 34 07:24 31.05.2022
1194 Clear 19 1010 23 10000 0.45 69 05:20 31.05.2022
1195 Clouds 15 1009 31 10000 0.7 333 00:52 31.05.2022
1196 Clouds 16 1009 29 10000 0.63 42 23:27 30.05.2022
1197 Clouds 16 1009 29 10000 0.65 43 22:56 30.05.2022
1198 Clouds 17 1009 27 10000 1.18 338 21:52 30.05.2022
1199 Clouds 17 1009 27 10000 1.18 338 21:32 30.05.2022
1200 Clouds 18 1009 25 10000 2.14 9 20:20 30.05.2022
1201 Clouds 19 1008 24 10000 2.24 8 18:40 30.05.2022
1202 Clear 20 1007 23 10000 2.53 28 17:36 30.05.2022
1203 Clear 21 1006 22 10000 2.97 14 16:41 30.05.2022
1204 Clear 25 1003 13 10000 6.97 10 14:35 30.05.2022
1205 Clear 27 1004 12 10000 2.66 29 12:24 30.05.2022
1206 Clear 26 1005 13 10000 1.38 64 10:41 30.05.2022
1207 Clear 24 1007 16 10000 1 50 09:21 30.05.2022
1208 Clear 21 1008 20 10000 0.73 43 07:18 30.05.2022
1209 Clear 19 1009 23 10000 0.51 48 05:48 30.05.2022
1210 Clouds 13 1009 34 10000 0.69 235 01:42 30.05.2022
1211 Clouds 15 1009 33 10000 0.65 340 23:19 29.05.2022
1212 Clouds 15 1009 33 10000 0.65 340 22:37 29.05.2022
1213 Clouds 16 1010 30 10000 1.41 5 20:55 29.05.2022
1214 Clouds 17 1009 29 10000 1.86 16 19:33 29.05.2022
1215 Clouds 17 1009 27 10000 1.95 15 18:53 29.05.2022
1216 Clouds 18 1008 25 10000 2.56 21 17:31 29.05.2022
1217 Clouds 18 1008 25 10000 2.56 21 17:31 29.05.2022
1218 Clouds 21 1006 21 10000 4.84 18 15:48 29.05.2022
1219 Clear 23 1004 17 10000 7.26 8 15:23 29.05.2022
1220 Clear 25 1004 14 10000 7.51 9 13:59 29.05.2022
1221 Clear 26 1004 16 10000 4.14 17 11:42 29.05.2022
1222 Clear 25 1005 17 10000 2.34 23 10:39 29.05.2022
1223 Clear 22 1007 23 10000 1.01 50 09:18 29.05.2022
1224 Clear 18 1010 34 10000 1.39 27 06:24 29.05.2022
1225 Clear 16 1010 38 10000 1.27 21 04:45 29.05.2022
1226 Clear 15 1011 41 10000 0.96 6 03:53 29.05.2022
1227 Clear 15 1009 42 10000 1.52 0 23:50 28.05.2022
1228 Clear 15 1009 41 10000 1.28 356 23:26 28.05.2022
1229 Clear 15 1009 41 10000 1.28 356 22:39 28.05.2022
1230 Clear 16 1009 39 10000 1.22 0 21:38 28.05.2022
1231 Clear 17 1009 36 10000 1.51 11 19:51 28.05.2022
1232 Clear 18 1009 34 10000 2.06 11 18:54 28.05.2022
1233 Clear 19 1008 31 10000 2.64 5 17:37 28.05.2022
1234 Clear 20 1007 27 10000 3.04 7 16:43 28.05.2022
1235 Clear 22 1006 24 10000 3.39 19 15:43 28.05.2022
1236 Clear 25 1004 17 10000 5.04 9 14:26 28.05.2022
1237 Clear 26 1003 14 10000 5.49 23 12:57 28.05.2022
1238 Clear 26 1003 14 10000 5.49 23 12:35 28.05.2022
1239 Clear 26 1004 14 10000 2.49 30 11:22 28.05.2022
1240 Clear 25 1006 16 10000 1.76 42 09:59 28.05.2022
1241 Clear 24 1007 19 10000 1.58 40 09:21 28.05.2022
1242 Clear 21 1009 26 10000 1.2 29 07:23 28.05.2022
1243 Clear 19 1009 31 10000 1.14 19 05:48 28.05.2022
1244 Clear 16 1010 46 10000 0.81 352 02:52 28.05.2022
1245 Clear 16 1009 47 10000 1.16 1 00:33 28.05.2022
1246 Clear 17 1009 45 10000 1.2 15 23:20 27.05.2022
1247 Clear 17 1009 43 10000 1.51 22 21:46 27.05.2022
1248 Clear 18 1009 42 10000 2.2 21 20:56 27.05.2022
1249 Clouds 19 1009 41 10000 2.34 27 20:25 27.05.2022
1250 Clouds 19 1009 41 10000 2.34 27 19:48 27.05.2022
1251 Clouds 20 1008 39 10000 2.53 22 19:29 27.05.2022
1252 Clouds 21 1007 36 10000 3.29 23 17:58 27.05.2022
1253 Clouds 22 1006 33 10000 3.42 29 16:39 27.05.2022
1254 Clouds 26 1002 24 10000 8.68 9 15:22 27.05.2022
1255 Clouds 28 1001 19 10000 9.04 2 14:25 27.05.2022
1256 Clouds 29 1000 16 10000 7.97 7 12:43 27.05.2022
1257 Clouds 29 1001 15 10000 5.67 10 11:34 27.05.2022
1258 Clouds 29 1002 15 10000 4.8 4 10:56 27.05.2022
1259 Clouds 29 1002 15 10000 4.8 4 10:31 27.05.2022
1260 Clear 29 1003 16 10000 1.49 23 09:35 27.05.2022
1261 Clear 26 1005 20 10000 1.09 34 07:52 27.05.2022
1262 Clear 23 1006 25 10000 0.98 12 05:44 27.05.2022
1263 Clouds 18 1006 34 10000 1.29 347 02:26 27.05.2022
1264 Clouds 19 1006 34 10000 0.73 356 00:29 27.05.2022
1265 Clouds 20 1006 33 10000 0.84 353 22:39 26.05.2022
1266 Clouds 20 1006 31 10000 1.26 351 21:39 26.05.2022
1267 Clouds 21 1006 29 10000 1.55 336 20:30 26.05.2022
1268 Clouds 23 1006 24 10000 1.83 3 19:19 26.05.2022
1269 Clouds 24 1006 23 10000 1.85 28 17:51 26.05.2022
1270 Clouds 25 1005 20 10000 1.88 6 16:42 26.05.2022
1271 Clouds 26 1004 19 10000 4.61 5 15:45 26.05.2022
1272 Clouds 29 1003 13 10000 5.14 19 14:28 26.05.2022
1273 Clouds 30 1003 11 10000 9 29 12:37 26.05.2022
1274 Clear 31 1004 10 10000 3.4 39 11:23 26.05.2022
1275 Clear 30 1005 10 10000 2.25 46 09:41 26.05.2022
1276 Clear 29 1006 11 10000 1.83 46 09:23 26.05.2022
1277 Clear 28 1006 12 10000 1.86 39 07:57 26.05.2022
1278 Clear 21 1010 20 10000 1.25 276 03:53 26.05.2022
1279 Clear 18 1009 25 10000 0.78 301 00:38 26.05.2022
1280 Clear 19 1009 24 10000 0.75 294 23:40 25.05.2022
1281 Clear 20 1009 22 10000 0.56 287 21:56 25.05.2022
1282 Clear 20 1009 22 10000 0.56 287 21:31 25.05.2022
1283 Clear 21 1010 22 10000 1.57 313 20:34 25.05.2022
1284 Clear 22 1009 19 10000 1.66 342 19:21 25.05.2022
1285 Clear 23 1009 17 10000 2.75 355 17:40 25.05.2022
1286 Clear 25 1008 15 10000 5.18 358 16:37 25.05.2022
1287 Clear 26 1007 14 10000 7.13 4 15:54 25.05.2022
1288 Clear 28 1005 11 10000 8.72 358 14:51 25.05.2022
1289 Clear 28 1005 11 10000 8.72 358 14:32 25.05.2022
1290 Clear 29 1005 11 10000 8.63 6 13:42 25.05.2022
1291 Clear 30 1005 11 10000 8.12 13 12:37 25.05.2022
1292 Clear 30 1005 12 10000 3.77 6 10:43 25.05.2022
1293 Clear 29 1006 13 10000 1.86 29 09:54 25.05.2022
1294 Clear 26 1008 16 10000 0.86 159 08:23 25.05.2022
1295 Clear 25 1009 16 10000 1.36 185 07:22 25.05.2022
1296 Clear 17 1011 34 10000 1.33 212 03:22 25.05.2022
1297 Clear 17 1010 33 10000 0.36 55 23:56 24.05.2022
1298 Clear 18 1010 32 10000 0.99 24 23:25 24.05.2022
1299 Clear 18 1010 30 10000 1.15 23 22:19 24.05.2022
1300 Clear 18 1010 30 10000 1.15 23 21:39 24.05.2022
1301 Clear 19 1010 29 10000 1.22 27 21:20 24.05.2022
1302 Clouds 20 1010 26 10000 1.29 34 19:45 24.05.2022
1303 Clear 20 1010 24 10000 1.58 31 18:50 24.05.2022
1304 Clear 22 1008 19 10000 2.64 58 16:42 24.05.2022
1305 Clear 23 1007 16 10000 2.78 52 16:19 24.05.2022
1306 Clear 25 1006 11 10000 2.21 46 14:50 24.05.2022
1307 Clear 25 1006 10 10000 2.11 51 13:52 24.05.2022
1308 Clear 26 1005 9 10000 2.49 67 12:49 24.05.2022
1309 Clear 25 1006 9 10000 1.91 73 10:46 24.05.2022
1310 Clear 24 1007 10 10000 1.3 83 09:43 24.05.2022
1311 Clear 23 1008 11 10000 1.02 82 08:49 24.05.2022
1312 Clear 20 1009 13 10000 1.36 62 06:56 24.05.2022
1313 Clear 16 1009 17 10000 0.23 55 03:48 24.05.2022
1314 Clear 13 1007 25 10000 0.23 344 01:50 24.05.2022
1315 Clear 13 1006 24 10000 0.56 234 01:19 24.05.2022
1316 Clear 14 1006 24 10000 0.39 309 22:51 23.05.2022
1317 Clear 14 1006 24 10000 0.18 256 21:55 23.05.2022
1318 Clear 15 1007 23 10000 0.72 313 21:26 23.05.2022
1319 Clear 15 1006 22 10000 1.38 330 20:26 23.05.2022
1320 Clear 15 1006 22 10000 1.38 330 19:31 23.05.2022
1321 Clear 16 1005 20 10000 1.76 345 18:57 23.05.2022
1322 Clear 17 1004 18 10000 2.17 350 18:29 23.05.2022
1323 Clear 18 1003 15 10000 3.31 353 17:20 23.05.2022
1324 Clear 22 1001 10 10000 1.53 33 14:52 23.05.2022
1325 Clear 22 1001 10 10000 1.44 47 12:56 23.05.2022
1326 Clear 22 1003 11 10000 1.35 61 11:31 23.05.2022
1327 Clear 20 1005 16 10000 1.07 78 09:50 23.05.2022
1328 Clear 18 1006 19 10000 0.78 93 09:28 23.05.2022
1329 Clear 17 1007 21 10000 0.73 74 08:20 23.05.2022
1330 Clear 15 1007 22 10000 1.07 29 06:45 23.05.2022
1331 Clear 13 1009 29 10000 1.29 20 05:25 23.05.2022
1332 Clear 10 1008 38 10000 0.5 16 02:32 23.05.2022
1333 Clear 10 1007 41 10000 0.77 9 01:37 23.05.2022
1334 Clear 11 1006 41 10000 1.52 23 00:20 23.05.2022
1335 Clear 11 1006 41 10000 1.76 16 22:36 22.05.2022
1336 Clear 12 1006 41 10000 1.36 34 21:55 22.05.2022
1337 Clear 13 1006 41 10000 1.94 25 20:54 22.05.2022
1338 Clear 13 1006 41 10000 1.94 25 20:31 22.05.2022
1339 Clear 13 1006 40 10000 2.33 19 19:56 22.05.2022
1340 Clear 14 1005 38 10000 3 14 18:55 22.05.2022
1341 Clear 15 1005 37 10000 3.73 19 18:25 22.05.2022
1342 Clear 15 1005 37 10000 3.73 19 17:34 22.05.2022
1343 Clear 16 1004 34 10000 4.5 20 16:36 22.05.2022
1344 Clear 20 1000 20 10000 7.28 7 14:49 22.05.2022
1345 Clouds 22 1000 23 10000 7.36 29 13:54 22.05.2022
1346 Clouds 22 1000 23 10000 6.28 34 12:52 22.05.2022
1347 Clouds 21 1001 28 10000 1.86 5 11:47 22.05.2022
1348 Clouds 24 1001 20 10000 5.93 15 09:45 22.05.2022
1349 Clouds 23 1001 20 10000 3.89 16 08:54 22.05.2022
1350 Clear 21 1003 25 10000 1.85 15 07:22 22.05.2022
1351 Clear 20 1004 29 10000 1.31 350 06:24 22.05.2022
1352 Clear 16 1006 44 10000 1.17 312 02:33 22.05.2022
1353 Clear 15 1005 43 10000 0.69 280 00:44 22.05.2022
1354 Clear 16 1005 42 10000 0.39 288 23:55 21.05.2022
1355 Clear 16 1006 40 10000 0.89 327 23:21 21.05.2022
1356 Clear 17 1006 38 10000 1.67 334 21:47 21.05.2022
1357 Clear 18 1006 35 10000 2.4 337 21:26 21.05.2022
1358 Clear 18 1007 32 10000 3.24 346 20:25 21.05.2022
1359 Clear 18 1007 32 10000 3.24 346 19:37 21.05.2022
1360 Clear 20 1006 27 10000 4.97 3 17:57 21.05.2022
1361 Clear 21 1005 25 10000 5.32 7 16:55 21.05.2022
1362 Clear 24 1002 17 10000 9.22 7 14:38 21.05.2022
1363 Clear 25 1002 16 10000 8.62 17 13:53 21.05.2022
1364 Clear 26 1003 16 10000 5.4 16 12:57 21.05.2022
1365 Clear 26 1003 16 10000 5.4 16 12:37 21.05.2022
1366 Clear 24 1004 19 10000 1.66 34 10:45 21.05.2022
1367 Clear 23 1005 23 10000 1.42 68 09:48 21.05.2022
1368 Clear 22 1007 26 10000 0.89 46 08:58 21.05.2022
1369 Clear 22 1007 26 10000 0.89 46 08:33 21.05.2022
1370 Clear 17 1009 38 10000 1.29 6 05:28 21.05.2022
1371 Clouds 15 1007 51 10000 0.96 349 00:58 21.05.2022
1372 Clouds 16 1007 48 10000 1.19 18 23:22 20.05.2022
1373 Clouds 16 1008 47 10000 1.16 16 22:24 20.05.2022
1374 Clouds 16 1008 48 10000 1.15 15 21:49 20.05.2022
1375 Clouds 17 1008 45 10000 1.62 9 20:58 20.05.2022
1376 Clouds 17 1008 43 10000 2.13 4 20:29 20.05.2022
1377 Clouds 18 1008 41 10000 1.81 359 19:27 20.05.2022
1378 Clouds 18 1008 41 10000 1.78 359 18:47 20.05.2022
1379 Clouds 19 1007 39 10000 1.29 2 17:43 20.05.2022
1380 Clear 21 1005 35 10000 4.33 9 16:21 20.05.2022
1381 Clear 21 1005 35 10000 4.33 9 15:53 20.05.2022
1382 Clouds 22 1004 30 10000 6.41 11 14:31 20.05.2022
1383 Clouds 23 1004 27 10000 4.56 359 13:56 20.05.2022
1384 Clouds 23 1004 30 10000 5.42 314 11:45 20.05.2022
1385 Clouds 25 1004 24 10000 4.4 32 10:23 20.05.2022
1386 Clouds 24 1006 27 10000 3.02 32 08:45 20.05.2022
1387 Clouds 21 1008 35 10000 2.24 22 07:25 20.05.2022
1388 Clouds 21 1008 35 10000 2.24 22 06:36 20.05.2022
1389 Clouds 18 1009 46 10000 1.63 8 05:22 20.05.2022
1390 Clouds 15 1008 60 10000 0.56 307 00:54 20.05.2022
1391 Clouds 16 1008 57 10000 1.16 2 22:57 19.05.2022
1392 Clouds 17 1008 55 10000 1.8 354 22:26 19.05.2022
1393 Clouds 17 1008 55 10000 1.8 354 21:49 19.05.2022
1394 Clear 18 1009 50 10000 2.25 2 21:23 19.05.2022
1395 Clear 18 1009 50 10000 2.25 2 20:40 19.05.2022
1396 Clouds 19 1009 45 10000 2.36 5 19:53 19.05.2022
1397 Clouds 19 1008 44 10000 2.64 359 18:34 19.05.2022
1398 Clouds 20 1008 42 10000 2.52 6 17:31 19.05.2022
1399 Clouds 21 1007 38 10000 3.19 29 15:33 19.05.2022
1400 Clouds 24 1005 31 10000 6.88 355 14:29 19.05.2022
1401 Clouds 24 1005 31 10000 9.49 356 13:50 19.05.2022
1402 Clouds 25 1005 26 10000 4.92 359 11:46 19.05.2022
1403 Clouds 26 1007 24 10000 4.14 3 09:34 19.05.2022
1404 Clear 25 1009 24 10000 1.46 39 08:18 19.05.2022
1405 Clear 21 1011 33 10000 0.93 44 06:18 19.05.2022
1406 Clear 18 1011 45 10000 1.48 330 02:54 19.05.2022
1407 Clouds 18 1010 39 10000 1.83 1 00:44 19.05.2022
1408 Clouds 19 1010 37 10000 1.21 12 22:53 18.05.2022
1409 Clouds 19 1010 37 10000 1.21 12 22:35 18.05.2022
1410 Clouds 20 1010 36 10000 1.81 352 21:31 18.05.2022
1411 Clouds 21 1010 32 10000 2.32 350 20:54 18.05.2022
1412 Clouds 22 1009 28 10000 2.6 344 20:18 18.05.2022
1413 Clouds 22 1009 27 10000 2.02 356 18:34 18.05.2022
1414 Clouds 23 1008 26 10000 1.09 44 17:41 18.05.2022
1415 Clouds 24 1008 23 10000 4.22 329 17:23 18.05.2022
1416 Clouds 24 1008 23 10000 4.22 329 16:35 18.05.2022
1417 Clouds 25 1006 21 10000 3.98 353 15:42 18.05.2022
1418 Clouds 27 1005 18 10000 6.1 358 14:48 18.05.2022
1419 Clouds 28 1005 16 10000 7.23 2 13:47 18.05.2022
1420 Clouds 29 1004 16 10000 6.93 9 12:51 18.05.2022
1421 Clouds 29 1005 15 10000 4.36 17 11:37 18.05.2022
1422 Clear 29 1006 14 10000 1.99 49 11:19 18.05.2022
1423 Clear 28 1007 17 10000 1.21 99 09:56 18.05.2022
1424 Clear 25 1009 25 10000 0.4 119 07:55 18.05.2022
1425 Clear 23 1009 28 10000 0.49 63 06:49 18.05.2022
1426 Clear 17 1009 45 10000 0.64 325 02:23 18.05.2022
1427 Clear 18 1009 44 10000 0.9 303 00:23 18.05.2022
1428 Clear 18 1009 43 10000 0.58 304 22:47 17.05.2022
1429 Clear 20 1009 38 10000 1.64 345 21:20 17.05.2022
1430 Clouds 20 1009 37 10000 1.39 349 20:29 17.05.2022
1431 Clouds 21 1009 37 10000 1.17 342 19:28 17.05.2022
1432 Clouds 21 1008 35 10000 1.83 2 17:52 17.05.2022
1433 Clouds 21 1008 33 10000 2.17 14 17:18 17.05.2022
1434 Clouds 21 1008 33 10000 2.17 14 16:31 17.05.2022
1435 Clouds 22 1007 31 10000 3.91 31 15:32 17.05.2022
1436 Clouds 23 1006 27 10000 5.46 25 14:31 17.05.2022
1437 Clouds 23 1006 28 10000 3.99 18 13:38 17.05.2022
1438 Clouds 26 1004 23 10000 2.43 354 11:58 17.05.2022
1439 Clear 27 1004 21 10000 5.87 2 09:38 17.05.2022
1440 Clear 28 1004 17 10000 1.72 164 08:43 17.05.2022
1441 Clear 25 1007 25 10000 0.41 183 06:52 17.05.2022
1442 Clear 21 1007 37 10000 0.35 307 04:24 17.05.2022
1443 Clouds 19 1006 45 10000 0.36 344 00:46 17.05.2022
1444 Clouds 20 1006 42 10000 0.86 340 22:44 16.05.2022
1445 Clouds 20 1006 42 10000 0.59 5 21:52 16.05.2022
1446 Clouds 21 1007 40 10000 0.39 349 20:49 16.05.2022
1447 Clear 21 1007 38 10000 0.13 293 19:57 16.05.2022
1448 Clear 23 1005 29 10000 2.08 340 18:21 16.05.2022
1449 Clear 25 1003 23 10000 3.18 0 16:24 16.05.2022
1450 Clear 27 1003 16 10000 3.62 19 14:38 16.05.2022
1451 Clear 29 1002 11 10000 1.54 77 13:25 16.05.2022
1452 Clear 29 1003 11 10000 1.05 92 11:33 16.05.2022
1453 Clear 27 1006 15 10000 0.2 35 09:58 16.05.2022
1454 Clear 24 1009 22 10000 0.47 25 07:21 16.05.2022
1455 Clear 21 1010 27 10000 0.27 31 04:41 16.05.2022
1456 Clouds 18 1009 34 10000 1.11 333 23:44 15.05.2022
1457 Clear 19 1009 33 10000 1.68 334 22:34 15.05.2022
1458 Clear 19 1009 34 10000 0.84 327 21:47 15.05.2022
1459 Clear 19 1009 33 10000 0.25 318 20:59 15.05.2022
1460 Clouds 20 1009 34 10000 1.07 352 19:53 15.05.2022
1461 Clouds 21 1009 28 10000 2.46 357 17:52 15.05.2022
1462 Clouds 22 1007 25 10000 2.25 14 16:31 15.05.2022
1463 Clouds 28 1003 13 10000 2.63 286 14:18 15.05.2022
1464 Clouds 28 1002 13 10000 5.32 300 13:23 15.05.2022
1465 Clouds 28 1003 12 10000 7.14 235 11:41 15.05.2022
1466 Clouds 30 1003 9 10000 7.36 193 10:35 15.05.2022
1467 Clear 28 1005 10 10000 4.26 195 08:47 15.05.2022
1468 Clear 24 1007 21 10000 0.18 56 06:59 15.05.2022
1469 Clouds 22 1008 25 10000 0.42 23 05:57 15.05.2022
1470 Clear 17 1008 41 10000 0.5 350 00:57 15.05.2022
1471 Clear 17 1007 40 10000 1.02 311 23:47 14.05.2022
1472 Clear 17 1007 40 10000 0.63 278 23:29 14.05.2022
1473 Clear 19 1008 38 10000 0.65 18 21:29 14.05.2022
1474 Clear 19 1008 38 10000 0.65 18 20:53 14.05.2022
1475 Clouds 19 1008 38 10000 1.09 340 19:40 14.05.2022
1476 Clouds 20 1007 33 10000 1.78 346 19:20 14.05.2022
1477 Clouds 20 1007 33 10000 1.78 346 18:46 14.05.2022
1478 Clouds 23 1005 24 10000 3.03 3 16:56 14.05.2022
1479 Clouds 24 1003 22 10000 4.92 7 15:33 14.05.2022
1480 Clouds 28 1001 13 10000 2.64 226 14:34 14.05.2022
1481 Clouds 28 1001 13 10000 2.64 226 14:34 14.05.2022
1482 Clouds 29 1001 10 10000 1.54 75 12:49 14.05.2022
1483 Clouds 29 1002 9 10000 1.01 125 11:36 14.05.2022
1484 Clouds 29 1003 9 10000 4.07 171 10:22 14.05.2022
1485 Clouds 29 1003 9 10000 4.07 171 09:54 14.05.2022
1486 Clouds 28 1004 11 10000 1.22 160 08:49 14.05.2022
1487 Clear 25 1006 18 10000 0.79 54 06:47 14.05.2022
1488 Clear 18 1006 35 10000 0.56 277 02:46 14.05.2022
1489 Clear 19 1005 27 10000 0.57 336 23:44 13.05.2022
1490 Clear 19 1005 26 10000 0.98 282 23:18 13.05.2022
1491 Clear 19 1005 26 10000 0.97 282 22:43 13.05.2022
1492 Clouds 20 1005 25 10000 0.49 155 22:18 13.05.2022
1493 Clouds 21 1006 25 10000 0.72 279 20:46 13.05.2022
1494 Clouds 21 1006 25 10000 0.9 313 20:27 13.05.2022
1495 Clouds 22 1006 23 10000 1.4 324 19:28 13.05.2022
1496 Clouds 23 1006 20 10000 0.72 266 17:51 13.05.2022
1497 Clouds 24 1005 19 10000 1.81 295 17:29 13.05.2022
1498 Clouds 24 1005 16 10000 3.09 324 16:20 13.05.2022
1499 Clouds 26 1004 14 10000 6.4 3 15:29 13.05.2022
1500 Clouds 27 1003 12 10000 5.77 31 13:48 13.05.2022
1501 Clouds 27 1004 11 10000 3.78 50 12:32 13.05.2022
1502 Clear 27 1006 12 10000 2.8 33 11:23 13.05.2022
1503 Clear 27 1007 12 10000 2.55 21 09:34 13.05.2022
1504 Clear 26 1008 13 10000 1.69 34 08:44 13.05.2022
1505 Clear 25 1009 15 10000 1.27 24 07:48 13.05.2022
1506 Clear 24 1009 18 10000 0.09 219 06:33 13.05.2022
1507 Clear 24 1009 18 10000 0.09 219 06:33 13.05.2022
1508 Clear 24 1009 18 10000 0.09 219 06:33 13.05.2022
1509 Clear 18 1010 41 10000 1.01 261 03:29 13.05.2022
1510 Clear 18 1009 44 10000 0.76 269 00:39 13.05.2022
1511 Clear 18 1009 45 10000 0.68 346 22:45 12.05.2022
1512 Clear 19 1009 43 10000 1.35 7 21:56 12.05.2022
1513 Clear 20 1009 41 10000 1.21 13 20:29 12.05.2022
1514 Clear 21 1008 40 10000 1.29 10 18:59 12.05.2022
1515 Clear 23 1006 31 10000 2.53 357 17:24 12.05.2022
1516 Clear 24 1004 26 10000 4.2 343 16:18 12.05.2022
1517 Clear 28 1003 14 10000 3.77 337 14:41 12.05.2022
1518 Clear 30 1002 7 10000 4.71 256 13:41 12.05.2022
1519 Clear 30 1004 9 10000 4.36 205 10:46 12.05.2022
1520 Clear 29 1005 10 10000 3.28 195 09:30 12.05.2022
1521 Clear 28 1006 12 10000 2.05 191 08:51 12.05.2022
1522 Clear 27 1007 15 10000 1.58 199 07:40 12.05.2022
1523 Clear 23 1009 24 10000 0.82 202 06:19 12.05.2022
1524 Clear 18 1009 40 10000 0.81 231 02:56 12.05.2022
1525 Clear 18 1008 39 10000 0.72 332 00:36 12.05.2022
1526 Clear 19 1008 39 10000 0.29 319 22:36 11.05.2022
1527 Clear 20 1008 39 10000 0.55 321 21:50 11.05.2022
1528 Clear 20 1008 38 10000 1.09 327 21:23 11.05.2022
1529 Clouds 22 1008 34 10000 2.01 354 18:49 11.05.2022
1530 Clouds 24 1007 30 10000 2.1 3 16:55 11.05.2022
1531 Clouds 25 1006 27 10000 2.98 358 15:31 11.05.2022
1532 Clouds 27 1005 20 10000 5.5 354 14:39 11.05.2022
1533 Clouds 29 1004 14 10000 3.37 15 14:18 11.05.2022
1534 Clouds 29 1004 14 10000 1.95 75 11:54 11.05.2022
1535 Clear 29 1005 15 10000 2.02 125 11:19 11.05.2022
1536 Clear 27 1008 21 10000 2.32 168 08:40 11.05.2022
1537 Clear 21 1011 36 10000 1.02 211 05:28 11.05.2022
1538 Clouds 18 1011 49 10000 0.23 86 00:45 11.05.2022
1539 Clouds 19 1011 46 10000 1.14 330 22:32 10.05.2022
1540 Clouds 19 1011 44 10000 1.06 340 21:57 10.05.2022
1541 Clouds 20 1011 43 10000 1.38 355 20:58 10.05.2022
1542 Clouds 21 1010 37 10000 1.53 332 19:47 10.05.2022
1543 Clouds 22 1010 35 10000 2.11 341 17:59 10.05.2022
1544 Clouds 22 1009 34 10000 1.67 54 17:29 10.05.2022
1545 Clouds 23 1009 33 10000 1.29 258 15:31 10.05.2022
1546 Clouds 27 1008 24 10000 4.96 288 12:47 10.05.2022
1547 Clouds 28 1007 20 10000 2.89 336 11:51 10.05.2022
1548 Clouds 27 1008 21 10000 3.9 307 11:21 10.05.2022
1549 Clouds 27 1008 21 10000 3.9 307 10:53 10.05.2022
1550 Clouds 26 1009 22 10000 0.33 194 09:26 10.05.2022
1551 Clear 23 1012 29 10000 0.22 139 07:26 10.05.2022
1552 Clear 20 1013 35 10000 0.39 360 04:32 10.05.2022
1553 Clouds 17 1011 45 10000 0.85 205 01:18 10.05.2022
1554 Clouds 18 1011 45 10000 1.24 209 22:57 09.05.2022
1555 Clouds 18 1011 46 10000 0.47 289 21:51 09.05.2022
1556 Clouds 19 1012 46 10000 0.7 318 20:54 09.05.2022
1557 Clouds 19 1012 46 10000 0.78 56 19:29 09.05.2022
1558 Clouds 20 1012 42 10000 1.37 11 17:52 09.05.2022
1559 Clouds 19 1011 44 10000 2.07 334 16:38 09.05.2022
1560 Clouds 19 1011 43 10000 2.65 340 15:52 09.05.2022
1561 Clouds 21 1009 37 10000 5.05 360 15:24 09.05.2022
1562 Clouds 22 1009 36 10000 3 27 14:29 09.05.2022
1563 Clouds 22 1009 36 10000 3 27 13:50 09.05.2022
1564 Clear 27 1006 21 10000 4.81 256 12:26 09.05.2022
1565 Clear 27 1006 21 10000 4.81 256 11:32 09.05.2022
1566 Clear 29 1005 16 10000 2.13 104 10:42 09.05.2022
1567 Clear 27 1008 18 10000 0.53 78 08:45 09.05.2022
1568 Clear 26 1008 19 10000 0.64 65 07:54 09.05.2022
1569 Clear 21 1010 34 10000 0.68 207 03:36 09.05.2022
1570 Clear 19 1008 37 10000 0.49 307 23:37 08.05.2022
1571 Clear 20 1008 36 10000 0.78 321 22:56 08.05.2022
1572 Clear 20 1009 34 10000 1.05 349 21:55 08.05.2022
1573 Clear 21 1009 33 10000 0.98 353 20:35 08.05.2022
1574 Clear 21 1009 34 10000 1.11 317 19:45 08.05.2022
1575 Clear 22 1009 31 10000 2.03 298 18:54 08.05.2022
1576 Clear 23 1009 29 10000 1.93 316 18:18 08.05.2022
1577 Clear 24 1007 26 10000 1.9 355 16:44 08.05.2022
1578 Clear 25 1006 26 10000 1.24 12 15:39 08.05.2022
1579 Clear 27 1006 17 10000 1.18 49 14:45 08.05.2022
1580 Clear 28 1006 14 10000 1.24 75 12:33 08.05.2022
1581 Clear 28 1008 16 10000 1.36 60 10:32 08.05.2022
1582 Clear 27 1009 17 10000 1.21 63 09:58 08.05.2022
1583 Clear 26 1010 18 10000 1.04 67 08:57 08.05.2022
1584 Clear 24 1011 22 10000 0.92 34 07:25 08.05.2022
1585 Clear 19 1012 32 10000 0.79 291 03:40 08.05.2022
1586 Clear 17 1012 40 10000 0.91 294 02:47 08.05.2022
1587 Clear 18 1011 37 10000 1.01 322 00:28 08.05.2022
1588 Clear 18 1011 37 10000 1.01 322 23:50 07.05.2022
1589 Clear 19 1011 36 10000 0.98 323 22:46 07.05.2022
1590 Clear 19 1012 35 10000 0.78 288 21:59 07.05.2022
1591 Clear 19 1012 35 10000 0.78 288 21:34 07.05.2022
1592 Clear 20 1012 34 10000 0.7 260 20:34 07.05.2022
1593 Clear 20 1012 33 10000 0.8 281 19:44 07.05.2022
1594 Clear 21 1012 31 10000 0.93 1 17:43 07.05.2022
1595 Clear 24 1010 24 10000 2.68 29 15:47 07.05.2022
1596 Clear 27 1008 14 10000 7.67 19 13:58 07.05.2022
1597 Clear 28 1010 13 10000 2.36 17 10:46 07.05.2022
1598 Clear 26 1011 16 10000 0.75 35 09:19 07.05.2022
1599 Clear 25 1012 17 10000 0.3 178 07:50 07.05.2022
1600 Clear 23 1013 20 10000 0.72 206 06:43 07.05.2022
1601 Clear 20 1014 28 10000 0.92 238 04:56 07.05.2022
1602 Clear 16 1013 40 10000 0.94 314 01:24 07.05.2022
1603 Clear 17 1013 39 10000 0.98 347 23:37 06.05.2022
1604 Clear 18 1013 35 10000 1.24 353 22:27 06.05.2022
1605 Clear 18 1013 35 10000 1.24 353 21:43 06.05.2022
1606 Clear 19 1013 33 10000 1.3 5 20:33 06.05.2022
1607 Clear 20 1012 29 10000 1.6 352 19:29 06.05.2022
1608 Clear 20 1012 29 10000 1.6 352 19:29 06.05.2022
1609 Clear 20 1012 29 10000 1.6 352 18:57 06.05.2022
1610 Clear 21 1012 26 10000 2.51 348 17:38 06.05.2022
1611 Clear 23 1009 21 10000 4.51 13 16:23 06.05.2022
1612 Clear 23 1009 21 10000 4.51 13 15:39 06.05.2022
1613 Clear 25 1008 17 10000 2.43 40 14:46 06.05.2022
1614 Clear 25 1008 19 10000 1.81 84 12:54 06.05.2022
1615 Clear 25 1008 19 10000 1.81 84 12:33 06.05.2022
1616 Clear 25 1009 19 10000 1.74 94 11:41 06.05.2022
1617 Clear 24 1011 22 10000 1.23 107 10:26 06.05.2022
1618 Clear 24 1011 22 10000 1.23 107 09:39 06.05.2022
1619 Clear 21 1012 32 10000 0.72 123 07:59 06.05.2022
1620 Clear 20 1013 37 10000 0.52 156 06:39 06.05.2022
1621 Clear 17 1014 49 10000 0.89 207 04:51 06.05.2022
1622 Clear 14 1013 63 10000 1.48 209 02:43 06.05.2022
1623 Clear 14 1013 64 10000 1.41 216 23:36 05.05.2022
1624 Clear 14 1013 66 10000 0.78 194 21:52 05.05.2022
1625 Clear 14 1014 67 10000 0.34 202 20:54 05.05.2022
1626 Clouds 14 1014 66 10000 0.08 18 19:49 05.05.2022
1627 Clouds 15 1014 65 10000 1.27 17 16:57 05.05.2022
1628 Clouds 16 1013 60 10000 3.03 26 16:18 05.05.2022
1629 Clouds 18 1011 45 10000 3.64 275 14:43 05.05.2022
1630 Clear 23 1007 31 10000 1.7 358 13:20 05.05.2022
1631 Clear 23 1008 31 10000 1.58 58 12:24 05.05.2022
1632 Clear 22 1009 33 10000 1.04 90 10:30 05.05.2022
1633 Clear 22 1011 36 10000 0.51 102 09:34 05.05.2022
1634 Clear 18 1014 48 10000 0.5 117 07:24 05.05.2022
1635 Clear 13 1015 69 10000 1.45 211 02:33 05.05.2022
1636 Clear 13 1014 71 10000 1.12 217 01:47 05.05.2022
1637 Clear 13 1014 72 10000 0.69 243 01:22 05.05.2022
1638 Clear 13 1015 73 10000 0.7 216 23:31 04.05.2022
1639 Clouds 13 1015 73 10000 0.32 152 22:25 04.05.2022
1640 Clouds 13 1015 73 10000 0.32 152 21:49 04.05.2022
1641 Clouds 14 1016 73 10000 0.27 248 21:26 04.05.2022
1642 Clouds 14 1016 74 10000 0.25 261 20:22 04.05.2022
1643 Clouds 14 1016 74 10000 0.17 223 19:51 04.05.2022
1644 Clouds 14 1016 74 10000 0.8 315 18:49 04.05.2022
1645 Clouds 14 1016 74 10000 0.83 319 18:21 04.05.2022
1646 Clouds 15 1015 71 10000 0.82 329 17:29 04.05.2022
1647 Clouds 15 1015 66 10000 1.13 335 15:38 04.05.2022
1648 Clouds 16 1014 62 10000 1.57 336 14:59 04.05.2022
1649 Clouds 16 1014 61 10000 2.3 359 14:20 04.05.2022
1650 Clouds 18 1013 52 10000 4.4 17 13:18 04.05.2022
1651 Clouds 18 1014 52 10000 4.23 21 12:29 04.05.2022
1652 Clouds 17 1015 54 6858 2.94 36 10:40 04.05.2022
1653 Clouds 16 1016 59 10000 1.71 352 09:38 04.05.2022
1654 Clouds 16 1016 61 6934 1.25 343 08:33 04.05.2022
1655 Clouds 14 1016 70 10000 1.07 305 05:50 04.05.2022
1656 Rain 12 1016 80 10000 1.36 340 02:43 04.05.2022
1657 Rain 13 1014 80 10000 1.35 360 23:41 03.05.2022
1658 Rain 13 1015 71 10000 1.95 6 22:20 03.05.2022
1659 Rain 13 1015 71 10000 1.95 6 21:36 03.05.2022
1660 Rain 14 1015 68 10000 1.83 255 20:52 03.05.2022
1661 Clouds 14 1014 68 10000 1.48 236 19:44 03.05.2022
1662 Clouds 14 1015 71 10000 2.15 238 18:50 03.05.2022
1663 Rain 13 1014 72 10000 2.63 240 17:38 03.05.2022
1664 Rain 13 1014 76 10000 0.52 3 16:35 03.05.2022
1665 Clouds 14 1013 68 10000 2.42 1 14:51 03.05.2022
1666 Clouds 13 1011 75 10000 3.59 328 12:47 03.05.2022
1667 Clouds 17 1009 60 7086 6.71 271 12:25 03.05.2022
1668 Clouds 17 1009 60 7086 6.71 271 12:25 03.05.2022
1669 Clouds 20 1008 48 10000 3.77 320 10:52 03.05.2022
1670 Clouds 22 1009 40 10000 1.74 32 08:58 03.05.2022
1671 Clouds 18 1012 55 10000 1.71 23 06:46 03.05.2022
1672 Clouds 15 1013 68 10000 2.03 8 04:58 03.05.2022
1673 Clouds 16 1011 62 10000 1.15 85 23:44 02.05.2022
1674 Clouds 16 1011 61 10000 0.88 353 22:34 02.05.2022
1675 Clouds 17 1012 59 10000 1.25 317 21:49 02.05.2022
1676 Clouds 17 1012 57 10000 1.1 355 20:50 02.05.2022
1677 Clouds 17 1012 58 10000 1.08 194 18:35 02.05.2022
1678 Clouds 16 1012 62 10000 1.73 210 17:53 02.05.2022
1679 Clouds 16 1012 62 10000 1.73 210 17:33 02.05.2022
1680 Clouds 17 1011 56 10000 2.29 337 16:20 02.05.2022
1681 Clouds 20 1008 44 10000 3.29 23 15:19 02.05.2022
1682 Clouds 21 1007 43 10000 3.89 27 13:48 02.05.2022
1683 Clouds 20 1007 46 10000 3.96 84 12:18 02.05.2022
1684 Clouds 27 1004 23 10000 5.88 86 10:25 02.05.2022
1685 Clouds 27 1005 20 10000 1.04 82 08:46 02.05.2022
1686 Clouds 26 1005 22 10000 1.06 61 07:39 02.05.2022
1687 Clouds 20 1005 36 10000 1.18 3 01:58 02.05.2022
1688 Clouds 21 1005 35 10000 0.81 348 00:24 02.05.2022
1689 Clouds 21 1005 35 10000 0.81 348 23:47 01.05.2022
1690 Clouds 22 1005 33 10000 1.16 1 22:20 01.05.2022
1691 Clouds 22 1006 32 10000 1.27 26 20:58 01.05.2022
1692 Clouds 23 1006 31 10000 0.89 16 19:49 01.05.2022
1693 Clouds 23 1005 28 10000 1.62 17 18:55 01.05.2022
1694 Clouds 24 1005 27 10000 1.81 34 18:18 01.05.2022
1695 Clouds 25 1004 25 10000 2.25 76 17:18 01.05.2022
1696 Clouds 26 1003 22 10000 3.65 92 16:23 01.05.2022
1697 Clouds 28 1002 17 10000 4.74 83 15:23 01.05.2022
1698 Clouds 29 1002 14 10000 5.88 83 13:42 01.05.2022
1699 Clear 29 1004 13 10000 1.91 39 10:50 01.05.2022
1700 Clear 27 1006 16 10000 1.31 47 08:51 01.05.2022
1701 Clouds 26 1007 17 10000 1.02 44 07:53 01.05.2022
1702 Clouds 18 1008 36 10000 0.12 124 03:26 01.05.2022
1703 Clear 19 1007 33 10000 1.11 342 23:23 30.04.2022
1704 Clear 20 1007 31 10000 1.22 5 21:35 30.04.2022
1705 Clear 21 1007 31 10000 1.16 11 20:36 30.04.2022
1706 Clear 21 1007 32 10000 1 12 19:36 30.04.2022
1707 Clear 23 1007 27 10000 2.16 348 17:44 30.04.2022
1708 Clear 24 1006 23 10000 2.99 2 16:37 30.04.2022
1709 Clear 27 1004 16 10000 1.64 58 15:21 30.04.2022
1710 Clear 27 1004 16 10000 1.64 58 14:33 30.04.2022
1711 Clear 28 1005 15 10000 1.68 75 12:36 30.04.2022
1712 Clear 27 1006 16 10000 1.55 80 11:33 30.04.2022
1713 Clear 27 1007 17 10000 1.45 83 10:40 30.04.2022
1714 Clear 25 1010 21 10000 1.06 72 08:54 30.04.2022
1715 Clear 21 1013 32 10000 0.43 329 05:38 30.04.2022
1716 Clear 16 1012 50 10000 0.83 254 01:51 30.04.2022
1717 Clear 17 1012 49 10000 0.51 327 23:36 29.04.2022
1718 Clear 17 1013 48 10000 0.89 342 22:31 29.04.2022
1719 Clouds 18 1014 45 10000 0.97 324 21:27 29.04.2022
1720 Clouds 18 1014 45 10000 0.97 324 20:39 29.04.2022
1721 Clouds 19 1014 43 10000 0.97 310 19:38 29.04.2022
1722 Clouds 20 1013 38 10000 1.36 262 17:50 29.04.2022
1723 Clouds 20 1013 40 10000 3.09 284 16:56 29.04.2022
1724 Clouds 21 1011 36 10000 2.51 270 14:50 29.04.2022
1725 Clouds 21 1012 33 10000 1.61 303 14:20 29.04.2022
1726 Clouds 20 1012 40 10000 2.23 56 12:43 29.04.2022
1727 Clouds 27 1010 18 10000 1.24 114 10:58 29.04.2022
1728 Clouds 26 1012 22 10000 1.27 163 08:33 29.04.2022
1729 Clear 23 1014 28 10000 1.05 197 07:27 29.04.2022
1730 Clear 23 1014 28 10000 1.05 197 06:37 29.04.2022
1731 Clear 19 1016 41 10000 1.29 216 03:34 29.04.2022
1732 Clouds 17 1015 50 10000 0.49 247 00:19 29.04.2022
1733 Clouds 18 1015 48 10000 0.5 267 23:27 28.04.2022
1734 Clouds 18 1015 48 10000 0.5 267 22:41 28.04.2022
1735 Clouds 18 1016 47 10000 0.98 10 21:46 28.04.2022
1736 Clouds 18 1016 46 10000 0.85 307 20:55 28.04.2022
1737 Clouds 18 1016 46 10000 1.13 290 20:22 28.04.2022
1738 Clouds 19 1015 43 10000 0.84 267 19:41 28.04.2022
1739 Clouds 19 1015 43 10000 0.85 328 19:21 28.04.2022
1740 Clouds 19 1014 42 10000 1 8 18:23 28.04.2022
1741 Clouds 19 1014 41 10000 1.38 275 16:59 28.04.2022
1742 Clouds 20 1013 40 10000 5.2 317 16:22 28.04.2022
1743 Clouds 20 1013 40 10000 5.2 317 15:57 28.04.2022
1744 Clouds 23 1011 29 10000 4.93 314 15:27 28.04.2022
1745 Clouds 23 1009 27 10000 0.83 221 13:44 28.04.2022
1746 Clouds 21 1010 33 10000 2.1 36 12:42 28.04.2022
1747 Clouds 24 1010 30 10000 7.26 334 11:53 28.04.2022
1748 Clouds 28 1008 16 10000 1.96 183 10:37 28.04.2022
1749 Clouds 27 1009 18 10000 1.92 170 09:52 28.04.2022
1750 Clouds 26 1010 21 10000 1.5 166 08:30 28.04.2022
1751 Clouds 23 1012 27 10000 1.48 197 06:58 28.04.2022
1752 Clouds 22 1012 30 10000 1.16 205 05:55 28.04.2022
1753 Clouds 21 1013 34 10000 1.56 199 04:50 28.04.2022
1754 Clouds 21 1013 34 10000 1.56 199 04:31 28.04.2022
1755 Clouds 17 1014 49 10000 0.63 297 23:59 27.04.2022
1756 Clouds 18 1014 49 10000 0.71 327 22:34 27.04.2022
1757 Clouds 19 1014 45 10000 1.78 345 21:51 27.04.2022
1758 Clouds 20 1014 41 10000 2.19 343 20:56 27.04.2022
1759 Clouds 20 1014 41 10000 2.19 343 20:35 27.04.2022
1760 Clouds 20 1014 39 10000 2.98 8 19:37 27.04.2022
1761 Clouds 20 1013 37 10000 2.88 197 18:52 27.04.2022
1762 Clouds 21 1013 36 10000 0.65 171 18:22 27.04.2022
1763 Clouds 19 1012 41 10000 5.23 305 16:27 27.04.2022
1764 Clouds 26 1008 19 10000 3.97 320 14:31 27.04.2022
1765 Clouds 28 1008 15 10000 0.69 58 11:45 27.04.2022
1766 Clouds 27 1009 15 10000 1.45 77 11:20 27.04.2022
1767 Clouds 26 1011 17 10000 1.07 101 08:58 27.04.2022
1768 Clouds 23 1012 21 10000 0.85 192 07:18 27.04.2022
1769 Clouds 19 1013 32 10000 0.65 223 04:21 27.04.2022
1770 Clouds 16 1013 34 10000 0.7 296 01:31 27.04.2022
1771 Clouds 17 1013 34 10000 0.93 321 00:36 27.04.2022
1772 Clouds 17 1013 34 10000 0.93 322 00:36 27.04.2022
1773 Clouds 18 1013 31 10000 1.11 355 23:25 26.04.2022
1774 Clouds 18 1013 31 10000 1.11 355 22:57 26.04.2022
1775 Clouds 18 1013 31 10000 1.11 355 22:38 26.04.2022
1776 Clouds 19 1013 28 10000 1.29 360 21:26 26.04.2022
1777 Clouds 19 1013 28 10000 1.29 360 21:26 26.04.2022
1778 Clouds 19 1013 28 10000 1.29 360 20:41 26.04.2022
1779 Clouds 20 1013 25 10000 1.62 3 19:49 26.04.2022
1780 Clouds 20 1013 25 10000 1.62 3 19:30 26.04.2022
1781 Clouds 21 1012 25 10000 1.71 354 18:44 26.04.2022
1782 Clouds 21 1012 24 10000 1.87 341 17:50 26.04.2022
1783 Clouds 24 1010 19 10000 3.02 9 16:26 26.04.2022
1784 Clouds 26 1008 12 10000 1.99 58 13:58 26.04.2022
1785 Clouds 26 1008 11 10000 2.17 59 13:31 26.04.2022
1786 Clouds 26 1008 11 10000 1.57 96 11:48 26.04.2022
1787 Clouds 26 1009 12 10000 1.31 106 10:31 26.04.2022
1788 Clouds 24 1011 14 10000 1.07 149 08:47 26.04.2022
1789 Clear 21 1013 20 10000 0.8 199 06:57 26.04.2022
1790 Clear 16 1014 30 10000 0.26 213 04:23 26.04.2022
1791 Clear 14 1013 34 10000 0.65 335 00:57 26.04.2022
1792 Clear 15 1013 34 10000 0.82 335 00:20 26.04.2022
1793 Clear 16 1013 33 10000 0.54 352 22:19 25.04.2022
1794 Clear 16 1013 33 10000 0.53 353 21:33 25.04.2022
1795 Clear 16 1013 32 10000 1.1 345 20:34 25.04.2022
1796 Clear 18 1013 27 10000 1.35 8 18:54 25.04.2022
1797 Clear 19 1012 26 10000 0.97 18 17:41 25.04.2022
1798 Clear 20 1011 24 10000 1.13 48 16:51 25.04.2022
1799 Clear 22 1009 15 10000 6.01 29 15:23 25.04.2022
1800 Clear 23 1009 15 10000 4.74 28 14:34 25.04.2022
1801 Clear 24 1008 13 10000 2.43 30 13:29 25.04.2022
1802 Clear 23 1009 18 10000 1.8 67 10:58 25.04.2022
1803 Clear 22 1011 23 10000 1.69 66 09:55 25.04.2022
1804 Clouds 20 1013 31 10000 1.19 34 08:23 25.04.2022
1805 Clouds 17 1014 41 10000 1.07 33 06:18 25.04.2022
1806 Clouds 14 1013 56 10000 1.11 212 01:49 25.04.2022
1807 Clouds 15 1013 53 10000 0.97 183 23:57 24.04.2022
1808 Clouds 15 1014 51 10000 1.63 254 23:28 24.04.2022
1809 Clouds 15 1014 51 10000 1.63 254 22:39 24.04.2022
1810 Clouds 15 1014 54 10000 4.4 296 21:58 24.04.2022
1811 Clouds 16 1015 53 10000 1.96 283 21:23 24.04.2022
1812 Clouds 16 1015 53 10000 1.96 283 20:47 24.04.2022
1813 Clouds 17 1013 51 10000 0.14 323 20:21 24.04.2022
1814 Rain 17 1013 51 10000 1.05 325 18:54 24.04.2022
1815 Rain 17 1013 49 10000 0.35 158 17:54 24.04.2022
1816 Rain 17 1013 49 10000 0.35 158 17:54 24.04.2022
1817 Clouds 17 1013 50 10000 1.36 132 17:21 24.04.2022
1818 Clouds 17 1013 50 10000 1.34 130 16:56 24.04.2022
1819 Rain 17 1013 51 10000 0.29 352 16:29 24.04.2022
1820 Rain 17 1013 51 10000 0.29 352 16:29 24.04.2022
1821 Clouds 17 1013 51 10000 0.33 354 15:52 24.04.2022
1822 Clouds 17 1012 49 10000 2.3 330 14:40 24.04.2022
1823 Clouds 20 1009 36 10000 2.25 290 13:38 24.04.2022
1824 Clouds 23 1007 27 10000 0.48 203 13:18 24.04.2022
1825 Clouds 22 1008 29 10000 0.9 343 11:50 24.04.2022
1826 Clouds 22 1010 30 10000 1.11 178 10:48 24.04.2022
1827 Clouds 23 1010 26 10000 2.23 14 09:47 24.04.2022
1828 Clouds 21 1012 30 10000 0.85 178 08:18 24.04.2022
1829 Clouds 19 1014 37 10000 0.69 143 05:45 24.04.2022
1830 Clouds 15 1014 52 10000 0.71 230 02:48 24.04.2022
1831 Clouds 16 1014 47 10000 0.82 209 00:45 24.04.2022
1832 Clouds 16 1014 47 10000 0.36 175 23:55 23.04.2022
1833 Clouds 17 1014 45 10000 0.11 145 23:25 23.04.2022
1834 Clouds 17 1014 45 10000 0.11 145 22:39 23.04.2022
1835 Clouds 17 1015 45 10000 0.72 255 21:41 23.04.2022
1836 Clouds 17 1015 45 10000 1.22 240 21:22 23.04.2022
1837 Rain 16 1015 45 10000 1.13 211 19:56 23.04.2022
1838 Clouds 17 1015 44 10000 1.41 229 19:20 23.04.2022
1839 Clouds 17 1015 44 10000 1.38 227 18:54 23.04.2022
1840 Clouds 17 1015 44 10000 1.38 227 18:32 23.04.2022
1841 Clouds 17 1015 43 10000 3.2 243 17:46 23.04.2022
1842 Clouds 18 1014 42 10000 4.79 257 16:45 23.04.2022
1843 Clear 21 1012 28 10000 1.91 268 15:43 23.04.2022
1844 Clear 22 1011 22 10000 2.2 38 13:24 23.04.2022
1845 Clear 22 1013 24 10000 0.95 50 11:29 23.04.2022
1846 Clear 21 1014 27 10000 1.18 58 09:41 23.04.2022
1847 Clear 19 1015 34 10000 1.3 59 07:52 23.04.2022
1848 Clear 14 1016 54 10000 0.34 246 03:57 23.04.2022
1849 Clear 13 1016 62 10000 0.26 344 02:34 23.04.2022
1850 Clear 14 1014 53 10000 1.11 3 23:34 22.04.2022
1851 Clear 14 1014 53 10000 1.19 6 22:40 22.04.2022
1852 Clear 15 1014 53 10000 1.63 359 21:56 22.04.2022
1853 Clear 15 1014 53 10000 1.65 359 21:55 22.04.2022
1854 Clear 15 1014 53 10000 1.63 359 21:37 22.04.2022
1855 Clear 16 1014 51 10000 2.43 8 20:30 22.04.2022
1856 Clouds 17 1014 44 10000 2.23 29 19:23 22.04.2022
1857 Clouds 17 1014 44 10000 2.23 29 18:56 22.04.2022
1858 Clouds 17 1014 43 10000 2.38 28 18:24 22.04.2022
1859 Clouds 18 1013 41 10000 1.32 64 16:53 22.04.2022
1860 Clouds 18 1012 37 10000 2.07 92 15:57 22.04.2022
1861 Clouds 19 1010 33 10000 2.74 79 15:23 22.04.2022
1862 Clouds 19 1010 33 10000 2.74 79 14:37 22.04.2022
1863 Clouds 17 1012 43 10000 3.39 114 13:41 22.04.2022
1864 Clouds 18 1011 35 10000 2.27 178 12:35 22.04.2022
1865 Clouds 21 1010 26 10000 3.37 22 11:23 22.04.2022
1866 Clouds 21 1010 26 10000 3.39 23 10:56 22.04.2022
1867 Clouds 21 1010 26 10000 3.37 22 10:32 22.04.2022
1868 Clouds 20 1012 29 10000 1.81 42 09:54 22.04.2022
1869 Clouds 19 1013 34 10000 1 70 08:56 22.04.2022
1870 Clouds 18 1014 37 10000 0.97 96 08:29 22.04.2022
1871 Clouds 15 1016 49 10000 0.53 62 05:31 22.04.2022
1872 Clouds 12 1014 59 10000 0.44 49 00:53 22.04.2022
1873 Clouds 13 1014 54 10000 1.07 9 23:29 21.04.2022
1874 Clouds 13 1014 54 10000 1.07 9 22:34 21.04.2022
1875 Rain 14 1014 52 10000 1.12 53 21:23 21.04.2022
1876 Clouds 15 1013 47 10000 1.44 73 20:27 21.04.2022
1877 Rain 16 1013 46 10000 1.79 55 18:49 21.04.2022
1878 Clouds 16 1012 45 10000 1.79 53 18:19 21.04.2022
1879 Clear 17 1011 43 10000 2.05 54 16:56 21.04.2022
1880 Clear 18 1010 37 10000 2.94 89 15:24 21.04.2022
1881 Clear 18 1010 37 10000 2.94 89 14:51 21.04.2022
1882 Clouds 19 1009 32 10000 6.21 131 13:56 21.04.2022
1883 Clouds 20 1008 28 10000 4.72 117 13:20 21.04.2022
1884 Clouds 20 1009 27 10000 3.93 102 11:37 21.04.2022
1885 Clear 20 1011 27 10000 1.45 21 09:23 21.04.2022
1886 Clear 19 1012 29 10000 1.06 36 08:29 21.04.2022
1887 Clear 16 1013 34 10000 0.29 40 06:25 21.04.2022
1888 Clear 14 1014 44 10000 0.78 317 03:37 21.04.2022
1889 Clear 12 1013 50 10000 0.7 340 02:56 21.04.2022
1890 Clear 12 1013 50 10000 0.7 340 02:38 21.04.2022
1891 Clear 13 1012 48 10000 0.72 45 00:25 21.04.2022
1892 Clear 14 1012 46 10000 0.59 54 23:24 20.04.2022
1893 Clear 14 1012 46 10000 0.59 54 22:52 20.04.2022
1894 Clear 14 1012 46 10000 0.59 54 22:32 20.04.2022
1895 Clear 14 1012 46 10000 0.59 54 22:32 20.04.2022
1896 Clear 14 1012 44 10000 0.28 17 21:35 20.04.2022
1897 Clear 15 1012 43 10000 0.45 110 20:43 20.04.2022
1898 Clouds 17 1011 24 10000 1.52 179 19:55 20.04.2022
1899 Clear 17 1010 22 10000 2.54 171 19:29 20.04.2022
1900 Clear 17 1010 22 10000 2.54 171 18:33 20.04.2022
1901 Clear 19 1009 17 10000 3.52 188 16:58 20.04.2022
1902 Clear 19 1009 17 10000 3.52 188 16:38 20.04.2022
1903 Clear 21 1008 13 10000 7.27 187 14:48 20.04.2022
1904 Clouds 22 1009 14 10000 7.16 203 11:56 20.04.2022
1905 Clouds 22 1009 14 10000 7.16 203 11:33 20.04.2022
1906 Clouds 22 1011 17 10000 5.77 201 10:29 20.04.2022
1907 Clouds 21 1012 19 10000 4.96 202 09:27 20.04.2022
1908 Clouds 20 1013 20 10000 5.19 203 08:24 20.04.2022
1909 Clouds 20 1013 20 10000 5.19 203 07:43 20.04.2022
1910 Clouds 16 1014 32 10000 1.86 220 04:49 20.04.2022
1911 Clouds 14 1014 43 10000 1.58 220 00:55 20.04.2022
1912 Clouds 15 1014 46 10000 1.61 226 00:20 20.04.2022
1913 Clouds 15 1013 51 10000 0.82 215 22:40 19.04.2022
1914 Clouds 16 1014 52 10000 0.42 128 22:19 19.04.2022
1915 Clouds 16 1014 52 10000 0.42 128 21:38 19.04.2022
1916 Clear 16 1014 52 10000 0.31 73 20:56 19.04.2022
1917 Clear 16 1014 52 10000 0.34 73 20:34 19.04.2022
1918 Clouds 17 1014 54 10000 0.15 128 19:31 19.04.2022
1919 Clouds 18 1013 51 10000 1.26 21 18:18 19.04.2022
1920 Clouds 18 1013 50 10000 2.26 12 16:46 19.04.2022
1921 Clouds 19 1012 42 10000 3.01 5 16:24 19.04.2022
1922 Clouds 22 1011 29 10000 1.69 349 15:20 19.04.2022
1923 Clouds 22 1011 29 10000 1.69 349 14:32 19.04.2022
1924 Clouds 24 1010 19 10000 5.22 206 12:52 19.04.2022
1925 Clouds 24 1011 23 10000 3.29 172 12:26 19.04.2022
1926 Clouds 22 1013 35 10000 4.91 113 11:23 19.04.2022
1927 Clouds 19 1015 42 10000 1.35 62 09:26 19.04.2022
1928 Rain 17 1017 50 10000 0.31 96 07:26 19.04.2022
1929 Rain 13 1018 71 10000 0.79 228 04:19 19.04.2022
1930 Clouds 13 1017 72 10000 0.31 153 00:56 19.04.2022
1931 Clouds 13 1017 72 10000 0.16 1 23:38 18.04.2022
1932 Rain 13 1018 73 10000 0.62 192 21:48 18.04.2022
1933 Rain 12 1019 77 10000 0.73 200 21:24 18.04.2022
1934 Rain 12 1019 77 10000 0.73 200 20:38 18.04.2022
1935 Rain 12 1019 80 10000 0.33 117 19:59 18.04.2022
1936 Clouds 12 1019 82 10000 0.83 348 19:29 18.04.2022
1937 Clouds 12 1019 82 10000 0.83 348 18:34 18.04.2022
1938 Clouds 12 1019 84 10000 2.4 352 17:39 18.04.2022
1939 Clouds 12 1019 84 10000 2.4 352 17:39 18.04.2022
1940 Clouds 12 1019 84 10000 2.4 352 17:39 18.04.2022
1941 Clouds 13 1019 82 10000 3.29 10 17:19 18.04.2022
1942 Clouds 13 1019 82 10000 3.29 10 16:36 18.04.2022
1943 Clouds 13 1018 85 5888 0.98 154 15:28 18.04.2022
1944 Rain 14 1015 76 10000 1.9 8 13:44 18.04.2022
1945 Clouds 15 1014 67 10000 2.14 352 12:41 18.04.2022
1946 Clouds 19 1012 44 10000 1.57 144 11:43 18.04.2022
1947 Rain 20 1012 41 10000 3.1 108 10:46 18.04.2022
1948 Clouds 17 1014 52 10000 3.41 119 09:31 18.04.2022
1949 Rain 22 1012 31 10000 6.95 173 08:37 18.04.2022
1950 Clouds 18 1015 42 10000 0.69 221 06:25 18.04.2022
1951 Clouds 15 1014 56 10000 0.72 189 02:22 18.04.2022
1952 Clouds 17 1012 44 10000 1.67 201 22:53 17.04.2022
1953 Clouds 17 1012 44 10000 1.67 201 22:31 17.04.2022
1954 Clouds 18 1012 44 10000 1.18 169 21:32 17.04.2022
1955 Clouds 18 1013 41 10000 2.03 167 20:50 17.04.2022
1956 Clouds 19 1013 41 10000 2.35 182 19:55 17.04.2022
1957 Clouds 20 1012 34 10000 2.54 157 18:34 17.04.2022
1958 Clouds 21 1009 25 10000 1.15 33 16:44 17.04.2022
1959 Clouds 22 1008 23 10000 2.12 291 15:33 17.04.2022
1960 Clouds 23 1007 21 10000 1.32 332 14:38 17.04.2022
1961 Clouds 26 1005 17 10000 4.01 223 13:23 17.04.2022
1962 Clouds 26 1005 17 10000 4.01 223 12:30 17.04.2022
1963 Clear 26 1006 12 10000 1.08 173 10:48 17.04.2022
1964 Clear 25 1007 13 10000 0.79 202 10:29 17.04.2022
1965 Clear 25 1007 13 10000 0.79 202 09:50 17.04.2022
1966 Clear 24 1008 14 10000 0.39 150 08:58 17.04.2022
1967 Clouds 23 1010 14 10000 0.52 64 08:27 17.04.2022
1968 Clouds 19 1011 16 10000 0.58 21 05:20 17.04.2022
1969 Clouds 16 1010 24 10000 1.11 330 01:40 17.04.2022
1970 Clouds 16 1010 23 10000 1.29 357 23:59 16.04.2022
1971 Clouds 17 1009 21 10000 1.46 349 22:50 16.04.2022
1972 Clouds 17 1009 19 10000 1.5 9 21:44 16.04.2022
1973 Clouds 18 1009 18 10000 1.72 18 20:54 16.04.2022
1974 Clouds 19 1009 15 10000 1.8 10 19:21 16.04.2022
1975 Clouds 19 1009 15 10000 1.8 10 18:33 16.04.2022
1976 Clouds 21 1007 10 10000 2.81 22 16:42 16.04.2022
1977 Clouds 22 1006 9 10000 2.55 37 15:46 16.04.2022
1978 Clouds 24 1005 6 10000 2.77 54 14:57 16.04.2022
1979 Clouds 25 1005 6 10000 2.88 71 14:29 16.04.2022
1980 Clouds 25 1005 7 10000 2.71 47 13:41 16.04.2022
1981 Clouds 25 1006 7 10000 2.3 58 12:35 16.04.2022
1982 Clear 24 1007 8 10000 1.66 74 11:24 16.04.2022
1983 Clear 23 1008 9 10000 1.39 84 09:59 16.04.2022
1984 Clear 22 1009 11 10000 0.89 123 09:19 16.04.2022
1985 Clear 22 1009 11 10000 0.89 123 08:31 16.04.2022
1986 Clouds 19 1011 16 10000 0.34 169 06:59 16.04.2022
1987 Clouds 16 1012 21 10000 0.3 309 04:36 16.04.2022
1988 Clear 13 1011 31 10000 1.01 341 00:38 16.04.2022
1989 Clear 13 1011 31 10000 0.74 326 23:34 15.04.2022
1990 Clear 14 1011 30 10000 1.18 339 22:38 15.04.2022
1991 Clear 15 1012 28 10000 1.09 351 21:59 15.04.2022
1992 Clear 15 1012 26 10000 1.35 353 21:18 15.04.2022
1993 Clear 15 1012 26 10000 1.35 353 21:18 15.04.2022
1994 Clear 15 1012 26 10000 1.35 353 20:31 15.04.2022
1995 Clear 16 1011 23 10000 1.59 18 19:41 15.04.2022
1996 Clear 17 1011 21 10000 1.37 29 18:55 15.04.2022
1997 Clear 18 1011 20 10000 1.54 35 18:26 15.04.2022
1998 Clear 18 1011 20 10000 1.54 35 17:49 15.04.2022
1999 Clear 19 1010 18 10000 2.84 31 17:22 15.04.2022
2000 Clear 20 1009 15 10000 4.64 23 16:24 15.04.2022
2001 Clear 20 1009 15 10000 4.64 23 15:37 15.04.2022
2002 Clear 24 1007 9 10000 8.58 9 13:55 15.04.2022
2003 Clear 24 1007 9 10000 6.16 11 12:46 15.04.2022
2004 Clear 24 1007 9 10000 3.18 16 11:59 15.04.2022
2005 Clear 24 1007 9 10000 3.17 17 11:40 15.04.2022
2006 Clear 23 1009 11 10000 1.95 32 10:45 15.04.2022
2007 Clear 22 1010 13 10000 1.59 41 09:50 15.04.2022
2008 Clear 21 1011 15 10000 1.33 45 09:21 15.04.2022
2009 Clear 20 1012 18 10000 1.17 41 08:24 15.04.2022
2010 Clear 18 1013 21 10000 1.33 37 06:46 15.04.2022
2011 Clear 14 1014 38 10000 0.87 331 04:28 15.04.2022
2012 Clear 14 1012 36 10000 1.03 0 23:42 14.04.2022
2013 Clear 14 1012 35 10000 0.95 12 23:19 14.04.2022
2014 Clear 14 1012 35 10000 0.95 12 22:42 14.04.2022
2015 Clear 15 1011 33 10000 0.91 2 22:24 14.04.2022
2016 Clear 15 1011 33 10000 0.81 17 21:32 14.04.2022
2017 Clear 17 1011 27 10000 1.56 20 19:24 14.04.2022
2018 Clear 17 1011 27 10000 1.56 20 18:31 14.04.2022
2019 Clear 18 1011 25 10000 2.27 22 17:45 14.04.2022
2020 Clear 19 1009 22 10000 3.49 24 16:49 14.04.2022
2021 Clear 20 1008 20 10000 5.96 33 15:48 14.04.2022
2022 Clouds 23 1006 16 10000 4.54 18 13:52 14.04.2022
2023 Clouds 22 1007 20 10000 1.96 1 13:19 14.04.2022
2024 Clouds 22 1007 20 10000 1.96 1 12:32 14.04.2022
2025 Clouds 22 1008 22 10000 1.84 328 11:36 14.04.2022
2026 Clouds 22 1009 22 10000 2.27 356 10:57 14.04.2022
2027 Clouds 21 1010 23 10000 1.85 21 10:29 14.04.2022
2028 Clouds 20 1011 25 10000 1.43 31 09:26 14.04.2022
2029 Clouds 19 1012 28 10000 1.28 27 07:52 14.04.2022
2030 Clouds 15 1013 45 10000 0.5 221 05:23 14.04.2022
2031 Clouds 13 1012 55 10000 1 220 23:50 13.04.2022
2032 Clouds 13 1012 55 10000 1.21 219 22:37 13.04.2022
2033 Clouds 13 1013 56 10000 0.91 225 21:42 13.04.2022
2034 Clouds 13 1014 57 10000 2.24 6 20:27 13.04.2022
2035 Clouds 14 1014 54 10000 3.27 19 19:46 13.04.2022
2036 Clouds 15 1014 52 10000 4.41 8 18:36 13.04.2022
2037 Clouds 14 1013 57 10000 2.2 35 17:24 13.04.2022
2038 Clouds 14 1013 57 10000 2.2 35 16:44 13.04.2022
2039 Clouds 15 1012 52 10000 3.92 5 15:44 13.04.2022
2040 Clouds 19 1008 38 10000 5.79 1 15:19 13.04.2022
2041 Clouds 19 1008 38 10000 5.79 1 14:30 13.04.2022
2042 Clouds 20 1007 31 10000 2.19 40 13:37 13.04.2022
2043 Clear 22 1006 27 10000 5.64 95 12:41 13.04.2022
2044 Clear 23 1007 19 10000 0.66 317 11:24 13.04.2022
2045 Clear 22 1009 25 10000 0.17 49 09:45 13.04.2022
2046 Clear 20 1010 30 10000 0.66 59 08:43 13.04.2022
2047 Clouds 18 1012 37 10000 1.23 61 07:23 13.04.2022
2048 Clouds 18 1012 37 10000 1.23 61 06:46 13.04.2022
2049 Clouds 17 1013 42 10000 0.97 47 06:18 13.04.2022
2050 Clouds 15 1011 48 10000 0.39 286 00:28 13.04.2022
2051 Clouds 15 1011 48 10000 0.39 286 23:46 12.04.2022
2052 Clouds 15 1011 46 10000 1.14 306 22:31 12.04.2022
2053 Clouds 16 1011 43 10000 1.23 352 21:42 12.04.2022
2054 Clouds 16 1012 43 10000 2.41 24 20:44 12.04.2022
2055 Clouds 17 1012 40 10000 2.24 357 19:54 12.04.2022
2056 Clouds 17 1012 40 10000 2.56 14 19:35 12.04.2022
2057 Clouds 17 1012 41 10000 1.55 16 18:50 12.04.2022
2058 Clouds 17 1013 42 10000 0.59 337 17:36 12.04.2022
2059 Clouds 17 1012 43 10000 1.32 113 16:33 12.04.2022
2060 Clouds 18 1011 38 10000 3.91 66 15:33 12.04.2022
2061 Clouds 20 1009 31 10000 6.55 78 14:33 12.04.2022
2062 Clouds 22 1007 23 10000 3.65 152 13:40 12.04.2022
2063 Clouds 24 1005 21 10000 6.27 106 13:20 12.04.2022
2064 Clouds 23 1005 21 10000 5.46 105 11:47 12.04.2022
2065 Clouds 25 1005 15 10000 4.24 83 11:24 12.04.2022
2066 Clouds 23 1009 19 10000 0.94 37 09:25 12.04.2022
2067 Clouds 22 1010 22 10000 1.41 19 08:26 12.04.2022
2068 Clouds 21 1011 25 10000 1.98 11 06:33 12.04.2022
2069 Clouds 20 1012 27 10000 1.75 17 05:38 12.04.2022
2070 Clouds 18 1011 35 10000 2.05 163 01:47 12.04.2022
2071 Clouds 19 1010 29 10000 2.4 324 23:20 11.04.2022
2072 Clouds 20 1010 27 10000 1.43 354 21:50 11.04.2022
2073 Clouds 20 1010 24 10000 0.86 20 21:18 11.04.2022
2074 Clouds 20 1010 24 10000 0.86 20 20:30 11.04.2022
2075 Clouds 20 1010 24 10000 0.86 20 20:30 11.04.2022
2076 Clouds 21 1010 23 10000 1.41 306 19:57 11.04.2022
2077 Clouds 21 1009 21 10000 1.14 308 19:22 11.04.2022
2078 Clouds 21 1009 21 10000 1.14 308 18:52 11.04.2022
2079 Clouds 22 1008 19 10000 0.97 322 17:57 11.04.2022
2080 Clouds 22 1007 17 10000 1.13 116 16:57 11.04.2022
2081 Clouds 25 1005 12 10000 2.37 139 16:25 11.04.2022
2082 Clouds 26 1005 9 10000 3.96 192 14:36 11.04.2022
2083 Clouds 28 1004 7 10000 7.02 197 12:54 11.04.2022
2084 Clouds 28 1004 7 10000 7.02 197 12:35 11.04.2022
2085 Clouds 28 1005 7 10000 5.22 181 11:42 11.04.2022
2086 Clouds 28 1006 8 10000 4.05 201 10:34 11.04.2022
2087 Clouds 27 1007 11 10000 1.23 208 09:30 11.04.2022
2088 Clear 23 1011 21 10000 0.72 35 07:19 11.04.2022
2089 Clouds 17 1012 33 10000 0.55 282 02:32 11.04.2022
2090 Clouds 19 1011 28 10000 1.4 18 22:54 10.04.2022
2091 Clouds 20 1011 27 10000 1.51 40 22:26 10.04.2022
2092 Clouds 20 1011 27 10000 1.51 40 21:33 10.04.2022
2093 Clouds 20 1011 26 10000 1.13 41 20:33 10.04.2022
2094 Clouds 21 1010 24 10000 1.26 61 19:45 10.04.2022
2095 Clouds 22 1010 22 10000 1.67 71 19:25 10.04.2022
2096 Clouds 22 1010 22 10000 1.67 71 18:45 10.04.2022
2097 Clouds 23 1010 20 10000 1.98 70 17:56 10.04.2022
2098 Clouds 23 1010 20 10000 1.98 70 17:56 10.04.2022
2099 Clouds 23 1010 20 10000 1.98 70 17:37 10.04.2022
2100 Clouds 24 1009 17 10000 2.6 72 16:33 10.04.2022
2101 Clouds 25 1008 13 10000 2.72 74 15:30 10.04.2022
2102 Clouds 28 1007 8 10000 0.7 130 14:25 10.04.2022
2103 Clouds 28 1007 8 10000 1.21 157 12:35 10.04.2022
2104 Clouds 28 1007 8 10000 1.21 157 12:35 10.04.2022
2105 Clouds 28 1008 9 10000 0.62 130 11:56 10.04.2022
2106 Clear 27 1009 10 10000 0.37 112 11:29 10.04.2022
2107 Clear 27 1009 10 10000 0.37 112 10:56 10.04.2022
2108 Clear 26 1010 12 10000 0.49 72 09:58 10.04.2022
2109 Clear 26 1010 12 10000 0.54 77 09:37 10.04.2022
2110 Clear 24 1012 15 10000 0.46 105 08:22 10.04.2022
2111 Clear 23 1013 17 10000 0.2 117 07:27 10.04.2022
2112 Clear 21 1014 20 10000 0.42 269 05:46 10.04.2022
2113 Clear 15 1013 31 10000 0.94 337 02:25 10.04.2022
2114 Clear 17 1013 27 10000 0.85 343 00:27 10.04.2022
2115 Clear 17 1013 27 10000 0.85 343 23:48 09.04.2022
2116 Clear 17 1013 26 10000 0.87 355 22:47 09.04.2022
2117 Clear 18 1013 24 10000 1.37 8 21:35 09.04.2022
2118 Clear 19 1013 23 10000 1.24 4 20:48 09.04.2022
2119 Clouds 20 1013 21 10000 1.5 352 20:25 09.04.2022
2120 Clouds 19 1013 21 10000 1.4 345 19:41 09.04.2022
2121 Clouds 20 1013 20 10000 1.7 347 18:55 09.04.2022
2122 Clouds 22 1013 18 10000 2.48 356 18:19 09.04.2022
2123 Clouds 22 1013 18 10000 2.48 356 17:39 09.04.2022
2124 Clear 22 1012 18 10000 2.21 14 16:50 09.04.2022
2125 Clear 23 1011 17 10000 2.14 37 15:55 09.04.2022
2126 Clear 25 1010 14 10000 2.16 65 15:28 09.04.2022
2127 Clear 25 1010 14 10000 2.07 75 14:27 09.04.2022
2128 Clear 26 1010 14 10000 1.83 78 13:54 09.04.2022
2129 Clear 26 1010 14 10000 1.77 78 12:59 09.04.2022
2130 Clear 26 1010 14 10000 1.77 78 12:34 09.04.2022
2131 Clear 25 1011 16 10000 1.22 94 11:21 09.04.2022
2132 Clear 24 1012 17 10000 1.04 91 10:20 09.04.2022
2133 Clear 24 1012 17 10000 1.04 91 09:37 09.04.2022
2134 Clear 23 1013 20 10000 0.82 94 08:51 09.04.2022
2135 Clear 20 1015 28 10000 0.52 151 06:48 09.04.2022
2136 Clouds 14 1014 48 10000 0.51 97 01:31 09.04.2022
2137 Clouds 16 1014 44 10000 1.44 330 23:30 08.04.2022
2138 Clouds 17 1014 39 10000 0.98 20 21:58 08.04.2022
2139 Clouds 17 1014 39 10000 3.07 35 20:48 08.04.2022
2140 Clouds 19 1013 33 10000 4.49 345 20:23 08.04.2022
2141 Clouds 19 1012 30 10000 2.68 356 19:18 08.04.2022
2142 Clouds 21 1010 22 10000 0.96 84 18:28 08.04.2022
2143 Clouds 21 1010 22 10000 0.96 84 17:45 08.04.2022
2144 Clouds 23 1009 16 10000 1.75 159 17:22 08.04.2022
2145 Clouds 23 1009 16 10000 1.75 159 16:38 08.04.2022
2146 Clouds 23 1008 15 10000 2.92 170 15:53 08.04.2022
2147 Clouds 26 1007 11 10000 6.04 175 15:23 08.04.2022
2148 Clouds 26 1007 10 10000 5.47 195 14:26 08.04.2022
2149 Clouds 26 1007 10 10000 5.47 195 13:44 08.04.2022
2150 Clouds 26 1007 11 10000 4.52 196 13:25 08.04.2022
2151 Clouds 27 1008 11 10000 5 188 11:53 08.04.2022
2152 Clear 26 1009 12 10000 2.84 193 10:33 08.04.2022
2153 Clear 25 1011 15 10000 1.17 175 09:37 08.04.2022
2154 Clear 24 1012 18 10000 0.62 156 08:34 08.04.2022
2155 Clear 21 1015 24 10000 0.22 134 06:47 08.04.2022
2156 Clear 21 1015 24 10000 0.22 134 06:47 08.04.2022
2157 Clear 19 1016 30 10000 0.51 225 04:34 08.04.2022
2158 Clouds 16 1015 36 10000 0.45 349 01:26 08.04.2022
2159 Clouds 16 1016 36 10000 0.84 327 00:22 08.04.2022
2160 Clouds 17 1015 35 10000 0.87 335 22:58 07.04.2022
2161 Clouds 17 1015 35 10000 0.87 335 22:37 07.04.2022
2162 Clouds 18 1016 33 10000 1.03 23 22:19 07.04.2022
2163 Clouds 18 1016 33 10000 1.03 23 21:49 07.04.2022
2164 Clouds 19 1016 31 10000 1.34 4 20:58 07.04.2022
2165 Clouds 19 1016 31 10000 1.34 4 20:30 07.04.2022
2166 Clouds 20 1016 25 10000 0.81 341 18:29 07.04.2022
2167 Clouds 21 1015 22 10000 3.51 6 17:25 07.04.2022
2168 Clouds 21 1015 22 10000 3.51 6 16:44 07.04.2022
2169 Clouds 23 1013 16 10000 5.01 6 16:20 07.04.2022
2170 Clouds 25 1012 12 10000 1.79 26 14:36 07.04.2022
2171 Clouds 26 1011 11 10000 2.39 13 13:42 07.04.2022
2172 Clouds 26 1012 11 10000 2.68 11 12:41 07.04.2022
2173 Clear 26 1014 10 10000 1.11 119 11:29 07.04.2022
2174 Clear 25 1015 11 10000 0.87 137 09:37 07.04.2022
2175 Clear 24 1016 13 10000 0.58 155 08:37 07.04.2022
2176 Clear 22 1018 15 10000 0.25 212 06:42 07.04.2022
2177 Clear 15 1017 26 10000 0.69 344 02:47 07.04.2022
2178 Clouds 15 1017 24 10000 1.4 328 02:18 07.04.2022
2179 Clouds 17 1016 23 10000 1.28 10 23:57 06.04.2022
2180 Clouds 17 1016 22 10000 1.27 357 22:48 06.04.2022
2181 Clouds 18 1016 21 10000 1.26 8 22:25 06.04.2022
2182 Clouds 18 1016 21 10000 1.26 8 21:32 06.04.2022
2183 Clouds 20 1015 19 10000 1.04 25 20:28 06.04.2022
2184 Clouds 20 1015 19 10000 1.04 25 19:53 06.04.2022
2185 Clouds 20 1015 18 10000 1.29 20 18:51 06.04.2022
2186 Clouds 21 1015 18 10000 1.11 343 17:57 06.04.2022
2187 Clouds 21 1015 18 10000 1.11 343 17:35 06.04.2022
2188 Clouds 21 1014 17 10000 1.18 355 16:36 06.04.2022
2189 Clouds 23 1014 15 10000 2.38 16 15:48 06.04.2022
2190 Clouds 25 1012 10 10000 3.04 62 14:23 06.04.2022
2191 Clouds 25 1012 9 10000 2.79 69 12:58 06.04.2022
2192 Clear 25 1013 9 10000 2.14 74 11:55 06.04.2022
2193 Clear 25 1014 10 10000 1.54 87 10:45 06.04.2022
2194 Clear 24 1015 11 10000 0.96 119 10:20 06.04.2022
2195 Clear 24 1015 11 10000 1.02 119 09:40 06.04.2022
2196 Clear 24 1016 12 10000 0.87 150 08:30 06.04.2022
2197 Clear 22 1018 14 10000 0.73 172 07:38 06.04.2022
2198 Clear 15 1019 27 10000 0.51 210 03:37 06.04.2022
2199 Clear 15 1018 24 10000 1.21 342 23:51 05.04.2022
2200 Clear 16 1018 23 10000 1.52 344 22:30 05.04.2022
2201 Clear 17 1018 20 10000 1.74 8 21:19 05.04.2022
2202 Clear 18 1018 18 10000 2.13 358 20:25 05.04.2022
2203 Clouds 19 1017 17 10000 1.37 2 19:26 05.04.2022
2204 Clouds 20 1017 17 10000 1.26 24 17:52 05.04.2022
2205 Clouds 20 1016 16 10000 1.67 27 16:51 05.04.2022
2206 Clear 21 1015 15 10000 1.88 22 15:53 05.04.2022
2207 Clear 21 1015 15 10000 1.88 22 15:33 05.04.2022
2208 Clear 24 1013 9 10000 2.37 28 14:22 05.04.2022
2209 Clear 24 1013 9 10000 1.61 35 12:56 05.04.2022
2210 Clear 24 1014 9 10000 1.17 45 11:50 05.04.2022
2211 Clear 24 1014 9 10000 1.17 45 11:32 05.04.2022
2212 Clear 23 1016 10 10000 0.9 36 09:49 05.04.2022
2213 Clear 22 1017 11 10000 0.76 37 08:52 05.04.2022
2214 Clouds 20 1019 13 10000 0.29 32 06:52 05.04.2022
2215 Clouds 14 1017 20 10000 1.18 349 00:41 05.04.2022
2216 Clouds 15 1016 18 10000 1.49 3 22:41 04.04.2022
2217 Clouds 16 1016 17 10000 1.47 17 22:19 04.04.2022
2218 Clouds 16 1016 17 10000 1.32 32 21:21 04.04.2022
2219 Clouds 16 1016 17 10000 1.32 32 20:49 04.04.2022
2220 Clear 17 1015 15 10000 1.32 39 19:44 04.04.2022
2221 Clear 18 1015 15 10000 0.99 23 19:25 04.04.2022
2222 Clear 19 1015 14 10000 0.83 30 17:55 04.04.2022
2223 Clear 20 1014 12 10000 1.73 29 16:36 04.04.2022
2224 Clear 20 1014 12 10000 1.73 29 16:36 04.04.2022
2225 Clear 21 1012 11 10000 2.03 36 15:43 04.04.2022
2226 Clear 23 1012 8 10000 1.57 56 15:25 04.04.2022
2227 Clear 23 1012 8 10000 1.57 56 14:45 04.04.2022
2228 Clear 23 1011 8 10000 0.98 61 13:22 04.04.2022
2229 Clear 23 1012 9 10000 0.81 53 11:49 04.04.2022
2230 Clear 22 1013 9 10000 0.61 61 11:28 04.04.2022
2231 Clear 19 1016 11 10000 0.4 78 08:29 04.04.2022
2232 Clear 12 1016 21 10000 0.52 311 03:52 04.04.2022
2233 Clear 12 1016 18 10000 1.28 348 00:41 04.04.2022
2234 Clear 14 1015 18 10000 1.06 4 22:36 03.04.2022
2235 Clear 14 1015 18 10000 1.03 12 21:44 03.04.2022
2236 Clear 15 1015 18 10000 0.88 6 20:53 03.04.2022
2237 Clear 16 1015 17 10000 0.82 342 19:45 03.04.2022
2238 Clear 16 1015 16 10000 1.07 349 18:32 03.04.2022
2239 Clear 17 1015 14 10000 1.53 2 17:47 03.04.2022
2240 Clear 18 1014 14 10000 1.7 9 16:57 03.04.2022
2241 Clear 18 1014 14 10000 1.7 9 16:39 03.04.2022
2242 Clear 21 1013 9 10000 1.41 52 14:39 03.04.2022
2243 Clear 21 1013 9 10000 1.41 47 13:51 03.04.2022
2244 Clear 21 1013 9 10000 0.89 51 12:40 03.04.2022
2245 Clear 20 1015 11 10000 0.49 85 10:58 03.04.2022
2246 Clear 19 1016 12 10000 0.72 72 09:36 03.04.2022
2247 Clear 17 1018 18 10000 0.41 155 08:27 03.04.2022
2248 Clear 13 1020 27 10000 0.49 251 04:37 03.04.2022
2249 Clear 10 1018 37 10000 0.71 244 01:53 03.04.2022
2250 Clear 11 1018 36 10000 0.9 346 23:21 02.04.2022
2251 Clear 12 1018 34 10000 0.97 1 21:58 02.04.2022
2252 Clear 12 1018 34 10000 0.97 2 21:36 02.04.2022
2253 Clear 12 1018 33 10000 0.94 22 21:18 02.04.2022
2254 Clear 13 1017 29 10000 1.38 13 19:32 02.04.2022
2255 Clouds 15 1016 26 10000 1.36 18 18:23 02.04.2022
2256 Clouds 15 1016 26 10000 1.36 18 17:53 02.04.2022
2257 Clouds 17 1013 21 10000 3.5 17 16:25 02.04.2022
2258 Clouds 19 1012 17 10000 6.01 6 15:21 02.04.2022
2259 Clouds 19 1012 17 10000 6.01 6 14:49 02.04.2022
2260 Clouds 19 1012 17 10000 6.01 6 14:49 02.04.2022
2261 Clouds 20 1011 15 10000 6.31 13 13:35 02.04.2022
2262 Clouds 21 1010 12 10000 5.18 10 12:38 02.04.2022
2263 Clear 21 1012 13 10000 1.44 48 11:23 02.04.2022
2264 Clear 20 1013 15 10000 1.19 47 09:30 02.04.2022
2265 Clear 17 1016 21 10000 0.49 21 06:51 02.04.2022
2266 Clear 12 1016 35 10000 0.75 307 03:52 02.04.2022
2267 Clear 12 1015 33 10000 0.87 336 23:57 01.04.2022
2268 Clear 13 1015 32 10000 1.1 347 23:22 01.04.2022
2269 Clear 14 1015 29 10000 1.45 355 21:34 01.04.2022
2270 Clear 14 1015 28 10000 1.08 6 20:51 01.04.2022
2271 Clear 15 1015 27 10000 1.05 18 20:25 01.04.2022
2272 Clear 15 1015 26 10000 1.02 16 19:32 01.04.2022
2273 Clear 16 1015 25 10000 1.11 8 18:48 01.04.2022
2274 Clear 17 1014 22 10000 1.76 355 17:47 01.04.2022
2275 Clear 18 1014 20 10000 1.72 353 16:52 01.04.2022
2276 Clear 19 1013 17 10000 2.93 7 15:39 01.04.2022
2277 Clear 23 1010 8 10000 3.25 38 14:21 01.04.2022
2278 Clear 23 1010 8 10000 2.44 52 13:34 01.04.2022
2279 Clear 24 1010 7 10000 1.67 66 12:32 01.04.2022
2280 Clear 24 1010 7 10000 1.67 66 12:32 01.04.2022
2281 Clear 23 1011 7 10000 1.04 90 11:40 01.04.2022
2282 Clear 22 1013 7 10000 0.48 145 10:19 01.04.2022
2283 Clear 21 1014 8 10000 0.53 188 08:58 01.04.2022
2284 Clouds 18 1017 10 10000 0.43 221 06:54 01.04.2022
2285 Clouds 15 1017 13 10000 0.54 244 04:51 01.04.2022
2286 Clouds 15 1017 13 10000 0.54 244 04:31 01.04.2022
2287 Clouds 11 1016 19 10000 0.27 236 01:56 01.04.2022
2288 Clouds 13 1017 18 10000 0.88 345 22:58 31.03.2022
2289 Clouds 14 1017 16 10000 1.09 349 21:51 31.03.2022
2290 Clouds 14 1017 16 10000 1.09 349 21:32 31.03.2022
2291 Clear 15 1017 15 10000 0.6 327 20:29 31.03.2022
2292 Clear 15 1017 15 10000 0.6 327 19:49 31.03.2022
2293 Clear 16 1017 14 10000 0.33 305 18:44 31.03.2022
2294 Clear 17 1017 14 10000 0.09 250 17:49 31.03.2022
2295 Clear 18 1016 14 10000 0.36 132 16:38 31.03.2022
2296 Clear 18 1015 13 10000 0.76 123 15:43 31.03.2022
2297 Clear 20 1015 8 10000 0.97 110 15:19 31.03.2022
2298 Clear 20 1015 9 10000 1.02 109 14:35 31.03.2022
2299 Clear 21 1015 7 10000 1.09 70 11:57 31.03.2022
2300 Clear 20 1016 8 10000 0.92 68 11:20 31.03.2022
2301 Clear 19 1017 9 10000 0.85 66 09:45 31.03.2022
2302 Clear 17 1019 13 10000 0.53 41 07:59 31.03.2022
2303 Clear 13 1020 17 10000 0.41 263 05:23 31.03.2022
2304 Clear 11 1018 24 10000 0.71 336 23:43 30.03.2022
2305 Clear 12 1017 24 10000 0.79 342 22:32 30.03.2022
2306 Clear 12 1017 23 10000 0.84 347 21:39 30.03.2022
2307 Clear 13 1017 23 10000 0.89 5 20:53 30.03.2022
2308 Clear 14 1017 22 10000 1.04 353 20:20 30.03.2022
2309 Clear 14 1017 22 10000 1.04 353 20:20 30.03.2022
2310 Clear 14 1017 21 10000 1.26 348 19:19 30.03.2022
2311 Clear 15 1016 19 10000 1.64 358 18:18 30.03.2022
2312 Clear 15 1016 19 10000 1.64 358 17:44 30.03.2022
2313 Clear 16 1015 16 10000 2.06 10 16:54 30.03.2022
2314 Clear 16 1015 16 10000 2.04 10 16:31 30.03.2022
2315 Clear 19 1013 10 10000 1.33 35 14:59 30.03.2022
2316 Clear 20 1013 9 10000 1.48 49 13:35 30.03.2022
2317 Clear 19 1012 9 10000 1.21 57 12:42 30.03.2022
2318 Clear 18 1014 11 10000 0.53 154 10:55 30.03.2022
2319 Clear 17 1015 14 10000 0.51 175 09:58 30.03.2022
2320 Clear 16 1017 18 10000 0.55 175 09:20 30.03.2022
2321 Clear 15 1018 22 10000 0.32 197 07:31 30.03.2022
2322 Clear 11 1019 31 10000 0.65 236 05:40 30.03.2022
2323 Clear 7 1019 44 10000 0.37 291 03:31 30.03.2022
2324 Clear 8 1019 40 10000 0.61 326 23:42 29.03.2022
2325 Clear 9 1019 37 10000 0.93 346 22:20 29.03.2022
2326 Clear 9 1019 37 10000 0.93 346 21:44 29.03.2022
2327 Clear 9 1020 36 10000 0.83 4 20:49 29.03.2022
2328 Clear 10 1020 34 10000 0.89 4 19:47 29.03.2022
2329 Clear 10 1019 33 10000 1.56 25 18:54 29.03.2022
2330 Clear 11 1019 31 10000 2.71 24 18:18 29.03.2022
2331 Clear 12 1018 28 10000 2.49 24 17:21 29.03.2022
2332 Clear 12 1018 28 10000 2.49 24 16:56 29.03.2022
2333 Clear 14 1017 25 10000 3.65 18 15:57 29.03.2022
2334 Clear 15 1015 21 10000 4.64 20 14:48 29.03.2022
2335 Clear 17 1014 20 10000 6.67 12 13:52 29.03.2022
2336 Clear 19 1012 19 10000 6.25 11 12:46 29.03.2022
2337 Clear 21 1011 11 10000 3.51 2 11:28 29.03.2022
2338 Clear 21 1012 11 10000 1.75 22 10:27 29.03.2022
2339 Clear 20 1013 13 10000 0.14 84 09:20 29.03.2022
2340 Clear 17 1015 19 10000 1.31 204 06:55 29.03.2022
2341 Clear 13 1014 30 10000 1.53 219 03:47 29.03.2022
2342 Clear 14 1012 29 10000 1.23 217 23:49 28.03.2022
2343 Clear 14 1012 30 10000 0.68 250 22:58 28.03.2022
2344 Clear 14 1012 30 10000 0.68 250 22:39 28.03.2022
2345 Clear 14 1012 30 10000 0.52 308 22:19 28.03.2022
2346 Clear 15 1013 28 10000 0.11 316 20:47 28.03.2022
2347 Clear 16 1012 27 10000 0.53 148 19:59 28.03.2022
2348 Clear 16 1012 27 10000 0.53 148 19:40 28.03.2022
2349 Clear 17 1012 25 10000 0.97 135 18:51 28.03.2022
2350 Clear 18 1012 23 10000 1.53 130 18:18 28.03.2022
2351 Clear 18 1011 21 10000 2.34 134 17:28 28.03.2022
2352 Clear 19 1010 18 10000 2.31 122 15:38 28.03.2022
2353 Clear 23 1008 9 10000 4.82 170 14:24 28.03.2022
2354 Clear 23 1008 9 10000 4.52 182 13:26 28.03.2022
2355 Clear 22 1009 9 10000 3.83 198 11:53 28.03.2022
2356 Clear 22 1010 11 10000 2.27 215 10:35 28.03.2022
2357 Clear 20 1013 20 10000 1.04 182 09:21 28.03.2022
2358 Clear 20 1013 20 10000 1.04 182 08:45 28.03.2022
2359 Clear 19 1014 24 10000 0.82 169 08:21 28.03.2022
2360 Clear 18 1014 24 10000 1.26 196 07:23 28.03.2022
2361 Clear 13 1014 40 10000 1.09 230 02:44 28.03.2022
2362 Clear 15 1013 38 10000 0.27 272 22:38 27.03.2022
2363 Clear 15 1013 36 10000 0.15 14 21:48 27.03.2022
2364 Clear 16 1013 35 10000 0.58 53 21:28 27.03.2022
2365 Clear 16 1013 35 10000 0.58 53 20:41 27.03.2022
2366 Clouds 16 1013 33 10000 1.06 49 19:43 27.03.2022
2367 Clouds 17 1012 30 10000 1.55 62 18:45 27.03.2022
2368 Clouds 18 1012 28 10000 1.76 87 18:23 27.03.2022
2369 Clouds 18 1012 29 10000 1.71 85 17:36 27.03.2022
2370 Clouds 20 1009 23 10000 3.44 62 15:51 27.03.2022
2371 Clouds 23 1008 18 10000 4.77 108 13:59 27.03.2022
2372 Clouds 24 1007 16 10000 2.14 107 13:25 27.03.2022
2373 Clouds 23 1008 17 10000 1.18 123 11:41 27.03.2022
2374 Clouds 21 1011 18 10000 0.02 233 09:49 27.03.2022
2375 Clouds 19 1013 21 10000 0.61 106 07:40 27.03.2022
2376 Clouds 15 1015 25 10000 0.57 293 04:49 27.03.2022
2377 Clear 13 1013 31 10000 0.85 351 00:26 27.03.2022
2378 Clear 14 1014 30 10000 0.83 351 22:52 26.03.2022
2379 Clear 14 1014 29 10000 0.7 343 22:22 26.03.2022
2380 Clear 14 1014 29 10000 0.7 343 21:30 26.03.2022
2381 Clear 16 1015 27 10000 0.84 15 19:38 26.03.2022
2382 Clouds 16 1014 27 10000 0.43 351 18:44 26.03.2022
2383 Clouds 17 1014 25 10000 0.87 21 17:41 26.03.2022
2384 Clouds 18 1013 23 10000 1.42 23 16:40 26.03.2022
2385 Clouds 19 1012 23 10000 1.17 38 15:43 26.03.2022
2386 Clouds 22 1010 16 10000 0.96 118 13:57 26.03.2022
2387 Clouds 22 1010 16 10000 0.96 118 13:36 26.03.2022
2388 Clear 23 1010 12 10000 1.99 156 12:18 26.03.2022
2389 Clear 22 1011 12 10000 2.24 171 10:49 26.03.2022
2390 Clear 21 1014 14 10000 1.09 217 09:19 26.03.2022
2391 Clear 19 1016 16 10000 0.49 199 06:56 26.03.2022
2392 Clear 17 1017 18 10000 0.34 207 05:31 26.03.2022
2393 Clear 12 1017 28 10000 0.69 287 02:34 26.03.2022
2394 Clear 12 1015 26 10000 1.25 315 22:47 25.03.2022
2395 Clear 14 1016 25 10000 1.32 322 20:58 25.03.2022
2396 Clear 14 1016 23 10000 1.57 321 20:26 25.03.2022
2397 Clear 15 1016 22 10000 1.69 307 19:19 25.03.2022
2398 Clear 15 1016 22 10000 1.69 307 18:35 25.03.2022
2399 Clear 16 1015 21 10000 1.34 309 17:30 25.03.2022
2400 Clear 17 1014 20 10000 0.85 342 16:27 25.03.2022
2401 Clear 17 1014 20 10000 0.85 342 15:34 25.03.2022
2402 Clear 20 1012 13 10000 1.05 67 13:29 25.03.2022
2403 Clear 20 1012 13 10000 0.92 44 11:25 25.03.2022
2404 Clear 19 1013 13 10000 0.75 34 09:37 25.03.2022
2405 Clear 18 1014 15 10000 0.44 6 08:50 25.03.2022
2406 Clear 17 1015 17 10000 0.32 282 07:42 25.03.2022
2407 Clear 16 1016 18 10000 0.73 225 06:59 25.03.2022
2408 Clear 10 1016 36 10000 1.24 282 02:37 25.03.2022
2409 Clear 11 1015 34 10000 0.76 315 22:59 24.03.2022
2410 Clear 11 1015 33 10000 0.5 313 22:19 24.03.2022
2411 Clear 12 1015 33 10000 0.41 326 20:52 24.03.2022
2412 Clear 12 1015 32 10000 0.65 343 19:49 24.03.2022
2413 Clear 13 1015 31 10000 0.95 2 18:45 24.03.2022
2414 Clear 14 1015 30 10000 1.3 359 17:36 24.03.2022
2415 Clear 14 1015 30 10000 1.3 359 17:36 24.03.2022
2416 Clear 15 1013 24 10000 2.66 348 16:28 24.03.2022
2417 Clear 17 1011 19 10000 2.87 337 14:51 24.03.2022
2418 Clear 18 1010 14 10000 2.96 344 14:22 24.03.2022
2419 Clear 18 1010 14 10000 2.96 344 13:34 24.03.2022
2420 Clear 19 1010 12 10000 1.35 9 12:24 24.03.2022
2421 Clear 19 1010 13 10000 1.37 10 11:27 24.03.2022
2422 Clear 18 1013 17 10000 1.05 356 09:27 24.03.2022
2423 Clear 18 1013 17 10000 1.05 356 08:34 24.03.2022
2424 Clear 15 1015 28 10000 0.3 262 05:30 24.03.2022
2425 Clear 15 1015 28 10000 0.3 262 05:30 24.03.2022
2426 Clear 11 1014 44 10000 0.67 241 23:59 23.03.2022
2427 Clouds 11 1014 44 10000 0.31 306 22:19 23.03.2022
2428 Clouds 12 1015 43 10000 0.81 355 21:21 23.03.2022
2429 Clear 12 1015 41 10000 1.63 15 19:56 23.03.2022
2430 Clear 13 1015 39 10000 1.5 9 19:28 23.03.2022
2431 Clear 14 1014 39 10000 0.92 6 17:52 23.03.2022
2432 Clear 14 1013 37 10000 1.5 348 17:24 23.03.2022
2433 Clear 15 1012 36 10000 2.7 349 15:43 23.03.2022
2434 Clear 16 1011 32 10000 5.09 359 14:47 23.03.2022
2435 Clear 20 1008 17 10000 2.83 351 13:31 23.03.2022
2436 Clear 20 1009 16 10000 0.26 44 11:24 23.03.2022
2437 Clear 18 1012 22 10000 0.14 264 08:29 23.03.2022
2438 Clouds 17 1014 24 10000 0.41 347 05:50 23.03.2022
2439 Clouds 12 1012 35 10000 1.01 289 02:28 23.03.2022
2440 Clouds 13 1012 33 10000 0.91 317 00:26 23.03.2022
2441 Clouds 13 1012 33 10000 0.91 317 00:26 23.03.2022
2442 Clouds 14 1012 31 10000 0.92 7 21:40 22.03.2022
2443 Clouds 14 1012 30 10000 0.66 1 20:59 22.03.2022
2444 Clouds 15 1012 29 10000 0.87 346 20:23 22.03.2022
2445 Clouds 15 1012 28 10000 0.49 13 19:27 22.03.2022
2446 Clouds 15 1012 28 10000 0.57 12 18:48 22.03.2022
2447 Clouds 16 1012 28 10000 0.82 25 17:43 22.03.2022
2448 Clouds 17 1012 26 10000 1.26 20 16:39 22.03.2022
2449 Clouds 17 1011 24 10000 2.05 23 15:41 22.03.2022
2450 Clouds 18 1010 21 10000 2.62 46 15:20 22.03.2022
2451 Clouds 18 1010 21 10000 2.62 46 14:42 22.03.2022
2452 Clouds 20 1009 15 10000 2.26 61 13:42 22.03.2022
2453 Clouds 21 1009 12 10000 1.44 209 12:18 22.03.2022
2454 Clouds 21 1010 12 10000 1.18 211 11:20 22.03.2022
2455 Clouds 19 1013 15 10000 0.27 200 09:28 22.03.2022
2456 Clouds 18 1014 17 10000 0.08 206 07:30 22.03.2022
2457 Clouds 14 1016 25 10000 0.96 218 03:57 22.03.2022
2458 Clouds 11 1015 31 10000 0.57 251 00:50 22.03.2022
2459 Clouds 12 1015 30 10000 0.7 297 22:48 21.03.2022
2460 Clouds 13 1016 29 10000 0.96 308 21:37 21.03.2022
2461 Clouds 14 1016 28 10000 1.01 310 20:44 21.03.2022
2462 Clouds 14 1016 28 10000 1.02 309 20:23 21.03.2022
2463 Clouds 14 1016 28 10000 1.02 309 19:45 21.03.2022
2464 Clouds 15 1017 27 10000 1.32 323 18:48 21.03.2022
2465 Clouds 15 1017 25 10000 1.87 322 17:36 21.03.2022
2466 Clear 16 1016 23 10000 1.91 324 16:59 21.03.2022
2467 Clear 16 1016 23 10000 1.91 324 16:33 21.03.2022
2468 Clouds 17 1015 23 10000 1 330 15:43 21.03.2022
2469 Clear 17 1014 21 10000 0.84 37 14:37 21.03.2022
2470 Clouds 20 1012 13 10000 1.35 67 13:20 21.03.2022
2471 Clouds 20 1012 12 10000 0.93 83 11:58 21.03.2022
2472 Clouds 20 1013 13 10000 0.38 81 11:28 21.03.2022
2473 Clouds 19 1013 13 10000 0.15 158 09:51 21.03.2022
2474 Clear 18 1015 15 10000 0.5 223 07:39 21.03.2022
2475 Clear 16 1016 18 10000 1.01 219 06:18 21.03.2022
2476 Clear 10 1015 28 10000 1.27 242 01:42 21.03.2022
2477 Clear 11 1014 27 10000 1.71 245 22:57 20.03.2022
2478 Clear 12 1014 27 10000 1.96 233 22:29 20.03.2022
2479 Clear 12 1014 27 10000 1.96 233 21:38 20.03.2022
2480 Clear 13 1014 26 10000 2.06 226 20:56 20.03.2022
2481 Clear 13 1014 26 10000 2.06 226 20:36 20.03.2022
2482 Clear 13 1014 25 10000 2.22 223 19:54 20.03.2022
2483 Clear 14 1014 24 10000 2.42 223 19:24 20.03.2022
2484 Clear 14 1013 23 10000 2.66 229 17:48 20.03.2022
2485 Clear 15 1012 22 10000 2.77 227 17:26 20.03.2022
2486 Clear 15 1012 22 10000 2.77 227 16:35 20.03.2022
2487 Clear 17 1010 17 10000 2.45 269 14:42 20.03.2022
2488 Clear 19 1008 12 10000 3.84 248 13:38 20.03.2022
2489 Clear 21 1008 9 10000 1.81 208 12:19 20.03.2022
2490 Clear 20 1009 11 10000 2.29 191 09:59 20.03.2022
2491 Clear 18 1012 16 10000 2.42 202 08:21 20.03.2022
2492 Clear 17 1012 18 10000 2.31 199 06:37 20.03.2022
2493 Clear 11 1012 33 10000 1.88 215 03:18 20.03.2022
2494 Clear 12 1010 33 10000 1.72 211 00:54 20.03.2022
2495 Clear 12 1010 37 10000 1.14 226 00:34 20.03.2022
2496 Clear 13 1010 41 10000 0.42 217 22:31 19.03.2022
2497 Clear 14 1010 40 10000 0.2 85 21:26 19.03.2022
2498 Clear 15 1010 37 10000 0.66 127 19:29 19.03.2022
2499 Clear 15 1010 37 10000 0.34 108 18:38 19.03.2022
2500 Clear 16 1010 34 10000 0.69 138 17:49 19.03.2022
2501 Clear 17 1010 32 10000 1.22 140 16:57 19.03.2022
2502 Clear 18 1008 24 10000 1.85 95 15:29 19.03.2022
2503 Clear 20 1007 17 10000 1.08 67 13:49 19.03.2022
2504 Clear 21 1008 15 10000 0.93 247 12:56 19.03.2022
2505 Clear 21 1007 15 10000 1.72 234 12:36 19.03.2022
2506 Clear 21 1008 16 10000 2.8 220 11:45 19.03.2022
2507 Clear 19 1011 23 10000 1.05 194 09:23 19.03.2022
2508 Clear 16 1013 38 10000 0.52 186 05:44 19.03.2022
2509 Clear 16 1013 38 10000 0.52 186 05:44 19.03.2022
2510 Clear 12 1012 65 10000 0.64 257 02:33 19.03.2022
2511 Clouds 12 1012 68 10000 0.47 337 00:32 19.03.2022
2512 Clouds 13 1012 67 10000 0.36 50 22:59 18.03.2022
2513 Clouds 13 1012 65 10000 0.89 44 22:22 18.03.2022
2514 Clouds 14 1012 61 10000 1.38 33 20:31 18.03.2022
2515 Clouds 15 1012 56 10000 1.31 29 19:45 18.03.2022
2516 Clouds 15 1012 53 10000 0.91 50 19:18 18.03.2022
2517 Clouds 17 1011 44 10000 2.76 114 16:59 18.03.2022
2518 Clouds 17 1011 44 10000 2.76 114 16:34 18.03.2022
2519 Clear 22 1007 18 10000 7.05 192 14:29 18.03.2022
2520 Clear 22 1007 18 10000 7.05 192 13:41 18.03.2022
2521 Clear 24 1007 14 10000 8.92 199 11:43 18.03.2022
2522 Clear 24 1008 14 10000 6.19 196 10:27 18.03.2022
2523 Clear 24 1008 14 10000 6.19 196 10:27 18.03.2022
2524 Clear 23 1009 19 10000 2.42 152 09:20 18.03.2022
2525 Clear 21 1011 29 10000 1.06 127 07:43 18.03.2022
2526 Clear 18 1013 34 10000 0.62 350 05:20 18.03.2022
2527 Clear 14 1011 44 10000 0.52 317 01:55 18.03.2022
2528 Clear 15 1011 41 10000 0.62 294 00:20 18.03.2022
2529 Clear 15 1011 40 10000 0.02 50 22:54 17.03.2022
2530 Clear 16 1011 39 10000 0.38 33 22:20 17.03.2022
2531 Clear 16 1011 39 10000 0.38 33 21:31 17.03.2022
2532 Clear 16 1012 39 10000 0.43 84 20:58 17.03.2022
2533 Clear 17 1012 38 10000 0.07 88 20:28 17.03.2022
2534 Clear 17 1012 38 10000 0.07 88 19:39 17.03.2022
2535 Clear 17 1012 37 10000 0.46 69 18:55 17.03.2022
2536 Clear 18 1012 35 10000 0.71 86 17:47 17.03.2022
2537 Clear 20 1011 30 10000 1.76 107 16:29 17.03.2022
2538 Clear 20 1011 30 10000 1.76 107 15:43 17.03.2022
2539 Clear 21 1010 27 10000 2.11 86 15:18 17.03.2022
2540 Clear 22 1009 23 10000 2.18 62 13:47 17.03.2022
2541 Clear 24 1009 17 10000 0.37 42 12:47 17.03.2022
2542 Clear 24 1009 16 10000 0.52 196 11:36 17.03.2022
2543 Clear 23 1009 17 10000 0.84 200 10:58 17.03.2022
2544 Clear 23 1011 19 10000 0.99 193 09:40 17.03.2022
2545 Clear 20 1013 25 10000 0.46 197 08:20 17.03.2022
2546 Clear 19 1015 26 10000 1.14 204 05:53 17.03.2022
2547 Clear 18 1016 28 10000 1.33 203 05:23 17.03.2022
2548 Clear 14 1013 34 10000 0.91 225 00:27 17.03.2022
2549 Clear 15 1013 33 10000 1.14 222 22:57 16.03.2022
2550 Clear 15 1013 33 10000 1.14 222 22:36 16.03.2022
2551 Clear 15 1013 34 10000 1.01 247 21:56 16.03.2022
2552 Clear 16 1013 34 10000 1.11 258 20:40 16.03.2022
2553 Clear 17 1013 35 10000 1.4 256 19:23 16.03.2022
2554 Clear 17 1013 35 10000 1.41 253 18:43 16.03.2022
2555 Clear 18 1013 35 10000 1.38 252 17:50 16.03.2022
2556 Clear 18 1013 35 10000 1.38 252 17:31 16.03.2022
2557 Clear 18 1013 36 10000 1.33 284 16:35 16.03.2022
2558 Clear 19 1012 35 10000 1.57 332 15:34 16.03.2022
2559 Clear 22 1010 27 10000 2.18 25 13:41 16.03.2022
2560 Clear 23 1010 22 10000 1.13 87 12:56 16.03.2022
2561 Clear 22 1011 24 10000 1.43 199 11:24 16.03.2022
2562 Clear 22 1011 24 10000 1.43 199 10:37 16.03.2022
2563 Clear 22 1012 25 10000 1.58 209 09:57 16.03.2022
2564 Clear 19 1015 30 10000 1.62 207 08:24 16.03.2022
2565 Clear 12 1017 47 10000 1.7 228 02:46 16.03.2022
2566 Clouds 14 1015 41 10000 1.94 209 22:58 15.03.2022
2567 Clouds 14 1015 41 10000 1.94 209 22:36 15.03.2022
2568 Clouds 15 1015 40 10000 1.51 223 21:19 15.03.2022
2569 Clouds 16 1015 39 10000 1.64 219 19:46 15.03.2022
2570 Clouds 16 1015 36 10000 1.84 235 18:35 15.03.2022
2571 Clouds 17 1014 33 10000 1.74 270 16:42 15.03.2022
2572 Clouds 18 1013 33 10000 1.11 267 15:42 15.03.2022
2573 Clouds 19 1012 33 10000 0.67 225 14:54 15.03.2022
2574 Clear 20 1012 29 10000 0.91 176 13:57 15.03.2022
2575 Clear 21 1012 24 10000 1.07 157 13:23 15.03.2022
2576 Clear 21 1012 24 10000 0.88 147 11:34 15.03.2022
2577 Clear 21 1013 25 10000 0.64 167 10:55 15.03.2022
2578 Clear 19 1015 31 10000 1.04 216 09:29 15.03.2022
2579 Clear 18 1017 36 10000 1.78 217 08:27 15.03.2022
2580 Clear 18 1017 36 10000 1.78 217 07:38 15.03.2022
2581 Clear 17 1017 38 10000 1.98 207 06:32 15.03.2022
2582 Clear 11 1018 55 10000 2.16 221 01:57 15.03.2022
2583 Clear 12 1016 53 10000 1.49 218 23:31 14.03.2022
2584 Clear 13 1016 51 10000 1.94 216 22:52 14.03.2022
2585 Clear 13 1016 49 10000 1.76 236 21:55 14.03.2022
2586 Clear 14 1016 48 10000 1.87 244 20:59 14.03.2022
2587 Clear 15 1016 45 10000 2.41 257 20:28 14.03.2022
2588 Clear 15 1016 45 10000 2.41 257 19:32 14.03.2022
2589 Clouds 16 1015 41 10000 1.82 256 17:58 14.03.2022
2590 Clouds 16 1015 41 10000 1.82 256 17:58 14.03.2022
2591 Clouds 16 1015 41 10000 1.82 256 17:40 14.03.2022
2592 Clouds 17 1015 41 10000 1.56 295 16:33 14.03.2022
2593 Clouds 18 1014 39 10000 1.27 0 14:52 14.03.2022
2594 Clouds 20 1013 35 10000 1.39 23 13:57 14.03.2022
2595 Rain 21 1013 28 10000 0.36 10 11:26 14.03.2022
2596 Clouds 21 1014 29 10000 0.68 212 09:57 14.03.2022
2597 Clouds 21 1014 29 10000 0.68 212 09:35 14.03.2022
2598 Rain 20 1016 31 10000 1.43 210 08:58 14.03.2022
2599 Clouds 19 1017 35 10000 1.7 217 08:28 14.03.2022
2600 Clouds 18 1017 34 10000 1.83 206 06:47 14.03.2022
2601 Clouds 13 1018 48 10000 0.82 204 02:59 14.03.2022
2602 Clouds 13 1017 46 10000 1.2 233 01:39 14.03.2022
2603 Clouds 13 1016 46 10000 0.48 294 00:29 14.03.2022
2604 Clouds 14 1017 44 10000 0.42 342 21:49 13.03.2022
2605 Clouds 15 1017 42 10000 1.35 316 21:21 13.03.2022
2606 Rain 15 1017 42 10000 1.35 316 20:46 13.03.2022
2607 Clouds 15 1017 42 10000 1.21 276 20:22 13.03.2022
2608 Clouds 15 1017 42 10000 1.21 276 19:42 13.03.2022
2609 Clouds 15 1017 43 10000 0.89 269 19:22 13.03.2022
2610 Clouds 15 1017 43 10000 0.89 269 19:22 13.03.2022
2611 Clouds 15 1017 43 10000 0.89 269 18:45 13.03.2022
2612 Clouds 16 1017 41 10000 1.22 295 18:25 13.03.2022
2613 Clouds 16 1017 41 10000 1.22 295 17:36 13.03.2022
2614 Clouds 16 1016 39 10000 1.59 321 16:45 13.03.2022
2615 Clouds 17 1016 38 10000 1.53 339 16:21 13.03.2022
2616 Clouds 17 1016 38 10000 1.53 339 15:39 13.03.2022
2617 Clouds 18 1015 37 10000 1.48 359 14:36 13.03.2022
2618 Clouds 21 1014 29 10000 0.87 170 13:27 13.03.2022
2619 Clouds 21 1014 29 10000 1.37 185 12:22 13.03.2022
2620 Clouds 21 1014 29 10000 1.37 185 11:38 13.03.2022
2621 Clouds 20 1014 29 10000 1.11 199 10:49 13.03.2022
2622 Clouds 19 1015 30 10000 1.37 217 10:25 13.03.2022
2623 Clouds 19 1015 30 10000 1.37 217 09:42 13.03.2022
2624 Clouds 18 1017 34 10000 1.44 203 08:49 13.03.2022
2625 Clouds 18 1017 34 10000 1.44 203 08:49 13.03.2022
2626 Clouds 17 1018 39 10000 1.58 202 08:23 13.03.2022
2627 Clear 16 1019 40 10000 2.11 211 06:40 13.03.2022
2628 Rain 13 1020 50 10000 2.1 201 04:51 13.03.2022
2629 Clear 10 1019 60 10000 2.07 211 01:46 13.03.2022
2630 Clouds 11 1018 57 10000 1.63 218 22:51 12.03.2022
2631 Clouds 12 1018 55 10000 1.6 217 21:29 12.03.2022
2632 Clear 13 1018 54 10000 1.8 234 20:19 12.03.2022
2633 Clear 13 1018 54 10000 1.8 234 19:44 12.03.2022
2634 Clouds 13 1018 53 10000 2.28 206 18:37 12.03.2022
2635 Clouds 14 1018 51 10000 2.03 237 17:48 12.03.2022
2636 Clouds 15 1016 48 10000 1.21 232 16:28 12.03.2022
2637 Clouds 15 1016 48 10000 1.21 232 15:40 12.03.2022
2638 Clouds 16 1014 47 10000 1.02 210 15:18 12.03.2022
2639 Clouds 18 1014 43 10000 1.13 200 13:53 12.03.2022
2640 Clouds 18 1014 40 10000 1.77 202 12:25 12.03.2022
2641 Clouds 18 1014 40 10000 1.77 202 11:51 12.03.2022
2642 Clouds 18 1014 40 10000 1.61 222 11:20 12.03.2022
2643 Clouds 17 1015 40 10000 1.42 212 09:59 12.03.2022
2644 Clouds 17 1015 40 10000 1.42 212 09:40 12.03.2022
2645 Clouds 16 1017 45 10000 1.91 204 07:51 12.03.2022
2646 Clouds 13 1019 50 10000 1.56 184 05:44 12.03.2022
2647 Rain 10 1018 53 10000 1.28 210 00:24 12.03.2022
2648 Clouds 10 1017 52 10000 1.47 214 23:28 11.03.2022
2649 Rain 10 1018 52 10000 1.43 264 21:48 11.03.2022
2650 Clouds 10 1019 53 10000 0.69 283 20:58 11.03.2022
2651 Clouds 10 1019 53 10000 0.69 283 20:37 11.03.2022
2652 Clouds 11 1019 51 10000 1.18 328 19:54 11.03.2022
2653 Clouds 11 1019 51 10000 1.11 313 19:27 11.03.2022
2654 Clouds 11 1019 50 10000 1.08 301 17:37 11.03.2022
2655 Clouds 12 1019 49 10000 1.41 314 17:18 11.03.2022
2656 Clouds 12 1019 47 10000 1.67 335 15:57 11.03.2022
2657 Clouds 14 1017 42 10000 2.2 356 14:22 11.03.2022
2658 Clouds 15 1017 37 10000 1.66 1 13:21 11.03.2022
2659 Clouds 15 1017 36 10000 1.54 5 12:22 11.03.2022
2660 Clouds 15 1017 36 10000 1.54 5 11:56 11.03.2022
2661 Clouds 14 1018 36 10000 0.73 179 10:18 11.03.2022
2662 Clouds 13 1019 38 10000 1.35 206 08:57 11.03.2022
2663 Clouds 12 1021 42 10000 1.72 210 08:24 11.03.2022
2664 Clouds 12 1021 42 10000 1.72 210 07:46 11.03.2022
2665 Clouds 10 1022 48 10000 1.18 242 05:49 11.03.2022
2666 Clouds 8 1022 53 10000 1.67 203 04:22 11.03.2022
2667 Clouds 7 1021 55 10000 1.36 241 23:46 10.03.2022
2668 Clouds 7 1021 54 10000 1.33 256 22:31 10.03.2022
2669 Clouds 8 1021 54 10000 1.44 269 21:48 10.03.2022
2670 Clouds 8 1021 54 10000 1.09 288 21:20 10.03.2022
2671 Clouds 9 1021 53 10000 1.13 295 19:48 10.03.2022
2672 Clouds 9 1021 52 10000 1.16 293 18:55 10.03.2022
2673 Clouds 9 1021 52 10000 1.15 300 17:36 10.03.2022
2674 Clouds 10 1019 49 10000 0.62 300 15:55 10.03.2022
2675 Clear 11 1019 48 10000 0.41 304 15:20 10.03.2022
2676 Clouds 13 1017 38 10000 0.98 236 13:24 10.03.2022
2677 Clouds 13 1017 37 10000 0.67 265 11:58 10.03.2022
2678 Clouds 13 1018 39 10000 0.68 253 10:54 10.03.2022
2679 Clouds 11 1020 45 10000 0.92 251 09:21 10.03.2022
2680 Clouds 10 1021 49 10000 0.92 222 07:41 10.03.2022
2681 Clouds 7 1023 58 10000 0.93 229 04:44 10.03.2022
2682 Clouds 4 1022 72 10000 1.48 288 01:49 10.03.2022
2683 Clouds 5 1021 81 10000 0.49 292 23:26 09.03.2022
2684 Clouds 6 1021 78 10000 0.46 314 21:51 09.03.2022
2685 Clouds 6 1021 78 10000 0.46 314 21:31 09.03.2022
2686 Clouds 6 1022 79 10000 0.8 295 19:44 09.03.2022
2687 Clouds 6 1022 80 10000 1.22 299 18:34 09.03.2022
2688 Clouds 6 1022 82 10000 0.97 346 17:27 09.03.2022
2689 Clouds 6 1022 82 10000 0.97 346 16:31 09.03.2022
2690 Clouds 6 1021 83 10000 1.55 342 15:19 09.03.2022
2691 Clouds 7 1020 77 10000 1.83 352 13:53 09.03.2022
2692 Clouds 8 1020 72 10000 0.99 356 12:47 09.03.2022
2693 Clouds 8 1019 75 10000 0.85 205 11:53 09.03.2022
2694 Clouds 8 1019 75 10000 0.85 205 11:35 09.03.2022
2695 Clouds 7 1021 82 10000 1.16 192 09:54 09.03.2022
2696 Clouds 6 1022 88 2542 1.21 202 08:51 09.03.2022
2697 Clouds 4 1024 96 164 0.58 309 07:27 09.03.2022
2698 Clouds 3 1024 99 57 1.24 345 02:45 09.03.2022
2699 Clouds 4 1022 98 71 1.35 348 00:41 09.03.2022
2700 Clouds 4 1022 98 83 1.22 1 22:47 08.03.2022
2701 Clouds 4 1022 97 92 1.08 11 21:58 08.03.2022
2702 Clouds 3 1023 97 110 0.78 28 21:23 08.03.2022
2703 Clouds 4 1022 98 143 1.11 324 20:29 08.03.2022
2704 Clouds 4 1022 98 143 1.11 324 19:31 08.03.2022
2705 Rain 4 1022 96 160 1.07 323 18:44 08.03.2022
2706 Rain 4 1021 95 1156 1.32 316 17:26 08.03.2022
2707 Clouds 4 1020 94 10000 1.55 359 15:19 08.03.2022
2708 Clouds 4 1021 94 10000 0.47 354 14:18 08.03.2022
2709 Clouds 4 1020 96 900 1.26 69 12:41 08.03.2022
2710 Clouds 5 1020 94 1922 0.99 332 11:44 08.03.2022
2711 Rain 5 1020 92 10000 1.65 1 10:37 08.03.2022
2712 Rain 5 1021 93 2342 1.49 353 09:37 08.03.2022
2713 Clouds 6 1022 87 10000 0.91 355 06:34 08.03.2022
2714 Clouds 6 1022 88 10000 0.44 279 04:25 08.03.2022
2715 Clouds 7 1021 80 10000 1.24 17 22:57 07.03.2022
2716 Clouds 7 1022 80 10000 1.24 358 21:50 07.03.2022
2717 Clouds 7 1022 80 10000 1.24 358 21:31 07.03.2022
2718 Clouds 7 1022 79 10000 1.65 16 20:39 07.03.2022
2719 Clouds 7 1022 77 10000 1.87 360 19:55 07.03.2022
2720 Clouds 7 1022 74 10000 2.18 18 19:29 07.03.2022
2721 Clouds 7 1022 73 10000 2.11 10 18:38 07.03.2022
2722 Rain 8 1022 71 10000 1.85 14 17:33 07.03.2022
2723 Clouds 8 1021 68 10000 1.94 18 16:55 07.03.2022
2724 Clouds 9 1019 60 10000 2.87 14 14:57 07.03.2022
2725 Rain 11 1017 53 10000 2.92 15 12:48 07.03.2022
2726 Clouds 11 1017 54 10000 2.05 5 12:20 07.03.2022
2727 Clouds 10 1017 56 10000 1.38 4 10:35 07.03.2022
2728 Clouds 8 1020 69 10000 1.05 346 08:35 07.03.2022
2729 Clouds 5 1019 86 10000 1.29 339 02:56 07.03.2022
2730 Clouds 4 1018 95 1081 0.68 202 00:21 07.03.2022
2731 Clouds 5 1018 94 5039 0.24 17 23:28 06.03.2022
2732 Clouds 5 1018 94 5039 0.24 17 22:30 06.03.2022
2733 Clouds 5 1018 93 10000 2.12 12 21:45 06.03.2022
2734 Clouds 5 1019 93 10000 1.16 355 20:29 06.03.2022
2735 Clouds 5 1019 93 10000 1.16 355 20:29 06.03.2022
2736 Clouds 5 1019 93 10000 1.16 355 19:48 06.03.2022
2737 Clouds 5 1019 92 10000 1.54 19 18:51 06.03.2022
2738 Clouds 5 1019 95 3943 1.74 12 17:49 06.03.2022
2739 Clouds 5 1020 94 3255 1.37 339 17:20 06.03.2022
2740 Clouds 5 1020 94 3255 1.37 339 16:40 06.03.2022
2741 Clouds 5 1019 96 742 1.4 355 15:37 06.03.2022
2742 Clouds 5 1018 96 669 1.6 352 14:48 06.03.2022
2743 Clouds 4 1018 96 379 1.56 10 14:26 06.03.2022
2744 Clouds 5 1017 94 10000 1.51 12 12:40 06.03.2022
2745 Clouds 5 1017 95 709 1.46 19 11:46 06.03.2022
2746 Clouds 5 1017 96 291 1.37 31 10:43 06.03.2022
2747 Clouds 4 1018 96 78 0.4 92 09:21 06.03.2022
2748 Clouds 4 1019 97 48 0.71 142 08:28 06.03.2022
2749 Clouds 4 1019 97 48 0.71 142 07:33 06.03.2022
2750 Rain 4 1017 94 1670 1.25 356 03:18 06.03.2022
2751 Clouds 5 1016 86 10000 1.96 351 00:41 06.03.2022
2752 Rain 5 1016 83 10000 1.82 346 00:22 06.03.2022
2753 Clouds 6 1016 78 10000 2.04 328 23:19 05.03.2022
2754 Rain 6 1016 78 10000 2.04 328 22:35 05.03.2022
2755 Rain 7 1017 74 10000 2.16 320 21:30 05.03.2022
2756 Clouds 7 1018 71 10000 1.68 312 20:38 05.03.2022
2757 Clouds 9 1019 62 10000 1.28 231 19:22 05.03.2022
2758 Clouds 8 1019 65 10000 1.55 256 18:39 05.03.2022
2759 Clouds 9 1018 55 10000 1.16 303 17:34 05.03.2022
2760 Clouds 10 1017 49 10000 2.47 336 16:19 05.03.2022
2761 Clouds 11 1016 44 10000 3.06 8 15:20 05.03.2022
2762 Clouds 11 1016 44 10000 3.06 8 15:20 05.03.2022
2763 Clouds 11 1016 44 10000 3.06 8 14:36 05.03.2022
2764 Clouds 12 1015 40 10000 2.91 28 13:44 05.03.2022
2765 Clouds 13 1014 36 10000 1.8 56 12:45 05.03.2022
2766 Clouds 13 1015 36 10000 0.81 106 11:21 05.03.2022
2767 Clouds 13 1015 36 10000 0.81 106 10:52 05.03.2022
2768 Clouds 12 1016 37 10000 0.73 95 09:33 05.03.2022
2769 Clouds 11 1018 40 10000 0.13 43 08:28 05.03.2022
2770 Clouds 10 1019 42 10000 0.46 238 07:21 05.03.2022
2771 Clouds 9 1020 44 10000 0.72 191 05:25 05.03.2022
2772 Clouds 7 1019 48 10000 0.82 261 00:49 05.03.2022
2773 Clouds 8 1019 46 10000 0.94 311 22:58 04.03.2022
2774 Clouds 8 1019 46 10000 0.94 311 22:38 04.03.2022
2775 Clouds 8 1020 47 10000 1.03 309 21:43 04.03.2022
2776 Clouds 8 1020 46 10000 1.08 313 20:42 04.03.2022
2777 Clouds 8 1020 45 10000 0.97 326 19:37 04.03.2022
2778 Clouds 9 1021 43 10000 1.08 337 18:56 04.03.2022
2779 Clouds 8 1020 44 10000 0.81 326 18:33 04.03.2022
2780 Clouds 9 1020 41 10000 0.78 274 17:29 04.03.2022
2781 Clouds 10 1019 39 10000 0.55 273 15:54 04.03.2022
2782 Clouds 11 1018 36 10000 0.49 240 15:25 04.03.2022
2783 Clouds 12 1018 32 10000 0.84 211 13:36 04.03.2022
2784 Clear 13 1018 29 10000 1.42 218 12:47 04.03.2022
2785 Clear 13 1018 28 10000 1.76 218 11:37 04.03.2022
2786 Clear 13 1018 28 10000 1.76 218 11:37 04.03.2022
2787 Clear 12 1019 29 10000 1.4 207 10:26 04.03.2022
2788 Clear 11 1021 31 10000 1.01 208 09:28 04.03.2022
2789 Clear 10 1022 32 10000 1.27 196 07:48 04.03.2022
2790 Clear 7 1023 33 10000 1.23 192 06:26 04.03.2022
2791 Clear 4 1022 42 10000 1.37 233 02:26 04.03.2022
2792 Clouds 4 1021 39 10000 1.23 239 23:41 03.03.2022
2793 Clear 5 1021 39 10000 1.41 244 22:18 03.03.2022
2794 Clear 5 1021 39 10000 1.41 244 21:36 03.03.2022
2795 Clear 6 1021 39 10000 1.4 244 20:48 03.03.2022
2796 Clear 6 1020 39 10000 1.52 242 19:34 03.03.2022
2797 Clouds 7 1020 38 10000 1.71 235 18:33 03.03.2022
2798 Clouds 8 1020 37 10000 1.7 223 17:39 03.03.2022
2799 Clouds 8 1019 36 10000 1.63 216 17:18 03.03.2022
2800 Clouds 9 1019 34 10000 1.64 210 15:46 03.03.2022
2801 Clouds 10 1018 32 10000 1.79 200 14:45 03.03.2022
2802 Clouds 11 1017 27 10000 2.3 197 14:27 03.03.2022
2803 Clouds 12 1016 27 10000 2.27 205 12:43 03.03.2022
2804 Clear 12 1016 27 10000 1.98 198 11:31 03.03.2022
2805 Clear 11 1017 29 10000 1.86 199 10:38 03.03.2022
2806 Clear 10 1019 35 10000 0.97 216 08:43 03.03.2022
2807 Clear 8 1021 39 10000 1.05 198 06:58 03.03.2022
2808 Clear 7 1022 42 10000 1.44 196 06:23 03.03.2022
2809 Clear 4 1020 53 10000 1.04 284 00:40 03.03.2022
2810 Clear 5 1020 52 10000 1.38 299 23:28 02.03.2022
2811 Clear 5 1020 52 10000 1.38 299 22:44 02.03.2022
2812 Clear 6 1020 51 10000 1.44 310 21:23 02.03.2022
2813 Clear 6 1020 51 10000 1.44 310 21:23 02.03.2022
2814 Clear 6 1020 51 10000 1.44 310 20:30 02.03.2022
2815 Clear 6 1020 50 10000 1.27 314 19:45 02.03.2022
2816 Clouds 7 1020 49 10000 1.3 317 19:26 02.03.2022
2817 Clouds 7 1020 50 10000 1.35 322 18:39 02.03.2022
2818 Clouds 7 1020 50 10000 1.35 322 18:39 02.03.2022
2819 Clouds 7 1020 49 10000 1.3 317 18:39 02.03.2022
2820 Clouds 8 1020 48 10000 1.2 325 17:45 02.03.2022
2821 Clouds 8 1019 45 10000 1.3 319 16:54 02.03.2022
2822 Clouds 9 1019 43 10000 1.32 321 16:25 02.03.2022
2823 Clouds 9 1018 41 10000 1.26 329 14:42 02.03.2022
2824 Clouds 10 1017 37 10000 1.67 341 13:23 02.03.2022
2825 Clouds 10 1017 35 10000 1.53 348 12:40 02.03.2022
2826 Clouds 10 1018 35 10000 1.35 353 11:38 02.03.2022
2827 Clouds 10 1018 35 10000 1.46 360 11:18 02.03.2022
2828 Clouds 10 1019 37 10000 1.42 8 09:40 02.03.2022
2829 Clouds 9 1021 38 10000 1.27 22 08:50 02.03.2022
2830 Clouds 7 1023 40 10000 1.17 25 07:25 02.03.2022
2831 Clouds 6 1023 40 10000 0.85 15 05:43 02.03.2022
2832 Clouds 4 1022 53 10000 1.66 337 00:57 02.03.2022
2833 Clouds 4 1021 51 10000 1.47 329 23:45 01.03.2022
2834 Clouds 4 1021 50 10000 1.43 318 22:42 01.03.2022
2835 Clouds 5 1021 47 10000 1.58 326 21:56 01.03.2022
2836 Clouds 5 1021 46 10000 1.38 303 21:21 01.03.2022
2837 Clouds 6 1021 46 10000 1.34 291 20:24 01.03.2022
2838 Clouds 6 1021 46 10000 1.5 297 19:23 01.03.2022
2839 Clouds 6 1021 46 10000 1.49 303 18:32 01.03.2022
2840 Clouds 7 1021 45 10000 1.55 296 17:55 01.03.2022
2841 Clouds 7 1020 44 10000 1.67 317 16:54 01.03.2022
2842 Clouds 8 1019 40 10000 1.83 332 15:59 01.03.2022
2843 Clouds 9 1018 36 10000 1.4 356 15:23 01.03.2022
2844 Clouds 9 1018 36 10000 1.4 356 14:34 01.03.2022
2845 Clouds 11 1017 27 10000 0.68 184 13:27 01.03.2022
2846 Clouds 11 1017 28 10000 1.95 245 12:58 01.03.2022
2847 Clouds 11 1017 29 10000 2.27 229 12:22 01.03.2022
2848 Clouds 10 1018 35 10000 2.15 214 10:27 01.03.2022
2849 Clouds 9 1019 41 10000 1.81 208 08:41 01.03.2022
2850 Clouds 9 1020 46 10000 1.77 202 07:36 01.03.2022
2851 Clouds 5 1022 57 10000 2.01 209 04:50 01.03.2022
2852 Clouds 4 1020 65 10000 1.55 225 01:43 01.03.2022
2853 Clouds 4 1020 61 10000 1.48 249 23:48 28.02.2022
2854 Clouds 5 1020 59 10000 1.49 256 22:58 28.02.2022
2855 Clouds 5 1020 57 10000 1.42 269 21:50 28.02.2022
2856 Clouds 6 1020 56 10000 1.39 274 21:24 28.02.2022
2857 Clouds 6 1020 56 10000 1.38 280 19:52 28.02.2022
2858 Clouds 6 1020 56 10000 1.33 284 19:26 28.02.2022
2859 Clouds 6 1020 57 10000 1.4 286 18:36 28.02.2022
2860 Clouds 7 1019 55 10000 1.43 297 17:24 28.02.2022
2861 Clouds 7 1019 55 10000 1.43 297 16:33 28.02.2022
2862 Clouds 8 1018 50 10000 2.03 307 15:23 28.02.2022
2863 Clouds 8 1018 50 10000 2.03 307 14:31 28.02.2022
2864 Rain 9 1017 45 10000 1.57 305 13:34 28.02.2022
2865 Rain 10 1016 40 10000 1.14 282 12:41 28.02.2022
2866 Clouds 10 1016 38 10000 1.25 258 11:44 28.02.2022
2867 Clouds 10 1017 37 10000 1.36 235 10:48 28.02.2022
2868 Clouds 10 1017 37 10000 1.36 231 10:19 28.02.2022
2869 Clouds 10 1017 37 10000 1.36 231 09:31 28.02.2022
2870 Clouds 8 1020 38 10000 1.44 215 08:29 28.02.2022
2871 Clouds 7 1021 40 10000 1.65 217 07:20 28.02.2022
2872 Clouds 5 1022 42 10000 1 225 04:32 28.02.2022
2873 Clouds 4 1022 47 10000 0.96 228 03:58 28.02.2022
2874 Rain 4 1022 44 10000 0.92 263 23:27 27.02.2022
2875 Clouds 4 1022 44 10000 0.92 263 22:33 27.02.2022
2876 Clouds 4 1022 43 10000 1.29 286 21:49 27.02.2022
2877 Clouds 4 1022 43 10000 1.27 299 20:59 27.02.2022
2878 Clouds 5 1022 43 10000 1.35 339 20:27 27.02.2022
2879 Clouds 5 1022 43 10000 1.35 339 19:57 27.02.2022
2880 Clouds 5 1022 46 10000 1.26 344 19:26 27.02.2022
2881 Clouds 5 1022 46 10000 1.26 344 18:47 27.02.2022
2882 Clouds 5 1023 47 10000 1.27 299 17:55 27.02.2022
2883 Clouds 5 1023 45 10000 1.47 285 16:45 27.02.2022
2884 Clouds 5 1022 43 10000 1.29 282 16:21 27.02.2022
2885 Clouds 8 1020 26 10000 1 249 13:25 27.02.2022
2886 Clouds 8 1020 26 10000 0.96 259 12:32 27.02.2022
2887 Clouds 8 1021 24 10000 0.9 231 10:56 27.02.2022
2888 Clear 7 1022 26 10000 1.09 226 10:18 27.02.2022
2889 Clear 7 1022 26 10000 1.09 226 09:44 27.02.2022
2890 Clear 6 1023 27 10000 0.9 224 09:19 27.02.2022
2891 Clear 5 1025 29 10000 1.23 215 07:37 27.02.2022
2892 Clear 3 1027 31 10000 2 206 05:38 27.02.2022
2893 Clear -1 1028 41 10000 1.7 233 01:53 27.02.2022
2894 Clear 0 1027 43 10000 1.6 241 23:22 26.02.2022
2895 Clear 0 1027 44 10000 1.61 236 21:49 26.02.2022
2896 Clear 1 1026 43 10000 1.92 227 20:59 26.02.2022
2897 Clear 2 1026 42 10000 1.98 233 20:20 26.02.2022
2898 Clear 2 1026 42 10000 1.98 233 19:49 26.02.2022
2899 Clear 2 1025 42 10000 1.94 238 19:26 26.02.2022
2900 Clear 3 1025 41 10000 1.9 239 17:52 26.02.2022
2901 Clear 3 1024 40 10000 1.8 241 16:52 26.02.2022
2902 Clear 4 1023 39 10000 1.96 242 15:57 26.02.2022
2903 Clear 4 1022 38 10000 1.85 249 15:25 26.02.2022
2904 Clear 4 1022 38 10000 1.85 249 14:55 26.02.2022
2905 Clear 4 1022 38 10000 1.85 249 14:36 26.02.2022
2906 Clear 6 1019 30 10000 2.06 220 13:24 26.02.2022
2907 Clear 6 1019 30 10000 2.09 210 12:31 26.02.2022
2908 Clear 6 1019 30 10000 2.1 209 11:29 26.02.2022
2909 Clear 6 1019 30 10000 2.1 209 10:55 26.02.2022
2910 Clear 5 1022 32 10000 2.09 208 09:18 26.02.2022
2911 Clear 4 1023 33 10000 2.14 204 07:43 26.02.2022
2912 Clear -2 1026 51 10000 2.08 220 02:53 26.02.2022
2913 Clear -1 1024 53 10000 1.63 232 23:31 25.02.2022
2914 Clear 0 1024 53 10000 1.84 231 21:48 25.02.2022
2915 Clear 0 1024 52 10000 1.98 231 21:29 25.02.2022
2916 Clear 0 1024 52 10000 1.98 231 20:33 25.02.2022
2917 Clear 1 1023 52 10000 1.93 237 19:39 25.02.2022
2918 Clear 2 1022 52 10000 1.89 235 17:33 25.02.2022
2919 Clear 3 1021 52 10000 1.94 227 16:44 25.02.2022
2920 Clear 3 1020 52 10000 2.18 216 15:48 25.02.2022
2921 Clear 4 1019 50 10000 2.22 211 15:22 25.02.2022
2922 Clear 4 1019 50 10000 2.22 211 14:42 25.02.2022
2923 Clear 5 1018 46 10000 2.58 210 13:58 25.02.2022
2924 Clouds 6 1018 44 10000 2.74 213 13:20 25.02.2022
2925 Clouds 7 1018 39 10000 1.29 248 11:28 25.02.2022
2926 Clouds 7 1018 39 10000 1.29 248 10:48 25.02.2022
2927 Clouds 6 1019 41 10000 0.99 236 10:22 25.02.2022
2928 Clouds 6 1019 41 10000 0.99 236 09:31 25.02.2022
2929 Clouds 5 1021 45 10000 1.19 191 07:44 25.02.2022
2930 Clouds 4 1022 45 10000 1.21 195 05:58 25.02.2022
2931 Clouds 4 1022 45 10000 1.21 195 05:31 25.02.2022
2932 Clear 2 1020 53 10000 1.41 242 00:27 25.02.2022
2933 Clear 3 1020 54 10000 1.52 264 22:00 24.02.2022
2934 Clear 3 1020 54 10000 1.52 264 21:40 24.02.2022
2935 Clear 3 1020 52 10000 1.66 264 21:20 24.02.2022
2936 Clear 4 1019 52 10000 1.53 252 19:53 24.02.2022
2937 Clear 4 1019 51 10000 1.72 255 18:45 24.02.2022
2938 Clear 4 1019 51 10000 1.63 256 18:19 24.02.2022
2939 Clear 4 1019 51 10000 1.63 256 17:40 24.02.2022
2940 Clear 5 1019 51 10000 1.41 263 16:50 24.02.2022
2941 Clear 6 1018 51 10000 1.46 268 16:25 24.02.2022
2942 Clear 6 1018 49 10000 1.51 257 14:56 24.02.2022
2943 Clear 6 1018 49 10000 1.51 257 14:36 24.02.2022
2944 Clear 7 1017 44 10000 1.28 249 13:41 24.02.2022
2945 Clear 8 1016 42 10000 1.4 237 13:21 24.02.2022
2946 Clear 8 1017 43 10000 2.44 217 10:43 24.02.2022
2947 Clear 7 1018 45 10000 2.1 214 09:40 24.02.2022
2948 Clear 7 1019 48 10000 1.82 218 08:42 24.02.2022
2949 Clouds 5 1022 55 10000 1.49 209 05:59 24.02.2022
2950 Clouds 5 1022 55 10000 1.49 209 05:36 24.02.2022
2951 Clouds 3 1021 65 10000 0.62 261 23:45 23.02.2022
2952 Clouds 3 1021 66 10000 0.71 272 21:55 23.02.2022
2953 Clouds 4 1020 65 10000 0.57 277 20:32 23.02.2022
2954 Clouds 4 1020 65 10000 0.52 303 19:55 23.02.2022
2955 Clouds 4 1020 64 10000 0.71 304 18:57 23.02.2022
2956 Clouds 5 1019 64 10000 1 284 17:46 23.02.2022
2957 Clouds 6 1016 58 10000 2.49 355 15:28 23.02.2022
2958 Clouds 8 1015 53 10000 2 9 13:34 23.02.2022
2959 Clouds 8 1015 50 10000 0.33 109 12:26 23.02.2022
2960 Clouds 8 1015 51 10000 0.32 102 10:45 23.02.2022
2961 Clouds 7 1017 53 10000 0.67 120 09:24 23.02.2022
2962 Clouds 6 1017 55 10000 0.82 159 08:27 23.02.2022
2963 Clouds 5 1018 58 10000 1.16 184 07:19 23.02.2022
2964 Clouds 0 1019 81 10000 2.3 221 01:22 23.02.2022
2965 Clouds 0 1019 82 10000 2.45 222 23:40 22.02.2022
2966 Clouds 0 1019 83 10000 2.09 224 22:59 22.02.2022
2967 Clouds 1 1019 84 10000 1.73 229 21:56 22.02.2022
2968 Clouds 1 1019 84 10000 1.73 229 21:37 22.02.2022
2969 Clouds 1 1019 84 10000 1.66 231 21:18 22.02.2022
2970 Clouds 1 1019 84 10000 1.66 231 20:31 22.02.2022
2971 Clouds 1 1019 84 10000 1.59 232 19:51 22.02.2022
2972 Clouds 1 1019 84 10000 1.59 232 19:31 22.02.2022
2973 Clouds 2 1019 89 10000 1.02 254 18:27 22.02.2022
2974 Clouds 2 1019 90 7353 0.51 293 17:26 22.02.2022
2975 Clouds 2 1019 90 7353 0.51 293 16:42 22.02.2022
2976 Clouds 2 1018 93 8283 1.07 342 15:59 22.02.2022
2977 Clouds 2 1018 96 1422 0.88 335 14:52 22.02.2022
2978 Clouds 2 1016 99 501 1.15 352 12:52 22.02.2022
2979 Clouds 2 1016 100 57 1.47 8 10:54 22.02.2022
2980 Clouds 2 1017 99 85 2.02 2 08:56 22.02.2022
2981 Snow 2 1017 99 81 2.7 15 07:27 22.02.2022
2982 Snow 2 1017 99 85 2.34 1 06:52 22.02.2022
2983 Snow 2 1015 97 43 2.38 0 02:47 22.02.2022
2984 Clouds 2 1015 98 47 2.47 28 23:18 21.02.2022
2985 Clouds 3 1015 92 9397 2.65 40 21:56 21.02.2022
2986 Clouds 4 1014 79 10000 2.14 70 20:38 21.02.2022
2987 Clouds 4 1014 79 10000 2.14 70 20:38 21.02.2022
2988 Clouds 7 1012 57 10000 0.64 4 18:47 21.02.2022
2989 Clouds 7 1011 55 10000 0.25 306 17:41 21.02.2022
2990 Clouds 7 1011 55 10000 0.25 306 17:41 21.02.2022
2991 Clouds 7 1010 48 10000 1.27 212 15:26 21.02.2022
2992 Clouds 8 1010 45 10000 1.6 216 14:22 21.02.2022
2993 Rain 8 1010 45 10000 1.6 216 13:30 21.02.2022
2994 Clouds 9 1009 39 10000 0.76 206 12:24 21.02.2022
2995 Clouds 9 1009 39 10000 0.76 206 11:31 21.02.2022
2996 Clouds 9 1011 36 10000 2.07 209 10:23 21.02.2022
2997 Clear 4 1016 37 10000 2.99 211 05:35 21.02.2022
2998 Clear 0 1018 50 10000 2.77 220 00:20 21.02.2022
2999 Clear 1 1019 48 10000 2.46 224 22:28 20.02.2022
3000 Clear 1 1019 48 10000 2.46 224 21:43 20.02.2022
3001 Clear 1 1019 48 10000 2.17 228 21:19 20.02.2022
3002 Clear 1 1019 48 10000 2.17 228 20:42 20.02.2022
3003 Clear 1 1019 47 10000 2.14 232 19:42 20.02.2022
3004 Clear 2 1020 46 10000 2.09 237 18:54 20.02.2022
3005 Clear 2 1020 47 10000 2.15 233 18:34 20.02.2022
3006 Clear 2 1020 47 10000 2.26 236 17:53 20.02.2022
3007 Clear 3 1018 47 10000 2.15 241 16:18 20.02.2022
3008 Clear 4 1017 46 10000 2.18 226 14:53 20.02.2022
3009 Clear 6 1016 43 10000 2.49 214 13:53 20.02.2022
3010 Clear 6 1015 46 10000 2.84 206 12:34 20.02.2022
3011 Clear 8 1015 40 10000 2.75 206 10:47 20.02.2022
3012 Clear 7 1016 39 10000 2.17 214 10:20 20.02.2022
3013 Clear 7 1018 40 10000 2.09 218 08:56 20.02.2022
3014 Clear 0 1022 58 10000 2.27 225 00:55 20.02.2022
3015 Clear 0 1022 58 10000 2.43 224 00:30 20.02.2022
3016 Clear 0 1022 57 10000 2.16 239 23:18 19.02.2022
3017 Clear 1 1023 56 10000 1.91 228 22:23 19.02.2022
3018 Clear 1 1023 56 10000 1.91 228 21:39 19.02.2022
3019 Clear 1 1023 55 10000 1.83 239 19:54 19.02.2022
3020 Clear 1 1023 55 10000 1.83 239 19:33 19.02.2022
3021 Clouds 2 1022 54 10000 1.76 234 18:35 19.02.2022
3022 Clouds 2 1022 53 10000 1.88 236 17:37 19.02.2022
3023 Clouds 3 1021 53 10000 2.12 233 16:28 19.02.2022
3024 Clouds 3 1020 54 10000 2.01 224 15:19 19.02.2022
3025 Clouds 3 1020 54 10000 2.01 224 14:52 19.02.2022
3026 Clouds 4 1019 52 10000 1.87 222 13:45 19.02.2022
3027 Clear 7 1017 39 10000 1.6 224 11:38 19.02.2022
3028 Clear 6 1018 41 10000 1.73 218 09:57 19.02.2022
3029 Clouds 4 1022 43 10000 2.03 205 06:58 19.02.2022
3030 Clouds -1 1025 54 10000 1.97 214 03:54 19.02.2022
3031 Clouds 0 1023 57 10000 1.46 235 23:38 18.02.2022
3032 Clouds 0 1024 58 10000 1.69 234 21:53 18.02.2022
3033 Clouds 0 1023 58 10000 1.68 239 20:51 18.02.2022
3034 Clouds 1 1023 59 10000 1.75 225 19:53 18.02.2022
3035 Clear 1 1022 59 10000 1.99 229 18:50 18.02.2022
3036 Clear 2 1021 58 10000 1.93 235 18:22 18.02.2022
3037 Clear 2 1021 58 10000 1.93 235 17:51 18.02.2022
3038 Clear 3 1019 55 10000 1.31 239 14:54 18.02.2022
3039 Clouds 4 1017 51 10000 1.36 230 13:55 18.02.2022
3040 Clouds 5 1017 48 10000 1.22 221 12:53 18.02.2022
3041 Clouds 5 1017 47 10000 1.33 215 12:33 18.02.2022
3042 Clouds 5 1017 45 10000 1.4 211 11:27 18.02.2022
3043 Clouds 5 1018 46 10000 1.21 206 10:23 18.02.2022
3044 Clouds 3 1022 47 10000 1.49 194 06:56 18.02.2022
3045 Clouds 2 1023 49 10000 1.71 196 05:39 18.02.2022
3046 Clouds -1 1022 60 10000 1.4 229 23:24 17.02.2022
3047 Clouds -1 1022 59 10000 1.43 232 21:45 17.02.2022
3048 Clouds 0 1021 58 10000 1.45 233 21:19 17.02.2022
3049 Clouds 0 1021 58 10000 1.45 233 20:37 17.02.2022
3050 Clouds 0 1021 57 10000 1.51 239 19:48 17.02.2022
3051 Clear 0 1021 55 10000 1.64 239 18:41 17.02.2022
3052 Clear 1 1020 54 10000 1.68 241 17:50 17.02.2022
3053 Clear 2 1018 52 10000 1.34 250 16:25 17.02.2022
3054 Clear 2 1018 52 10000 1.34 250 15:30 17.02.2022
3055 Clear 3 1016 50 10000 0.3 234 14:25 17.02.2022
3056 Clear 5 1015 42 10000 0.09 260 12:35 17.02.2022
3057 Clear 5 1015 37 10000 0.26 190 11:21 17.02.2022
3058 Clear 3 1018 37 10000 0.85 199 08:45 17.02.2022
3059 Clear -3 1021 52 10000 1.75 213 01:45 17.02.2022
3060 Clear -2 1020 55 10000 1.5 216 23:19 16.02.2022
3061 Clear -1 1020 55 10000 1.63 217 21:31 16.02.2022
3062 Clear -1 1019 54 10000 1.76 215 19:46 16.02.2022
3063 Clear 0 1019 52 10000 1.76 221 18:38 16.02.2022
3064 Clear 1 1018 50 10000 1.68 222 17:47 16.02.2022
3065 Clear 2 1017 45 10000 1.66 221 15:36 16.02.2022
3066 Clear 2 1016 43 10000 1.46 222 14:57 16.02.2022
3067 Clear 4 1015 42 10000 2.05 193 12:35 16.02.2022
3068 Clear 4 1015 37 10000 2.13 193 11:53 16.02.2022
3069 Clear 4 1016 37 10000 2.18 193 11:23 16.02.2022
3070 Clear 4 1017 38 10000 2.24 193 10:29 16.02.2022
3071 Clear 0 1022 46 10000 2.53 197 06:57 16.02.2022
3072 Clear -2 1024 53 10000 2.37 206 04:42 16.02.2022
3073 Clear -3 1023 62 10000 2.08 219 23:44 15.02.2022
3074 Clear -2 1023 63 10000 2.25 219 22:19 15.02.2022
3075 Clear -2 1023 63 10000 2.25 219 21:45 15.02.2022
3076 Clear -2 1023 64 10000 2.24 217 21:27 15.02.2022
3077 Clear -2 1023 64 10000 2.24 217 20:55 15.02.2022
3078 Clear -1 1023 64 10000 2.33 216 19:55 15.02.2022
3079 Clouds -1 1023 64 10000 2.28 216 18:52 15.02.2022
3080 Clouds -1 1022 64 10000 2.26 216 18:19 15.02.2022
3081 Clouds -1 1022 64 10000 2.26 216 17:48 15.02.2022
3082 Clouds 0 1022 63 10000 2.26 216 16:30 15.02.2022
3083 Clouds 0 1021 64 10000 2.28 209 14:47 15.02.2022
3084 Clouds 3 1018 58 10000 2.71 194 13:26 15.02.2022
3085 Clouds 4 1018 59 10000 2.54 192 11:54 15.02.2022
3086 Clouds 4 1018 58 10000 2.65 193 10:57 15.02.2022
3087 Clouds 3 1021 58 10000 2.56 195 09:25 15.02.2022
3088 Clouds 2 1023 54 10000 2.26 197 06:49 15.02.2022
3089 Clouds -1 1023 70 10000 1.72 220 00:48 15.02.2022
3090 Clouds 0 1022 73 10000 1.68 220 22:20 14.02.2022
3091 Clouds 0 1022 74 10000 1.56 221 21:24 14.02.2022
3092 Clouds 0 1022 75 10000 1.62 223 20:24 14.02.2022
3093 Clouds 0 1022 75 10000 1.62 223 19:30 14.02.2022
3094 Clouds 1 1021 76 10000 1.81 221 18:27 14.02.2022
3095 Clouds 1 1021 76 10000 1.81 221 17:43 14.02.2022
3096 Clouds 1 1021 76 10000 1.81 221 17:43 14.02.2022
3097 Clouds 2 1021 76 10000 1.93 221 17:24 14.02.2022
3098 Clouds 2 1020 77 10000 2.03 221 15:58 14.02.2022
3099 Clouds 3 1018 78 10000 2.84 200 13:40 14.02.2022
3100 Clouds 5 1016 73 10000 2.8 196 13:22 14.02.2022
3101 Clouds 5 1016 73 10000 2.8 196 12:32 14.02.2022
3102 Clouds 5 1016 69 10000 2.7 195 11:47 14.02.2022
3103 Clouds 5 1017 66 10000 2.51 193 10:25 14.02.2022
3104 Clouds 5 1018 68 10000 2.16 197 08:37 14.02.2022
3105 Clouds 4 1021 74 10000 1.78 203 07:27 14.02.2022
3106 Clouds 1 1020 72 10000 1.69 219 23:41 13.02.2022
3107 Clouds 1 1020 70 10000 1.35 239 22:42 13.02.2022
3108 Clouds 1 1020 70 10000 1 234 22:23 13.02.2022
3109 Clouds 1 1020 70 10000 1.1 218 21:28 13.02.2022
3110 Clouds 1 1020 70 10000 1.1 218 20:32 13.02.2022
3111 Rain 2 1020 67 10000 0.76 220 19:24 13.02.2022
3112 Clouds 2 1021 70 6677 1.37 206 18:42 13.02.2022
3113 Rain 2 1020 67 10000 1.12 211 17:54 13.02.2022
3114 Rain 2 1019 65 10000 1.47 222 15:54 13.02.2022
3115 Rain 2 1019 65 10000 1.47 222 15:54 13.02.2022
3116 Rain 2 1019 65 10000 1.47 222 15:54 13.02.2022
3117 Clouds 2 1018 62 10000 0.89 232 14:58 13.02.2022
3118 Clouds 3 1018 60 10000 1.37 175 13:59 13.02.2022
3119 Clouds 4 1016 57 10000 1.42 191 12:49 13.02.2022
3120 Clouds 4 1016 53 10000 1.89 206 11:26 13.02.2022
3121 Clouds 4 1016 53 10000 1.89 206 10:30 13.02.2022
3122 Rain 4 1016 51 10000 1.73 202 09:41 13.02.2022
3123 Clouds 2 1020 52 10000 1.86 203 07:19 13.02.2022
3124 Clouds -3 1023 58 10000 2.43 208 00:35 13.02.2022
3125 Clouds -3 1022 58 10000 2.12 209 23:39 12.02.2022
3126 Clouds -3 1023 57 10000 2 213 22:33 12.02.2022
3127 Clouds -2 1022 57 10000 2.04 219 21:19 12.02.2022
3128 Clouds -2 1022 57 10000 2.04 219 20:32 12.02.2022
3129 Clear -2 1022 56 10000 2.11 207 19:21 12.02.2022
3130 Clear -2 1022 56 10000 2.11 207 18:52 12.02.2022
3131 Clear -2 1022 56 10000 2.07 208 18:34 12.02.2022
3132 Clear -1 1022 56 10000 2.02 217 16:56 12.02.2022
3133 Clear -1 1022 57 10000 2.33 209 16:25 12.02.2022
3134 Clear -1 1022 57 10000 2.33 209 15:50 12.02.2022
3135 Clear -1 1021 58 10000 2.4 212 14:31 12.02.2022
3136 Clear 2 1018 52 10000 2.48 200 12:58 12.02.2022
3137 Clear 4 1018 50 10000 2.31 196 10:40 12.02.2022
3138 Clear 3 1019 50 10000 2.31 199 09:39 12.02.2022
3139 Clear 3 1020 49 10000 2.33 201 08:50 12.02.2022
3140 Clear 2 1022 48 10000 2.64 197 08:18 12.02.2022
3141 Clear 2 1022 48 10000 2.64 197 08:18 12.02.2022
3142 Clear -1 1025 46 10000 2.7 198 05:33 12.02.2022
3143 Clear -5 1028 51 10000 2.8 208 04:27 12.02.2022
3144 Clear -5 1027 51 10000 2.79 210 02:18 12.02.2022
3145 Clear -4 1027 54 10000 2.77 210 22:29 11.02.2022
3146 Clear -4 1027 54 10000 2.77 210 21:51 11.02.2022
3147 Clear -4 1027 53 10000 2.7 209 20:40 11.02.2022
3148 Clear -3 1027 53 10000 2.77 210 19:40 11.02.2022
3149 Clear -3 1026 53 10000 2.76 210 19:20 11.02.2022
3150 Clear -2 1026 53 10000 2.61 211 17:55 11.02.2022
3151 Clear -2 1026 54 10000 2.59 211 17:25 11.02.2022
3152 Clear -2 1026 55 10000 2.58 211 16:22 11.02.2022
3153 Clear -2 1025 58 10000 2.58 210 14:43 11.02.2022
3154 Clear -1 1024 60 10000 2.67 207 14:21 11.02.2022
3155 Clear -1 1024 60 10000 2.67 207 13:57 11.02.2022
3156 Clear -1 1024 60 10000 2.67 207 13:39 11.02.2022
3157 Clouds 2 1021 55 10000 2.85 197 11:41 11.02.2022
3158 Clouds 2 1022 52 10000 2.74 199 09:58 11.02.2022
3159 Clouds 1 1024 51 10000 2.76 197 08:49 11.02.2022
3160 Clouds 0 1026 51 10000 2.94 198 08:26 11.02.2022
3161 Clouds -1 1028 58 10000 3.09 197 07:18 11.02.2022
3162 Clouds -7 1031 64 10000 2.81 209 02:26 11.02.2022
3163 Clouds -7 1031 64 10000 2.81 209 02:26 11.02.2022
3164 Clear -7 1031 63 10000 2.81 211 00:51 11.02.2022
3165 Clear -7 1032 63 10000 2.59 213 22:51 10.02.2022
3166 Clear -7 1032 63 10000 2.6 214 21:46 10.02.2022
3167 Clear -7 1032 62 10000 2.66 213 20:59 10.02.2022
3168 Clear -7 1032 62 10000 2.66 213 20:35 10.02.2022
3169 Clear -6 1032 62 10000 2.73 213 19:26 10.02.2022
3170 Clear -6 1032 62 10000 2.73 213 18:45 10.02.2022
3171 Clear -5 1031 63 10000 2.54 214 17:26 10.02.2022
3172 Clear -5 1031 63 10000 2.54 214 16:50 10.02.2022
3173 Clear -5 1031 64 10000 2.68 213 15:49 10.02.2022
3174 Clear -5 1030 65 10000 2.76 213 15:29 10.02.2022
3175 Clear -5 1030 65 10000 2.76 213 14:47 10.02.2022
3176 Clear -4 1029 68 10000 2.79 208 14:23 10.02.2022
3177 Clear -2 1027 67 10000 2.78 198 13:26 10.02.2022
3178 Clear -1 1026 60 10000 2.94 197 12:27 10.02.2022
3179 Clear -1 1026 60 10000 2.94 197 11:33 10.02.2022
3180 Clear 0 1026 57 10000 2.98 195 10:44 10.02.2022
3181 Clear -1 1027 58 10000 2.74 196 09:57 10.02.2022
3182 Clear -2 1028 58 10000 2.69 197 09:23 10.02.2022
3183 Clear -4 1031 58 10000 2.96 195 07:19 10.02.2022
3184 Clear -9 1034 66 10000 2.78 209 04:23 10.02.2022
3185 Clear -9 1033 65 10000 2.74 211 01:48 10.02.2022
3186 Clear -8 1032 66 10000 2.63 212 00:44 10.02.2022
3187 Clear -8 1032 66 10000 2.56 211 00:25 10.02.2022
3188 Clear -8 1032 66 10000 2.44 215 22:58 09.02.2022
3189 Clear -8 1032 66 10000 2.44 215 22:34 09.02.2022
3190 Clear -7 1032 66 10000 2.32 215 21:49 09.02.2022
3191 Clear -7 1032 65 10000 2.47 210 21:28 09.02.2022
3192 Clear -7 1032 65 10000 2.47 210 20:47 09.02.2022
3193 Clear -7 1031 65 10000 2.5 216 20:24 09.02.2022
3194 Clear -7 1031 65 10000 2.5 216 19:44 09.02.2022
3195 Clear -6 1031 65 10000 2.52 213 18:58 09.02.2022
3196 Clear -6 1031 66 10000 2.51 215 17:32 09.02.2022
3197 Clear -6 1030 70 10000 2.6 211 16:26 09.02.2022
3198 Clear -6 1030 70 10000 2.6 211 15:32 09.02.2022
3199 Clear -5 1027 75 10000 2.71 206 13:57 09.02.2022
3200 Clear -1 1024 66 10000 2.73 194 12:25 09.02.2022
3201 Clear -1 1024 65 10000 2.65 194 10:37 09.02.2022
3202 Clear -1 1024 66 10000 2.62 193 09:57 09.02.2022
3203 Clear -2 1025 67 10000 2.57 194 09:23 09.02.2022
3204 Clear -2 1025 67 10000 2.57 194 08:51 09.02.2022
3205 Clear -3 1028 66 10000 2.45 194 07:28 09.02.2022
3206 Clear -5 1029 62 10000 2.52 205 05:29 09.02.2022
3207 Clear -7 1029 65 10000 2.52 214 03:49 09.02.2022
3208 Clear -6 1026 68 10000 2.71 210 23:57 08.02.2022
3209 Clear -6 1026 69 10000 2.49 217 23:29 08.02.2022
3210 Clear -6 1026 69 10000 2.49 217 22:39 08.02.2022
3211 Clear -5 1026 71 10000 2.41 216 22:20 08.02.2022
3212 Clear -5 1025 72 10000 2.39 214 21:23 08.02.2022
3213 Clear -5 1025 72 10000 2.39 214 20:59 08.02.2022
3214 Clear -5 1025 72 10000 2.39 214 20:41 08.02.2022
3215 Clear -4 1025 73 10000 2.27 212 19:31 08.02.2022
3216 Clouds -4 1024 76 10000 2.39 205 18:24 08.02.2022
3217 Clouds -4 1024 76 10000 2.39 205 17:33 08.02.2022
3218 Clouds -3 1023 79 10000 2.01 206 15:52 08.02.2022
3219 Clouds -3 1022 79 10000 1.92 211 15:28 08.02.2022
3220 Clouds -2 1021 78 10000 1.97 199 13:50 08.02.2022
3221 Clouds 0 1019 72 10000 1.61 195 12:39 08.02.2022
3222 Clouds 1 1019 68 10000 2.16 189 10:55 08.02.2022
3223 Clouds 1 1020 70 10000 2.21 186 09:50 08.02.2022
3224 Clouds 0 1021 71 10000 2.12 191 08:53 08.02.2022
3225 Clouds -2 1025 72 10000 2.33 193 06:50 08.02.2022
3226 Clouds -4 1026 70 10000 2.4 197 04:40 08.02.2022
3227 Clouds -4 1026 73 10000 2.34 205 04:22 08.02.2022
3228 Clouds -4 1026 73 10000 2.34 205 03:36 08.02.2022
3229 Clouds -5 1026 73 10000 2.17 208 03:18 08.02.2022
3230 Clouds -5 1026 73 10000 2.17 208 02:59 08.02.2022
3231 Clouds -5 1026 73 10000 2.17 208 02:36 08.02.2022
3232 Clouds -5 1026 73 10000 2.12 207 02:18 08.02.2022
3233 Clouds -5 1026 73 10000 2.12 207 01:45 08.02.2022
3234 Clouds -5 1026 73 10000 2.21 207 01:25 08.02.2022
3235 Clouds -5 1026 73 10000 2.21 207 00:55 08.02.2022
3236 Clouds -5 1026 72 10000 2.23 207 00:32 08.02.2022
3237 Clouds -5 1026 72 10000 2.23 210 23:44 07.02.2022
3238 Clouds -5 1027 72 10000 2.07 212 23:18 07.02.2022
3239 Clouds -5 1027 72 10000 2.07 212 22:59 07.02.2022
3240 Clouds -5 1027 72 10000 2.07 212 22:59 07.02.2022
3241 Clouds -5 1027 72 10000 1.93 215 22:19 07.02.2022
3242 Clouds -5 1027 72 10000 1.93 215 21:51 07.02.2022
3243 Clouds -5 1027 72 10000 1.99 215 21:27 07.02.2022
3244 Clouds -5 1027 72 10000 1.99 215 20:45 07.02.2022
3245 Clouds -4 1027 72 10000 1.94 216 20:27 07.02.2022
3246 Clouds -4 1027 72 10000 1.94 216 19:47 07.02.2022
3247 Clear -4 1027 72 10000 1.92 218 18:40 07.02.2022
3248 Clear -4 1027 73 10000 2.01 216 17:33 07.02.2022
3249 Clear -3 1026 75 10000 2.01 215 16:52 07.02.2022
3250 Clear -3 1026 77 10000 2.08 214 15:48 07.02.2022
3251 Clear -2 1023 75 10000 2.07 208 14:19 07.02.2022
3252 Clear 1 1021 72 10000 1.8 199 13:27 07.02.2022
3253 Clear 1 1021 72 10000 1.8 199 12:35 07.02.2022
3254 Clear 2 1021 69 10000 1.6 198 11:50 07.02.2022
3255 Clear 2 1021 69 10000 1.58 195 11:24 07.02.2022
3256 Clear 2 1021 69 10000 1.58 195 10:42 07.02.2022
3257 Clouds 1 1022 70 10000 1.58 194 10:24 07.02.2022
3258 Clouds 1 1022 70 10000 1.58 194 09:52 07.02.2022
3259 Clouds 1 1023 71 10000 1.62 191 09:18 07.02.2022
3260 Clouds 0 1024 71 10000 1.71 192 07:53 07.02.2022
3261 Clouds 0 1025 71 10000 1.89 195 06:34 07.02.2022
3262 Clouds -3 1027 76 10000 1.99 208 04:49 07.02.2022
3263 Clouds -5 1027 80 10000 2.09 216 02:37 07.02.2022
3264 Clouds -4 1026 83 10000 1.53 221 00:20 07.02.2022
3265 Clouds -4 1026 83 10000 1.54 221 23:20 06.02.2022
3266 Clouds -4 1026 83 10000 1.54 221 22:42 06.02.2022
3267 Clouds -4 1026 84 10000 1.43 229 21:46 06.02.2022
3268 Clouds -4 1026 85 10000 1.28 232 21:21 06.02.2022
3269 Clouds -4 1026 85 10000 1.28 232 20:48 06.02.2022
3270 Clouds -3 1025 87 10000 1.22 236 20:23 06.02.2022
3271 Clouds -3 1025 88 10000 1.12 234 19:18 06.02.2022
3272 Snow -3 1025 87 10000 1.16 227 18:33 06.02.2022
3273 Clouds -2 1024 87 10000 1.08 223 17:37 06.02.2022
3274 Snow -2 1024 88 9780 0.98 236 16:52 06.02.2022
3275 Clouds -2 1024 88 4721 0.83 252 16:20 06.02.2022
3276 Clouds -2 1024 88 4721 0.83 252 15:47 06.02.2022
3277 Snow -2 1022 85 10000 0.59 250 15:24 06.02.2022
3278 Snow 0 1021 81 9950 0.86 197 14:19 06.02.2022
3279 Snow 1 1019 68 10000 1.88 310 13:21 06.02.2022
3280 Rain 2 1018 60 10000 1.23 306 12:27 06.02.2022
3281 Clouds 2 1018 58 10000 2.07 320 10:33 06.02.2022
3282 Clouds 2 1018 58 10000 1.51 339 09:43 06.02.2022
3283 Clouds 2 1019 56 10000 0.94 343 08:41 06.02.2022
3284 Clouds 1 1021 57 10000 0.35 171 06:34 06.02.2022
3285 Clouds -1 1023 68 10000 0.41 6 05:28 06.02.2022
3286 Clouds -3 1022 74 10000 0.06 260 02:25 06.02.2022
3287 Clouds -2 1021 68 10000 0.93 306 00:33 06.02.2022
3288 Clouds -3 1022 70 10000 0.86 320 23:39 05.02.2022
3289 Clouds -2 1021 72 10000 0.51 155 21:47 05.02.2022
3290 Clouds -2 1021 74 10000 0.23 187 20:41 05.02.2022
3291 Clouds -1 1021 73 7951 0.81 200 20:20 05.02.2022
3292 Clouds -1 1021 73 7951 0.81 200 19:42 05.02.2022
3293 Clouds -1 1021 73 10000 1.12 206 18:37 05.02.2022
3294 Clouds -2 1021 74 10000 0.76 208 17:35 05.02.2022
3295 Snow 0 1019 73 7141 0.34 287 16:20 05.02.2022
3296 Snow 0 1019 73 7141 0.34 287 15:31 05.02.2022
3297 Snow 0 1017 61 3034 0.93 198 13:38 05.02.2022
3298 Clouds 1 1016 52 10000 1.3 189 12:46 05.02.2022
3299 Clouds 2 1015 49 10000 1.58 196 11:45 05.02.2022
3300 Clear 3 1015 46 10000 1.83 194 10:43 05.02.2022
3301 Clear 2 1016 44 10000 1.92 199 09:50 05.02.2022
3302 Clear 2 1018 42 10000 2.35 194 08:39 05.02.2022
3303 Clear -1 1021 41 10000 2.67 196 06:59 05.02.2022
3304 Clear -1 1021 41 10000 2.67 196 06:35 05.02.2022
3305 Clear -8 1024 52 10000 2.95 207 02:40 05.02.2022
3306 Clear -7 1023 52 10000 2.89 208 01:18 05.02.2022
3307 Clear -7 1023 52 10000 2.79 209 00:36 05.02.2022
3308 Clear -7 1023 51 10000 2.62 209 23:33 04.02.2022
3309 Clear -7 1023 51 10000 2.57 211 22:39 04.02.2022
3310 Clear -7 1023 51 10000 2.41 210 21:36 04.02.2022
3311 Clear -6 1023 50 10000 2.46 211 21:18 04.02.2022
3312 Clear -6 1023 50 10000 2.61 207 20:29 04.02.2022
3313 Clear -6 1023 49 10000 2.82 210 19:18 04.02.2022
3314 Clear -5 1021 49 10000 2.56 215 16:22 04.02.2022
3315 Clear -5 1021 50 10000 2.76 205 15:18 04.02.2022
3316 Clear -5 1021 50 10000 2.76 205 14:40 04.02.2022
3317 Clouds -2 1018 52 10000 2.91 203 12:43 04.02.2022
3318 Clouds -1 1017 50 10000 2.79 199 11:45 04.02.2022
3319 Clouds 0 1017 46 10000 2.92 197 10:53 04.02.2022
3320 Clear -1 1018 45 10000 2.87 199 09:35 04.02.2022
3321 Clear -3 1022 45 10000 3 202 07:44 04.02.2022
3322 Clear -11 1028 63 10000 3.11 211 03:30 04.02.2022
3323 Clear -11 1028 63 10000 3.39 213 02:34 04.02.2022
3324 Clear -10 1027 64 10000 3.15 214 23:34 03.02.2022
3325 Clear -10 1027 64 10000 3.16 217 22:48 03.02.2022
3326 Clear -9 1027 64 10000 3.07 217 21:51 03.02.2022
3327 Clear -9 1027 64 10000 2.9 214 21:18 03.02.2022
3328 Clear -8 1027 64 10000 2.74 216 20:21 03.02.2022
3329 Clear -8 1027 64 10000 2.74 216 19:36 03.02.2022
3330 Clear -8 1027 63 10000 2.67 221 18:50 03.02.2022
3331 Clear -7 1026 63 10000 2.68 221 17:51 03.02.2022
3332 Clear -7 1026 65 10000 2.69 222 16:46 03.02.2022
3333 Clear -6 1024 69 10000 2.6 223 14:55 03.02.2022
3334 Clear -3 1021 72 10000 2.44 213 13:19 03.02.2022
3335 Clear -1 1020 67 10000 2.32 208 11:44 03.02.2022
3336 Clear -2 1022 63 10000 2.65 203 08:55 03.02.2022
3337 Clear -2 1023 63 10000 2.76 203 07:40 03.02.2022
3338 Clear -7 1026 74 10000 2.52 222 00:34 03.02.2022
3339 Clear -7 1025 74 10000 2.46 221 23:45 02.02.2022
3340 Clear -7 1025 74 10000 2.47 224 22:36 02.02.2022
3341 Clear -6 1025 74 10000 2.38 225 21:37 02.02.2022
3342 Clear -6 1024 74 10000 2.32 226 20:56 02.02.2022
3343 Clear -5 1024 75 10000 2.04 228 20:00 02.02.2022
3344 Clear -5 1024 75 10000 2.04 228 19:41 02.02.2022
3345 Clouds -5 1023 77 10000 2.01 233 18:53 02.02.2022
3346 Clouds -5 1023 78 10000 1.89 232 18:22 02.02.2022
3347 Clouds -4 1022 79 10000 1.82 228 17:20 02.02.2022
3348 Clouds -4 1022 79 10000 1.82 228 16:47 02.02.2022
3349 Clouds -2 1018 82 10000 1.85 214 14:18 02.02.2022
3350 Clouds 1 1015 76 10000 0.58 235 12:26 02.02.2022
3351 Clouds 1 1015 76 10000 0.58 235 11:40 02.02.2022
3352 Clouds 1 1014 74 10000 0.56 191 10:38 02.02.2022
3353 Clouds 0 1017 64 9635 0.67 215 07:42 02.02.2022
3354 Clouds -6 1021 69 10000 2.07 194 00:34 02.02.2022
3355 Clouds -5 1022 69 10000 2.08 227 21:55 01.02.2022
3356 Clouds -6 1022 67 10000 2.16 210 20:47 01.02.2022
3357 Clouds -6 1024 62 10000 2.91 208 17:59 01.02.2022
3358 Clouds -6 1024 62 10000 3.05 209 16:43 01.02.2022
3359 Clouds -6 1024 65 10000 2.83 213 14:56 01.02.2022
3360 Clear -3 1022 69 10000 2.98 200 12:48 01.02.2022
3361 Clear -2 1022 69 10000 3.1 193 11:48 01.02.2022
3362 Clear -4 1029 59 10000 2.99 196 06:57 01.02.2022
3363 Clear -8 1029 68 10000 3.02 214 23:53 31.01.2022
3364 Clear -8 1029 68 10000 3.02 214 23:34 31.01.2022
3365 Clear -8 1029 68 10000 3.02 214 23:34 31.01.2022
3366 Clear -7 1028 69 10000 2.63 219 22:26 31.01.2022
3367 Clear -7 1028 69 10000 2.63 219 21:33 31.01.2022
3368 Clear -7 1028 69 10000 2.46 221 20:33 31.01.2022
3369 Clear -7 1027 70 10000 2.47 218 19:46 31.01.2022
3370 Clear -6 1026 72 10000 2.51 222 18:29 31.01.2022
3371 Clear -4 1024 71 10000 2.25 220 17:46 31.01.2022
3372 Clear -4 1023 72 10000 2.25 218 16:48 31.01.2022
3373 Clear -4 1023 74 10000 2.25 219 15:43 31.01.2022
3374 Clear -3 1021 79 10000 2.2 209 14:24 31.01.2022
3375 Clear -1 1019 78 10000 2.12 199 12:39 31.01.2022
3376 Clear 0 1018 72 10000 1.92 194 11:58 31.01.2022
3377 Clear 1 1018 71 10000 1.87 192 10:51 31.01.2022
3378 Clear 1 1018 71 10000 1.87 192 10:32 31.01.2022
3379 Clear 0 1020 72 10000 1.98 190 09:27 31.01.2022
3380 Clear 0 1020 72 10000 1.98 190 08:52 31.01.2022
3381 Clear 0 1020 72 10000 1.98 190 08:52 31.01.2022
3382 Clear -1 1021 71 10000 1.83 196 08:20 31.01.2022
3383 Clear -3 1023 71 10000 2.32 194 06:21 31.01.2022
3384 Clear -6 1024 77 10000 2.74 211 03:33 31.01.2022
3385 Clouds -5 1022 76 10000 2.39 212 23:19 30.01.2022
3386 Clouds -5 1022 76 10000 2.38 211 22:29 30.01.2022
3387 Clouds -5 1022 76 10000 2.38 211 21:42 30.01.2022
3388 Clear -5 1022 74 10000 2.26 212 21:19 30.01.2022
3389 Clear -5 1022 74 10000 2.26 212 20:49 30.01.2022
3390 Clear -5 1022 75 10000 2.29 213 20:29 30.01.2022
3391 Clear -5 1022 75 10000 2.29 213 19:52 30.01.2022
3392 Clouds -4 1022 75 10000 2.2 213 18:44 30.01.2022
3393 Clouds -4 1022 76 10000 2.12 217 18:20 30.01.2022
3394 Clouds -3 1022 77 10000 2.22 194 17:27 30.01.2022
3395 Clouds -3 1022 77 10000 2.22 194 16:40 30.01.2022
3396 Clouds -3 1022 77 10000 2.22 194 16:40 30.01.2022
3397 Clouds -4 1022 78 10000 2.09 229 16:22 30.01.2022
3398 Clouds -4 1022 78 10000 2.09 229 15:51 30.01.2022
3399 Clouds -4 1022 78 10000 2.09 229 15:32 30.01.2022
3400 Clouds -3 1021 79 10000 2 206 14:46 30.01.2022
3401 Clouds -1 1018 79 10000 1.69 196 12:54 30.01.2022
3402 Clouds -1 1018 79 10000 1.69 196 12:33 30.01.2022
3403 Clear 1 1018 72 10000 1.85 184 10:36 30.01.2022
3404 Clear 0 1019 73 10000 1.92 190 09:56 30.01.2022
3405 Clear 0 1021 73 10000 2.18 191 08:58 30.01.2022
3406 Clear -1 1023 72 10000 2.11 198 07:55 30.01.2022
3407 Clear -6 1027 72 10000 2.29 213 02:29 30.01.2022
3408 Clear -6 1027 71 10000 2.19 214 00:41 30.01.2022
3409 Clear -5 1028 72 10000 2.26 210 23:20 29.01.2022
3410 Clear -5 1028 72 10000 2.18 218 21:58 29.01.2022
3411 Clear -5 1028 72 10000 2.1 213 21:25 29.01.2022
3412 Clear -5 1028 72 10000 2.1 213 20:35 29.01.2022
3413 Clear -4 1028 71 10000 2.13 219 19:36 29.01.2022
3414 Clear -4 1028 72 10000 2.02 218 18:58 29.01.2022
3415 Clear -4 1028 70 10000 2 223 18:26 29.01.2022
3416 Clear -4 1028 70 10000 2 223 17:35 29.01.2022
3417 Clear -3 1027 73 10000 2.22 215 16:37 29.01.2022
3418 Clear -2 1024 76 10000 2.07 212 14:23 29.01.2022
3419 Clear -2 1024 76 10000 2.07 212 13:45 29.01.2022
3420 Clear -1 1022 76 10000 2.03 200 13:24 29.01.2022
3421 Clear 1 1022 74 10000 1.87 198 11:50 29.01.2022
3422 Clear 1 1022 72 10000 1.68 201 11:27 29.01.2022
3423 Clear 0 1024 73 10000 2.16 194 09:29 29.01.2022
3424 Clear -1 1027 69 10000 2.34 199 06:55 29.01.2022
3425 Clear -6 1028 75 10000 2.49 213 00:36 29.01.2022
3426 Clear -6 1028 75 10000 2.21 207 23:59 28.01.2022
3427 Clear -6 1028 75 10000 2.18 212 22:51 28.01.2022
3428 Clear -5 1028 76 10000 2.05 211 22:22 28.01.2022
3429 Clear -5 1028 76 10000 2.05 211 21:37 28.01.2022
3430 Clear -5 1028 76 10000 1.89 215 20:30 28.01.2022
3431 Clear -5 1027 76 10000 1.92 213 19:31 28.01.2022
3432 Clear -5 1027 77 10000 1.85 215 18:43 28.01.2022
3433 Clear -4 1026 77 10000 1.81 209 16:54 28.01.2022
3434 Clear -4 1025 79 10000 1.53 209 15:20 28.01.2022
3435 Clear -3 1023 78 10000 1.39 207 13:52 28.01.2022
3436 Clear -1 1020 77 10000 1.42 199 12:30 28.01.2022
3437 Clear 1 1019 71 10000 1.42 183 11:24 28.01.2022
3438 Clouds 1 1020 70 10000 1.62 189 09:52 28.01.2022
3439 Clear 0 1023 64 10000 2.3 199 08:22 28.01.2022
3440 Clear 0 1023 64 10000 2.3 199 07:34 28.01.2022
3441 Clouds -7 1029 68 10000 2.31 203 03:57 28.01.2022
3442 Clouds -8 1029 69 10000 2.11 217 03:20 28.01.2022
3443 Clouds -7 1028 68 10000 2.35 208 02:22 28.01.2022
3444 Clouds -7 1028 68 10000 2.35 208 01:31 28.01.2022
3445 Clouds -8 1030 64 10000 2.84 205 22:52 27.01.2022
3446 Clouds -8 1030 64 10000 2.49 204 21:47 27.01.2022
3447 Clouds -8 1030 62 10000 2.69 217 21:29 27.01.2022
3448 Clear -8 1031 61 10000 2.54 215 20:25 27.01.2022
3449 Clear -8 1031 59 10000 2.63 211 18:26 27.01.2022
3450 Clear -8 1031 59 10000 2.63 211 17:34 27.01.2022
3451 Clear -7 1029 60 10000 2.91 207 14:42 27.01.2022
3452 Clear -5 1026 66 10000 2.71 202 13:26 27.01.2022
3453 Clear -5 1026 66 10000 2.71 201 12:39 27.01.2022
3454 Clear -3 1025 55 10000 2.65 194 09:56 27.01.2022
3455 Clear -3 1027 55 10000 2.71 195 08:48 27.01.2022
3456 Clear -4 1028 55 10000 2.74 195 08:28 27.01.2022
3457 Clear -12 1035 61 10000 2.96 213 03:47 27.01.2022
3458 Clear -12 1033 59 10000 2.95 214 00:25 27.01.2022
3459 Clear -12 1033 59 10000 2.95 214 00:25 27.01.2022
3460 Clear -11 1033 59 10000 2.9 217 22:39 26.01.2022
3461 Clear -11 1033 59 10000 2.59 220 21:45 26.01.2022
3462 Clear -11 1033 59 10000 2.78 218 21:26 26.01.2022
3463 Clear -11 1033 59 10000 2.78 218 20:35 26.01.2022
3464 Clear -10 1032 59 10000 2.77 216 19:52 26.01.2022
3465 Clear -10 1032 59 10000 2.8 219 19:18 26.01.2022
3466 Clear -9 1032 59 10000 2.8 218 18:26 26.01.2022
3467 Clear -9 1032 59 10000 2.8 218 17:49 26.01.2022
3468 Clear -9 1031 60 10000 2.83 219 17:19 26.01.2022
3469 Clear -9 1030 61 10000 2.86 218 16:26 26.01.2022
3470 Clear -9 1030 63 10000 2.8 217 15:24 26.01.2022
3471 Clear -6 1027 68 10000 2.68 206 12:52 26.01.2022
3472 Clear -3 1025 60 10000 2.85 197 10:57 26.01.2022
3473 Clear -3 1025 57 10000 2.96 197 09:59 26.01.2022
3474 Clear -3 1025 57 10000 2.96 197 09:40 26.01.2022
3475 Clear -5 1029 56 10000 2.79 197 07:31 26.01.2022
3476 Clear -12 1033 60 10000 2.96 218 00:44 26.01.2022
3477 Clear -12 1033 60 10000 2.99 216 23:44 25.01.2022
3478 Clear -12 1033 60 10000 3 217 22:50 25.01.2022
3479 Clear -11 1033 60 10000 2.83 219 22:21 25.01.2022
3480 Clear -11 1033 60 10000 2.83 219 21:37 25.01.2022
3481 Clear -11 1032 60 10000 2.72 218 20:46 25.01.2022
3482 Clear -11 1032 60 10000 2.76 216 19:59 25.01.2022
3483 Clear -11 1032 60 10000 2.76 216 19:40 25.01.2022
3484 Clear -10 1031 59 10000 2.59 219 18:20 25.01.2022
3485 Clear -10 1031 59 10000 2.59 219 17:40 25.01.2022
3486 Clear -9 1030 60 10000 2.53 221 16:35 25.01.2022
3487 Clear -9 1029 61 10000 2.57 216 15:43 25.01.2022
3488 Clear -9 1028 63 10000 2.56 216 15:25 25.01.2022
3489 Clear -9 1028 63 10000 2.56 216 14:57 25.01.2022
3490 Clear -6 1024 68 10000 2.48 204 12:32 25.01.2022
3491 Clear -3 1023 55 10000 2.5 194 09:58 25.01.2022
3492 Clear -4 1024 54 10000 2.53 193 08:32 25.01.2022
3493 Clear -6 1028 54 10000 2.76 197 07:28 25.01.2022
3494 Clear -8 1029 55 10000 2.79 198 05:55 25.01.2022
3495 Clear -12 1032 58 10000 2.63 215 00:58 25.01.2022
3496 Clear -12 1032 58 10000 2.63 213 23:36 24.01.2022
3497 Clear -12 1032 59 10000 2.56 214 23:18 24.01.2022
3498 Clear -12 1032 59 10000 2.56 214 22:58 24.01.2022
3499 Clear -12 1032 59 10000 2.56 214 22:40 24.01.2022
3500 Clear -12 1032 60 10000 2.42 216 21:43 24.01.2022
3501 Clear -11 1031 59 10000 2.5 214 21:25 24.01.2022
3502 Clear -11 1031 59 10000 2.6 213 20:28 24.01.2022
3503 Clear -11 1031 59 10000 2.6 213 19:38 24.01.2022
3504 Clear -10 1030 59 10000 2.57 212 18:50 24.01.2022
3505 Clear -10 1030 59 10000 2.57 213 17:43 24.01.2022
3506 Clear -10 1029 59 10000 2.64 213 17:22 24.01.2022
3507 Clear -10 1029 59 10000 2.64 213 16:32 24.01.2022
3508 Clear -10 1029 61 10000 2.62 215 15:51 24.01.2022
3509 Clear -9 1027 65 10000 2.66 210 14:19 24.01.2022
3510 Clear -7 1024 67 10000 2.72 203 12:35 24.01.2022
3511 Clear -4 1023 67 10000 2.56 195 11:42 24.01.2022
3512 Clear -4 1023 57 10000 2.68 194 10:23 24.01.2022
3513 Clear -4 1023 57 10000 2.68 194 09:46 24.01.2022
3514 Clear -6 1027 57 10000 2.8 195 08:18 24.01.2022
3515 Clear -13 1031 63 10000 3.04 214 02:29 24.01.2022
3516 Clear -12 1030 63 10000 2.9 217 01:26 24.01.2022
3517 Clear -12 1030 63 10000 2.91 217 00:32 24.01.2022
3518 Clear -12 1029 63 10000 2.79 217 23:46 23.01.2022
3519 Clear -11 1029 63 10000 2.78 216 22:21 23.01.2022
3520 Clear -11 1029 63 10000 2.78 216 21:41 23.01.2022
3521 Clear -10 1028 64 10000 2.71 218 21:23 23.01.2022
3522 Clear -10 1028 65 10000 2.68 217 20:23 23.01.2022
3523 Clear -9 1027 65 10000 2.67 218 18:56 23.01.2022
3524 Clear -9 1026 66 10000 2.72 218 18:24 23.01.2022
3525 Clear -8 1025 67 10000 2.68 217 17:19 23.01.2022
3526 Clear -8 1025 69 10000 2.66 217 15:59 23.01.2022
3527 Clear -8 1024 71 10000 2.53 218 14:52 23.01.2022
3528 Clear -8 1022 74 10000 2.56 211 14:18 23.01.2022
3529 Clear -5 1020 74 10000 2.47 202 12:46 23.01.2022
3530 Clear -3 1018 72 10000 2.39 195 12:21 23.01.2022
3531 Clear -3 1017 65 10000 2.45 195 11:27 23.01.2022
3532 Clear -3 1017 65 10000 2.45 195 10:58 23.01.2022
3533 Clear -3 1018 64 10000 2.51 193 10:25 23.01.2022
3534 Clear -3 1018 64 10000 2.51 193 09:32 23.01.2022
3535 Clear -4 1019 64 10000 2.66 193 08:50 23.01.2022
3536 Clear -10 1024 74 10000 2.73 215 03:59 23.01.2022
3537 Clear -9 1023 74 10000 2.79 216 01:38 23.01.2022
3538 Clouds -9 1022 74 10000 2.73 216 00:47 23.01.2022
3539 Clouds -8 1022 74 10000 2.62 215 00:18 23.01.2022
3540 Clouds -8 1022 75 10000 2.54 217 22:55 22.01.2022
3541 Clouds -8 1022 75 10000 2.54 217 22:33 22.01.2022
3542 Clouds -7 1021 75 10000 2.37 215 20:46 22.01.2022
3543 Clouds -7 1020 74 10000 2.45 221 19:46 22.01.2022
3544 Clouds -6 1020 75 10000 2.16 227 18:38 22.01.2022
3545 Clouds -5 1019 76 10000 2.13 226 17:49 22.01.2022
3546 Clouds -5 1019 77 10000 2.01 227 17:29 22.01.2022
3547 Clouds -5 1019 77 10000 2.01 227 16:54 22.01.2022
3548 Clouds -5 1018 79 10000 1.96 236 15:45 22.01.2022
3549 Clouds -4 1016 81 10000 1.69 231 14:55 22.01.2022
3550 Clouds -3 1014 81 10000 1.27 213 13:31 22.01.2022
3551 Clouds -1 1013 80 10000 1.2 182 12:40 22.01.2022
3552 Clouds 0 1013 74 10000 1.27 169 12:20 22.01.2022
3553 Clouds 0 1013 73 10000 0.8 144 10:55 22.01.2022
3554 Snow 0 1013 79 10000 0.58 158 10:26 22.01.2022
3555 Clouds 0 1014 83 10000 0.71 105 09:25 22.01.2022
3556 Clouds 0 1014 83 10000 0.71 105 08:50 22.01.2022
3557 Snow -1 1016 89 10000 0.39 134 06:56 22.01.2022
3558 Snow -3 1015 97 155 1.63 356 02:40 22.01.2022
3559 Snow -2 1015 97 180 2 14 00:31 22.01.2022
3560 Snow -2 1015 96 177 2.53 6 23:21 21.01.2022
3561 Snow -3 1016 97 203 2.67 12 21:45 21.01.2022
3562 Snow -3 1017 97 245 1.93 8 19:48 21.01.2022
3563 Snow -3 1018 96 195 0.82 324 18:20 21.01.2022
3564 Snow -3 1018 95 297 0.89 41 16:54 21.01.2022
3565 Snow -2 1018 84 6187 0.79 284 15:24 21.01.2022
3566 Clouds -1 1017 71 10000 0.69 220 12:51 21.01.2022
3567 Clear -1 1017 58 10000 1.22 355 11:29 21.01.2022
3568 Clear -1 1017 58 10000 1.22 355 10:51 21.01.2022
3569 Clear -2 1019 56 10000 1.16 187 09:24 21.01.2022
3570 Clear -2 1021 56 10000 1.46 193 08:20 21.01.2022
3571 Clear -5 1024 61 10000 1.78 214 04:36 21.01.2022
3572 Clear -6 1023 66 10000 1.9 228 22:52 20.01.2022
3573 Clear -6 1023 66 10000 1.94 225 21:49 20.01.2022
3574 Clear -6 1023 67 10000 1.94 225 21:27 20.01.2022
3575 Clear -6 1023 68 10000 1.96 226 19:55 20.01.2022
3576 Clear -6 1023 69 10000 2.02 225 19:18 20.01.2022
3577 Clear -5 1022 70 10000 1.96 227 17:37 20.01.2022
3578 Clear -5 1022 70 10000 1.93 221 16:32 20.01.2022
3579 Clear -5 1021 71 10000 2.12 220 15:32 20.01.2022
3580 Clear -5 1020 71 10000 2.21 215 14:37 20.01.2022
3581 Clear -2 1018 69 10000 2.23 204 12:53 20.01.2022
3582 Clear 0 1016 67 10000 2.05 197 12:29 20.01.2022
3583 Clear 0 1016 64 10000 2.28 198 11:19 20.01.2022
3584 Clear 0 1017 65 10000 2.21 196 10:18 20.01.2022
3585 Clear 0 1018 65 10000 2.42 197 09:18 20.01.2022
3586 Clear -2 1022 63 10000 2.63 198 07:23 20.01.2022
3587 Clouds -3 1021 77 10000 2.05 222 00:40 20.01.2022
3588 Clouds -3 1021 81 10000 1.74 230 22:39 19.01.2022
3589 Clouds -2 1021 83 10000 1.83 229 21:40 19.01.2022
3590 Clouds -2 1021 84 10000 1.79 227 21:21 19.01.2022
3591 Clouds -2 1021 84 10000 1.79 227 20:45 19.01.2022
3592 Clouds -2 1021 86 10000 1.86 220 19:18 19.01.2022
3593 Clouds -1 1021 86 10000 1.9 212 17:51 19.01.2022
3594 Clouds -1 1020 86 9052 1.96 211 17:18 19.01.2022
3595 Clouds 0 1020 87 8973 2.06 204 15:35 19.01.2022
3596 Clouds 0 1019 89 8302 2.04 208 13:38 19.01.2022
3597 Clouds 2 1018 95 4547 1.6 198 12:20 19.01.2022
3598 Clouds 2 1018 95 4547 1.6 198 11:38 19.01.2022
3599 Clouds 2 1019 97 3758 1.25 193 09:49 19.01.2022
3600 Clouds 2 1020 99 1883 0.86 205 09:22 19.01.2022
3601 Snow 0 1023 97 610 0.5 295 05:29 19.01.2022
3602 Snow 0 1022 98 132 0.95 27 00:33 19.01.2022
3603 Snow 0 1022 98 1120 1.1 7 23:18 18.01.2022
3604 Clouds 0 1024 97 1992 0.84 289 21:50 18.01.2022
3605 Snow 0 1023 96 2401 1.39 324 20:44 18.01.2022
3606 Snow 1 1023 87 10000 1.01 243 19:52 18.01.2022
3607 Snow 1 1023 87 10000 1.01 243 19:33 18.01.2022
3608 Clouds 0 1025 87 10000 1.55 226 18:25 18.01.2022
3609 Clouds 0 1025 87 10000 1.55 226 17:33 18.01.2022
3610 Clouds 0 1025 89 10000 0.88 248 16:22 18.01.2022
3611 Clouds -1 1024 89 10000 1 199 15:25 18.01.2022
3612 Clouds 0 1023 90 10000 1.28 177 14:23 18.01.2022
3613 Clouds 2 1021 89 10000 1 201 11:45 18.01.2022
3614 Clouds 2 1023 84 10000 0.24 179 10:30 18.01.2022
3615 Clouds 2 1024 84 10000 1.24 188 08:36 18.01.2022
3616 Clouds 1 1026 85 10000 1.95 203 07:45 18.01.2022
3617 Clouds -2 1029 91 9192 1.36 242 01:34 18.01.2022
3618 Clouds -2 1029 92 5317 1.18 248 22:47 17.01.2022
3619 Clouds -2 1029 93 3647 1.1 239 21:50 17.01.2022
3620 Clouds -1 1029 94 4284 0.95 232 21:29 17.01.2022
3621 Clouds -1 1029 95 2354 1.01 237 19:37 17.01.2022
3622 Snow 0 1028 96 1165 1.01 225 18:26 17.01.2022
3623 Clouds 0 1028 96 1246 0.96 230 17:22 17.01.2022
3624 Clouds 0 1027 96 2298 0.9 233 16:22 17.01.2022
3625 Clouds 0 1027 96 580 0.66 219 14:58 17.01.2022
3626 Clouds 0 1027 96 580 0.66 219 14:32 17.01.2022
3627 Snow 1 1025 100 52 0.16 344 13:19 17.01.2022
3628 Snow 2 1024 100 35 0.28 32 12:22 17.01.2022
3629 Snow 2 1024 100 33 0.59 26 10:53 17.01.2022
3630 Snow 2 1024 100 34 0.79 11 09:53 17.01.2022
3631 Snow 2 1025 100 48 1.06 38 08:44 17.01.2022
3632 Snow 1 1027 99 131 1.09 25 07:20 17.01.2022
3633 Clouds 1 1025 87 10000 1.4 224 00:59 17.01.2022
3634 Snow 1 1025 86 10000 1.72 200 23:33 16.01.2022
3635 Clouds 1 1026 83 10000 1.28 223 20:51 16.01.2022
3636 Clouds 1 1027 79 10000 1.63 222 20:18 16.01.2022
3637 Snow 1 1027 79 8443 2.03 200 18:46 16.01.2022
3638 Clouds 1 1026 73 10000 1.84 207 17:47 16.01.2022
3639 Clouds 1 1026 74 10000 1.7 209 16:53 16.01.2022
3640 Snow 1 1026 74 10000 1.67 194 15:40 16.01.2022
3641 Clouds 1 1026 78 10000 1.33 229 14:29 16.01.2022
3642 Clouds 1 1024 77 10000 1.13 214 13:21 16.01.2022
3643 Clouds 3 1024 77 10000 0.74 200 11:58 16.01.2022
3644 Clouds 3 1024 73 10000 1.14 189 11:27 16.01.2022
3645 Clouds 3 1024 71 10000 0.86 191 10:27 16.01.2022
3646 Clouds 3 1024 71 10000 0.86 191 09:57 16.01.2022
3647 Rain 3 1025 71 10000 0.41 221 09:23 16.01.2022
3648 Clouds 3 1025 71 10000 0.41 221 08:53 16.01.2022
3649 Clouds 1 1028 70 10000 0.9 213 05:51 16.01.2022
3650 Clouds -2 1028 81 10000 1.55 219 00:19 16.01.2022
3651 Clouds -2 1029 82 10000 2.11 208 22:38 15.01.2022
3652 Clouds -1 1028 83 10000 1.42 206 21:21 15.01.2022
3653 Clouds -1 1028 83 10000 1.42 206 20:43 15.01.2022
3654 Clouds -1 1029 84 10000 1.42 208 19:58 15.01.2022
3655 Clouds -1 1029 84 10000 1.65 214 19:23 15.01.2022
3656 Clouds -1 1029 84 10000 1.22 215 17:49 15.01.2022
3657 Clouds -1 1029 80 10000 1.48 204 16:42 15.01.2022
3658 Clouds -2 1027 83 10000 1.12 228 13:57 15.01.2022
3659 Clouds -1 1026 82 10000 1.32 185 12:33 15.01.2022
3660 Clouds 1 1026 77 10000 1.32 174 11:18 15.01.2022
3661 Clouds 1 1026 70 10000 0.5 139 09:21 15.01.2022
3662 Clouds -4 1029 75 10000 1.84 216 00:52 15.01.2022
3663 Clouds -3 1029 74 10000 1.81 216 21:57 14.01.2022
3664 Clouds -3 1029 75 10000 1.73 224 20:42 14.01.2022
3665 Clouds -3 1029 76 10000 1.66 225 20:23 14.01.2022
3666 Clouds -3 1029 76 10000 1.66 225 19:48 14.01.2022
3667 Clouds -3 1029 77 10000 1.57 214 18:28 14.01.2022
3668 Clouds -2 1028 77 10000 1.65 217 16:50 14.01.2022
3669 Clouds -3 1028 78 10000 1.77 210 15:48 14.01.2022
3670 Clouds -2 1028 78 10000 1.73 212 14:46 14.01.2022
3671 Clouds -2 1026 79 10000 1.75 202 13:37 14.01.2022
3672 Clear -1 1025 76 10000 1.53 210 12:31 14.01.2022
3673 Clear 1 1024 65 10000 1.24 190 11:27 14.01.2022
3674 Clear 1 1025 66 10000 1.6 200 09:50 14.01.2022
3675 Clear 0 1026 67 10000 1.65 200 08:51 14.01.2022
3676 Clear -1 1029 63 10000 1.57 203 06:57 14.01.2022
3677 Clear -5 1029 75 10000 1.92 217 01:33 14.01.2022
3678 Clouds -5 1029 75 10000 1.7 224 23:19 13.01.2022
3679 Clouds -5 1029 75 10000 1.74 220 21:38 13.01.2022
3680 Clouds -4 1028 75 10000 1.84 218 21:19 13.01.2022
3681 Clouds -4 1028 75 10000 1.85 221 19:40 13.01.2022
3682 Clear -4 1028 75 10000 1.84 223 19:22 13.01.2022
3683 Clear -4 1027 75 10000 1.81 222 17:52 13.01.2022
3684 Clear -4 1027 75 10000 1.95 218 16:21 13.01.2022
3685 Clear -4 1027 75 10000 1.95 218 15:37 13.01.2022
3686 Clear -3 1026 75 10000 1.92 213 14:46 13.01.2022
3687 Clear -1 1023 72 10000 1.59 212 12:44 13.01.2022
3688 Clear 1 1023 59 10000 1.48 198 10:25 13.01.2022
3689 Clear 0 1024 60 10000 1.59 198 09:20 13.01.2022
3690 Clear 0 1024 60 10000 1.59 198 09:20 13.01.2022
3691 Clear 0 1025 60 10000 1.64 197 08:27 13.01.2022
3692 Clear -1 1027 59 10000 1.73 199 07:23 13.01.2022
3693 Clear -2 1027 57 10000 1.74 202 05:59 13.01.2022
3694 Clear -2 1027 57 10000 1.74 202 05:59 13.01.2022
3695 Clear -3 1028 65 10000 1.88 216 05:19 13.01.2022
3696 Clear -5 1028 68 10000 2.08 218 01:58 13.01.2022
3697 Clouds -5 1028 69 10000 1.98 220 00:54 13.01.2022
3698 Clouds -5 1028 68 10000 1.86 222 23:49 12.01.2022
3699 Clouds -5 1028 68 10000 1.86 222 23:49 12.01.2022
3700 Clouds -5 1028 68 10000 1.8 223 23:19 12.01.2022
3701 Clouds -4 1028 68 10000 1.82 224 21:57 12.01.2022
3702 Clouds -4 1028 69 10000 1.86 221 21:22 12.01.2022
3703 Clouds -4 1028 69 10000 1.86 221 20:56 12.01.2022
3704 Clouds -4 1028 69 10000 1.84 224 19:43 12.01.2022
3705 Clouds -4 1028 69 10000 1.82 219 18:30 12.01.2022
3706 Clouds -4 1027 71 10000 1.85 218 17:21 12.01.2022
3707 Clouds -4 1027 71 10000 1.85 218 16:32 12.01.2022
3708 Clouds -3 1026 73 10000 1.65 215 14:48 12.01.2022
3709 Clouds -1 1023 70 10000 0.93 199 13:19 12.01.2022
3710 Clouds 1 1022 56 10000 1.13 202 10:56 12.01.2022
3711 Clouds 0 1024 55 10000 1.23 184 08:43 12.01.2022
3712 Clouds 0 1025 55 10000 1.29 198 07:50 12.01.2022
3713 Clouds 0 1025 55 10000 1.29 198 07:31 12.01.2022
3714 Clouds -5 1029 68 10000 1.83 219 23:53 11.01.2022
3715 Clouds -5 1029 68 10000 1.76 222 22:54 11.01.2022
3716 Clouds -4 1029 68 10000 1.91 218 22:22 11.01.2022
3717 Clear -5 1029 69 10000 1.99 218 20:54 11.01.2022
3718 Clear -4 1029 69 10000 1.84 234 19:50 11.01.2022
3719 Clear -4 1029 70 10000 1.92 209 18:31 11.01.2022
3720 Clear -4 1029 72 10000 1.91 216 17:24 11.01.2022
3721 Clear -4 1029 72 10000 1.91 216 16:37 11.01.2022
3722 Clear -4 1029 74 10000 1.91 230 15:39 11.01.2022
3723 Clear -3 1029 75 10000 1.85 213 14:42 11.01.2022
3724 Clear -3 1028 76 10000 1.76 221 13:55 11.01.2022
3725 Clear -3 1028 76 10000 1.76 221 13:35 11.01.2022
3726 Clear -1 1026 74 10000 1.38 203 12:43 11.01.2022
3727 Clear 1 1025 66 10000 1.02 207 11:43 11.01.2022
3728 Clear 1 1026 63 10000 1.54 196 09:39 11.01.2022
3729 Clear -1 1030 64 10000 1.78 201 07:18 11.01.2022
3730 Clear -4 1029 73 10000 1.44 230 00:32 11.01.2022
3731 Clear -3 1029 73 10000 1.46 237 23:43 10.01.2022
3732 Clear -3 1029 74 10000 1.28 233 23:22 10.01.2022
3733 Clear -3 1029 74 10000 1.36 234 22:19 10.01.2022
3734 Clear -3 1029 74 10000 1.36 234 21:54 10.01.2022
3735 Clear -3 1029 75 10000 1.39 235 21:20 10.01.2022
3736 Clear -3 1029 75 10000 1.39 235 20:56 10.01.2022
3737 Clear -3 1029 75 10000 1.28 233 20:28 10.01.2022
3738 Clear -3 1029 75 10000 1.28 233 19:42 10.01.2022
3739 Clear -3 1029 76 10000 1.36 234 19:21 10.01.2022
3740 Clear -3 1029 76 10000 1.36 234 18:48 10.01.2022
3741 Clear -3 1028 76 10000 1.35 231 17:41 10.01.2022
3742 Clear -2 1028 77 10000 1.39 232 16:42 10.01.2022
3743 Clear -2 1027 77 10000 1.22 240 15:45 10.01.2022
3744 Clear -1 1025 73 10000 0.88 263 14:26 10.01.2022
3745 Clear 2 1021 60 10000 0.21 167 11:58 10.01.2022
3746 Clear 2 1021 56 10000 0.62 185 11:25 10.01.2022
3747 Clear 2 1021 56 10000 0.99 182 09:50 10.01.2022
3748 Clear 0 1024 60 10000 1.7 200 07:18 10.01.2022
3749 Clear 0 1024 57 10000 1.73 202 05:49 10.01.2022
3750 Clear 0 1024 57 10000 1.73 202 05:49 10.01.2022
3751 Clear -3 1025 70 10000 1.54 220 01:30 10.01.2022
3752 Clear -3 1024 71 10000 1.48 222 00:25 10.01.2022
3753 Clear -3 1024 71 10000 1.48 222 23:33 09.01.2022
3754 Clear -3 1024 72 10000 1.5 224 22:37 09.01.2022
3755 Clear -3 1024 72 10000 1.56 222 21:46 09.01.2022
3756 Clear -2 1024 73 10000 1.67 216 21:23 09.01.2022
3757 Clear -2 1024 73 10000 1.67 216 20:51 09.01.2022
3758 Clear -2 1024 73 10000 1.67 216 20:33 09.01.2022
3759 Clear -2 1024 73 10000 1.84 217 19:44 09.01.2022
3760 Clouds -2 1024 75 10000 1.8 216 19:23 09.01.2022
3761 Clouds -2 1024 73 10000 1.83 217 18:52 09.01.2022
3762 Clouds -2 1024 73 10000 1.83 217 18:33 09.01.2022
3763 Clouds -2 1024 74 10000 1.9 220 17:31 09.01.2022
3764 Clouds -2 1023 75 10000 1.92 214 16:53 09.01.2022
3765 Clouds -2 1023 77 10000 1.99 217 15:57 09.01.2022
3766 Clouds -2 1023 77 10000 1.99 217 15:35 09.01.2022
3767 Clouds -1 1023 78 10000 1.87 213 14:40 09.01.2022
3768 Clouds 0 1021 79 10000 2.03 201 13:50 09.01.2022
3769 Clouds 1 1020 76 10000 1.96 194 13:22 09.01.2022
3770 Clouds 3 1019 70 10000 1.7 197 11:54 09.01.2022
3771 Clouds 3 1019 68 10000 1.71 195 10:53 09.01.2022
3772 Clouds 3 1019 69 10000 2.02 192 09:47 09.01.2022
3773 Clouds 2 1021 70 10000 1.81 191 08:51 09.01.2022
3774 Clear -1 1025 75 10000 1.56 203 05:21 09.01.2022
3775 Clouds -3 1025 81 10000 1.66 211 01:24 09.01.2022
3776 Clouds -2 1024 84 10000 1.31 223 23:44 08.01.2022
3777 Clouds -2 1024 86 10000 1.18 224 23:26 08.01.2022
3778 Clouds -1 1024 87 10000 1.08 228 22:28 08.01.2022
3779 Clouds -1 1024 88 10000 0.84 227 21:25 08.01.2022
3780 Clouds -1 1024 88 10000 0.84 227 20:42 08.01.2022
3781 Clouds -1 1024 88 10000 0.42 270 20:20 08.01.2022
3782 Clouds -1 1024 89 10000 0.7 248 18:40 08.01.2022
3783 Clouds 0 1024 90 10000 0.41 309 17:22 08.01.2022
3784 Clouds 0 1023 90 10000 0.52 33 15:56 08.01.2022
3785 Clouds 0 1023 92 10000 0.94 10 14:46 08.01.2022
3786 Snow 1 1021 92 3676 1.78 9 13:28 08.01.2022
3787 Snow 1 1020 95 356 1.53 353 11:28 08.01.2022
3788 Snow 1 1020 95 387 1.63 12 10:28 08.01.2022
3789 Snow 1 1020 95 387 1.63 12 09:48 08.01.2022
3790 Clouds 1 1019 79 10000 0.9 120 08:22 08.01.2022
3791 Snow -1 1020 91 10000 0.7 205 03:31 08.01.2022
3792 Snow 0 1018 92 6450 1.51 348 00:42 08.01.2022
3793 Snow 0 1017 89 9838 1.16 25 22:49 07.01.2022
3794 Clouds 1 1017 85 10000 0.56 197 21:21 07.01.2022
3795 Snow 1 1017 85 10000 0.1 209 20:20 07.01.2022
3796 Clouds 0 1018 84 10000 0.91 250 19:25 07.01.2022
3797 Clouds 0 1018 84 10000 0.91 250 18:45 07.01.2022
3798 Clouds 0 1019 85 10000 0.58 288 17:28 07.01.2022
3799 Snow 0 1019 85 10000 0.58 288 16:41 07.01.2022
3800 Clouds 0 1017 87 10000 1.17 181 14:29 07.01.2022
3801 Clouds 0 1017 87 10000 1.17 181 13:41 07.01.2022
3802 Clouds 1 1016 87 10000 0.88 238 12:50 07.01.2022
3803 Clouds 1 1019 86 10000 0.63 56 09:46 07.01.2022
3804 Clouds -1 1023 96 2878 0.95 234 02:57 07.01.2022
3805 Snow -1 1022 97 1743 0.47 301 01:56 07.01.2022
3806 Snow 0 1022 95 1200 0.59 303 01:28 07.01.2022
3807 Snow 0 1022 95 1200 0.59 303 00:59 07.01.2022
3808 Snow -1 1022 96 398 0.89 314 00:28 07.01.2022
3809 Snow 0 1023 97 2633 0.96 326 21:39 06.01.2022
3810 Snow 0 1023 94 6813 0.84 331 20:25 06.01.2022
3811 Snow 0 1023 94 6813 0.84 331 19:45 06.01.2022
3812 Snow 0 1023 95 6789 1.2 335 18:59 06.01.2022
3813 Snow 0 1023 94 6851 1.26 343 17:42 06.01.2022
3814 Snow 0 1023 94 6851 1.26 343 17:42 06.01.2022
3815 Clouds 0 1023 92 7153 0.97 352 16:58 06.01.2022
3816 Clouds 0 1023 91 7249 0.6 318 16:21 06.01.2022
3817 Snow 0 1023 91 7249 0.6 318 15:39 06.01.2022
3818 Snow 0 1023 90 7217 0.96 326 15:19 06.01.2022
3819 Clouds 0 1022 90 8146 1.29 345 14:19 06.01.2022
3820 Clouds 1 1021 84 9345 1.58 5 12:59 06.01.2022
3821 Clouds 2 1021 76 10000 1.74 17 11:50 06.01.2022
3822 Clouds 2 1021 72 10000 1.72 28 11:28 06.01.2022
3823 Clouds 2 1021 70 10000 1.55 30 09:33 06.01.2022
3824 Clouds -2 1022 85 10000 0.9 314 01:57 06.01.2022
3825 Clouds -1 1022 83 10000 0.68 278 23:54 05.01.2022
3826 Clouds -1 1022 85 10000 0.71 286 23:19 05.01.2022
3827 Clouds -1 1022 85 10000 0.71 286 22:40 05.01.2022
3828 Clouds -2 1022 86 10000 0.93 294 21:54 05.01.2022
3829 Clouds -1 1022 87 10000 0.64 305 21:21 05.01.2022
3830 Clouds -1 1021 87 10000 0.42 321 20:21 05.01.2022
3831 Clouds -1 1021 87 10000 0.64 294 19:27 05.01.2022
3832 Clouds -1 1020 84 10000 1.39 281 17:50 05.01.2022
3833 Clouds -1 1020 84 10000 1.16 286 16:56 05.01.2022
3834 Clouds 0 1019 85 10000 1.11 285 15:46 05.01.2022
3835 Clouds 0 1019 85 10000 1.13 317 14:50 05.01.2022
3836 Clouds 1 1017 84 10000 1.05 344 13:33 05.01.2022
3837 Clouds 3 1015 76 10000 0.84 278 11:46 05.01.2022
3838 Clouds 1 1019 87 10000 0.18 306 08:21 05.01.2022
3839 Clouds 0 1021 97 8573 0.29 38 06:36 05.01.2022
3840 Snow 0 1020 99 78 1.54 356 01:20 05.01.2022
3841 Snow 0 1020 99 77 1.64 0 23:41 04.01.2022
3842 Snow 0 1021 99 71 1.75 357 23:19 04.01.2022
3843 Snow 0 1021 99 113 1.96 9 21:32 04.01.2022
3844 Snow 0 1021 99 63 1.37 359 19:55 04.01.2022
3845 Snow 0 1021 99 59 1.73 17 18:35 04.01.2022
3846 Snow 1 1020 99 51 1.04 27 17:18 04.01.2022
3847 Snow 1 1020 99 51 1.04 27 16:31 04.01.2022
3848 Snow 1 1019 100 53 1.53 30 14:58 04.01.2022
3849 Snow 1 1019 100 53 1.53 30 14:36 04.01.2022
3850 Snow 1 1019 99 47 1.32 1 13:48 04.01.2022
3851 Rain 1 1018 99 41 1.86 18 10:59 04.01.2022
3852 Rain 1 1018 100 47 1.88 24 09:58 04.01.2022
3853 Rain 1 1019 99 65 1.18 20 08:35 04.01.2022
3854 Snow 0 1022 99 71 1.42 358 03:39 04.01.2022
3855 Snow 0 1022 99 65 1.64 5 00:42 04.01.2022
3856 Snow 0 1022 99 60 1.72 10 23:41 03.01.2022
3857 Snow 0 1023 99 54 1.58 21 22:21 03.01.2022
3858 Snow 0 1023 99 54 1.58 21 21:35 03.01.2022
3859 Snow 0 1024 99 73 0.96 9 20:28 03.01.2022
3860 Snow 0 1024 99 77 1.68 23 18:54 03.01.2022
3861 Snow 1 1024 99 78 1.29 24 18:28 03.01.2022
3862 Snow 1 1024 99 88 1.13 11 17:18 03.01.2022
3863 Snow 0 1024 99 93 1.03 16 15:50 03.01.2022
3864 Snow 1 1024 99 114 1.25 6 14:31 03.01.2022
3865 Snow 1 1022 97 195 1.99 344 12:48 03.01.2022
3866 Snow 1 1022 98 158 1.43 9 11:39 03.01.2022
3867 Rain 1 1022 97 159 2.05 348 10:37 03.01.2022
3868 Snow 1 1023 95 177 2.02 353 08:48 03.01.2022
3869 Snow 1 1025 94 311 1.66 357 07:36 03.01.2022
3870 Rain 1 1024 73 4072 1.55 309 01:55 03.01.2022
3871 Clouds 2 1024 57 10000 0.84 356 23:22 02.01.2022
3872 Snow 2 1024 57 10000 0.84 356 22:55 02.01.2022
3873 Clouds 1 1025 58 10000 1.07 345 21:52 02.01.2022
3874 Clouds 1 1025 58 10000 1.05 358 20:41 02.01.2022
3875 Snow 1 1025 58 10000 0.82 347 20:22 02.01.2022
3876 Clouds 1 1025 58 10000 0.82 347 19:31 02.01.2022
3877 Clouds 2 1025 56 10000 0.74 338 18:47 02.01.2022
3878 Clouds 2 1026 55 10000 1.05 323 17:56 02.01.2022
3879 Clouds 2 1026 55 10000 1.05 323 17:37 02.01.2022
3880 Clouds 2 1025 56 10000 0.95 331 17:18 02.01.2022
3881 Clouds 2 1025 55 10000 0.91 330 16:26 02.01.2022
3882 Clouds 2 1025 55 10000 0.7 322 14:34 02.01.2022
3883 Clouds 3 1024 50 10000 0.74 343 12:54 02.01.2022
3884 Clouds 4 1023 48 10000 0.19 40 12:22 02.01.2022
3885 Rain 4 1023 48 10000 0.19 40 11:32 02.01.2022
3886 Clouds 4 1023 48 10000 0.63 353 10:49 02.01.2022
3887 Clouds 4 1023 49 10000 1.37 34 09:45 02.01.2022
3888 Clouds 1 1028 54 10000 0.42 357 05:50 02.01.2022
3889 Clouds -1 1027 69 10000 0.62 311 01:48 02.01.2022
3890 Clouds -1 1026 69 10000 0.78 270 23:40 01.01.2022
3891 Clouds 0 1026 69 10000 0.75 261 22:57 01.01.2022
3892 Clouds 0 1026 67 10000 0.97 236 22:23 01.01.2022
3893 Clouds 0 1026 67 10000 0.97 236 21:44 01.01.2022
3894 Clouds 0 1026 66 10000 0.99 224 20:55 01.01.2022
3895 Clouds 1 1027 65 10000 1.09 217 19:58 01.01.2022
3896 Clouds 1 1027 65 10000 1.35 218 19:26 01.01.2022
3897 Clouds 2 1026 65 10000 1.38 223 17:59 01.01.2022
3898 Clouds 2 1026 67 10000 1.2 228 16:41 01.01.2022
3899 Clouds 2 1025 68 10000 1.18 231 16:19 01.01.2022
3900 Clouds 3 1025 68 10000 1.11 232 15:26 01.01.2022
3901 Clouds 3 1024 66 10000 0.89 223 13:58 01.01.2022
3902 Clouds 4 1023 57 10000 0.96 199 12:50 01.01.2022
3903 Clouds 5 1023 51 10000 0.89 213 11:56 01.01.2022
3904 Clouds 5 1023 50 10000 0.79 159 11:23 01.01.2022
3905 Clouds 5 1023 50 10000 0.98 154 10:27 01.01.2022
3906 Clouds 5 1023 50 10000 0.98 154 09:46 01.01.2022
3907 Clouds 4 1025 53 10000 1.01 178 08:26 01.01.2022
3908 Clouds 4 1025 53 10000 1.01 178 07:44 01.01.2022
3909 Clouds 4 1027 57 10000 1.39 194 06:47 01.01.2022
3910 Clouds 2 1028 72 10000 1.56 234 05:27 01.01.2022
3911 Clouds 2 1028 72 10000 1.56 234 04:38 01.01.2022
3912 Clouds 2 1027 68 9674 1.31 252 02:44 01.01.2022
3913 Clouds 2 1026 45 10000 1.6 301 23:39 31.12.2021
3914 Rain 3 1026 34 10000 0.76 290 21:53 31.12.2021
3915 Clouds 2 1026 33 10000 0.66 211 20:39 31.12.2021
3916 Clouds 2 1026 33 10000 0.86 273 19:30 31.12.2021
3917 Clouds 3 1026 31 10000 0.75 356 18:41 31.12.2021
3918 Clouds 2 1027 33 10000 0.49 231 17:43 31.12.2021
3919 Clouds 2 1026 33 10000 0.62 248 17:19 31.12.2021
3920 Clouds 2 1026 33 10000 0.62 248 16:38 31.12.2021
3921 Clouds 2 1026 32 10000 0.57 273 15:57 31.12.2021
3922 Clouds 2 1026 32 10000 0.41 296 15:29 31.12.2021
3923 Clouds 2 1026 32 10000 0.41 296 14:57 31.12.2021
3924 Clouds 2 1026 32 10000 0.41 296 14:30 31.12.2021
3925 Clouds 3 1026 31 10000 0.32 327 13:36 31.12.2021
3926 Clouds 4 1024 25 10000 0.46 20 12:45 31.12.2021
3927 Clouds 5 1024 20 10000 0.29 15 11:51 31.12.2021
3928 Clouds 5 1024 20 10000 0.29 15 11:30 31.12.2021
3929 Clouds 5 1024 19 10000 0.42 36 10:38 31.12.2021
3930 Clouds 5 1025 19 10000 0.52 40 09:55 31.12.2021
3931 Clouds 5 1025 19 10000 0.52 40 09:33 31.12.2021
3932 Clouds 4 1026 20 10000 0.44 21 08:43 31.12.2021
3933 Clouds 4 1028 21 10000 0.14 46 07:31 31.12.2021
3934 Clouds 0 1028 25 10000 0.99 325 23:32 30.12.2021
3935 Clouds 1 1029 25 10000 1.28 321 22:34 30.12.2021
3936 Clouds 1 1028 24 10000 1.45 324 21:59 30.12.2021
3937 Clouds 1 1028 24 10000 1.45 324 21:59 30.12.2021
3938 Clouds 1 1028 24 10000 1.45 324 21:37 30.12.2021
3939 Clouds 1 1028 24 10000 1.45 324 21:37 30.12.2021
3940 Clouds 1 1028 24 10000 1.1 348 20:47 30.12.2021
3941 Clouds 2 1028 23 10000 0.95 304 20:28 30.12.2021
3942 Clouds 2 1028 23 10000 0.95 304 19:48 30.12.2021
3943 Clouds 2 1029 23 10000 0.97 278 18:51 30.12.2021
3944 Clouds 2 1029 23 10000 0.97 278 18:51 30.12.2021
3945 Clouds 1 1028 23 10000 1.07 301 18:20 30.12.2021
3946 Clouds 3 1027 22 10000 0.95 348 16:27 30.12.2021
3947 Clouds 3 1027 22 10000 0.95 348 15:52 30.12.2021
3948 Clouds 3 1027 22 10000 0.95 348 15:52 30.12.2021
3949 Clouds 3 1027 21 10000 0.89 340 14:41 30.12.2021
3950 Clouds 3 1026 21 10000 0.91 328 14:19 30.12.2021
3951 Clouds 4 1025 20 10000 0.72 340 12:52 30.12.2021
3952 Clouds 5 1025 17 10000 0.65 1 11:34 30.12.2021
3953 Clouds 5 1025 16 10000 0.63 23 10:27 30.12.2021
3954 Clouds 4 1026 16 10000 0.96 24 09:27 30.12.2021
3955 Clouds 3 1029 17 10000 0.71 9 06:54 30.12.2021
3956 Clouds 0 1028 26 10000 0.8 329 04:20 30.12.2021
3957 Clouds 0 1028 26 10000 0.8 329 03:39 30.12.2021
3958 Clouds 0 1027 28 10000 0.68 352 00:42 30.12.2021
3959 Clouds 0 1027 28 10000 0.67 347 23:35 29.12.2021
3960 Clouds 0 1027 29 10000 0.88 331 22:30 29.12.2021
3961 Clouds 0 1026 29 10000 1.07 342 21:53 29.12.2021
3962 Clouds 0 1026 29 10000 1.43 342 20:56 29.12.2021
3963 Clouds 0 1026 30 10000 1.28 346 19:54 29.12.2021
3964 Clouds 0 1026 30 10000 1.28 346 19:30 29.12.2021
3965 Clouds 0 1025 29 10000 1.4 347 18:26 29.12.2021
3966 Clouds 0 1025 28 10000 1.46 335 17:29 29.12.2021
3967 Clouds 0 1025 28 10000 1.46 335 16:58 29.12.2021
3968 Clouds 0 1024 28 10000 0.92 349 16:19 29.12.2021
3969 Clouds 1 1023 29 10000 1.14 314 14:47 29.12.2021
3970 Clouds 3 1020 28 10000 0.75 7 12:50 29.12.2021
3971 Clouds 5 1020 21 10000 0.62 45 12:27 29.12.2021
3972 Clouds 5 1020 19 10000 0.38 108 10:38 29.12.2021
3973 Clouds 5 1022 20 10000 0.51 186 08:37 29.12.2021
3974 Clouds 3 1025 23 10000 0.6 219 06:49 29.12.2021
3975 Clear 2 1026 26 10000 0.62 211 06:28 29.12.2021
3976 Clear 2 1026 26 10000 0.62 211 05:50 29.12.2021
3977 Clear -1 1026 35 10000 0.83 232 03:46 29.12.2021
3978 Clear -1 1024 37 10000 0.78 310 00:28 29.12.2021
3979 Clear -1 1024 37 10000 0.78 310 23:56 28.12.2021
3980 Clear -1 1024 38 10000 0.77 303 22:56 28.12.2021
3981 Clear -1 1024 39 10000 0.57 291 22:24 28.12.2021
3982 Clear -1 1024 39 10000 0.57 291 21:54 28.12.2021
3983 Clear 0 1024 39 10000 0.45 290 20:54 28.12.2021
3984 Clear 0 1024 39 10000 0.54 270 19:52 28.12.2021
3985 Clear 0 1024 39 10000 0.6 266 18:53 28.12.2021
3986 Clear 0 1024 40 10000 0.58 268 18:24 28.12.2021
3987 Clear 1 1024 40 10000 0.7 265 17:25 28.12.2021
3988 Clear 1 1023 40 10000 0.69 251 15:53 28.12.2021
3989 Clear 1 1023 41 10000 0.67 249 15:29 28.12.2021
3990 Clear 1 1023 41 10000 0.67 249 14:54 28.12.2021
3991 Clear 2 1022 41 10000 0.39 221 14:22 28.12.2021
3992 Clear 2 1022 41 10000 0.39 221 13:54 28.12.2021
3993 Clear 2 1022 41 10000 0.39 221 13:33 28.12.2021
3994 Clear 3 1021 37 10000 0.44 111 12:55 28.12.2021
3995 Clear 4 1021 30 10000 0.48 117 12:19 28.12.2021
3996 Clear 4 1022 30 10000 0.44 55 09:32 28.12.2021
3997 Clear 2 1025 31 10000 0.34 71 07:33 28.12.2021
3998 Clear -2 1028 40 10000 0.56 343 03:31 28.12.2021
3999 Clear -2 1027 47 10000 1.06 330 23:39 27.12.2021
4000 Clear -1 1026 51 10000 1.33 348 22:20 27.12.2021
4001 Clear -1 1025 53 10000 1.61 350 21:30 27.12.2021
4002 Clear -1 1025 53 10000 1.61 350 20:32 27.12.2021
4003 Clear 0 1025 54 10000 1.6 355 19:47 27.12.2021
4004 Clear 1 1024 57 10000 1.16 349 19:27 27.12.2021
4005 Clear 1 1024 57 10000 0.81 330 17:51 27.12.2021
4006 Clear 1 1024 58 10000 0.68 314 17:28 27.12.2021
4007 Clear 2 1023 57 10000 0.63 332 15:56 27.12.2021
4008 Clear 2 1022 58 10000 0.77 355 15:19 27.12.2021
4009 Clear 3 1022 57 10000 1.01 12 14:22 27.12.2021
4010 Clouds 4 1020 54 10000 1.14 32 12:52 27.12.2021
4011 Clouds 5 1020 50 10000 0.69 46 10:40 27.12.2021
4012 Clouds 4 1020 52 10000 0.61 39 10:22 27.12.2021
4013 Clouds 4 1021 57 10000 0.48 41 09:19 27.12.2021
4014 Clouds 3 1023 63 10000 0.52 36 07:34 27.12.2021
4015 Clouds 1 1026 80 10000 0.32 6 06:29 27.12.2021
4016 Snow 0 1025 92 3158 0.91 319 01:52 27.12.2021
4017 Clouds 0 1025 90 3968 1.26 315 23:49 26.12.2021
4018 Clouds 0 1025 88 3728 1.37 316 23:19 26.12.2021
4019 Clouds 1 1024 85 4237 1.13 326 21:37 26.12.2021
4020 Clouds 1 1023 81 10000 0.81 13 19:55 26.12.2021
4021 Clouds 1 1023 78 10000 0.92 20 18:46 26.12.2021
4022 Clouds 2 1023 76 10000 1.28 15 18:22 26.12.2021
4023 Clouds 3 1021 73 10000 1.02 17 15:53 26.12.2021
4024 Clouds 4 1020 68 10000 1.78 31 13:51 26.12.2021
4025 Clouds 4 1020 68 10000 1.78 31 13:32 26.12.2021
4026 Clouds 4 1019 64 10000 2.4 45 12:36 26.12.2021
4027 Clouds 6 1018 55 10000 1.8 71 11:24 26.12.2021
4028 Clouds 5 1018 59 10000 1.32 86 09:35 26.12.2021
4029 Clouds 5 1020 64 10000 1.04 74 08:50 26.12.2021
4030 Clouds 4 1021 70 10000 0.95 63 08:27 26.12.2021
4031 Clouds 1 1022 86 9807 1.26 358 02:19 26.12.2021
4032 Clouds 1 1021 74 10000 1.85 18 00:43 26.12.2021
4033 Clouds 3 1020 65 10000 2.28 13 23:48 25.12.2021
4034 Clouds 3 1020 60 10000 1.94 356 22:39 25.12.2021
4035 Clouds 3 1020 57 10000 2 356 22:20 25.12.2021
4036 Clouds 4 1019 52 10000 1.69 357 20:27 25.12.2021
4037 Clouds 5 1019 47 10000 1.77 13 19:19 25.12.2021
4038 Clouds 5 1019 47 10000 1.77 13 18:51 25.12.2021
4039 Clouds 5 1018 45 10000 1.31 21 16:52 25.12.2021
4040 Clouds 5 1018 44 10000 1.14 18 15:48 25.12.2021
4041 Clouds 5 1016 44 10000 1.07 358 14:24 25.12.2021
4042 Clouds 6 1016 41 10000 1 24 12:42 25.12.2021
4043 Clouds 7 1016 39 10000 0.98 47 11:21 25.12.2021
4044 Clouds 7 1017 40 10000 0.89 45 09:49 25.12.2021
4045 Clouds 6 1019 42 10000 0.82 32 07:39 25.12.2021
4046 Clouds 2 1020 56 10000 0.81 4 01:45 25.12.2021
4047 Clouds 2 1020 58 10000 0.75 2 00:27 25.12.2021
4048 Clouds 3 1020 59 10000 0.88 356 22:28 24.12.2021
4049 Clouds 3 1020 59 10000 0.28 321 19:36 24.12.2021
4050 Clouds 3 1020 59 10000 0.5 337 19:18 24.12.2021
4051 Clouds 4 1019 59 10000 0.75 293 16:50 24.12.2021
4052 Clear 4 1019 58 10000 0.48 342 15:54 24.12.2021
4053 Clear 4 1019 58 10000 0.48 342 15:34 24.12.2021
4054 Clear 4 1018 57 10000 0.56 32 14:40 24.12.2021
4055 Clear 5 1018 56 10000 0.59 28 14:19 24.12.2021
4056 Clear 5 1018 56 10000 0.59 28 13:34 24.12.2021
4057 Clear 6 1016 49 10000 0.56 75 12:47 24.12.2021
4058 Clouds 8 1016 43 10000 0.15 69 11:52 24.12.2021
4059 Clouds 7 1016 43 10000 0.5 49 11:25 24.12.2021
4060 Clouds 7 1016 43 10000 0.5 49 10:46 24.12.2021
4061 Clear 7 1017 44 10000 0.41 34 09:32 24.12.2021
4062 Clear 6 1019 47 10000 0.64 25 08:23 24.12.2021
4063 Clear 6 1019 47 10000 0.64 25 07:46 24.12.2021
4064 Clouds 1 1019 71 10000 0.36 299 02:33 24.12.2021
4065 Clouds 2 1018 74 10000 1.31 336 23:56 23.12.2021
4066 Clouds 2 1018 73 10000 1.38 336 22:56 23.12.2021
4067 Clouds 2 1018 73 10000 1.38 336 22:37 23.12.2021
4068 Clouds 2 1018 74 10000 1.16 346 22:18 23.12.2021
4069 Clouds 2 1018 73 10000 1.17 349 20:56 23.12.2021
4070 Clouds 3 1018 72 10000 1.13 343 19:47 23.12.2021
4071 Clear 3 1018 71 10000 0.84 334 18:35 23.12.2021
4072 Clear 3 1018 70 10000 0.71 332 17:56 23.12.2021
4073 Clear 4 1018 69 10000 0.69 327 16:43 23.12.2021
4074 Clear 4 1018 67 10000 0.77 333 16:23 23.12.2021
4075 Clear 5 1017 66 10000 0.99 356 15:31 23.12.2021
4076 Clear 5 1017 66 10000 0.99 356 14:49 23.12.2021
4077 Clear 5 1017 66 10000 0.99 356 14:30 23.12.2021
4078 Clouds 6 1016 60 10000 1.13 30 12:54 23.12.2021
4079 Clouds 7 1016 54 10000 0.67 40 10:44 23.12.2021
4080 Clouds 7 1017 55 10000 0.55 31 09:42 23.12.2021
4081 Clouds 6 1018 58 10000 0.52 33 08:59 23.12.2021
4082 Clouds 5 1021 68 10000 0.78 211 06:51 23.12.2021
4083 Clouds 3 1022 77 10000 0.85 227 04:30 23.12.2021
4084 Clouds 2 1021 99 58 1.29 349 22:59 22.12.2021
4085 Clouds 2 1021 99 58 1.29 349 22:39 22.12.2021
4086 Clouds 2 1021 99 52 1.4 2 21:54 22.12.2021
4087 Clouds 2 1021 99 37 1.52 4 21:29 22.12.2021
4088 Clouds 2 1021 99 37 1.52 4 20:47 22.12.2021
4089 Clouds 2 1021 99 52 1.6 1 20:26 22.12.2021
4090 Clouds 2 1021 98 371 1.04 44 19:21 22.12.2021
4091 Clouds 3 1021 87 4274 0.22 160 17:42 22.12.2021
4092 Clouds 5 1018 65 9602 1.1 275 16:39 22.12.2021
4093 Clouds 7 1016 42 10000 0.13 348 15:39 22.12.2021
4094 Rain 7 1014 37 10000 1.88 63 13:32 22.12.2021
4095 Clear 9 1013 35 10000 2.32 56 12:39 22.12.2021
4096 Clear 10 1013 35 10000 1.55 54 09:54 22.12.2021
4097 Clear 10 1013 35 10000 1.55 54 09:35 22.12.2021
4098 Clouds 9 1017 40 10000 0.36 83 07:25 22.12.2021
4099 Clouds 8 1018 44 10000 0.11 182 05:42 22.12.2021
4100 Clouds 6 1018 50 10000 0.36 171 05:24 22.12.2021
4101 Clouds 6 1018 50 10000 0.36 171 04:49 22.12.2021
4102 Rain 3 1018 60 10000 0.12 241 04:24 22.12.2021
4103 Clouds 3 1018 60 10000 0.12 241 03:32 22.12.2021
4104 Clouds 4 1017 55 10000 0.78 187 00:33 22.12.2021
4105 Clouds 4 1017 56 10000 0.48 281 22:52 21.12.2021
4106 Clouds 3 1018 58 10000 0.71 341 22:27 21.12.2021
4107 Clouds 3 1018 58 10000 0.71 341 21:43 21.12.2021
4108 Clouds 4 1018 59 10000 0.84 11 20:55 21.12.2021
4109 Rain 4 1018 55 10000 0.46 18 20:20 21.12.2021
4110 Clouds 4 1018 55 10000 0.46 18 19:41 21.12.2021
4111 Clouds 5 1018 53 10000 0.7 335 18:45 21.12.2021
4112 Clouds 5 1018 51 10000 0.77 305 18:21 21.12.2021
4113 Clouds 5 1018 51 10000 0.77 305 17:41 21.12.2021
4114 Rain 7 1018 47 10000 0.37 197 15:55 21.12.2021
4115 Clouds 7 1017 47 10000 0.43 207 15:20 21.12.2021
4116 Clouds 7 1017 47 10000 0.76 197 13:50 21.12.2021
4117 Clouds 7 1017 47 10000 0.76 197 13:30 21.12.2021
4118 Clouds 10 1016 45 10000 0.97 173 11:36 21.12.2021
4119 Clouds 10 1017 43 10000 0.79 169 10:21 21.12.2021
4120 Clouds 9 1018 44 10000 1.39 212 09:19 21.12.2021
4121 Clear 9 1019 46 10000 0.62 211 07:55 21.12.2021
4122 Clear 8 1020 47 10000 1.44 198 07:26 21.12.2021
4123 Clear 7 1021 46 10000 1.59 201 05:31 21.12.2021
4124 Clear 2 1020 64 10000 1.21 211 02:40 21.12.2021
4125 Clear 3 1019 63 10000 0.74 211 23:58 20.12.2021
4126 Clear 3 1019 61 10000 1.4 215 23:27 20.12.2021
4127 Clear 3 1019 63 10000 1.07 237 22:28 20.12.2021
4128 Clear 3 1019 63 10000 1.07 237 21:47 20.12.2021
4129 Clear 3 1019 63 10000 0.54 228 21:23 20.12.2021
4130 Clear 3 1019 63 10000 0.54 228 20:44 20.12.2021
4131 Clear 3 1019 62 10000 0.81 276 19:50 20.12.2021
4132 Clear 3 1019 62 10000 0.81 276 19:30 20.12.2021
4133 Clear 4 1019 58 10000 0.87 228 18:53 20.12.2021
4134 Clear 4 1019 57 10000 1.02 216 17:52 20.12.2021
4135 Clear 4 1019 56 10000 1.01 243 17:23 20.12.2021
4136 Clear 4 1019 56 10000 1.01 243 16:38 20.12.2021
4137 Clear 4 1019 53 10000 1.04 246 15:48 20.12.2021
4138 Clear 4 1019 51 10000 0.95 248 14:42 20.12.2021
4139 Clouds 6 1017 45 10000 0.9 325 12:51 20.12.2021
4140 Clouds 10 1016 34 10000 0.76 147 11:19 20.12.2021
4141 Clouds 9 1017 34 10000 1.29 177 09:47 20.12.2021
4142 Clouds 9 1017 35 10000 1.5 187 08:58 20.12.2021
4143 Clouds 9 1017 35 10000 1.5 187 08:40 20.12.2021
4144 Clouds 8 1019 37 10000 1.54 191 07:49 20.12.2021
4145 Clouds 7 1020 40 10000 1.33 204 07:25 20.12.2021
4146 Clouds 3 1021 38 10000 1.96 211 03:42 20.12.2021
4147 Clouds 1 1021 35 10000 1.12 212 23:51 19.12.2021
4148 Rain 1 1021 34 10000 0.98 201 22:45 19.12.2021
4149 Clouds 1 1021 33 10000 1.25 209 21:49 19.12.2021
4150 Clouds 1 1021 33 10000 1.17 225 21:26 19.12.2021
4151 Clouds 1 1021 33 10000 1.17 225 20:30 19.12.2021
4152 Clouds 2 1022 33 10000 0.38 303 19:46 19.12.2021
4153 Clouds 2 1022 34 10000 0.62 297 18:57 19.12.2021
4154 Clouds 2 1022 33 10000 0.66 246 18:27 19.12.2021
4155 Clouds 2 1022 33 10000 0.66 246 17:49 19.12.2021
4156 Clouds 2 1022 33 10000 0.85 202 17:18 19.12.2021
4157 Clouds 3 1021 32 10000 1.04 207 16:24 19.12.2021
4158 Clouds 3 1020 33 10000 0.46 294 15:26 19.12.2021
4159 Clouds 3 1020 33 10000 0.46 294 14:50 19.12.2021
4160 Clouds 3 1020 33 10000 0.24 247 13:46 19.12.2021
4161 Clouds 4 1019 33 10000 0.81 214 13:21 19.12.2021
4162 Clouds 4 1019 33 10000 0.81 214 12:33 19.12.2021
4163 Clouds 4 1019 33 10000 0.81 214 12:33 19.12.2021
4164 Clouds 6 1019 34 10000 0.82 182 11:42 19.12.2021
4165 Clouds 8 1019 27 10000 0.78 177 10:53 19.12.2021
4166 Clouds 7 1019 23 10000 0.96 208 10:23 19.12.2021
4167 Clouds 7 1019 23 10000 0.96 208 10:23 19.12.2021
4168 Clouds 7 1020 24 10000 1.47 183 09:26 19.12.2021
4169 Clouds 6 1022 26 10000 1.19 192 07:47 19.12.2021
4170 Clouds 2 1025 29 10000 1.69 207 04:44 19.12.2021
4171 Clouds -1 1024 31 10000 1.64 214 00:55 19.12.2021
4172 Clouds -1 1024 31 10000 1.82 209 23:52 18.12.2021
4173 Clouds -1 1025 33 10000 1.26 213 22:31 18.12.2021
4174 Clouds -1 1025 33 10000 1.42 212 21:54 18.12.2021
4175 Clouds -1 1025 33 10000 1.42 212 21:33 18.12.2021
4176 Clouds -1 1025 33 10000 1.48 221 20:43 18.12.2021
4177 Clouds -1 1026 33 10000 1.45 221 19:50 18.12.2021
4178 Clouds 0 1026 32 10000 1.49 200 19:19 18.12.2021
4179 Clear -1 1026 33 10000 1.61 218 18:18 18.12.2021
4180 Clear -1 1026 33 10000 1.61 218 17:46 18.12.2021
4181 Clear 0 1025 32 10000 1.31 215 16:23 18.12.2021
4182 Clear -1 1024 33 10000 0.93 239 15:25 18.12.2021
4183 Clear -1 1023 33 10000 0.8 259 14:22 18.12.2021
4184 Clear 0 1022 33 10000 0.38 5 12:39 18.12.2021
4185 Clear 5 1022 22 10000 0.2 126 10:52 18.12.2021
4186 Clear 5 1022 20 10000 0.68 156 09:33 18.12.2021
4187 Clear 4 1023 20 10000 0.75 182 08:41 18.12.2021
4188 Clear 3 1025 21 10000 1.09 187 08:18 18.12.2021
4189 Clear -4 1027 30 10000 1.57 215 01:48 18.12.2021
4190 Clear -4 1027 30 10000 1.57 215 01:48 18.12.2021
4191 Clear -3 1028 32 10000 1.5 230 00:27 18.12.2021
4192 Clear -3 1028 32 10000 1.5 230 23:37 17.12.2021
4193 Clear -3 1028 32 10000 1.35 230 21:54 17.12.2021
4194 Clear -3 1028 32 10000 1.44 236 20:50 17.12.2021
4195 Clear -3 1028 31 10000 1.31 233 20:21 17.12.2021
4196 Clear -2 1028 31 10000 1.32 227 18:50 17.12.2021
4197 Clear -2 1027 31 10000 1.28 233 18:21 17.12.2021
4198 Clear -2 1027 30 10000 1.25 229 17:25 17.12.2021
4199 Clear -1 1026 30 10000 1.29 229 16:29 17.12.2021
4200 Clear -1 1026 30 10000 1.29 229 15:51 17.12.2021
4201 Clear -1 1025 29 10000 1.18 225 15:18 17.12.2021
4202 Clear -1 1025 29 10000 1.18 225 14:34 17.12.2021
4203 Clear 1 1023 31 10000 1.36 191 12:38 17.12.2021
4204 Clear 4 1023 20 10000 1.2 184 11:18 17.12.2021
4205 Clear 4 1023 21 10000 1.44 184 09:51 17.12.2021
4206 Clear 3 1025 22 10000 1.51 189 08:58 17.12.2021
4207 Clear 3 1026 25 10000 1.58 195 08:19 17.12.2021
4208 Clear 0 1029 22 10000 1.83 201 05:21 17.12.2021
4209 Clear -3 1028 27 10000 1.65 206 02:51 17.12.2021
4210 Clear -3 1027 30 10000 0.69 209 22:50 16.12.2021
4211 Clear -2 1027 30 10000 0.75 218 22:22 16.12.2021
4212 Clear -2 1027 30 10000 0.75 218 21:44 16.12.2021
4213 Clear -2 1026 30 10000 0.84 225 20:48 16.12.2021
4214 Clear -1 1027 31 10000 1.04 214 20:21 16.12.2021
4215 Clear -1 1027 31 10000 1.04 214 19:31 16.12.2021
4216 Clear -1 1027 32 10000 1.39 216 18:33 16.12.2021
4217 Clear 0 1026 33 10000 1.43 214 17:47 16.12.2021
4218 Clear 0 1026 34 10000 1.79 214 16:26 16.12.2021
4219 Clear 0 1026 34 10000 1.79 214 15:50 16.12.2021
4220 Clear 1 1024 35 10000 2.17 205 13:46 16.12.2021
4221 Clear 4 1022 26 10000 2.42 191 12:27 16.12.2021
4222 Clear 5 1022 26 10000 2.38 186 11:19 16.12.2021
4223 Clear 5 1022 26 10000 2.38 186 10:41 16.12.2021
4224 Clear 5 1022 27 10000 2.29 186 09:43 16.12.2021
4225 Clear 1 1027 39 10000 2.22 200 06:51 16.12.2021
4226 Clear 0 1028 43 10000 2.05 207 06:18 16.12.2021
4227 Clouds -3 1027 72 10000 1.64 225 23:58 15.12.2021
4228 Clouds -2 1027 72 10000 1.5 224 22:50 15.12.2021
4229 Clouds -2 1026 72 10000 1.51 219 22:21 15.12.2021
4230 Clouds -2 1026 72 10000 1.51 219 21:31 15.12.2021
4231 Clouds -1 1026 68 10000 1.48 216 20:51 15.12.2021
4232 Clouds -1 1026 63 10000 1.69 208 19:53 15.12.2021
4233 Clouds 0 1025 58 10000 1.36 214 19:18 15.12.2021
4234 Clouds 1 1025 51 10000 1.34 353 18:20 15.12.2021
4235 Clouds 1 1025 51 10000 1.34 353 17:45 15.12.2021
4236 Rain 1 1024 48 10000 2.22 340 17:21 15.12.2021
4237 Clouds 2 1024 50 10000 3.62 348 15:49 15.12.2021
4238 Clouds 2 1024 50 10000 3.62 348 15:30 15.12.2021
4239 Clouds 2 1023 54 8084 2.5 354 14:48 15.12.2021
4240 Rain 1 1023 68 8948 2.59 325 13:34 15.12.2021
4241 Clouds 3 1020 46 4727 2.7 48 11:52 15.12.2021
4242 Clouds 4 1020 43 10000 2.71 37 10:20 15.12.2021
4243 Clouds 3 1023 45 10000 1.85 29 08:25 15.12.2021
4244 Clouds 1 1025 46 10000 0.36 17 05:51 15.12.2021
4245 Clear -3 1023 52 10000 0.59 326 00:32 15.12.2021
4246 Clear -2 1023 48 10000 0.12 283 23:21 14.12.2021
4247 Clear -2 1023 48 10000 0.12 283 22:42 14.12.2021
4248 Clear -1 1022 46 10000 0.48 141 21:40 14.12.2021
4249 Clear 0 1022 46 10000 0.78 168 20:21 14.12.2021
4250 Clear 0 1022 47 10000 0.87 162 19:26 14.12.2021
4251 Clear 0 1022 46 10000 0.91 162 18:38 14.12.2021
4252 Clear 1 1021 46 10000 0.77 167 17:55 14.12.2021
4253 Clear 1 1021 44 10000 0.31 173 16:43 14.12.2021
4254 Clear 2 1020 42 10000 0.34 53 16:21 14.12.2021
4255 Clear 3 1019 33 10000 1.68 57 13:59 14.12.2021
4256 Clouds 4 1018 29 10000 1.65 78 12:50 14.12.2021
4257 Clear 6 1017 24 10000 1.12 108 11:25 14.12.2021
4258 Clear 6 1017 24 10000 1.12 108 10:59 14.12.2021
4259 Clear 6 1018 26 10000 0.51 86 09:54 14.12.2021
4260 Clear 6 1019 28 10000 0.56 51 08:49 14.12.2021
4261 Clear 5 1020 29 10000 0.59 36 08:21 14.12.2021
4262 Clouds 5 1021 29 10000 0.1 347 07:23 14.12.2021
4263 Clouds 0 1020 34 10000 1.42 206 23:51 13.12.2021
4264 Clouds 0 1020 32 10000 0.96 198 22:24 13.12.2021
4265 Clouds 0 1020 32 10000 0.96 198 21:39 13.12.2021
4266 Clouds 1 1020 31 10000 0.89 233 20:51 13.12.2021
4267 Clouds 1 1020 31 10000 0.89 233 20:51 13.12.2021
4268 Clouds 1 1020 31 10000 0.66 212 20:22 13.12.2021
4269 Clouds 1 1020 31 10000 0.66 212 19:49 13.12.2021
4270 Clouds 2 1019 28 10000 1.31 10 17:28 13.12.2021
4271 Clouds 2 1019 28 10000 1.31 10 16:43 13.12.2021
4272 Clouds 3 1019 26 10000 1.32 9 15:43 13.12.2021
4273 Clouds 4 1018 25 10000 1.33 34 14:42 13.12.2021
4274 Clouds 4 1018 23 10000 1.55 42 13:37 13.12.2021
4275 Clouds 5 1017 24 10000 0.9 13 12:40 13.12.2021
4276 Clouds 7 1017 18 10000 1.08 37 11:52 13.12.2021
4277 Clouds 8 1017 17 10000 1.18 45 11:29 13.12.2021
4278 Clouds 8 1017 17 10000 1.18 45 10:36 13.12.2021
4279 Clouds 7 1019 16 10000 1.14 57 08:43 13.12.2021
4280 Clouds 6 1021 17 10000 0.49 4 06:55 13.12.2021
4281 Clouds 4 1022 21 10000 0.57 337 05:19 13.12.2021
4282 Clear 1 1020 25 10000 0.92 347 23:55 12.12.2021
4283 Clear 2 1020 25 10000 0.88 338 21:58 12.12.2021
4284 Clear 2 1020 25 10000 0.94 344 21:24 12.12.2021
4285 Clear 3 1021 24 10000 0.98 349 19:35 12.12.2021
4286 Clear 4 1021 23 10000 0.82 355 18:22 12.12.2021
4287 Clear 4 1021 23 10000 0.93 342 16:32 12.12.2021
4288 Clear 5 1021 23 10000 1.04 341 15:55 12.12.2021
4289 Clear 5 1020 22 10000 1.06 338 15:28 12.12.2021
4290 Clear 5 1020 22 10000 1.06 338 14:46 12.12.2021
4291 Clear 6 1019 22 10000 1.05 347 13:56 12.12.2021
4292 Clouds 7 1019 17 10000 0.98 359 12:48 12.12.2021
4293 Clouds 10 1018 13 10000 0.88 29 11:45 12.12.2021
4294 Clouds 10 1018 12 10000 0.75 52 11:27 12.12.2021
4295 Clouds 10 1018 12 10000 0.75 52 10:44 12.12.2021
4296 Clouds 10 1019 12 10000 0.67 49 09:58 12.12.2021
4297 Clouds 9 1020 13 10000 0.43 40 08:44 12.12.2021
4298 Clouds 8 1022 14 10000 0.09 39 06:55 12.12.2021
4299 Clouds 5 1023 19 10000 0.32 231 05:28 12.12.2021
4300 Clouds 2 1023 22 10000 0.43 248 04:19 12.12.2021
4301 Clouds 1 1022 21 10000 0.65 323 00:54 12.12.2021
4302 Clouds 2 1022 20 10000 0.94 339 22:56 11.12.2021
4303 Clouds 3 1022 20 10000 0.87 359 22:20 11.12.2021
4304 Clouds 3 1022 19 10000 0.89 11 21:26 11.12.2021
4305 Clouds 3 1022 19 10000 0.9 19 19:50 11.12.2021
4306 Clouds 4 1022 19 10000 1.08 28 19:21 11.12.2021
4307 Clouds 4 1023 19 10000 1.15 28 18:42 11.12.2021
4308 Clouds 4 1022 18 10000 1.24 37 17:48 11.12.2021
4309 Clear 5 1021 17 10000 1.31 53 15:58 11.12.2021
4310 Clear 5 1021 17 10000 1.31 53 15:39 11.12.2021
4311 Clear 6 1020 16 10000 1.49 57 14:33 11.12.2021
4312 Clear 12 1017 10 10000 1.79 59 12:20 11.12.2021
4313 Clear 13 1017 8 10000 1.62 64 10:43 11.12.2021
4314 Clear 13 1017 8 10000 1.16 71 09:38 11.12.2021
4315 Clouds 3 1022 15 10000 1.7 198 03:57 11.12.2021
4316 Clear 2 1021 18 10000 1.52 199 00:47 11.12.2021
4317 Clear 2 1021 15 10000 1.5 202 23:42 10.12.2021
4318 Clear 2 1021 15 10000 1.22 205 22:33 10.12.2021
4319 Clear 3 1021 16 10000 1.12 195 21:40 10.12.2021
4320 Clear 3 1022 16 10000 0.75 209 20:26 10.12.2021
4321 Clear 4 1022 16 10000 0.79 224 19:18 10.12.2021
4322 Clear 4 1023 16 10000 0.7 240 17:46 10.12.2021
4323 Clear 4 1023 15 10000 0.62 255 16:35 10.12.2021
4324 Clear 5 1023 15 10000 0.1 270 15:43 10.12.2021
4325 Clear 5 1022 15 10000 0.31 17 15:25 10.12.2021
4326 Clear 6 1022 14 10000 0.39 33 14:29 10.12.2021
4327 Clear 6 1022 14 10000 0.39 33 13:48 10.12.2021
4328 Clear 7 1021 13 10000 0.19 98 12:55 10.12.2021
4329 Clear 7 1021 13 10000 0.19 98 12:55 10.12.2021
4330 Clear 11 1021 9 10000 0.39 136 11:36 10.12.2021
4331 Clear 11 1021 9 10000 0.39 135 10:56 10.12.2021
4332 Clear 11 1021 9 10000 0.46 155 09:36 10.12.2021
4333 Clear 8 1026 13 10000 1.5 198 07:25 10.12.2021
4334 Clear 5 1027 16 10000 1.55 214 04:32 10.12.2021
4335 Clear -1 1026 24 10000 0.99 226 02:39 10.12.2021
4336 Clear -1 1026 21 10000 0.41 282 23:40 09.12.2021
4337 Clear -1 1026 21 10000 0.41 282 23:40 09.12.2021
4338 Clear 0 1027 20 10000 0.4 278 22:41 09.12.2021
4339 Clear 0 1026 20 10000 0.46 281 22:21 09.12.2021
4340 Clear 0 1026 20 10000 0.46 281 21:39 09.12.2021
4341 Clear 1 1026 19 10000 0.62 290 20:34 09.12.2021
4342 Clear 1 1027 19 10000 0.75 304 19:38 09.12.2021
4343 Clear 2 1027 19 10000 0.85 315 19:20 09.12.2021
4344 Clear 2 1026 19 10000 1.07 324 18:18 09.12.2021
4345 Clear 2 1026 19 10000 1.07 324 17:47 09.12.2021
4346 Clear 3 1026 19 10000 1.1 333 17:24 09.12.2021
4347 Clear 4 1026 18 10000 1.28 345 16:25 09.12.2021
4348 Clear 4 1025 17 10000 1.3 350 15:18 09.12.2021
4349 Clear 4 1025 17 10000 1.3 350 14:30 09.12.2021
4350 Clear 7 1023 21 10000 1.12 11 12:48 09.12.2021
4351 Clear 10 1022 16 10000 1.24 43 11:33 09.12.2021
4352 Clear 10 1023 14 10000 1.08 67 10:28 09.12.2021
4353 Clear 9 1025 16 10000 0.36 76 07:34 09.12.2021
4354 Clear 2 1024 26 10000 0.44 226 03:56 09.12.2021
4355 Clear 2 1022 28 10000 0.41 231 00:25 09.12.2021
4356 Clear 2 1022 28 10000 0.41 231 23:37 08.12.2021
4357 Clear 3 1022 28 10000 0.69 244 22:57 08.12.2021
4358 Clear 3 1022 29 10000 0.43 297 22:25 08.12.2021
4359 Clear 3 1022 29 10000 0.43 297 21:33 08.12.2021
4360 Clear 3 1022 28 10000 0.51 297 20:48 08.12.2021
4361 Clear 4 1023 28 10000 0.66 293 19:56 08.12.2021
4362 Clear 4 1022 28 10000 0.43 250 18:58 08.12.2021
4363 Clear 5 1023 27 10000 0.85 218 18:22 08.12.2021
4364 Clear 5 1022 26 10000 1.17 220 16:53 08.12.2021
4365 Clear 6 1022 26 10000 1.2 222 15:42 08.12.2021
4366 Clear 6 1021 26 10000 1.36 209 15:22 08.12.2021
4367 Clear 8 1020 23 10000 1.62 182 13:26 08.12.2021
4368 Clear 11 1020 18 10000 1.79 184 10:44 08.12.2021
4369 Clear 11 1020 18 10000 1.87 187 09:58 08.12.2021
4370 Clear 10 1021 20 10000 1.43 193 08:34 08.12.2021
4371 Clear 7 1025 25 10000 1.13 207 06:22 08.12.2021
4372 Clear 1 1023 37 10000 0.5 275 00:41 08.12.2021
4373 Clear 2 1024 36 10000 0.55 331 23:23 07.12.2021
4374 Clear 3 1024 34 10000 0.73 332 21:25 07.12.2021
4375 Clear 3 1024 34 10000 0.99 341 20:25 07.12.2021
4376 Clear 4 1023 32 10000 1.04 349 19:21 07.12.2021
4377 Clear 5 1023 31 10000 1.12 358 18:23 07.12.2021
4378 Clear 5 1023 30 10000 1.38 3 17:27 07.12.2021
4379 Clear 5 1023 30 10000 1.38 3 16:53 07.12.2021
4380 Clear 6 1022 29 10000 1.3 7 16:25 07.12.2021
4381 Clear 6 1021 28 10000 1.02 5 14:38 07.12.2021
4382 Clouds 7 1021 27 10000 0.75 9 13:40 07.12.2021
4383 Clouds 11 1019 18 10000 0.85 51 12:22 07.12.2021
4384 Clouds 11 1019 18 10000 0.84 70 11:19 07.12.2021
4385 Clouds 11 1019 19 10000 0.9 69 09:36 07.12.2021
4386 Clouds 9 1023 23 10000 0.4 191 07:35 07.12.2021
4387 Clouds 8 1023 25 10000 1.02 201 05:51 07.12.2021
4388 Clouds 6 1023 29 10000 1.21 206 05:26 07.12.2021
4389 Clouds 3 1023 45 10000 0.61 239 23:36 06.12.2021
4390 Clouds 3 1023 45 10000 0.47 275 22:41 06.12.2021
4391 Clouds 3 1023 44 10000 0.6 301 21:59 06.12.2021
4392 Clouds 3 1023 44 10000 0.6 301 21:59 06.12.2021
4393 Clouds 3 1023 44 10000 0.6 301 21:31 06.12.2021
4394 Clouds 3 1023 43 10000 0.4 319 20:32 06.12.2021
4395 Clouds 4 1023 41 10000 0.72 316 19:24 06.12.2021
4396 Clouds 4 1023 42 10000 0.76 316 18:40 06.12.2021
4397 Clouds 5 1023 39 10000 0.76 329 17:54 06.12.2021
4398 Clouds 5 1023 39 10000 0.76 329 17:33 06.12.2021
4399 Clear 5 1021 37 10000 0.25 279 15:51 06.12.2021
4400 Clear 5 1021 36 10000 0.16 212 14:40 06.12.2021
4401 Clear 7 1019 32 10000 0.86 129 13:28 06.12.2021
4402 Clear 7 1019 32 10000 0.86 129 12:37 06.12.2021
4403 Clear 10 1019 28 10000 0.87 172 10:23 06.12.2021
4404 Clear 9 1021 35 10000 0.95 197 07:40 06.12.2021
4405 Clear 1 1021 73 10000 1.19 214 02:26 06.12.2021
4406 Clouds 3 1020 69 10000 0.43 233 22:26 05.12.2021
4407 Clouds 3 1020 66 10000 0.35 293 21:25 05.12.2021
4408 Clouds 3 1020 66 10000 0.35 293 20:52 05.12.2021
4409 Clouds 3 1020 64 10000 0.36 29 20:18 05.12.2021
4410 Clouds 4 1020 62 10000 0.57 68 19:24 05.12.2021
4411 Clouds 4 1019 58 10000 0.45 78 18:29 05.12.2021
4412 Clouds 4 1019 58 10000 0.45 78 17:49 05.12.2021
4413 Clouds 5 1019 55 10000 0.59 53 17:20 05.12.2021
4414 Clouds 5 1019 53 10000 0.57 21 16:28 05.12.2021
4415 Clouds 5 1019 53 10000 0.57 21 15:59 05.12.2021
4416 Clouds 6 1018 50 10000 1.07 22 14:48 05.12.2021
4417 Clouds 7 1017 45 10000 1.83 49 14:29 05.12.2021
4418 Clouds 7 1017 45 10000 1.83 49 13:33 05.12.2021
4419 Clouds 9 1016 37 10000 3.43 70 12:45 05.12.2021
4420 Clouds 11 1016 31 10000 2.93 74 12:26 05.12.2021
4421 Clouds 11 1016 31 10000 2.93 74 11:44 05.12.2021
4422 Clouds 11 1016 29 10000 1.64 79 10:25 05.12.2021
4423 Clouds 11 1016 29 10000 1.64 79 09:41 05.12.2021
4424 Clouds 9 1019 28 10000 0.38 115 06:30 05.12.2021
4425 Clouds 5 1018 38 10000 1.33 6 01:29 05.12.2021
4426 Clouds 6 1018 39 10000 0.61 38 22:45 04.12.2021
4427 Clouds 6 1018 39 10000 0.46 208 21:38 04.12.2021
4428 Clouds 6 1018 39 10000 0.97 241 20:47 04.12.2021
4429 Clouds 6 1018 37 10000 0.53 255 19:54 04.12.2021
4430 Clouds 6 1018 37 10000 0.53 255 19:30 04.12.2021
4431 Clouds 7 1018 34 10000 0.32 283 17:53 04.12.2021
4432 Clouds 7 1018 34 10000 0.32 283 17:35 04.12.2021
4433 Clouds 7 1017 34 10000 0.29 298 16:47 04.12.2021
4434 Clouds 8 1017 33 10000 0.6 338 16:28 04.12.2021
4435 Clouds 9 1017 31 10000 0.62 9 13:39 04.12.2021
4436 Clear 12 1016 22 10000 0.75 23 11:44 04.12.2021
4437 Clear 12 1016 21 10000 0.7 24 11:19 04.12.2021
4438 Clear 12 1017 20 10000 0.87 40 10:24 04.12.2021
4439 Clear 12 1018 19 10000 0.9 39 08:42 04.12.2021
4440 Clear 10 1022 17 10000 0.11 9 05:30 04.12.2021
4441 Clear 8 1022 20 10000 0.35 238 04:40 04.12.2021
4442 Clouds 5 1021 21 10000 0.85 343 23:49 03.12.2021
4443 Clouds 6 1021 21 10000 0.79 341 22:55 03.12.2021
4444 Clouds 6 1022 21 10000 0.53 346 21:59 03.12.2021
4445 Clouds 6 1022 20 10000 0.6 11 21:25 03.12.2021
4446 Clouds 6 1022 20 10000 0.6 11 20:43 03.12.2021
4447 Clouds 7 1022 20 10000 0.61 345 19:36 03.12.2021
4448 Clouds 8 1022 18 10000 0.53 312 18:26 03.12.2021
4449 Clouds 8 1022 18 10000 0.53 312 17:42 03.12.2021
4450 Clouds 10 1021 17 10000 1.29 17 14:20 03.12.2021
4451 Clouds 10 1020 17 10000 1.05 25 12:52 03.12.2021
4452 Clouds 13 1019 11 10000 0.85 64 11:24 03.12.2021
4453 Clouds 13 1019 11 10000 0.82 49 09:55 03.12.2021
4454 Clouds 12 1021 13 10000 0.56 5 08:23 03.12.2021
4455 Clouds 12 1021 13 10000 0.56 5 07:37 03.12.2021
4456 Clear 3 1021 24 10000 0.93 196 01:56 03.12.2021
4457 Clear 3 1021 25 10000 0.94 234 00:47 03.12.2021
4458 Clear 4 1021 25 10000 0.7 214 23:44 02.12.2021
4459 Clear 5 1021 24 10000 0.81 226 21:42 02.12.2021
4460 Clear 5 1021 23 10000 0.71 230 20:57 02.12.2021
4461 Clear 5 1021 23 10000 0.71 230 20:37 02.12.2021
4462 Clear 6 1022 23 10000 0.43 192 19:25 02.12.2021
4463 Clear 6 1022 22 10000 0.36 182 17:43 02.12.2021
4464 Clear 7 1021 22 10000 0.88 295 15:42 02.12.2021
4465 Clear 7 1021 23 10000 0.97 322 14:59 02.12.2021
4466 Clear 8 1021 23 10000 1.17 342 13:58 02.12.2021
4467 Clear 9 1020 21 10000 1.27 13 12:52 02.12.2021
4468 Clear 13 1020 15 10000 1.18 45 12:18 02.12.2021
4469 Clear 13 1020 15 10000 0.48 50 09:34 02.12.2021
4470 Clear 13 1021 17 10000 0.47 85 08:49 02.12.2021
4471 Clear 8 1024 27 10000 0.78 193 04:54 02.12.2021
4472 Clear 3 1021 37 10000 0.4 210 00:52 02.12.2021
4473 Clear 4 1021 35 10000 0.52 255 23:19 01.12.2021
4474 Clear 4 1021 35 10000 0.52 255 23:19 01.12.2021
4475 Clear 4 1021 34 10000 0.6 263 22:23 01.12.2021
4476 Clear 5 1021 33 10000 0.36 227 20:39 01.12.2021
4477 Clear 5 1022 33 10000 0.46 276 19:54 01.12.2021
4478 Clear 6 1022 32 10000 0.84 306 19:28 01.12.2021
4479 Clear 6 1021 30 10000 1.11 334 17:45 01.12.2021
4480 Clear 7 1021 30 10000 1.01 348 16:46 01.12.2021
4481 Clear 8 1020 28 10000 1.06 347 14:52 01.12.2021
4482 Clear 8 1019 28 10000 0.71 359 13:45 01.12.2021
4483 Clouds 10 1019 30 10000 0.69 22 12:50 01.12.2021
4484 Clouds 12 1018 23 10000 1.18 40 10:42 01.12.2021
4485 Clouds 12 1020 24 10000 0.66 66 09:20 01.12.2021
4486 Clouds 11 1021 25 10000 0.4 72 08:29 01.12.2021
4487 Clouds 11 1021 25 10000 0.4 72 07:33 01.12.2021
4488 Clouds 10 1022 26 10000 0.03 338 06:34 01.12.2021
4489 Clouds 5 1022 39 10000 0.7 233 03:46 01.12.2021
4490 Clouds 5 1021 40 10000 0.41 323 00:59 01.12.2021
4491 Clouds 5 1021 39 10000 0.24 327 23:54 30.11.2021
4492 Clouds 5 1021 38 10000 0.55 326 23:24 30.11.2021
4493 Clouds 6 1021 38 10000 0.65 313 21:39 30.11.2021
4494 Clouds 6 1021 37 10000 0.19 301 20:44 30.11.2021
4495 Clouds 6 1021 36 10000 0.19 298 19:53 30.11.2021
4496 Clouds 6 1021 36 10000 0.19 298 19:34 30.11.2021
4497 Clouds 7 1021 36 10000 0.28 287 18:36 30.11.2021
4498 Clouds 7 1020 35 10000 0.2 278 16:50 30.11.2021
4499 Clouds 8 1020 34 10000 0.48 337 15:38 30.11.2021
4500 Clouds 9 1019 33 10000 0.32 74 14:20 30.11.2021
4501 Clouds 10 1018 31 10000 0.53 73 13:26 30.11.2021
4502 Clouds 10 1018 31 10000 0.53 73 12:45 30.11.2021
4503 Clouds 12 1018 22 10000 0.64 149 11:49 30.11.2021
4504 Clouds 12 1018 22 10000 0.62 154 11:19 30.11.2021
4505 Clouds 12 1018 22 10000 0.62 154 10:32 30.11.2021
4506 Clear 11 1020 26 10000 0.89 180 08:52 30.11.2021
4507 Clear 11 1021 29 10000 0.78 193 08:22 30.11.2021
4508 Clear 11 1021 29 10000 0.78 193 07:47 30.11.2021
4509 Clear 4 1023 53 10000 1.42 204 02:41 30.11.2021
4510 Clear 4 1022 53 10000 1.19 205 01:41 30.11.2021
4511 Clear 4 1022 53 10000 0.73 201 00:24 30.11.2021
4512 Clear 5 1023 52 10000 0.67 214 23:24 29.11.2021
4513 Clear 5 1023 52 10000 0.67 214 22:56 29.11.2021
4514 Clear 5 1023 52 10000 0.67 214 22:33 29.11.2021
4515 Clear 5 1023 52 10000 0.63 225 21:30 29.11.2021
4516 Clear 5 1023 51 10000 0.7 242 20:59 29.11.2021
4517 Clear 5 1023 51 10000 0.7 242 20:32 29.11.2021
4518 Clear 5 1023 51 10000 0.7 242 20:32 29.11.2021
4519 Clear 6 1023 51 10000 0.63 270 19:56 29.11.2021
4520 Clear 6 1023 51 10000 0.63 270 19:36 29.11.2021
4521 Clouds 6 1023 50 10000 0.6 292 18:51 29.11.2021
4522 Clouds 7 1023 48 10000 0.65 332 17:49 29.11.2021
4523 Clouds 7 1023 46 10000 0.93 342 17:18 29.11.2021
4524 Clouds 8 1023 45 10000 1.04 327 16:29 29.11.2021
4525 Clouds 8 1023 45 10000 1.04 327 15:50 29.11.2021
4526 Clouds 8 1023 44 10000 1.16 331 14:43 29.11.2021
4527 Clouds 8 1022 44 10000 0.89 358 13:33 29.11.2021
4528 Clouds 11 1021 33 10000 1.26 44 12:28 29.11.2021
4529 Clouds 11 1021 33 10000 1.26 44 11:40 29.11.2021
4530 Clouds 11 1021 33 10000 1.04 30 10:51 29.11.2021
4531 Clouds 11 1022 34 10000 0.82 29 09:34 29.11.2021
4532 Clouds 8 1025 46 10000 0.41 204 06:20 29.11.2021
4533 Clouds 3 1023 69 10000 0.98 218 01:43 29.11.2021
4534 Clear 3 1022 68 10000 0.68 245 00:42 29.11.2021
4535 Clear 4 1022 65 10000 0.71 251 23:44 28.11.2021
4536 Clear 4 1022 64 10000 0.53 264 23:23 28.11.2021
4537 Clear 4 1022 63 10000 0.39 276 21:49 28.11.2021
4538 Clear 5 1022 63 10000 0.38 227 21:23 28.11.2021
4539 Clear 5 1022 63 10000 0.38 227 20:33 28.11.2021
4540 Clouds 5 1022 61 10000 0.29 271 18:53 28.11.2021
4541 Clouds 6 1022 58 10000 0.24 300 18:32 28.11.2021
4542 Clouds 6 1022 56 10000 0.34 315 17:54 28.11.2021
4543 Clouds 6 1022 56 10000 0.34 315 17:31 28.11.2021
4544 Clouds 7 1022 55 10000 0.33 242 16:37 28.11.2021
4545 Clouds 8 1021 52 10000 0.03 105 16:18 28.11.2021
4546 Clouds 8 1021 52 10000 0.02 97 15:31 28.11.2021
4547 Clouds 8 1021 52 10000 0.64 60 14:44 28.11.2021
4548 Clouds 9 1019 41 10000 1.95 80 13:18 28.11.2021
4549 Clear 10 1019 36 10000 1.77 62 12:46 28.11.2021
4550 Clear 12 1019 30 10000 1.13 53 10:58 28.11.2021
4551 Clear 11 1019 30 10000 1.1 45 10:21 28.11.2021
4552 Clear 11 1019 30 10000 1.1 45 09:37 28.11.2021
4553 Clear 10 1021 32 10000 0.91 53 07:32 28.11.2021
4554 Clouds 4 1022 47 10000 0.9 344 23:56 27.11.2021
4555 Clear 5 1021 44 10000 0.79 22 20:51 27.11.2021
4556 Clear 6 1020 41 10000 0.95 24 19:18 27.11.2021
4557 Clear 6 1020 41 10000 0.95 24 19:18 27.11.2021
4558 Clouds 8 1019 39 10000 0.96 35 17:27 27.11.2021
4559 Clouds 8 1019 38 10000 1.16 35 15:57 27.11.2021
4560 Clear 10 1017 36 10000 1.43 42 13:48 27.11.2021
4561 Clear 11 1017 34 10000 1.3 33 12:55 27.11.2021
4562 Clear 12 1016 27 10000 1.31 43 10:48 27.11.2021
4563 Clear 12 1016 27 10000 1.3 50 09:53 27.11.2021
4564 Clear 12 1017 27 10000 1.2 52 08:43 27.11.2021
4565 Clear 11 1019 28 10000 0.11 116 06:34 27.11.2021
4566 Clear 5 1018 42 10000 0.97 225 01:57 27.11.2021
4567 Clouds 6 1018 42 10000 0.5 215 23:36 26.11.2021
4568 Clouds 7 1018 40 10000 0.15 31 22:25 26.11.2021
4569 Clouds 7 1018 40 10000 0.15 31 21:38 26.11.2021
4570 Clouds 7 1017 39 10000 0.54 15 21:18 26.11.2021
4571 Clouds 8 1018 38 10000 0.79 6 20:29 26.11.2021
4572 Clouds 8 1018 38 10000 0.79 6 19:49 26.11.2021
4573 Clouds 8 1017 36 10000 1.08 33 18:41 26.11.2021
4574 Clouds 10 1017 32 10000 1.36 9 17:23 26.11.2021
4575 Clouds 10 1016 30 10000 1.5 19 15:59 26.11.2021
4576 Clouds 11 1015 27 10000 0.91 47 13:36 26.11.2021
4577 Clouds 12 1014 26 10000 0.74 143 12:51 26.11.2021
4578 Clouds 14 1014 20 10000 1.22 178 10:39 26.11.2021
4579 Clear 13 1015 23 10000 1.3 191 08:59 26.11.2021
4580 Clear 13 1015 23 10000 1.3 191 08:39 26.11.2021
4581 Clear 12 1017 26 10000 1.12 199 08:19 26.11.2021
4582 Clouds 10 1019 31 10000 1.32 203 06:28 26.11.2021
4583 Clouds 9 1020 34 10000 1.25 213 04:52 26.11.2021
4584 Clouds 5 1019 45 10000 1.06 232 03:26 26.11.2021
4585 Clear 6 1019 45 10000 0.79 277 23:28 25.11.2021
4586 Clear 6 1019 45 10000 0.75 282 21:51 25.11.2021
4587 Clear 7 1019 45 10000 0.6 281 20:40 25.11.2021
4588 Clear 8 1020 43 10000 0.75 272 18:49 25.11.2021
4589 Clear 8 1020 43 10000 0.67 262 17:58 25.11.2021
4590 Clear 9 1019 42 10000 0.57 265 17:26 25.11.2021
4591 Clear 9 1019 42 10000 0.57 265 16:38 25.11.2021
4592 Clear 9 1019 41 10000 0.42 254 15:58 25.11.2021
4593 Clear 10 1019 39 10000 0.42 159 14:19 25.11.2021
4594 Clear 11 1017 33 10000 0.67 92 12:47 25.11.2021
4595 Clear 14 1017 28 10000 0.79 84 11:55 25.11.2021
4596 Clear 14 1018 29 10000 0.57 60 10:25 25.11.2021
4597 Clear 10 1022 45 10000 0.61 188 06:24 25.11.2021
4598 Clear 5 1021 65 10000 1.48 206 02:53 25.11.2021
4599 Clouds 6 1019 63 10000 0.66 208 23:39 24.11.2021
4600 Clouds 7 1019 61 10000 0.8 153 22:28 24.11.2021
4601 Clouds 7 1019 61 10000 0.8 153 21:44 24.11.2021
4602 Clouds 8 1019 60 10000 0.54 120 20:56 24.11.2021
4603 Clouds 8 1019 59 10000 0.75 5 20:26 24.11.2021
4604 Clouds 9 1019 53 10000 1.33 319 18:31 24.11.2021
4605 Clouds 9 1019 53 10000 2.1 285 17:59 24.11.2021
4606 Clouds 11 1017 35 10000 2.18 247 16:19 24.11.2021
4607 Clouds 11 1016 29 10000 1.2 289 14:54 24.11.2021
4608 Clouds 12 1015 26 10000 1.87 2 14:20 24.11.2021
4609 Clouds 12 1015 26 10000 1.87 2 14:20 24.11.2021
4610 Clouds 13 1014 25 10000 1.83 14 12:50 24.11.2021
4611 Clouds 14 1014 23 10000 1.64 46 11:22 24.11.2021
4612 Clouds 14 1014 23 10000 1.64 46 10:50 24.11.2021
4613 Clouds 14 1014 23 10000 1.27 48 10:27 24.11.2021
4614 Clear 13 1016 24 10000 0.83 26 07:56 24.11.2021
4615 Clouds 12 1017 24 10000 0.76 43 06:56 24.11.2021
4616 Clear 6 1017 37 10000 0.88 220 03:57 24.11.2021
4617 Clear 5 1015 39 10000 0.65 224 01:29 24.11.2021
4618 Clear 6 1015 34 10000 0.43 237 22:59 23.11.2021
4619 Clear 6 1015 34 10000 0.43 237 22:34 23.11.2021
4620 Clear 6 1015 33 10000 0.52 232 21:45 23.11.2021
4621 Clear 6 1015 33 10000 0.52 232 21:45 23.11.2021
4622 Clear 7 1015 30 10000 0.42 274 20:21 23.11.2021
4623 Clouds 8 1015 29 10000 0.2 260 19:20 23.11.2021
4624 Clouds 8 1015 28 10000 0.65 4 18:29 23.11.2021
4625 Clouds 9 1014 27 10000 0.79 358 17:23 23.11.2021
4626 Clouds 9 1014 27 10000 0.79 358 16:35 23.11.2021
4627 Clear 10 1013 25 10000 0.51 300 15:23 23.11.2021
4628 Clouds 11 1013 26 10000 0.24 272 14:39 23.11.2021
4629 Clear 12 1012 24 10000 0.91 154 12:50 23.11.2021
4630 Clear 15 1013 17 10000 1.43 178 10:26 23.11.2021
4631 Clear 15 1013 17 10000 1.43 178 09:43 23.11.2021
4632 Clear 13 1016 19 10000 1.61 191 07:42 23.11.2021
4633 Clear 7 1019 28 10000 2.51 206 03:58 23.11.2021
4634 Clear 6 1018 29 10000 1.92 216 03:25 23.11.2021
4635 Clear 6 1018 29 10000 1.34 242 23:23 22.11.2021
4636 Clear 6 1018 29 10000 1.34 242 22:53 22.11.2021
4637 Clear 7 1019 29 10000 1.07 258 22:29 22.11.2021
4638 Clear 7 1019 29 10000 1.07 258 21:44 22.11.2021
4639 Clear 7 1019 28 10000 1.04 253 20:56 22.11.2021
4640 Clear 7 1019 27 10000 1.3 260 20:21 22.11.2021
4641 Clear 7 1020 27 10000 1.01 276 19:19 22.11.2021
4642 Clear 7 1020 28 10000 0.99 277 18:40 22.11.2021
4643 Clear 8 1020 28 10000 0.98 317 17:46 22.11.2021
4644 Clear 9 1020 24 10000 1.66 341 16:26 22.11.2021
4645 Clear 10 1018 19 10000 0.75 298 14:26 22.11.2021
4646 Clear 11 1017 17 10000 0.62 228 12:47 22.11.2021
4647 Clear 15 1017 12 10000 1.21 191 10:45 22.11.2021
4648 Clear 14 1018 12 10000 1.14 186 09:48 22.11.2021
4649 Clear 14 1019 13 10000 1.13 195 08:41 22.11.2021
4650 Clear 12 1022 16 10000 1.38 202 06:59 22.11.2021
4651 Clear 5 1021 27 10000 1.18 234 23:39 21.11.2021
4652 Clear 6 1021 26 10000 1.16 237 22:53 21.11.2021
4653 Clear 6 1021 26 10000 1 242 22:19 21.11.2021
4654 Clear 6 1020 25 10000 1.02 219 20:42 21.11.2021
4655 Clear 6 1020 25 10000 1.05 235 20:22 21.11.2021
4656 Clear 7 1020 25 10000 0.98 245 18:30 21.11.2021
4657 Clear 7 1020 25 10000 0.84 246 17:40 21.11.2021
4658 Clear 7 1020 24 10000 0.86 272 16:52 21.11.2021
4659 Clear 9 1019 22 10000 1.24 345 14:47 21.11.2021
4660 Clear 9 1018 22 10000 0.97 14 13:54 21.11.2021
4661 Clear 11 1017 20 10000 0.89 41 12:55 21.11.2021
4662 Clear 14 1017 13 10000 0.93 41 11:57 21.11.2021
4663 Clear 14 1017 13 10000 0.93 41 11:35 21.11.2021
4664 Clear 14 1017 13 10000 0.16 61 10:19 21.11.2021
4665 Clear 13 1018 14 10000 0.14 184 09:20 21.11.2021
4666 Clear 13 1018 13 10000 0.36 185 08:30 21.11.2021
4667 Clear 12 1019 14 10000 0.48 204 07:50 21.11.2021
4668 Clear 10 1021 17 10000 0.57 223 06:20 21.11.2021
4669 Clear 10 1021 17 10000 0.57 223 05:30 21.11.2021
4670 Clear 3 1020 28 10000 0.32 248 03:20 21.11.2021
4671 Clear 3 1020 28 10000 0.32 248 02:53 21.11.2021
4672 Clear 4 1019 26 10000 0.71 211 01:23 21.11.2021
4673 Clear 4 1019 26 10000 0.9 220 00:23 21.11.2021
4674 Clear 5 1018 25 10000 0.54 227 21:50 20.11.2021
4675 Clear 5 1018 25 10000 0.54 227 21:30 20.11.2021
4676 Clear 6 1018 23 10000 0.43 300 19:23 20.11.2021
4677 Clear 6 1018 23 10000 0.43 300 18:45 20.11.2021
4678 Clear 7 1018 22 10000 0.67 344 18:19 20.11.2021
4679 Clear 7 1017 22 10000 0.64 0 17:19 20.11.2021
4680 Clear 8 1017 20 10000 1.27 354 14:50 20.11.2021
4681 Clear 9 1016 20 10000 1.37 352 14:28 20.11.2021
4682 Clear 9 1016 20 10000 1.37 352 13:33 20.11.2021
4683 Clear 14 1014 12 10000 0.93 59 11:24 20.11.2021
4684 Clear 14 1014 12 10000 0.7 68 09:54 20.11.2021
4685 Clear 13 1016 14 10000 0.25 154 08:26 20.11.2021
4686 Clear 10 1018 17 10000 1.14 199 05:30 20.11.2021
4687 Clear 9 1018 19 10000 1.3 192 04:51 20.11.2021
4688 Clear 3 1017 27 10000 1.3 201 03:25 20.11.2021
4689 Clear 4 1016 27 10000 0.92 202 00:42 20.11.2021
4690 Clear 4 1016 26 10000 0.88 209 23:45 19.11.2021
4691 Clear 4 1016 26 10000 0.88 213 22:53 19.11.2021
4692 Clear 5 1016 25 10000 0.9 196 21:23 19.11.2021
4693 Clear 5 1016 25 10000 0.9 196 20:39 19.11.2021
4694 Clear 6 1016 24 10000 0.82 186 20:20 19.11.2021
4695 Clear 6 1016 24 10000 0.82 186 19:43 19.11.2021
4696 Clear 6 1016 23 10000 0.5 196 18:44 19.11.2021
4697 Clear 7 1016 23 10000 0.57 286 17:39 19.11.2021
4698 Clear 7 1016 23 10000 1 317 16:22 19.11.2021
4699 Clear 8 1015 23 10000 1.31 323 14:51 19.11.2021
4700 Clear 13 1014 18 10000 1.23 45 10:56 19.11.2021
4701 Clear 13 1015 19 10000 0.97 47 10:23 19.11.2021
4702 Clear 12 1016 19 10000 0.7 42 08:32 19.11.2021
4703 Clear 8 1020 27 10000 0.73 210 04:58 19.11.2021
4704 Clear 4 1019 35 10000 0.88 204 03:19 19.11.2021
4705 Clear 6 1018 31 10000 0.88 212 23:53 18.11.2021
4706 Clear 6 1018 30 10000 0.67 208 22:43 18.11.2021
4707 Clear 7 1018 28 10000 0.83 230 20:56 18.11.2021
4708 Clear 7 1018 28 10000 0.83 230 20:37 18.11.2021
4709 Clear 7 1018 29 10000 0.59 246 20:19 18.11.2021
4710 Clear 7 1018 29 10000 0.59 246 19:36 18.11.2021
4711 Clear 7 1018 29 10000 0.59 246 19:36 18.11.2021
4712 Clear 7 1018 28 10000 0.6 238 18:35 18.11.2021
4713 Clear 8 1018 28 10000 0.6 280 17:52 18.11.2021
4714 Clear 8 1018 27 10000 0.82 293 16:47 18.11.2021
4715 Clear 9 1017 27 10000 0.86 314 15:56 18.11.2021
4716 Clear 9 1017 26 10000 0.99 336 14:40 18.11.2021
4717 Clear 11 1016 24 10000 0.98 5 12:55 18.11.2021
4718 Clear 13 1015 17 10000 1.3 29 11:44 18.11.2021
4719 Clear 13 1015 16 10000 1.33 46 11:25 18.11.2021
4720 Clear 13 1015 16 10000 0.89 56 10:24 18.11.2021
4721 Clear 12 1016 16 10000 0.66 46 08:30 18.11.2021
4722 Clouds 11 1019 18 10000 0.13 215 06:49 18.11.2021
4723 Clouds 10 1019 18 10000 0.47 173 05:46 18.11.2021
4724 Clouds 5 1018 27 10000 0.29 187 01:26 18.11.2021
4725 Clouds 5 1018 27 10000 0.29 187 01:26 18.11.2021
4726 Clouds 5 1018 26 10000 0.93 306 23:46 17.11.2021
4727 Clouds 6 1018 26 10000 0.64 330 22:40 17.11.2021
4728 Clouds 6 1018 26 10000 0.98 348 22:19 17.11.2021
4729 Clouds 6 1018 26 10000 0.98 348 22:19 17.11.2021
4730 Clouds 6 1018 26 10000 0.98 348 21:35 17.11.2021
4731 Clouds 6 1019 25 10000 0.95 21 19:51 17.11.2021
4732 Clouds 7 1019 23 10000 1.23 21 17:36 17.11.2021
4733 Clouds 8 1019 22 10000 1.11 34 16:28 17.11.2021
4734 Clouds 10 1017 20 10000 1.54 54 13:41 17.11.2021
4735 Clouds 11 1016 17 10000 2.14 59 12:38 17.11.2021
4736 Clouds 14 1015 13 10000 1.78 71 10:54 17.11.2021
4737 Clouds 14 1015 13 10000 1.78 71 10:54 17.11.2021
4738 Clouds 14 1016 13 10000 1.15 82 09:38 17.11.2021
4739 Clouds 13 1017 14 10000 0.68 123 08:30 17.11.2021
4740 Clouds 12 1019 14 10000 0.51 158 07:41 17.11.2021
4741 Clouds 3 1020 23 10000 0.97 213 02:49 17.11.2021
4742 Clouds 4 1019 22 10000 0.64 222 00:35 17.11.2021
4743 Clouds 4 1019 22 10000 0.47 261 22:37 16.11.2021
4744 Clouds 5 1019 21 10000 0.61 309 20:19 16.11.2021
4745 Clouds 5 1019 21 10000 0.61 309 19:55 16.11.2021
4746 Clouds 6 1019 21 10000 0.98 334 18:52 16.11.2021
4747 Clouds 6 1019 21 10000 1.05 340 18:29 16.11.2021
4748 Clouds 7 1019 21 10000 1.1 355 17:29 16.11.2021
4749 Clouds 7 1019 21 10000 1.08 359 16:21 16.11.2021
4750 Clouds 7 1019 21 10000 1.08 359 15:44 16.11.2021
4751 Clouds 9 1018 19 10000 1.52 356 13:49 16.11.2021
4752 Clouds 13 1016 14 10000 1.43 40 10:52 16.11.2021
4753 Clouds 12 1016 14 10000 1.22 44 09:44 16.11.2021
4754 Clouds 11 1018 16 10000 0.66 46 08:24 16.11.2021
4755 Clouds 11 1018 16 10000 0.68 45 07:30 16.11.2021
4756 Clear 3 1018 31 10000 0.64 308 23:54 15.11.2021
4757 Clear 3 1018 31 10000 0.7 348 22:43 15.11.2021
4758 Clear 4 1018 30 10000 0.91 0 22:20 15.11.2021
4759 Clear 4 1018 30 10000 0.91 0 21:51 15.11.2021
4760 Clear 5 1017 29 10000 0.7 349 21:25 15.11.2021
4761 Clear 5 1017 29 10000 0.44 308 19:41 15.11.2021
4762 Clear 6 1017 27 10000 0.31 252 17:50 15.11.2021
4763 Clear 8 1017 26 10000 0.36 298 16:19 15.11.2021
4764 Clear 8 1017 26 10000 0.36 298 15:39 15.11.2021
4765 Clear 8 1016 25 10000 0.29 335 15:19 15.11.2021
4766 Clear 11 1015 27 10000 0.92 113 12:47 15.11.2021
4767 Clear 12 1016 21 10000 1.19 140 10:54 15.11.2021
4768 Clear 11 1017 23 10000 0.94 155 09:26 15.11.2021
4769 Clear 10 1019 26 10000 0.72 169 07:45 15.11.2021
4770 Clear 7 1022 36 10000 0.56 235 04:45 15.11.2021
4771 Clear 4 1020 44 10000 0.93 337 22:47 14.11.2021
4772 Clear 5 1020 43 10000 0.85 326 22:28 14.11.2021
4773 Clear 6 1021 41 10000 0.85 344 19:51 14.11.2021
4774 Clear 6 1021 40 10000 0.71 333 19:18 14.11.2021
4775 Clear 6 1021 40 10000 0.71 333 18:54 14.11.2021
4776 Clear 6 1021 40 10000 0.71 333 18:36 14.11.2021
4777 Clear 7 1020 38 10000 1.21 360 18:18 14.11.2021
4778 Clear 7 1020 38 10000 1.21 360 17:54 14.11.2021
4779 Clear 6 1020 36 10000 1.15 358 17:36 14.11.2021
4780 Clear 7 1020 34 10000 1.38 7 17:18 14.11.2021
4781 Clear 7 1020 34 10000 1.38 7 16:45 14.11.2021
4782 Clear 8 1020 31 10000 1.77 4 16:19 14.11.2021
4783 Clear 9 1018 27 10000 2.29 2 15:22 14.11.2021
4784 Clear 9 1018 27 10000 2.29 2 14:45 14.11.2021
4785 Clear 10 1017 25 10000 2.25 13 14:23 14.11.2021
4786 Clear 10 1017 25 10000 2.25 13 13:53 14.11.2021
4787 Clear 10 1017 25 10000 2.25 13 13:32 14.11.2021
4788 Clouds 13 1015 15 10000 2.37 13 12:26 14.11.2021
4789 Clouds 13 1015 15 10000 2.37 13 11:34 14.11.2021
4790 Clouds 14 1014 14 10000 2.02 32 10:40 14.11.2021
4791 Clouds 14 1014 14 10000 2.02 32 10:40 14.11.2021
4792 Clouds 13 1014 13 10000 1.26 49 09:42 14.11.2021
4793 Clouds 13 1015 14 10000 0.71 83 08:52 14.11.2021
4794 Clear 12 1017 15 10000 0.29 165 06:54 14.11.2021
4795 Clear 6 1015 24 10000 0.63 247 23:28 13.11.2021
4796 Clear 7 1016 24 10000 0.52 210 22:21 13.11.2021
4797 Clear 7 1016 24 10000 0.52 210 21:49 13.11.2021
4798 Clear 7 1016 23 10000 0.37 223 21:18 13.11.2021
4799 Clear 8 1016 23 10000 0.33 265 19:37 13.11.2021
4800 Clear 8 1016 23 10000 0.3 268 18:33 13.11.2021
4801 Clear 9 1017 22 10000 0.43 345 17:46 13.11.2021
4802 Clear 9 1016 22 10000 0.68 337 16:30 13.11.2021
4803 Clear 10 1016 21 10000 1.16 344 14:55 13.11.2021
4804 Clear 11 1016 19 10000 1.51 352 14:18 13.11.2021
4805 Clouds 13 1015 16 10000 1.78 10 12:45 13.11.2021
4806 Clouds 15 1015 12 10000 1.69 31 11:58 13.11.2021
4807 Clear 16 1015 11 10000 1.24 34 11:26 13.11.2021
4808 Clear 16 1015 11 10000 1.24 34 10:43 13.11.2021
4809 Clear 15 1016 11 10000 0.92 39 09:50 13.11.2021
4810 Clear 15 1016 11 10000 0.92 39 09:32 13.11.2021
4811 Clear 15 1017 12 10000 0.67 60 08:54 13.11.2021
4812 Clear 14 1018 13 10000 0.25 91 08:18 13.11.2021
4813 Clear 10 1021 17 10000 1.54 204 04:43 13.11.2021
4814 Clear 7 1021 21 10000 1.97 202 04:23 13.11.2021
4815 Clear 6 1019 24 10000 1.1 215 00:28 13.11.2021
4816 Clear 6 1019 24 10000 0.9 216 22:43 12.11.2021
4817 Clear 7 1020 26 10000 0.79 217 21:29 12.11.2021
4818 Clear 8 1020 26 10000 0.61 210 19:43 12.11.2021
4819 Clear 8 1020 26 10000 0.49 267 19:23 12.11.2021
4820 Clear 9 1019 26 10000 0.67 304 18:20 12.11.2021
4821 Clear 10 1019 24 10000 0.62 323 16:19 12.11.2021
4822 Clear 10 1018 24 10000 0.64 1 14:53 12.11.2021
4823 Clear 15 1016 16 10000 0.87 84 11:31 12.11.2021
4824 Clear 15 1016 16 10000 0.66 91 10:48 12.11.2021
4825 Clear 14 1018 19 10000 0.46 147 09:29 12.11.2021
4826 Clear 14 1018 19 10000 0.46 147 08:38 12.11.2021
4827 Clear 5 1020 41 10000 0.39 315 02:22 12.11.2021
4828 Clear 6 1020 41 10000 0.48 317 23:31 11.11.2021
4829 Clear 7 1020 39 10000 0.49 336 22:28 11.11.2021
4830 Clear 7 1019 38 10000 0.58 331 21:26 11.11.2021
4831 Clear 7 1019 38 10000 0.58 331 20:38 11.11.2021
4832 Clear 8 1019 37 10000 0.76 344 18:55 11.11.2021
4833 Clear 9 1019 34 10000 1.09 341 17:42 11.11.2021
4834 Clear 10 1019 33 10000 1.06 348 16:38 11.11.2021
4835 Clear 11 1018 31 10000 0.2 6 14:44 11.11.2021
4836 Clear 11 1017 30 10000 0.39 122 14:26 11.11.2021
4837 Clear 11 1017 30 10000 0.39 122 13:36 11.11.2021
4838 Clear 13 1016 31 10000 0.67 93 12:48 11.11.2021
4839 Clear 15 1016 26 10000 1.1 74 10:34 11.11.2021
4840 Clear 14 1016 28 10000 0.76 68 09:33 11.11.2021
4841 Clear 13 1019 33 10000 0.46 179 07:36 11.11.2021
4842 Clear 7 1020 51 10000 0.94 210 02:35 11.11.2021
4843 Clear 8 1019 49 10000 0.62 268 22:49 10.11.2021
4844 Clear 9 1018 49 10000 0.42 287 21:58 10.11.2021
4845 Clear 9 1018 48 10000 0.26 322 21:18 10.11.2021
4846 Clear 9 1018 48 10000 0.26 322 20:35 10.11.2021
4847 Clear 9 1019 47 10000 0.43 4 19:46 10.11.2021
4848 Clear 10 1019 44 10000 0.52 343 17:39 10.11.2021
4849 Clear 11 1018 38 10000 0.94 20 16:25 10.11.2021
4850 Clear 12 1017 37 10000 0.98 33 14:40 10.11.2021
4851 Clear 12 1016 34 10000 1.16 44 13:40 10.11.2021
4852 Clear 14 1016 30 10000 1.25 70 12:40 10.11.2021
4853 Clouds 15 1016 26 10000 0.93 124 10:20 10.11.2021
4854 Clouds 14 1017 27 10000 0.85 153 08:45 10.11.2021
4855 Clouds 13 1020 31 10000 1.26 183 07:22 10.11.2021
4856 Clear 12 1020 34 10000 1.31 194 06:25 10.11.2021
4857 Clear 12 1020 34 10000 1.31 194 05:44 10.11.2021
4858 Clouds 9 1018 50 10000 0.45 217 22:54 09.11.2021
4859 Clouds 9 1018 49 10000 0.28 232 21:47 09.11.2021
4860 Clouds 10 1019 46 10000 0.82 290 20:26 09.11.2021
4861 Clouds 10 1019 45 10000 1.21 283 19:20 09.11.2021
4862 Clouds 11 1019 44 10000 1.47 308 17:30 09.11.2021
4863 Clouds 12 1018 39 10000 1.22 313 15:38 09.11.2021
4864 Clouds 13 1017 33 10000 2.01 360 13:59 09.11.2021
4865 Clouds 15 1016 27 10000 2.2 11 12:50 09.11.2021
4866 Clouds 16 1016 22 10000 1.5 49 11:38 09.11.2021
4867 Clouds 16 1016 22 10000 1.25 84 10:43 09.11.2021
4868 Clouds 15 1017 26 10000 0.28 183 09:24 09.11.2021
4869 Clouds 15 1019 28 10000 0.66 200 08:18 09.11.2021
4870 Clear 11 1021 38 10000 1.43 203 05:23 09.11.2021
4871 Clear 7 1020 57 10000 1.36 204 01:58 09.11.2021
4872 Clear 7 1020 52 10000 1.39 207 01:39 09.11.2021
4873 Clear 8 1019 54 10000 0.87 219 23:35 08.11.2021
4874 Clear 8 1019 53 10000 0.71 220 22:48 08.11.2021
4875 Clear 9 1019 52 10000 0.83 222 21:46 08.11.2021
4876 Clear 9 1019 51 10000 0.65 250 20:38 08.11.2021
4877 Clear 9 1019 50 10000 0.42 293 19:46 08.11.2021
4878 Clouds 10 1019 48 10000 0.32 230 17:55 08.11.2021
4879 Clouds 11 1019 42 10000 1.03 325 15:59 08.11.2021
4880 Clear 12 1018 41 10000 1.54 352 14:57 08.11.2021
4881 Clear 12 1018 41 10000 1.54 352 14:34 08.11.2021
4882 Clear 14 1017 34 10000 2.18 37 13:22 08.11.2021
4883 Clear 16 1016 31 10000 1.29 57 11:56 08.11.2021
4884 Clear 15 1017 32 10000 0.62 75 10:50 08.11.2021
4885 Clear 15 1017 32 10000 0.62 75 10:50 08.11.2021
4886 Clear 15 1018 33 10000 0.22 78 09:37 08.11.2021
4887 Clear 14 1019 35 10000 0.15 51 08:52 08.11.2021
4888 Clear 13 1021 39 10000 0.15 51 07:27 08.11.2021
4889 Clear 9 1022 53 10000 1.08 212 03:42 08.11.2021
4890 Clear 6 1021 63 10000 1.02 231 03:22 08.11.2021
4891 Clouds 7 1020 66 10000 0.35 306 23:43 07.11.2021
4892 Clouds 8 1020 66 10000 0.49 224 21:42 07.11.2021
4893 Clouds 8 1020 64 10000 0.74 201 20:51 07.11.2021
4894 Clouds 9 1019 45 10000 0.92 9 19:22 07.11.2021
4895 Clouds 10 1019 44 10000 1.38 22 17:47 07.11.2021
4896 Clouds 10 1018 44 10000 1.33 27 16:44 07.11.2021
4897 Clouds 10 1018 44 10000 0.28 352 15:44 07.11.2021
4898 Clouds 11 1016 41 10000 0.92 348 14:28 07.11.2021
4899 Clouds 13 1015 32 10000 2.2 346 12:57 07.11.2021
4900 Clouds 14 1015 28 10000 3.15 5 11:42 07.11.2021
4901 Clouds 14 1015 26 10000 1.18 48 09:22 07.11.2021
4902 Clear 13 1017 27 10000 0.39 101 06:46 07.11.2021
4903 Clear 7 1017 38 10000 1.27 207 02:32 07.11.2021
4904 Clear 7 1016 37 10000 0.58 348 22:57 06.11.2021
4905 Clear 7 1016 37 10000 0.58 348 22:32 06.11.2021
4906 Clear 8 1017 37 10000 0.67 320 21:28 06.11.2021
4907 Clear 8 1017 35 10000 0.58 321 20:32 06.11.2021
4908 Clouds 9 1017 35 10000 0.62 355 18:56 06.11.2021
4909 Clouds 10 1017 34 10000 0.99 16 16:38 06.11.2021
4910 Clouds 10 1017 34 10000 0.88 312 14:31 06.11.2021
4911 Clear 11 1016 33 10000 0.74 321 13:38 06.11.2021
4912 Clear 13 1016 23 10000 1.06 48 11:25 06.11.2021
4913 Clouds 12 1018 23 10000 0.89 32 09:22 06.11.2021
4914 Clear 8 1021 29 10000 0.23 226 04:56 06.11.2021
4915 Clear 5 1020 37 10000 0.78 331 01:27 06.11.2021
4916 Clear 6 1019 39 10000 1.11 328 23:34 05.11.2021
4917 Clear 6 1019 39 10000 1.23 338 22:33 05.11.2021
4918 Clear 6 1019 39 10000 1.23 338 22:33 05.11.2021
4919 Clear 7 1019 37 10000 1.47 358 20:42 05.11.2021
4920 Clear 8 1020 37 10000 1.52 2 20:19 05.11.2021
4921 Clear 8 1019 53 10000 1.57 15 19:32 05.11.2021
4922 Clear 8 1019 51 10000 1.38 20 18:38 05.11.2021
4923 Clear 10 1019 45 10000 1.32 18 17:25 05.11.2021
4924 Clear 11 1018 45 10000 1.16 3 14:54 05.11.2021
4925 Clouds 13 1016 41 10000 2.11 46 13:33 05.11.2021
4926 Clouds 13 1016 42 10000 1.53 54 10:29 05.11.2021
4927 Clouds 12 1017 45 10000 1.05 51 08:39 05.11.2021
4928 Clouds 10 1020 56 10000 0.38 53 07:21 05.11.2021
4929 Clouds 8 1021 69 10000 0.71 190 04:43 05.11.2021
4930 Clouds 6 1020 82 10000 0.85 189 02:24 05.11.2021
4931 Clouds 6 1020 86 10000 0.5 239 00:30 05.11.2021
4932 Clouds 6 1020 87 10000 1.31 348 22:59 04.11.2021
4933 Clouds 6 1020 86 10000 1.74 2 22:18 04.11.2021
4934 Clouds 6 1020 86 10000 1.74 2 21:30 04.11.2021
4935 Clouds 6 1020 83 10000 2.42 352 20:30 04.11.2021
4936 Clouds 6 1020 83 10000 2.42 352 20:30 04.11.2021
4937 Clouds 7 1020 73 10000 3.71 339 19:50 04.11.2021
4938 Clouds 9 1019 62 10000 3.96 352 19:28 04.11.2021
4939 Clouds 9 1019 62 10000 3.96 352 18:42 04.11.2021
4940 Clouds 11 1017 48 10000 3.62 11 17:28 04.11.2021
4941 Clouds 11 1016 45 10000 3.04 30 16:23 04.11.2021
4942 Clouds 13 1013 37 10000 2.79 52 14:19 04.11.2021
4943 Clouds 16 1012 19 10000 2.04 82 10:52 04.11.2021
4944 Clouds 15 1015 16 10000 0.97 106 08:58 04.11.2021
4945 Clouds 14 1017 17 10000 0.85 109 08:28 04.11.2021
4946 Clouds 14 1017 17 10000 0.85 109 07:33 04.11.2021
4947 Clouds 6 1018 37 10000 0.24 295 23:43 03.11.2021
4948 Clouds 7 1018 36 10000 0.39 320 22:49 03.11.2021
4949 Clouds 7 1018 36 10000 0.24 182 21:45 03.11.2021
4950 Clouds 7 1018 35 10000 0.29 184 20:45 03.11.2021
4951 Clear 8 1018 33 10000 0.31 179 20:26 03.11.2021
4952 Clear 8 1018 33 10000 0.31 179 19:37 03.11.2021
4953 Clear 8 1018 32 10000 0.41 133 18:33 03.11.2021
4954 Clear 9 1019 30 10000 0.5 86 17:56 03.11.2021
4955 Clear 10 1018 28 10000 0.64 42 16:49 03.11.2021
4956 Clear 10 1018 25 10000 0.66 28 15:51 03.11.2021
4957 Clear 10 1018 25 10000 0.66 28 15:30 03.11.2021
4958 Clear 10 1018 25 10000 0.66 28 15:30 03.11.2021
4959 Clear 12 1017 21 10000 1.65 24 13:42 03.11.2021
4960 Clouds 15 1016 18 10000 1.61 51 11:37 03.11.2021
4961 Clouds 15 1017 17 10000 1.44 47 10:50 03.11.2021
4962 Clouds 15 1017 17 10000 1.2 57 09:47 03.11.2021
4963 Clear 14 1018 18 10000 0.91 75 08:58 03.11.2021
4964 Clear 14 1020 18 10000 0.64 84 07:59 03.11.2021
4965 Clear 14 1020 18 10000 0.64 84 07:35 03.11.2021
4966 Clouds 9 1021 28 10000 0.56 236 04:23 03.11.2021
4967 Clouds 7 1020 30 10000 0.56 271 00:58 03.11.2021
4968 Clouds 8 1020 30 10000 0.47 333 23:24 02.11.2021
4969 Clouds 8 1020 29 10000 0.8 350 21:59 02.11.2021
4970 Clouds 8 1020 29 10000 0.88 357 20:43 02.11.2021
4971 Clear 9 1020 29 10000 0.95 7 19:58 02.11.2021
4972 Clear 9 1020 29 10000 0.95 7 19:31 02.11.2021
4973 Clear 9 1020 28 10000 0.8 16 18:36 02.11.2021
4974 Clear 10 1020 28 10000 0.63 20 17:46 02.11.2021
4975 Clear 10 1020 28 10000 0.69 344 17:21 02.11.2021
4976 Clear 11 1020 26 10000 1.2 331 16:19 02.11.2021
4977 Clear 11 1019 25 10000 1.52 346 14:57 02.11.2021
4978 Clear 12 1019 25 10000 1.71 14 13:31 02.11.2021
4979 Clear 14 1018 18 10000 1.85 38 12:59 02.11.2021
4980 Clear 15 1017 14 10000 1.36 60 11:40 02.11.2021
4981 Clear 15 1017 15 10000 0.82 83 10:59 02.11.2021
4982 Clear 15 1017 15 10000 0.82 83 10:38 02.11.2021
4983 Clear 15 1018 16 10000 0.68 95 10:18 02.11.2021
4984 Clear 13 1020 19 10000 0.4 136 07:47 02.11.2021
4985 Clear 11 1022 24 10000 0.09 179 05:55 02.11.2021
4986 Clear 5 1022 37 10000 0.34 286 03:24 02.11.2021
4987 Clear 6 1021 37 10000 0.59 206 00:19 02.11.2021
4988 Clear 6 1021 36 10000 0.33 318 21:57 01.11.2021
4989 Clear 7 1021 36 10000 0.39 304 20:45 01.11.2021
4990 Clear 7 1021 35 10000 0.56 337 20:19 01.11.2021
4991 Clear 7 1021 35 10000 0.56 337 19:41 01.11.2021
4992 Clear 7 1021 35 10000 0.56 337 19:41 01.11.2021
4993 Clear 8 1021 35 10000 0.85 359 18:34 01.11.2021
4994 Clear 8 1021 35 10000 0.99 2 17:49 01.11.2021
4995 Clear 9 1020 33 10000 1.18 1 16:57 01.11.2021
4996 Clear 10 1020 31 10000 1.52 11 16:23 01.11.2021
4997 Clear 11 1019 28 10000 1.91 14 15:29 01.11.2021
4998 Clear 11 1019 28 10000 1.91 14 14:45 01.11.2021
4999 Clear 12 1018 26 10000 1.31 15 14:25 01.11.2021
5000 Clear 11 1018 23 10000 0.95 13 13:50 01.11.2021
5001 Clear 13 1017 20 10000 0.76 44 12:36 01.11.2021
5002 Clear 14 1017 17 10000 0.82 65 11:30 01.11.2021
5003 Clear 13 1018 19 10000 1.02 62 10:19 01.11.2021
5004 Clear 11 1021 24 10000 0.82 39 08:18 01.11.2021
5005 Clear 11 1021 24 10000 0.82 39 07:45 01.11.2021
5006 Clear 6 1023 41 10000 0.6 321 03:49 01.11.2021
5007 Clear 4 1022 51 10000 1.05 349 01:43 01.11.2021
5008 Clear 6 1020 47 10000 1.3 354 22:42 31.10.2021
5009 Clear 6 1020 46 10000 1.2 358 20:50 31.10.2021
5010 Clear 7 1022 44 10000 0.77 14 19:22 31.10.2021
5011 Clear 7 1022 44 10000 0.77 14 18:41 31.10.2021
5012 Clear 8 1022 41 10000 1.12 10 17:52 31.10.2021
5013 Clear 9 1021 33 10000 1.6 14 15:51 31.10.2021
5014 Clear 12 1019 25 10000 2.04 29 14:24 31.10.2021
5015 Clear 14 1017 18 10000 3.84 39 12:50 31.10.2021
5016 Clear 16 1016 15 10000 5.63 22 11:41 31.10.2021
5017 Clear 17 1016 14 10000 3.38 19 10:44 31.10.2021
5018 Clear 16 1018 14 10000 1.01 32 09:22 31.10.2021
5019 Clear 15 1020 15 10000 1.07 34 08:29 31.10.2021
5020 Clear 6 1022 29 10000 1.08 257 01:37 31.10.2021
5021 Clear 7 1023 29 10000 0.82 310 22:47 30.10.2021
5022 Clear 8 1023 28 10000 0.92 319 21:35 30.10.2021
5023 Clear 8 1024 27 10000 1.09 330 20:50 30.10.2021
5024 Clear 10 1024 24 10000 0.92 352 18:48 30.10.2021
5025 Clear 11 1023 20 10000 1.32 346 17:25 30.10.2021
5026 Clear 14 1021 16 10000 2.4 3 14:54 30.10.2021
5027 Clear 17 1020 19 10000 2.13 34 13:40 30.10.2021
5028 Clear 18 1019 16 10000 1.3 71 13:21 30.10.2021
5029 Clear 18 1019 16 10000 1.3 71 12:47 30.10.2021
5030 Clear 18 1019 16 10000 1.25 104 11:42 30.10.2021
5031 Clear 17 1020 18 10000 1.19 128 10:32 30.10.2021
5032 Clear 16 1023 23 10000 0.48 171 08:52 30.10.2021
5033 Clear 14 1024 28 10000 0.63 232 07:25 30.10.2021
5034 Clear 12 1025 30 10000 0.59 243 05:39 30.10.2021
5035 Clear 9 1023 41 10000 0.46 249 00:47 30.10.2021
5036 Clear 10 1023 40 10000 0.33 276 22:43 29.10.2021
5037 Clear 10 1023 39 10000 0.48 321 22:20 29.10.2021
5038 Clear 11 1023 39 10000 0.97 336 20:46 29.10.2021
5039 Clouds 11 1023 38 10000 0.95 323 19:56 29.10.2021
5040 Clouds 11 1023 37 10000 0.78 307 18:33 29.10.2021
5041 Clouds 13 1022 34 10000 1.65 336 16:52 29.10.2021
5042 Clouds 14 1021 27 10000 2.67 17 14:36 29.10.2021
5043 Clouds 17 1019 22 10000 2.48 12 11:56 29.10.2021
5044 Clouds 16 1019 22 10000 2.44 3 10:44 29.10.2021
5045 Clear 15 1021 23 10000 0.65 168 08:38 29.10.2021
5046 Clear 9 1020 38 10000 0.8 307 00:37 29.10.2021
5047 Clear 9 1020 36 10000 0.65 9 23:25 28.10.2021
5048 Clear 10 1021 35 10000 0.77 20 22:18 28.10.2021
5049 Clear 10 1021 34 10000 0.74 32 20:54 28.10.2021
5050 Clear 11 1021 33 10000 0.82 61 19:50 28.10.2021
5051 Clear 12 1020 30 10000 1.12 24 18:23 28.10.2021
5052 Clear 12 1019 28 10000 1.39 42 17:18 28.10.2021
5053 Clear 13 1019 26 10000 1.88 33 15:48 28.10.2021
5054 Clear 16 1017 19 10000 2.97 50 14:23 28.10.2021
5055 Clear 17 1016 16 10000 3.01 60 13:24 28.10.2021
5056 Clear 17 1016 16 10000 3.01 60 12:41 28.10.2021
5057 Clear 17 1017 16 10000 1.71 58 10:57 28.10.2021
5058 Clear 16 1018 17 10000 1.08 62 09:39 28.10.2021
5059 Clear 15 1019 19 10000 0.6 76 08:59 28.10.2021
5060 Clear 15 1019 19 10000 0.6 76 08:34 28.10.2021
5061 Clear 14 1020 21 10000 0.47 153 07:40 28.10.2021
5062 Clear 8 1020 32 10000 0.84 284 00:20 28.10.2021
5063 Clear 8 1020 32 10000 0.86 290 22:31 27.10.2021
5064 Clear 9 1020 32 10000 0.83 302 21:33 27.10.2021
5065 Clear 9 1020 32 10000 0.8 321 20:53 27.10.2021
5066 Clear 9 1020 32 10000 0.8 321 20:33 27.10.2021
5067 Clear 10 1020 30 10000 0.92 348 19:41 27.10.2021
5068 Clear 10 1020 29 10000 0.98 357 18:53 27.10.2021
5069 Clear 12 1019 27 10000 1.61 10 16:32 27.10.2021
5070 Clear 12 1019 27 10000 1.61 10 15:34 27.10.2021
5071 Clear 13 1018 26 10000 1.87 26 14:42 27.10.2021
5072 Clear 16 1017 19 10000 1.59 53 12:33 27.10.2021
5073 Clear 15 1018 20 10000 0.73 72 10:58 27.10.2021
5074 Clear 15 1020 23 10000 0.38 81 09:51 27.10.2021
5075 Clear 14 1021 26 10000 0.21 119 08:36 27.10.2021
5076 Clear 13 1022 29 10000 0.72 201 07:31 27.10.2021
5077 Clear 6 1023 55 10000 0.97 257 02:30 27.10.2021
5078 Clear 6 1022 55 10000 0.98 245 00:57 27.10.2021
5079 Clear 7 1022 55 10000 0.94 254 00:28 27.10.2021
5080 Clear 7 1022 55 10000 0.94 254 00:28 27.10.2021
5081 Clear 7 1022 55 10000 0.94 254 23:41 26.10.2021
5082 Clear 7 1022 55 10000 0.92 270 22:38 26.10.2021
5083 Clear 7 1022 55 10000 0.74 285 21:59 26.10.2021
5084 Clear 8 1022 55 10000 0.85 301 20:40 26.10.2021
5085 Clouds 8 1022 53 10000 0.92 322 19:30 26.10.2021
5086 Clouds 8 1022 53 10000 0.92 322 19:30 26.10.2021
5087 Clouds 9 1022 52 10000 0.73 335 18:41 26.10.2021
5088 Clouds 10 1021 50 10000 0.62 272 16:42 26.10.2021
5089 Clouds 10 1020 55 10000 2.23 211 14:56 26.10.2021
5090 Clouds 14 1016 37 10000 5.74 325 11:39 26.10.2021
5091 Clouds 14 1016 29 10000 1.36 45 10:20 26.10.2021
5092 Clouds 12 1018 36 10000 0.41 32 07:25 26.10.2021
5093 Clouds 12 1018 36 10000 0.41 32 06:40 26.10.2021
5094 Clouds 9 1017 49 10000 0.72 326 23:51 25.10.2021
5095 Clouds 9 1017 49 10000 0.84 331 22:54 25.10.2021
5096 Clouds 9 1018 49 10000 0.79 7 22:19 25.10.2021
5097 Clouds 9 1018 49 10000 0.79 7 21:39 25.10.2021
5098 Clear 10 1019 46 10000 0.93 13 19:53 25.10.2021
5099 Clear 11 1019 45 10000 1.11 15 19:25 25.10.2021
5100 Clear 11 1019 45 10000 1.11 15 18:59 25.10.2021
5101 Clear 11 1019 44 10000 1 20 18:19 25.10.2021
5102 Clear 12 1019 40 10000 1.48 34 16:18 25.10.2021
5103 Clear 14 1017 34 10000 1.91 55 14:28 25.10.2021
5104 Clear 14 1018 35 10000 1.33 48 12:29 25.10.2021
5105 Clear 13 1020 40 10000 0.98 59 10:20 25.10.2021
5106 Clear 12 1021 43 10000 0.66 66 08:34 25.10.2021
5107 Clear 9 1023 62 10000 0.55 16 06:24 25.10.2021
5108 Clear 7 1021 75 10000 0.68 359 00:58 25.10.2021
5109 Clear 7 1021 75 10000 0.68 359 00:37 25.10.2021
5110 Clear 7 1021 75 10000 0.93 26 23:47 24.10.2021
5111 Clear 8 1022 74 10000 0.99 29 22:44 24.10.2021
5112 Clear 8 1022 73 10000 1.16 16 22:21 24.10.2021
5113 Clear 8 1022 73 10000 1.16 16 21:41 24.10.2021
5114 Clear 8 1022 71 10000 1.62 21 20:45 24.10.2021
5115 Clear 9 1021 67 10000 1.74 34 20:23 24.10.2021
5116 Clear 9 1021 64 10000 1.92 43 18:52 24.10.2021
5117 Clear 10 1021 59 10000 1.69 43 17:55 24.10.2021
5118 Clear 11 1020 55 10000 1.74 59 16:49 24.10.2021
5119 Clear 12 1018 46 10000 2.79 84 15:28 24.10.2021
5120 Clear 14 1017 35 10000 4.18 91 13:49 24.10.2021
5121 Clear 15 1016 28 10000 3.95 89 12:41 24.10.2021
5122 Clear 15 1016 25 10000 3.33 76 11:37 24.10.2021
5123 Clear 15 1017 24 10000 2.33 47 10:43 24.10.2021
5124 Clear 14 1018 25 10000 1.95 43 09:38 24.10.2021
5125 Clear 5 1021 26 10000 0.39 23 03:36 24.10.2021
5126 Clear 7 1019 22 10000 1.76 354 00:19 24.10.2021
5127 Clear 7 1019 21 10000 1.71 358 22:55 23.10.2021
5128 Clear 8 1018 20 10000 1.51 353 21:21 23.10.2021
5129 Clear 9 1018 20 10000 1.47 353 19:37 23.10.2021
5130 Clear 9 1017 19 10000 1.55 347 18:45 23.10.2021
5131 Clear 10 1017 18 10000 1.64 343 17:48 23.10.2021
5132 Clear 11 1016 17 10000 2.04 359 17:26 23.10.2021
5133 Clear 12 1015 15 10000 2.69 1 15:58 23.10.2021
5134 Clear 16 1013 12 10000 1.74 32 13:47 23.10.2021
5135 Clear 5 1018 36 10000 1.01 213 02:20 23.10.2021
5136 Clear 5 1019 37 10000 0.77 215 23:41 22.10.2021
5137 Clear 6 1020 37 10000 0.91 323 21:39 22.10.2021
5138 Clear 7 1021 35 10000 0.7 338 19:43 22.10.2021
5139 Clear 8 1020 34 10000 1.04 42 18:27 22.10.2021
5140 Clear 9 1019 33 10000 1.71 39 16:44 22.10.2021
5141 Clear 12 1017 25 10000 3.41 23 14:45 22.10.2021
5142 Clouds 16 1013 18 10000 8.4 17 12:45 22.10.2021
5143 Clouds 17 1013 21 10000 7.25 26 10:57 22.10.2021
5144 Clouds 16 1015 25 10000 5.31 27 10:33 22.10.2021
5145 Clouds 16 1015 25 10000 5.31 27 09:35 22.10.2021
5146 Clouds 13 1017 41 10000 2.11 50 07:40 22.10.2021
5147 Clouds 12 1017 45 10000 2.5 35 07:21 22.10.2021
5148 Clouds 12 1017 45 10000 2.5 35 07:21 22.10.2021
5149 Clear 11 1013 35 10000 1.27 342 01:41 22.10.2021
5150 Clear 12 1013 30 10000 1.19 340 23:50 21.10.2021
5151 Clear 12 1013 29 10000 0.75 336 22:43 21.10.2021
5152 Clear 13 1014 28 10000 1.06 338 21:38 21.10.2021
5153 Clouds 15 1014 26 10000 2.01 351 20:24 21.10.2021
5154 Clouds 15 1014 26 10000 2.01 351 19:55 21.10.2021
5155 Clouds 16 1012 27 10000 1.98 25 19:25 21.10.2021
5156 Clouds 16 1012 27 10000 1.98 25 18:33 21.10.2021
5157 Clouds 17 1012 24 10000 1.94 22 17:51 21.10.2021
5158 Clouds 18 1011 20 10000 2.07 28 16:47 21.10.2021
5159 Clouds 19 1010 18 10000 2 6 15:29 21.10.2021
5160 Clouds 19 1010 18 10000 2 6 14:56 21.10.2021
5161 Clouds 19 1010 18 10000 2 6 14:37 21.10.2021
5162 Clear 24 1008 9 10000 1.76 83 11:56 21.10.2021
5163 Clear 22 1011 10 10000 2.06 155 09:39 21.10.2021
5164 Clear 20 1015 11 10000 1.06 189 07:54 21.10.2021
5165 Clear 19 1016 12 10000 1.19 202 06:45 21.10.2021
5166 Clear 12 1015 21 10000 0.61 240 00:39 21.10.2021
5167 Clear 14 1015 18 10000 1.09 31 22:29 20.10.2021
5168 Clear 14 1015 18 10000 1.09 31 21:48 20.10.2021
5169 Clear 14 1015 18 10000 0.95 39 20:58 20.10.2021
5170 Clear 14 1015 18 10000 0.95 39 20:39 20.10.2021
5171 Clear 15 1015 17 10000 1.03 53 20:18 20.10.2021
5172 Clear 15 1015 16 10000 0.82 51 19:23 20.10.2021
5173 Clear 16 1015 15 10000 1.22 69 18:29 20.10.2021
5174 Clear 16 1014 14 10000 0.8 39 16:37 20.10.2021
5175 Clear 22 1011 9 10000 2.05 52 13:54 20.10.2021
5176 Clear 22 1014 9 10000 2.1 176 09:54 20.10.2021
5177 Clear 17 1018 11 10000 1.78 200 05:34 20.10.2021
5178 Clear 11 1017 13 10000 1.65 215 02:35 20.10.2021
5179 Clear 12 1016 11 10000 1.66 212 00:33 20.10.2021
5180 Clear 12 1016 13 10000 1.17 211 22:37 19.10.2021
5181 Clear 12 1015 13 10000 0.96 233 21:37 19.10.2021
5182 Clear 13 1015 13 10000 0.45 276 20:26 19.10.2021
5183 Clear 13 1015 13 10000 0.45 276 19:59 19.10.2021
5184 Clear 13 1015 12 10000 0.51 272 19:36 19.10.2021
5185 Clear 14 1015 12 10000 0.51 330 18:40 19.10.2021
5186 Clear 14 1014 12 10000 0.83 349 17:47 19.10.2021
5187 Clear 17 1011 8 10000 1.31 30 15:29 19.10.2021
5188 Clear 17 1011 8 10000 1.31 30 14:37 19.10.2021
5189 Clear 21 1010 8 10000 1.11 166 13:52 19.10.2021
5190 Clear 22 1010 6 10000 2.32 161 12:23 19.10.2021
5191 Clear 22 1010 6 10000 2.36 159 11:24 19.10.2021
5192 Clear 21 1011 8 10000 2.29 171 09:55 19.10.2021
5193 Clear 20 1013 9 10000 2 182 08:56 19.10.2021
5194 Clear 11 1014 20 10000 2.04 200 02:18 19.10.2021
5195 Clear 12 1013 22 10000 1.69 200 23:59 18.10.2021
5196 Clear 12 1013 22 10000 1.69 200 23:40 18.10.2021
5197 Clear 13 1013 22 10000 1.62 199 22:56 18.10.2021
5198 Clear 13 1013 22 10000 1.58 196 22:18 18.10.2021
5199 Clear 14 1012 23 10000 1.49 199 20:50 18.10.2021
5200 Clear 14 1012 20 10000 1.86 207 20:30 18.10.2021
5201 Clear 15 1012 21 10000 1.78 206 19:32 18.10.2021
5202 Clear 15 1011 22 10000 1.3 204 18:59 18.10.2021
5203 Clear 16 1010 25 10000 0.73 351 16:48 18.10.2021
5204 Clear 18 1008 20 10000 0.96 14 14:47 18.10.2021
5205 Clear 21 1007 18 10000 1.64 101 12:20 18.10.2021
5206 Clear 20 1010 24 10000 1.22 127 10:22 18.10.2021
5207 Clear 19 1011 29 10000 0.9 143 09:25 18.10.2021
5208 Clear 12 1012 44 10000 0.4 247 01:23 18.10.2021
5209 Clear 13 1013 41 10000 0.96 311 22:56 17.10.2021
5210 Clear 14 1013 40 10000 1 327 21:45 17.10.2021
5211 Clear 14 1013 37 10000 1.42 17 20:57 17.10.2021
5212 Clear 15 1013 36 10000 1.36 15 20:26 17.10.2021
5213 Clear 15 1013 36 10000 1.36 15 19:38 17.10.2021
5214 Clear 15 1013 34 10000 1.58 22 18:35 17.10.2021
5215 Clear 17 1012 30 10000 1.93 11 16:49 17.10.2021
5216 Clear 18 1011 26 10000 3.08 81 14:40 17.10.2021
5217 Clouds 20 1010 22 10000 6.09 97 14:22 17.10.2021
5218 Clouds 20 1010 22 10000 6.09 97 13:33 17.10.2021
5219 Clouds 22 1010 21 10000 7.75 89 11:54 17.10.2021
5220 Clear 22 1011 22 10000 5.24 82 10:19 17.10.2021
5221 Clear 21 1013 24 10000 3.42 71 09:22 17.10.2021
5222 Clear 18 1015 26 10000 1.17 37 06:52 17.10.2021
5223 Clear 13 1013 41 10000 1.49 324 00:49 17.10.2021
5224 Clear 13 1013 38 10000 0.73 11 23:33 16.10.2021
5225 Clear 15 1014 29 10000 1.95 3 21:28 16.10.2021
5226 Clear 15 1014 29 10000 1.95 3 20:30 16.10.2021
5227 Clear 16 1014 27 10000 2.08 6 19:42 16.10.2021
5228 Clear 16 1014 25 10000 2.2 8 19:20 16.10.2021
5229 Clear 16 1014 25 10000 2.2 8 18:45 16.10.2021
5230 Clear 17 1013 24 10000 2.51 9 18:26 16.10.2021
5231 Clear 17 1013 24 10000 2.51 9 17:52 16.10.2021
5232 Clear 17 1013 22 10000 3.05 8 17:21 16.10.2021
5233 Clear 20 1010 13 10000 5.36 72 13:54 16.10.2021
5234 Clear 22 1010 9 10000 4.32 68 11:26 16.10.2021
5235 Clear 22 1011 8 10000 3.05 61 09:45 16.10.2021
5236 Clear 18 1014 9 10000 0.75 35 06:48 16.10.2021
5237 Clear 10 1012 16 10000 0.24 196 01:24 16.10.2021
5238 Clear 11 1013 16 10000 0.51 302 23:27 15.10.2021
5239 Clear 12 1013 16 10000 0.81 315 22:22 15.10.2021
5240 Clear 12 1013 16 10000 0.81 315 21:50 15.10.2021
5241 Clear 12 1013 15 10000 0.83 332 21:20 15.10.2021
5242 Clear 12 1013 15 10000 0.83 332 20:44 15.10.2021
5243 Clear 14 1012 13 10000 1.53 350 19:21 15.10.2021
5244 Clear 14 1012 13 10000 1.53 350 18:38 15.10.2021
5245 Clear 18 1011 10 10000 2.45 360 16:26 15.10.2021
5246 Clear 18 1009 9 10000 1.73 354 15:22 15.10.2021
5247 Clear 23 1009 6 10000 1.45 70 12:28 15.10.2021
5248 Clear 23 1009 6 10000 1.45 70 12:28 15.10.2021
5249 Clear 22 1010 6 10000 1.32 79 11:20 15.10.2021
5250 Clear 22 1010 6 10000 1.32 79 10:42 15.10.2021
5251 Clear 21 1013 6 10000 1.14 112 08:57 15.10.2021
5252 Clear 16 1016 7 10000 0.51 200 05:31 15.10.2021
5253 Clear 11 1015 11 10000 0.93 324 00:38 15.10.2021
5254 Clear 11 1015 11 10000 0.91 317 23:45 14.10.2021
5255 Clear 12 1015 11 10000 0.76 321 22:44 14.10.2021
5256 Clear 12 1015 11 10000 0.77 327 21:41 14.10.2021
5257 Clear 14 1015 11 10000 1.21 335 20:22 14.10.2021
5258 Clear 14 1015 11 10000 1.21 335 19:50 14.10.2021
5259 Clear 14 1015 10 10000 1.49 343 18:50 14.10.2021
5260 Clear 16 1014 9 10000 1.78 1 17:25 14.10.2021
5261 Clear 16 1014 9 10000 1.78 1 16:46 14.10.2021
5262 Clear 18 1012 8 10000 1.73 2 15:22 14.10.2021
5263 Clear 18 1012 8 10000 1.73 2 14:40 14.10.2021
5264 Clear 21 1012 11 10000 0.82 35 13:35 14.10.2021
5265 Clear 22 1012 6 10000 1.34 91 11:40 14.10.2021
5266 Clear 21 1014 7 10000 1.36 125 09:33 14.10.2021
5267 Clear 16 1017 8 10000 0.76 210 06:27 14.10.2021
5268 Clear 11 1015 14 10000 0.51 223 00:52 14.10.2021
5269 Clear 12 1015 14 10000 0.59 278 22:47 13.10.2021
5270 Clear 13 1015 13 10000 0.91 291 21:37 13.10.2021
5271 Clear 13 1015 14 10000 0.25 282 20:46 13.10.2021
5272 Clear 14 1015 13 10000 0.97 295 19:46 13.10.2021
5273 Clear 14 1015 13 10000 0.99 318 18:49 13.10.2021
5274 Clear 14 1015 13 10000 0.99 318 18:49 13.10.2021
5275 Clear 15 1014 13 10000 1.11 305 17:35 13.10.2021
5276 Clear 17 1013 10 10000 1.89 13 15:21 13.10.2021
5277 Clear 17 1013 10 10000 1.89 13 14:43 13.10.2021
5278 Clear 21 1011 4 10000 1.12 90 12:48 13.10.2021
5279 Clear 21 1012 4 10000 1.32 99 11:51 13.10.2021
5280 Clear 20 1013 5 10000 1.09 123 10:21 13.10.2021
5281 Clear 18 1016 5 10000 0.66 173 07:54 13.10.2021
5282 Clear 15 1017 6 10000 0.64 202 05:40 13.10.2021
5283 Clear 9 1016 11 10000 0.18 223 02:23 13.10.2021
5284 Clear 10 1015 10 10000 0.63 309 23:51 12.10.2021
5285 Clear 11 1015 10 10000 0.59 319 23:27 12.10.2021
5286 Clear 11 1015 10 10000 0.59 319 22:41 12.10.2021
5287 Clear 12 1015 10 10000 0.93 327 20:55 12.10.2021
5288 Clear 12 1015 10 10000 0.93 327 20:31 12.10.2021
5289 Clear 13 1015 9 10000 1.04 333 19:50 12.10.2021
5290 Clear 14 1015 9 10000 1.04 331 18:26 12.10.2021
5291 Clear 14 1015 9 10000 1.04 331 17:35 12.10.2021
5292 Clear 16 1014 7 10000 1.58 359 16:24 12.10.2021
5293 Clear 16 1014 7 10000 1.58 359 15:35 12.10.2021
5294 Clear 19 1012 5 10000 1.42 49 14:20 12.10.2021
5295 Clear 19 1012 5 10000 1.42 49 13:41 12.10.2021
5296 Clear 20 1012 4 10000 1.91 65 11:36 12.10.2021
5297 Clear 19 1014 5 10000 1.53 64 09:41 12.10.2021
5298 Clear 18 1016 6 10000 1.17 67 08:31 12.10.2021
5299 Clear 15 1018 9 10000 0.24 75 06:46 12.10.2021
5300 Clear 11 1019 11 10000 0.36 227 04:52 12.10.2021
5301 Clear 8 1018 15 10000 0.54 207 04:28 12.10.2021
5302 Clear 9 1016 16 10000 0.46 354 23:57 11.10.2021
5303 Clear 9 1016 16 10000 0.46 354 23:36 11.10.2021
5304 Clear 9 1016 16 10000 0.69 337 22:52 11.10.2021
5305 Clear 10 1016 15 10000 0.94 318 21:27 11.10.2021
5306 Clear 11 1016 15 10000 0.93 323 20:28 11.10.2021
5307 Clear 11 1016 15 10000 0.93 323 19:35 11.10.2021
5308 Clear 13 1015 12 10000 1.84 4 18:23 11.10.2021
5309 Clear 14 1014 9 10000 2.69 359 16:41 11.10.2021
5310 Clear 15 1013 8 10000 1.83 354 16:21 11.10.2021
5311 Clear 15 1013 8 10000 1.83 354 15:44 11.10.2021
5312 Clear 16 1012 8 10000 1.12 15 14:54 11.10.2021
5313 Clear 19 1011 6 10000 1.23 45 14:19 11.10.2021
5314 Clear 19 1011 6 10000 1.23 45 13:35 11.10.2021
5315 Clear 19 1012 8 10000 1.22 70 11:18 11.10.2021
5316 Clear 18 1013 10 10000 1 72 09:47 11.10.2021
5317 Clear 17 1014 13 10000 0.76 81 08:31 11.10.2021
5318 Clear 9 1015 30 10000 0.74 329 01:45 11.10.2021
5319 Clear 9 1015 29 10000 0.58 338 00:58 11.10.2021
5320 Clear 9 1015 29 10000 0.56 339 00:39 11.10.2021
5321 Clear 10 1015 29 10000 0.71 326 22:41 10.10.2021
5322 Clear 10 1016 29 10000 0.81 322 21:49 10.10.2021
5323 Clear 11 1015 28 10000 0.68 344 21:19 10.10.2021
5324 Clear 11 1015 28 10000 0.68 344 20:39 10.10.2021
5325 Clear 12 1015 26 10000 0.94 354 20:19 10.10.2021
5326 Clear 12 1015 26 10000 0.94 354 19:41 10.10.2021
5327 Clear 12 1015 26 10000 1.37 345 18:57 10.10.2021
5328 Clear 13 1014 25 10000 1.67 348 18:19 10.10.2021
5329 Clear 16 1011 26 10000 3.23 346 15:48 10.10.2021
5330 Clear 17 1009 28 10000 3.82 8 14:45 10.10.2021
5331 Clouds 19 1008 27 10000 6.39 19 13:40 10.10.2021
5332 Clouds 22 1006 24 10000 6.95 32 12:43 10.10.2021
5333 Clear 23 1005 16 10000 3.6 51 11:31 10.10.2021
5334 Clear 22 1008 20 10000 2.05 116 10:26 10.10.2021
5335 Clear 20 1009 25 10000 1.15 131 09:19 10.10.2021
5336 Clear 20 1009 25 10000 1.15 131 08:50 10.10.2021
5337 Clear 16 1012 33 10000 0.63 301 04:50 10.10.2021
5338 Clear 14 1011 39 10000 1.06 29 02:19 10.10.2021
5339 Clear 15 1010 36 10000 1 19 00:47 10.10.2021
5340 Clear 16 1010 33 10000 1.08 5 23:26 09.10.2021
5341 Clear 16 1011 32 10000 1.41 34 21:55 09.10.2021
5342 Clear 16 1011 32 10000 1.41 34 21:30 09.10.2021
5343 Clouds 17 1011 27 10000 1.47 27 20:19 09.10.2021
5344 Clouds 17 1011 27 10000 1.5 26 19:41 09.10.2021
5345 Clouds 18 1010 25 10000 1.65 18 18:48 09.10.2021
5346 Clouds 19 1010 24 10000 2.31 36 17:57 09.10.2021
5347 Clouds 20 1009 21 10000 1.99 60 16:20 09.10.2021
5348 Clear 24 1007 14 10000 3.9 56 14:28 09.10.2021
5349 Clear 24 1007 11 10000 2.87 84 13:38 09.10.2021
5350 Clear 25 1008 10 10000 2.17 148 12:27 09.10.2021
5351 Clear 24 1008 10 10000 2.1 167 10:45 09.10.2021
5352 Clear 23 1010 11 10000 1.88 167 10:19 09.10.2021
5353 Clear 23 1010 11 10000 1.88 167 10:19 09.10.2021
5354 Clear 22 1011 12 10000 1.33 162 08:45 09.10.2021
5355 Clear 21 1012 13 10000 0.87 164 08:20 09.10.2021
5356 Clear 20 1013 15 10000 0.71 180 06:37 09.10.2021
5357 Clear 17 1014 19 10000 0.59 238 04:43 09.10.2021
5358 Clear 13 1013 25 10000 0.27 317 02:46 09.10.2021
5359 Clear 14 1012 25 10000 0.39 189 00:24 09.10.2021
5360 Clear 14 1012 25 10000 0.39 189 23:31 08.10.2021
5361 Clear 15 1013 24 10000 0.81 308 22:46 08.10.2021
5362 Clear 15 1013 24 10000 0.66 322 21:44 08.10.2021
5363 Clear 16 1013 24 10000 0.79 350 19:49 08.10.2021
5364 Clear 18 1013 21 10000 1.74 2 18:23 08.10.2021
5365 Clear 19 1012 19 10000 1.85 355 16:55 08.10.2021
5366 Clear 20 1010 18 10000 1.66 350 16:24 08.10.2021
5367 Clear 21 1009 16 10000 2.35 21 14:57 08.10.2021
5368 Clear 23 1009 11 10000 5.87 31 13:46 08.10.2021
5369 Clear 25 1008 9 10000 2.16 43 11:42 08.10.2021
5370 Clear 25 1008 9 10000 1.57 72 10:42 08.10.2021
5371 Clear 24 1009 10 10000 1.37 75 09:47 08.10.2021
5372 Clear 14 1013 23 10000 0.76 292 03:38 08.10.2021
5373 Clear 15 1012 22 10000 0.83 319 23:25 07.10.2021
5374 Clear 15 1012 22 10000 0.83 319 22:35 07.10.2021
5375 Clear 17 1012 20 10000 1.19 343 21:28 07.10.2021
5376 Clear 17 1012 20 10000 1.1 341 20:39 07.10.2021
5377 Clear 17 1012 19 10000 0.83 359 19:32 07.10.2021
5378 Clear 18 1012 18 10000 0.85 27 18:41 07.10.2021
5379 Clear 19 1012 18 10000 0.78 20 17:32 07.10.2021
5380 Clear 21 1011 15 10000 2.67 348 16:25 07.10.2021
5381 Clear 23 1010 12 10000 4.77 360 14:48 07.10.2021
5382 Clear 26 1008 8 10000 2.52 6 13:43 07.10.2021
5383 Clear 26 1008 8 10000 0.62 116 12:53 07.10.2021
5384 Clear 26 1009 8 10000 1.6 158 10:58 07.10.2021
5385 Clear 25 1010 8 10000 1.52 163 10:22 07.10.2021
5386 Clear 25 1010 8 10000 1.52 163 09:42 07.10.2021
5387 Clear 24 1012 10 10000 1.28 177 08:53 07.10.2021
5388 Clear 23 1013 10 10000 1.2 193 07:58 07.10.2021
5389 Clear 23 1013 10 10000 1.2 193 07:38 07.10.2021
5390 Clear 21 1014 11 10000 1.12 203 06:36 07.10.2021
5391 Clear 16 1013 20 10000 0.5 255 00:29 07.10.2021
5392 Clear 16 1014 20 10000 0.42 298 22:59 06.10.2021
5393 Clear 16 1014 20 10000 0.83 315 22:24 06.10.2021
5394 Clear 17 1014 21 10000 0.92 321 21:24 06.10.2021
5395 Clear 18 1014 21 10000 0.98 339 20:28 06.10.2021
5396 Clear 19 1014 22 10000 1.64 358 18:43 06.10.2021
5397 Clear 21 1012 22 10000 2.01 353 17:19 06.10.2021
5398 Clear 22 1011 21 10000 1.76 354 15:34 06.10.2021
5399 Clear 23 1010 19 10000 1.6 20 14:34 06.10.2021
5400 Clear 25 1010 16 10000 1.81 77 13:24 06.10.2021
5401 Clear 25 1010 16 10000 1.81 77 12:46 06.10.2021
5402 Clear 25 1010 17 10000 1.71 103 12:24 06.10.2021
5403 Clear 24 1011 19 10000 1.52 113 10:37 06.10.2021
5404 Clear 24 1012 22 10000 1.28 128 09:39 06.10.2021
5405 Clear 23 1014 28 10000 0.96 146 08:57 06.10.2021
5406 Clear 22 1015 32 10000 1.25 179 07:54 06.10.2021
5407 Clear 19 1016 50 10000 1.41 200 05:38 06.10.2021
5408 Clear 16 1015 64 10000 0.85 235 01:37 06.10.2021
5409 Clear 16 1015 64 10000 0.42 256 00:20 06.10.2021
5410 Clear 16 1015 64 10000 0.42 256 23:50 05.10.2021
5411 Clear 17 1015 63 10000 0.47 326 23:29 05.10.2021
5412 Clear 17 1015 63 10000 0.47 326 23:29 05.10.2021
5413 Clear 17 1015 63 10000 0.47 326 22:30 05.10.2021
5414 Clear 17 1015 63 10000 0.77 352 21:56 05.10.2021
5415 Clear 17 1015 63 10000 0.77 352 21:56 05.10.2021
5416 Clear 17 1015 62 10000 0.91 23 21:19 05.10.2021
5417 Clear 18 1015 59 10000 1.1 25 20:26 05.10.2021
5418 Clear 18 1015 59 10000 1.1 25 19:50 05.10.2021
5419 Clear 18 1015 57 10000 1.16 35 19:22 05.10.2021
5420 Clear 19 1015 54 10000 1.28 51 17:40 05.10.2021
5421 Clear 21 1012 39 10000 3.28 55 15:28 05.10.2021
5422 Clear 24 1010 17 10000 2.48 65 13:49 05.10.2021
5423 Clear 24 1010 15 10000 1.7 75 13:18 05.10.2021
5424 Clear 24 1010 15 10000 1.7 75 12:33 05.10.2021
5425 Clear 24 1011 15 10000 1.25 69 11:41 05.10.2021
5426 Clear 24 1012 16 10000 0.83 60 10:34 05.10.2021
5427 Clear 20 1015 20 10000 0.31 46 06:59 05.10.2021
5428 Clear 15 1012 26 10000 0.63 344 00:58 05.10.2021
5429 Clear 16 1012 24 10000 0.92 5 22:51 04.10.2021
5430 Clear 17 1011 22 10000 1.41 12 20:51 04.10.2021
5431 Clear 19 1010 21 10000 1.56 36 18:48 04.10.2021
5432 Clear 20 1009 17 10000 1.83 30 16:55 04.10.2021
5433 Clear 21 1008 16 10000 1.91 17 15:32 04.10.2021
5434 Clear 22 1007 15 10000 2.45 49 14:44 04.10.2021
5435 Clear 24 1006 11 10000 2.88 56 13:58 04.10.2021
5436 Clear 24 1006 11 10000 2.88 56 13:31 04.10.2021
5437 Clear 25 1006 11 10000 2.34 61 12:38 04.10.2021
5438 Clear 24 1007 11 10000 1.97 72 11:33 04.10.2021
5439 Clear 24 1007 13 10000 1.76 82 10:44 04.10.2021
5440 Clear 23 1009 14 10000 1.46 81 09:33 04.10.2021
5441 Clear 20 1012 17 10000 0.82 78 07:53 04.10.2021
5442 Clear 13 1013 29 10000 0.45 265 03:44 04.10.2021
5443 Clear 14 1012 28 10000 0.8 339 22:48 03.10.2021
5444 Clear 15 1012 28 10000 0.88 332 21:52 03.10.2021
5445 Clear 15 1012 28 10000 0.88 332 21:52 03.10.2021
5446 Clear 15 1013 27 10000 1.07 336 21:29 03.10.2021
5447 Clear 15 1013 27 10000 1.07 336 20:44 03.10.2021
5448 Clear 16 1012 26 10000 1.13 352 19:42 03.10.2021
5449 Clear 18 1011 24 10000 1.79 358 18:29 03.10.2021
5450 Clear 18 1011 24 10000 1.79 358 17:36 03.10.2021
5451 Clear 22 1008 18 10000 4.64 6 14:50 03.10.2021
5452 Clear 25 1006 15 10000 3.49 22 14:29 03.10.2021
5453 Clear 25 1006 15 10000 3.49 22 13:35 03.10.2021
5454 Clear 26 1005 16 10000 2.11 48 12:44 03.10.2021
5455 Clear 25 1007 18 10000 1.47 98 10:58 03.10.2021
5456 Clear 24 1008 20 10000 1.24 106 09:42 03.10.2021
5457 Clear 17 1013 33 10000 0.48 351 05:25 03.10.2021
5458 Clear 16 1013 36 10000 0.88 314 22:49 02.10.2021
5459 Clear 17 1013 35 10000 1.04 331 21:49 02.10.2021
5460 Clear 18 1013 31 10000 1.4 349 20:18 02.10.2021
5461 Clear 18 1013 31 10000 1.4 349 20:18 02.10.2021
5462 Clear 19 1012 29 10000 1.62 351 18:56 02.10.2021
5463 Clear 19 1012 29 10000 1.62 351 18:56 02.10.2021
5464 Clear 20 1012 28 10000 1.92 356 18:18 02.10.2021
5465 Clear 20 1012 28 10000 1.92 356 17:36 02.10.2021
5466 Clear 22 1009 26 10000 3.24 2 16:22 02.10.2021
5467 Clear 22 1012 34 10000 0.65 46 06:47 02.10.2021
5468 Clear 24 1010 48 10000 2.64 68 15:37 30.09.2021
5469 Clear 27 1008 34 10000 4.88 71 13:54 30.09.2021
5470 Clear 28 1008 29 10000 3.28 72 11:53 30.09.2021
5471 Clear 28 1009 31 10000 2.69 77 10:52 30.09.2021
5472 Clear 27 1011 34 10000 2.16 76 10:20 30.09.2021
5473 Clear 26 1012 37 10000 1.63 78 08:30 30.09.2021
5474 Clear 25 1013 41 10000 1.2 80 07:34 30.09.2021
5475 Clear 21 1015 55 10000 0.24 345 05:23 30.09.2021
5476 Clear 18 1014 65 10000 0.74 15 01:36 30.09.2021
5477 Clear 19 1014 66 10000 1.1 313 00:23 30.09.2021
5478 Clear 20 1013 66 10000 1.34 1 22:38 29.09.2021
5479 Clear 21 1013 64 10000 1.21 34 21:27 29.09.2021
5480 Clear 21 1013 59 10000 1.63 39 20:28 29.09.2021
5481 Clear 21 1013 59 10000 1.63 39 19:54 29.09.2021
5482 Clear 22 1012 56 10000 1.98 38 18:50 29.09.2021
5483 Clear 23 1012 54 10000 1.82 35 17:41 29.09.2021
5484 Clear 23 1011 52 10000 1.6 45 16:48 29.09.2021
5485 Clear 24 1011 49 10000 2.48 67 15:58 29.09.2021
5486 Clear 26 1010 42 10000 5.02 64 14:39 29.09.2021
5487 Clear 28 1008 31 10000 4.72 60 13:58 29.09.2021
5488 Clear 28 1008 28 10000 3.48 64 13:18 29.09.2021
5489 Clear 28 1008 28 10000 2.76 69 12:19 29.09.2021
5490 Clear 28 1009 30 10000 2.26 73 10:49 29.09.2021
5491 Clear 27 1011 35 10000 1.82 69 09:51 29.09.2021
5492 Clear 26 1012 40 10000 1.52 64 09:24 29.09.2021
5493 Clear 25 1013 45 10000 1.43 66 07:32 29.09.2021
5494 Clear 19 1014 66 10000 0.48 352 03:58 29.09.2021
5495 Clear 19 1013 67 10000 0.42 356 23:26 28.09.2021
5496 Clear 20 1012 65 10000 0.7 27 22:23 28.09.2021
5497 Clear 20 1012 65 10000 0.7 27 21:44 28.09.2021
5498 Clear 21 1012 62 10000 1.24 40 20:38 28.09.2021
5499 Clear 21 1012 57 10000 1.31 40 19:46 28.09.2021
5500 Clear 22 1012 53 10000 1.47 39 18:46 28.09.2021
5501 Clear 22 1011 49 10000 1.62 46 17:59 28.09.2021
5502 Clear 24 1009 38 10000 2.61 47 16:23 28.09.2021
5503 Clear 27 1008 30 10000 2.45 59 13:49 28.09.2021
5504 Clear 27 1008 28 10000 2.14 63 12:48 28.09.2021
5505 Clear 27 1009 28 10000 1.82 68 12:19 28.09.2021
5506 Clear 27 1009 28 10000 1.82 68 11:45 28.09.2021
5507 Clear 26 1010 30 10000 1.49 73 10:58 28.09.2021
5508 Clear 25 1011 34 10000 1.24 78 09:53 28.09.2021
5509 Clear 24 1012 39 10000 1.05 78 08:58 28.09.2021
5510 Clear 24 1012 39 10000 1.05 78 08:38 28.09.2021
5511 Clear 23 1013 45 10000 1.07 70 07:31 28.09.2021
5512 Clear 20 1015 37 10000 0.7 341 05:28 28.09.2021
5513 Clear 18 1012 48 10000 0.67 358 01:23 28.09.2021
5514 Clear 18 1012 48 10000 0.99 345 00:25 28.09.2021
5515 Clear 18 1012 48 10000 0.99 345 23:41 27.09.2021
5516 Clear 18 1012 50 10000 1.07 359 22:55 27.09.2021
5517 Clear 19 1012 49 10000 1.38 14 21:44 27.09.2021
5518 Clear 20 1012 47 10000 1.54 20 20:44 27.09.2021
5519 Clear 20 1011 42 10000 1.55 30 19:55 27.09.2021
5520 Clear 21 1011 37 10000 1.48 32 19:27 27.09.2021
5521 Clear 21 1011 37 10000 1.48 32 18:49 27.09.2021
5522 Clear 22 1010 24 10000 1.63 26 17:29 27.09.2021
5523 Clear 22 1010 24 10000 1.63 26 16:49 27.09.2021
5524 Clear 23 1009 20 10000 1.82 18 15:44 27.09.2021
5525 Clear 24 1008 20 10000 1.33 31 15:18 27.09.2021
5526 Clear 27 1007 10 10000 1.07 45 13:32 27.09.2021
5527 Clear 27 1008 10 10000 1.09 57 11:31 27.09.2021
5528 Clear 27 1009 11 10000 1.21 35 10:32 27.09.2021
5529 Clear 25 1012 16 10000 1.27 28 08:50 27.09.2021
5530 Clear 20 1015 29 10000 1.46 357 05:22 27.09.2021
5531 Clear 17 1013 44 10000 1.55 359 03:18 27.09.2021
5532 Clear 19 1011 49 10000 1.38 26 22:33 26.09.2021
5533 Clear 20 1010 47 10000 1.37 40 21:50 26.09.2021
5534 Clear 20 1010 45 10000 1.49 38 21:25 26.09.2021
5535 Clear 21 1010 43 10000 1.44 38 20:21 26.09.2021
5536 Clear 21 1010 43 10000 1.44 38 19:48 26.09.2021
5537 Clear 22 1010 40 10000 1.37 42 18:46 26.09.2021
5538 Clear 22 1009 36 10000 1.75 54 17:57 26.09.2021
5539 Clear 23 1009 30 10000 1.96 45 17:22 26.09.2021
5540 Clear 23 1009 30 10000 1.96 45 16:54 26.09.2021
5541 Clear 24 1008 23 10000 2.11 26 15:59 26.09.2021
5542 Clear 26 1007 21 10000 2.43 41 14:59 26.09.2021
5543 Clear 28 1006 15 10000 2.53 46 13:57 26.09.2021
5544 Clear 29 1006 14 10000 2.31 49 13:20 26.09.2021
5545 Clear 28 1006 14 10000 2.07 52 12:25 26.09.2021
5546 Clear 28 1006 14 10000 2.07 52 11:42 26.09.2021
5547 Clear 28 1007 15 10000 1.71 52 10:30 26.09.2021
5548 Clear 26 1010 19 10000 1.02 56 09:20 26.09.2021
5549 Clear 24 1011 21 10000 0.98 48 07:39 26.09.2021
5550 Clear 17 1010 30 10000 0.84 347 00:23 26.09.2021
5551 Clear 17 1010 30 10000 0.84 347 23:30 25.09.2021
5552 Clear 18 1010 30 10000 0.98 4 22:38 25.09.2021
5553 Clear 18 1010 28 10000 1.26 13 21:55 25.09.2021
5554 Clear 18 1010 28 10000 1.26 13 21:32 25.09.2021
5555 Clear 19 1010 27 10000 1.43 8 20:50 25.09.2021
5556 Clear 20 1010 28 10000 1.72 10 19:31 25.09.2021
5557 Clear 22 1009 20 10000 1.92 34 18:25 25.09.2021
5558 Clear 24 1007 12 10000 1.68 31 15:56 25.09.2021
5559 Clear 29 1006 9 10000 2.4 57 13:58 25.09.2021
5560 Clear 29 1006 9 10000 2.4 57 13:32 25.09.2021
5561 Clear 29 1006 11 10000 2.35 82 12:28 25.09.2021
5562 Clear 28 1007 13 10000 2.07 90 10:35 25.09.2021
5563 Clear 27 1009 15 10000 1.87 99 09:40 25.09.2021
5564 Clear 25 1011 21 10000 0.87 84 08:20 25.09.2021
5565 Clear 21 1013 36 10000 0.17 44 06:26 25.09.2021
5566 Clear 18 1012 63 10000 1.2 5 23:55 24.09.2021
5567 Clear 19 1012 62 10000 1.08 35 21:50 24.09.2021
5568 Clear 20 1012 60 10000 1.45 35 20:49 24.09.2021
5569 Clouds 21 1012 54 10000 1.84 30 19:58 24.09.2021
5570 Clouds 21 1011 51 10000 2.06 23 18:35 24.09.2021
5571 Clouds 22 1011 48 10000 1.71 35 17:55 24.09.2021
5572 Clouds 22 1011 48 10000 1.71 35 17:37 24.09.2021
5573 Clouds 23 1010 44 10000 2.06 68 17:18 24.09.2021
5574 Clear 24 1008 41 10000 2.17 63 14:31 24.09.2021
5575 Clear 26 1008 31 10000 2.7 59 13:18 24.09.2021
5576 Clear 26 1008 31 10000 2.7 59 12:40 24.09.2021
5577 Clear 26 1009 33 10000 2.11 73 12:22 24.09.2021
5578 Clear 24 1011 41 10000 1.69 91 10:27 24.09.2021
5579 Clear 23 1012 48 10000 1.35 90 08:55 24.09.2021
5580 Clear 22 1014 56 10000 1.29 76 07:34 24.09.2021
5581 Clear 20 1014 63 10000 1.18 70 06:46 24.09.2021
5582 Clear 19 1014 73 10000 0.38 34 04:55 24.09.2021
5583 Clear 18 1013 79 10000 1.09 16 00:26 24.09.2021
5584 Clear 18 1013 78 10000 1.2 25 22:30 23.09.2021
5585 Clear 19 1012 76 10000 1.4 46 21:56 23.09.2021
5586 Clear 19 1012 73 10000 1.62 44 20:34 23.09.2021
5587 Clear 20 1011 72 10000 1.72 44 19:46 23.09.2021
5588 Clear 21 1011 66 10000 1.93 56 17:47 23.09.2021
5589 Clear 22 1009 59 10000 2.68 56 15:32 23.09.2021
5590 Clear 23 1008 51 10000 3.41 60 14:59 23.09.2021
5591 Clear 26 1006 28 10000 4.33 62 13:46 23.09.2021
5592 Clear 27 1006 23 10000 2.93 60 13:20 23.09.2021
5593 Clear 27 1006 23 10000 2.93 60 12:52 23.09.2021
5594 Clear 27 1007 23 10000 2.19 55 12:22 23.09.2021
5595 Clear 27 1007 23 10000 2.19 55 12:22 23.09.2021
5596 Clear 27 1007 23 10000 2.19 55 11:40 23.09.2021
5597 Clear 25 1009 27 10000 1.19 51 10:26 23.09.2021
5598 Clear 25 1009 27 10000 1.19 51 09:52 23.09.2021
5599 Clear 23 1011 36 10000 1.19 47 08:25 23.09.2021
5600 Clear 17 1012 40 10000 0.52 0 04:27 23.09.2021
5601 Clear 18 1009 37 10000 1.31 332 23:27 22.09.2021
5602 Clear 19 1009 40 10000 1.1 4 22:29 22.09.2021
5603 Clear 19 1009 40 10000 1.1 4 21:56 22.09.2021
5604 Clear 19 1009 40 10000 1.1 4 21:34 22.09.2021
5605 Clear 19 1009 38 10000 1.61 3 20:54 22.09.2021
5606 Clear 20 1009 37 10000 1.86 2 19:32 22.09.2021
5607 Clear 21 1009 35 10000 1.92 357 18:39 22.09.2021
5608 Clear 21 1009 35 10000 1.92 357 18:39 22.09.2021
5609 Clear 22 1008 38 10000 2.53 13 17:48 22.09.2021
5610 Clear 23 1007 41 10000 3.08 36 16:38 22.09.2021
5611 Clear 26 1004 26 10000 4.54 56 15:19 22.09.2021
5612 Clear 27 1004 26 10000 6.26 60 13:48 22.09.2021
5613 Clear 28 1003 15 10000 4.06 58 11:59 22.09.2021
5614 Clear 28 1004 16 10000 2.79 66 10:53 22.09.2021
5615 Clear 26 1007 18 10000 1.43 75 09:25 22.09.2021
5616 Clear 26 1007 18 10000 1.43 75 08:30 22.09.2021
5617 Clear 23 1009 19 10000 0.76 58 07:21 22.09.2021
5618 Clear 21 1009 21 10000 0.22 26 05:56 22.09.2021
5619 Clear 21 1009 21 10000 0.22 26 05:34 22.09.2021
5620 Clear 17 1009 30 10000 0.38 286 03:52 22.09.2021
5621 Clear 17 1008 29 10000 0.4 325 00:22 22.09.2021
5622 Clear 18 1008 29 10000 0.95 320 22:56 21.09.2021
5623 Clear 18 1009 29 10000 1.38 339 21:36 21.09.2021
5624 Clear 20 1009 30 10000 1.72 350 20:26 21.09.2021
5625 Clear 21 1008 30 10000 1.95 350 19:22 21.09.2021
5626 Clear 22 1007 36 10000 2.44 3 17:36 21.09.2021
5627 Clear 23 1006 38 10000 3.23 26 16:35 21.09.2021
5628 Clear 25 1005 36 10000 3.89 52 15:44 21.09.2021
5629 Clear 26 1004 27 10000 5.34 57 14:58 21.09.2021
5630 Clear 29 1003 16 10000 4.75 65 13:56 21.09.2021
5631 Clear 29 1003 16 10000 4.75 65 13:36 21.09.2021
5632 Clear 30 1003 12 10000 3.45 70 12:35 21.09.2021
5633 Clear 29 1004 15 10000 2.22 76 10:32 21.09.2021
5634 Clear 26 1009 21 10000 0.88 80 08:29 21.09.2021
5635 Clear 24 1009 22 10000 0.49 59 07:18 21.09.2021
5636 Clear 18 1010 28 10000 0.43 256 00:30 21.09.2021
5637 Clear 20 1010 30 10000 1.32 337 22:27 20.09.2021
5638 Clear 20 1010 30 10000 1.32 337 21:40 20.09.2021
5639 Clear 20 1010 30 10000 1.6 352 20:55 20.09.2021
5640 Clear 21 1010 36 10000 1.74 359 19:33 20.09.2021
5641 Clear 23 1009 45 10000 2.13 25 17:52 20.09.2021
5642 Clear 24 1008 43 10000 3.59 35 16:49 20.09.2021
5643 Clear 25 1006 41 10000 4.05 52 15:56 20.09.2021
5644 Clear 25 1006 41 10000 4.05 52 15:32 20.09.2021
5645 Clear 30 1004 16 10000 3.05 64 14:25 20.09.2021
5646 Clear 30 1004 15 10000 2.23 78 12:36 20.09.2021
5647 Clear 30 1005 18 10000 1.72 70 11:44 20.09.2021
5648 Clear 28 1007 22 10000 1 77 10:24 20.09.2021
5649 Clear 28 1007 22 10000 1 77 09:43 20.09.2021
5650 Clear 27 1009 20 10000 1.02 70 09:20 20.09.2021
5651 Clear 26 1010 22 10000 0.97 56 08:27 20.09.2021
5652 Clear 18 1011 31 10000 0.81 325 01:43 20.09.2021
5653 Clear 21 1010 49 10000 1.38 6 22:26 19.09.2021
5654 Clear 21 1010 49 10000 1.38 6 21:43 19.09.2021
5655 Clear 22 1010 52 10000 1.54 15 20:53 19.09.2021
5656 Clear 23 1010 54 10000 1.92 22 19:32 19.09.2021
5657 Clear 23 1010 53 10000 2.03 30 18:30 19.09.2021
5658 Clear 25 1009 47 10000 2.23 54 17:23 19.09.2021
5659 Clear 26 1008 42 10000 3.25 67 15:59 19.09.2021
5660 Clear 26 1008 42 10000 3.25 67 15:31 19.09.2021
5661 Clear 28 1007 30 10000 3.77 64 14:48 19.09.2021
5662 Clouds 29 1007 22 10000 1.05 48 13:29 19.09.2021
5663 Clouds 29 1007 22 10000 1.05 48 12:51 19.09.2021
5664 Clear 28 1009 27 10000 0.77 44 11:28 19.09.2021
5665 Clear 28 1009 27 10000 0.77 44 10:56 19.09.2021
5666 Clear 27 1010 31 10000 0.81 37 09:49 19.09.2021
5667 Clear 26 1011 36 10000 0.93 38 08:35 19.09.2021
5668 Clear 23 1013 45 10000 1.37 35 06:42 19.09.2021
5669 Clear 19 1010 56 10000 0.88 18 23:53 18.09.2021
5670 Clear 20 1010 55 10000 1.11 29 22:31 18.09.2021
5671 Clear 21 1010 51 10000 1.3 33 20:56 18.09.2021
5672 Clear 21 1010 51 10000 1.3 33 20:36 18.09.2021
5673 Clear 22 1010 46 10000 1.39 33 19:40 18.09.2021
5674 Clear 23 1010 43 10000 1.51 33 19:20 18.09.2021
5675 Clear 23 1010 43 10000 1.51 33 18:32 18.09.2021
5676 Clear 23 1010 39 10000 1.76 44 17:34 18.09.2021
5677 Clear 25 1007 25 10000 2.73 58 16:20 18.09.2021
5678 Clear 29 1007 13 10000 1.32 44 13:49 18.09.2021
5679 Clear 29 1006 14 10000 2.14 58 13:29 18.09.2021
5680 Clear 29 1006 14 10000 2.14 58 12:49 18.09.2021
5681 Clear 29 1006 14 10000 2.04 51 11:41 18.09.2021
5682 Clear 29 1007 15 10000 1.71 51 10:32 18.09.2021
5683 Clear 27 1009 18 10000 1.38 47 09:28 18.09.2021
5684 Clear 27 1009 18 10000 1.38 47 08:59 18.09.2021
5685 Clear 22 1012 23 10000 0.9 26 05:49 18.09.2021
5686 Clear 17 1010 29 10000 0.54 309 00:41 18.09.2021
5687 Clear 17 1009 30 10000 0.5 292 23:49 17.09.2021
5688 Clear 18 1009 30 10000 0.56 347 22:38 17.09.2021
5689 Clear 18 1009 29 10000 0.92 14 22:19 17.09.2021
5690 Clear 19 1009 26 10000 1.31 18 20:51 17.09.2021
5691 Clear 21 1008 21 10000 1.31 38 19:22 17.09.2021
5692 Clear 22 1007 14 10000 1.59 58 17:21 17.09.2021
5693 Clear 24 1006 11 10000 2.19 58 16:24 17.09.2021
5694 Clear 30 1004 5 10000 2.47 59 13:21 17.09.2021
5695 Clear 29 1005 6 10000 1.68 80 10:42 17.09.2021
5696 Clear 27 1007 7 10000 1.28 96 08:45 17.09.2021
5697 Clear 23 1010 9 10000 0.59 97 06:53 17.09.2021
5698 Clear 15 1009 17 10000 0.44 314 01:26 17.09.2021
5699 Clear 16 1009 16 10000 0.77 336 23:23 16.09.2021
5700 Clear 17 1009 16 10000 0.92 331 22:25 16.09.2021
5701 Clear 17 1009 16 10000 0.92 331 21:41 16.09.2021
5702 Clear 17 1009 15 10000 1.05 336 21:22 16.09.2021
5703 Clear 18 1009 15 10000 1.13 345 20:18 16.09.2021
5704 Clear 18 1009 15 10000 1.13 345 20:18 16.09.2021
5705 Clear 21 1008 12 10000 2 358 18:20 16.09.2021
5706 Clear 21 1008 12 10000 2 358 17:32 16.09.2021
5707 Clear 27 1005 7 10000 2.98 21 14:56 16.09.2021
5708 Clear 29 1004 5 10000 1.34 66 13:56 16.09.2021
5709 Clear 29 1004 5 10000 1.32 95 12:49 16.09.2021
5710 Clear 29 1005 5 10000 1.35 110 12:28 16.09.2021
5711 Clear 29 1006 5 10000 1.47 128 11:25 16.09.2021
5712 Clear 29 1006 5 10000 1.47 128 10:31 16.09.2021
5713 Clear 27 1007 6 10000 1.5 131 09:53 16.09.2021
5714 Clear 26 1009 6 10000 1.09 133 08:42 16.09.2021
5715 Clear 23 1012 8 10000 0.24 87 07:22 16.09.2021
5716 Clear 23 1012 8 10000 0.24 87 06:39 16.09.2021
5717 Clear 19 1013 9 10000 0.35 301 04:34 16.09.2021
5718 Clear 15 1012 12 10000 0.81 331 01:27 16.09.2021
5719 Clear 16 1012 12 10000 0.93 332 23:37 15.09.2021
5720 Clear 17 1012 11 10000 0.93 328 22:47 15.09.2021
5721 Clear 17 1012 11 10000 1.11 340 21:44 15.09.2021
5722 Clear 18 1012 10 10000 1.48 348 21:25 15.09.2021
5723 Clear 19 1011 10 10000 1.66 353 19:52 15.09.2021
5724 Clear 21 1011 9 10000 2.04 354 19:19 15.09.2021
5725 Clear 22 1011 8 10000 2.35 358 17:49 15.09.2021
5726 Clear 23 1010 7 10000 2.65 360 16:54 15.09.2021
5727 Clear 25 1008 6 10000 3.46 3 15:33 15.09.2021
5728 Clear 28 1007 6 10000 2.8 11 14:44 15.09.2021
5729 Clear 29 1007 6 10000 2.15 34 13:51 15.09.2021
5730 Clear 29 1007 7 10000 1.53 66 13:29 15.09.2021
5731 Clear 29 1007 7 10000 1.53 66 12:42 15.09.2021
5732 Clear 29 1007 8 10000 1.32 85 11:51 15.09.2021
5733 Clear 28 1008 10 10000 1.14 96 11:19 15.09.2021
5734 Clear 28 1008 10 10000 1.14 96 10:50 15.09.2021
5735 Clear 26 1011 12 10000 0.6 97 09:26 15.09.2021
5736 Clear 25 1012 16 10000 0.61 37 07:37 15.09.2021
5737 Clear 19 1014 20 10000 0.62 337 04:19 15.09.2021
5738 Clear 20 1011 33 10000 1.36 348 22:56 14.09.2021
5739 Clear 21 1011 38 10000 1.71 5 21:38 14.09.2021
5740 Clear 22 1010 39 10000 2.08 29 20:27 14.09.2021
5741 Clear 22 1010 35 10000 1.97 25 19:41 14.09.2021
5742 Clear 24 1009 27 10000 1.8 26 17:34 14.09.2021
5743 Clear 25 1009 21 10000 1.91 14 16:56 14.09.2021
5744 Clear 27 1007 15 10000 2.14 13 15:27 14.09.2021
5745 Clear 28 1007 13 10000 1.45 28 14:28 14.09.2021
5746 Clear 29 1007 12 10000 1.67 50 11:51 14.09.2021
5747 Clear 28 1007 13 10000 1.49 52 10:53 14.09.2021
5748 Clear 27 1009 15 10000 1.35 50 09:50 14.09.2021
5749 Clear 26 1010 18 10000 1.3 48 08:36 14.09.2021
5750 Clear 21 1013 22 10000 0.76 13 06:22 14.09.2021
5751 Clear 17 1010 22 10000 0.9 343 23:36 13.09.2021
5752 Clear 19 1010 22 10000 1.36 341 22:30 13.09.2021
5753 Clear 19 1010 22 10000 1.36 341 21:59 13.09.2021
5754 Clear 19 1010 22 10000 1.36 341 21:39 13.09.2021
5755 Clear 20 1009 27 10000 1.72 0 19:48 13.09.2021
5756 Clear 21 1008 29 10000 2.25 7 18:45 13.09.2021
5757 Clear 21 1008 29 10000 2.25 7 18:45 13.09.2021
5758 Clear 22 1008 29 10000 2.52 15 17:41 13.09.2021
5759 Clear 23 1007 27 10000 1.9 33 16:50 13.09.2021
5760 Clear 27 1004 11 10000 2.64 49 14:56 13.09.2021
5761 Clear 27 1004 11 10000 2.64 49 14:56 13.09.2021
5762 Clear 28 1003 9 10000 2.12 65 11:52 13.09.2021
5763 Clear 27 1004 10 10000 1.88 72 10:58 13.09.2021
5764 Clear 25 1007 12 10000 1.38 80 08:55 13.09.2021
5765 Clear 16 1008 26 10000 0.65 316 00:48 13.09.2021
5766 Clear 17 1008 27 10000 0.78 331 22:52 12.09.2021
5767 Clear 18 1008 28 10000 1.18 336 22:23 12.09.2021
5768 Clear 19 1008 30 10000 1.79 347 21:23 12.09.2021
5769 Clear 20 1008 26 10000 1.95 348 20:19 12.09.2021
5770 Clear 20 1008 26 10000 1.95 348 19:37 12.09.2021
5771 Clear 21 1007 29 10000 2.1 2 19:18 12.09.2021
5772 Clear 22 1007 29 10000 2.8 9 18:18 12.09.2021
5773 Clear 24 1004 18 10000 3.92 10 15:58 12.09.2021
5774 Clear 27 1003 14 10000 4.45 19 14:47 12.09.2021
5775 Clear 28 1002 16 10000 2.21 58 12:45 12.09.2021
5776 Clear 27 1004 19 10000 1.67 74 10:33 12.09.2021
5777 Clear 25 1006 21 10000 1.2 73 08:39 12.09.2021
5778 Clear 24 1008 23 10000 1.11 49 07:33 12.09.2021
5779 Clear 18 1009 42 10000 0.96 344 00:47 12.09.2021
5780 Clear 18 1009 42 10000 0.96 344 00:47 12.09.2021
5781 Clear 19 1009 44 10000 1.66 337 22:59 11.09.2021
5782 Clear 19 1009 50 10000 1.78 353 21:39 11.09.2021
5783 Clouds 21 1008 60 10000 2.28 12 19:41 11.09.2021
5784 Clouds 21 1008 60 10000 3.15 34 18:30 11.09.2021
5785 Clouds 23 1006 58 10000 3.22 46 17:29 11.09.2021
5786 Clouds 24 1005 50 10000 4.28 65 15:37 11.09.2021
5787 Clear 29 1003 18 10000 4.94 65 13:25 11.09.2021
5788 Clear 29 1004 15 10000 3.2 67 11:44 11.09.2021
5789 Clear 28 1005 15 10000 2.14 68 10:40 11.09.2021
5790 Clear 26 1007 17 10000 1.43 73 08:54 11.09.2021
5791 Clear 24 1009 18 10000 1.17 73 07:44 11.09.2021
5792 Clear 18 1011 31 10000 0.34 242 04:23 11.09.2021
5793 Clear 18 1010 31 10000 0.81 344 22:47 10.09.2021
5794 Clear 18 1010 29 10000 1.46 334 22:18 10.09.2021
5795 Clear 18 1010 29 10000 1.46 334 21:40 10.09.2021
5796 Clear 20 1010 27 10000 1.78 359 19:32 10.09.2021
5797 Clear 22 1008 23 10000 2.5 6 17:58 10.09.2021
5798 Clear 24 1006 19 10000 4.13 9 16:28 10.09.2021
5799 Clear 29 1003 12 10000 2.6 46 13:29 10.09.2021
5800 Clear 29 1005 13 10000 1.84 57 10:54 10.09.2021
5801 Clear 25 1009 18 10000 1.15 36 08:26 10.09.2021
5802 Clear 25 1009 18 10000 1.17 37 07:43 10.09.2021
5803 Clear 17 1010 30 10000 0.73 318 00:40 10.09.2021
5804 Clear 19 1010 25 10000 1.72 353 21:54 09.09.2021
5805 Clear 20 1010 24 10000 1.84 356 20:48 09.09.2021
5806 Clear 21 1009 23 10000 1.88 2 20:28 09.09.2021
5807 Clear 22 1008 21 10000 2.22 10 18:46 09.09.2021
5808 Clear 23 1008 19 10000 2.76 14 17:51 09.09.2021
5809 Clear 24 1007 18 10000 2.77 9 16:39 09.09.2021
5810 Clear 29 1004 12 10000 3.42 16 15:26 09.09.2021
5811 Clear 30 1003 11 10000 1.93 65 12:33 09.09.2021
5812 Clear 29 1005 11 10000 1.63 88 11:23 09.09.2021
5813 Clear 28 1006 12 10000 1.48 89 09:39 09.09.2021
5814 Clear 26 1009 14 10000 0.96 60 07:56 09.09.2021
5815 Clear 22 1011 18 10000 0.32 45 05:51 09.09.2021
5816 Clear 17 1010 25 10000 0.79 347 00:33 09.09.2021
5817 Clear 19 1010 22 10000 1 334 21:49 08.09.2021
5818 Clear 20 1010 20 10000 1.52 353 20:54 08.09.2021
5819 Clear 21 1010 18 10000 1.98 2 19:46 08.09.2021
5820 Clear 22 1010 17 10000 1.93 10 18:47 08.09.2021
5821 Clear 23 1009 16 10000 2.11 15 18:25 08.09.2021
5822 Clear 23 1009 16 10000 2.11 15 17:40 08.09.2021
5823 Clear 26 1007 14 10000 3.79 5 15:49 08.09.2021
5824 Clear 31 1004 8 10000 4.31 21 13:45 08.09.2021
5825 Clear 31 1004 8 10000 2.86 34 12:41 08.09.2021
5826 Clear 31 1005 8 10000 2.17 45 12:23 08.09.2021
5827 Clear 31 1006 9 10000 1.75 49 11:26 08.09.2021
5828 Clear 31 1006 9 10000 1.75 49 10:31 08.09.2021
5829 Clear 30 1007 10 10000 1.56 52 09:56 08.09.2021
5830 Clear 27 1010 12 10000 1.25 43 07:45 08.09.2021
5831 Clear 25 1011 13 10000 1.26 44 07:19 08.09.2021
5832 Clear 21 1010 24 10000 1.41 316 23:28 07.09.2021
5833 Clear 22 1010 25 10000 1.56 338 22:19 07.09.2021
5834 Clear 23 1010 27 10000 1.87 359 20:42 07.09.2021
5835 Clear 25 1010 26 10000 2.99 13 18:53 07.09.2021
5836 Clear 26 1009 22 10000 2.91 15 18:28 07.09.2021
5837 Clear 27 1008 18 10000 2.51 16 17:25 07.09.2021
5838 Clear 29 1007 13 10000 3.46 14 15:57 07.09.2021
5839 Clear 31 1006 10 10000 2.69 22 14:53 07.09.2021
5840 Clear 32 1005 8 10000 1.75 39 13:52 07.09.2021
5841 Clear 32 1005 8 10000 1.75 39 13:52 07.09.2021
5842 Clear 32 1005 9 10000 1.36 73 11:58 07.09.2021
5843 Clear 31 1006 10 10000 1.47 64 10:50 07.09.2021
5844 Clear 31 1008 12 10000 1.37 69 09:40 07.09.2021
5845 Clear 28 1011 20 10000 1.29 45 07:47 07.09.2021
5846 Clear 25 1012 28 10000 1.33 33 06:19 07.09.2021
5847 Clear 19 1011 28 10000 0.84 8 02:38 07.09.2021
5848 Clear 20 1010 22 10000 0.64 10 00:55 07.09.2021
5849 Clear 21 1010 22 10000 0.53 322 23:46 06.09.2021
5850 Clear 21 1010 23 10000 0.88 308 23:28 06.09.2021
5851 Clear 21 1010 23 10000 0.88 308 22:49 06.09.2021
5852 Clear 22 1010 25 10000 1.04 322 21:52 06.09.2021
5853 Clear 24 1010 29 10000 1.87 11 19:44 06.09.2021
5854 Clear 25 1009 28 10000 2.3 15 19:18 06.09.2021
5855 Clear 25 1009 28 10000 2.3 15 18:33 06.09.2021
5856 Clear 26 1009 25 10000 2.14 20 17:50 06.09.2021
5857 Clear 28 1007 14 10000 2.79 60 16:20 06.09.2021
5858 Clear 30 1006 10 10000 2.58 63 14:59 06.09.2021
5859 Clear 32 1005 7 10000 2.23 61 12:49 06.09.2021
5860 Clear 32 1005 7 10000 2.06 60 11:52 06.09.2021
5861 Clear 30 1007 8 10000 1.57 74 10:19 06.09.2021
5862 Clear 27 1010 10 10000 1.24 55 07:39 06.09.2021
5863 Clear 19 1011 19 10000 0.55 311 03:34 06.09.2021
5864 Clear 19 1009 18 10000 0.89 284 23:22 05.09.2021
5865 Clear 19 1009 18 10000 0.89 284 22:32 05.09.2021
5866 Clear 20 1009 18 10000 0.72 299 21:55 05.09.2021
5867 Clear 21 1009 17 10000 1.13 348 21:20 05.09.2021
5868 Clear 22 1009 16 10000 1.61 351 19:30 05.09.2021
5869 Clear 24 1008 14 10000 2.56 10 17:52 05.09.2021
5870 Clear 27 1005 10 10000 3.08 17 15:43 05.09.2021
5871 Clear 30 1004 8 10000 2.38 32 15:19 05.09.2021
5872 Clear 31 1004 6 10000 2 63 12:44 05.09.2021
5873 Clear 31 1004 6 10000 1.85 71 11:31 05.09.2021
5874 Clear 30 1005 6 10000 1.68 73 10:39 05.09.2021
5875 Clear 29 1007 7 10000 1.38 75 09:33 05.09.2021
5876 Clear 26 1009 10 10000 0.96 53 08:28 05.09.2021
5877 Clear 17 1010 20 10000 0.73 342 03:22 05.09.2021
5878 Clear 18 1009 20 10000 0.93 336 00:39 05.09.2021
5879 Clear 18 1009 19 10000 1.02 343 23:55 04.09.2021
5880 Clear 19 1009 19 10000 1.01 348 23:22 04.09.2021
5881 Clear 19 1009 19 10000 1.01 348 22:34 04.09.2021
5882 Clear 19 1009 19 10000 1.01 348 22:34 04.09.2021
5883 Clear 22 1009 16 10000 1.89 6 20:21 04.09.2021
5884 Clear 22 1009 16 10000 2.03 10 19:33 04.09.2021
5885 Clear 25 1007 13 10000 2.68 22 17:21 04.09.2021
5886 Clear 31 1002 7 10000 7.66 20 14:29 04.09.2021
5887 Clear 30 1004 19 10000 1.85 87 11:22 04.09.2021
5888 Clear 30 1004 19 10000 1.85 87 10:32 04.09.2021
5889 Clear 26 1008 33 10000 0.79 114 07:32 04.09.2021
5890 Clouds 21 1008 53 10000 1.14 41 00:49 04.09.2021
5891 Clouds 21 1008 53 10000 1.14 41 00:49 04.09.2021
5892 Clouds 21 1008 52 10000 1.26 34 23:39 03.09.2021
5893 Clouds 22 1008 51 10000 1.41 13 23:19 03.09.2021
5894 Clouds 22 1008 49 10000 1.33 20 21:41 03.09.2021
5895 Clouds 23 1008 47 10000 1.79 47 20:54 03.09.2021
5896 Clouds 24 1007 44 10000 1.93 47 20:19 03.09.2021
5897 Clouds 24 1007 43 10000 1.92 62 19:33 03.09.2021
5898 Clouds 25 1006 38 10000 1.73 55 18:20 03.09.2021
5899 Clouds 26 1005 35 10000 2.81 78 16:46 03.09.2021
5900 Clouds 27 1004 30 10000 3.37 71 15:38 03.09.2021
5901 Clear 29 1004 23 10000 3.04 338 13:24 03.09.2021
5902 Clear 28 1004 24 10000 1.72 77 10:45 03.09.2021
5903 Clear 26 1007 31 10000 1.27 70 09:20 03.09.2021
5904 Clear 25 1008 36 10000 1.28 50 07:54 03.09.2021
5905 Clear 22 1010 43 10000 1.11 44 06:26 03.09.2021
5906 Clouds 20 1008 50 10000 1.44 22 23:56 02.09.2021
5907 Clouds 21 1008 47 10000 1.65 57 21:49 02.09.2021
5908 Clear 23 1008 43 10000 2.29 51 20:25 02.09.2021
5909 Clear 25 1006 33 10000 2.5 77 17:33 02.09.2021
5910 Clear 26 1005 28 10000 3.32 74 16:20 02.09.2021
5911 Clear 28 1005 21 10000 3.94 74 15:29 02.09.2021
5912 Clear 29 1005 17 10000 3.45 49 13:23 02.09.2021
5913 Clear 29 1005 18 10000 2.77 52 11:41 02.09.2021
5914 Clear 28 1006 19 10000 2.27 50 10:52 02.09.2021
5915 Clear 26 1009 23 10000 1.6 49 08:49 02.09.2021
5916 Clear 23 1012 34 10000 1.55 41 07:22 02.09.2021
5917 Clear 21 1012 36 10000 1.25 30 05:31 02.09.2021
5918 Clear 21 1012 36 10000 1.25 30 05:31 02.09.2021
5919 Clear 17 1012 42 10000 0.84 342 02:35 02.09.2021
5920 Clear 18 1011 46 10000 1 340 01:36 02.09.2021
5921 Clear 19 1011 49 10000 1.59 8 23:40 01.09.2021
5922 Clear 19 1011 50 10000 1.71 11 22:42 01.09.2021
5923 Clear 20 1011 49 10000 1.63 29 21:41 01.09.2021
5924 Clear 20 1011 47 10000 1.91 40 20:54 01.09.2021
5925 Clear 22 1010 40 10000 2.06 43 19:23 01.09.2021
5926 Clear 23 1010 35 10000 2.42 55 17:50 01.09.2021
5927 Clear 24 1009 28 10000 3.05 53 16:48 01.09.2021
5928 Clear 26 1007 19 10000 2.67 58 16:21 01.09.2021
5929 Clear 28 1007 16 10000 3.03 69 13:40 01.09.2021
5930 Clear 28 1008 19 10000 2.53 68 11:46 01.09.2021
5931 Clear 25 1011 26 10000 1.45 83 09:25 01.09.2021
5932 Clear 24 1013 28 10000 1.33 49 07:53 01.09.2021
5933 Clear 21 1015 39 10000 0.62 36 05:40 01.09.2021
5934 Clear 18 1013 49 10000 0.46 324 23:19 31.08.2021
5935 Clear 18 1013 48 10000 0.46 286 21:40 31.08.2021
5936 Clouds 20 1013 45 10000 0.73 245 19:48 31.08.2021
5937 Clouds 20 1013 43 10000 0.32 53 18:37 31.08.2021
5938 Clouds 20 1013 43 10000 1.02 147 17:38 31.08.2021
5939 Clouds 20 1013 43 10000 0.52 40 17:20 31.08.2021
5940 Clouds 20 1012 43 10000 2.81 342 16:24 31.08.2021
5941 Clouds 21 1012 42 10000 2.6 55 13:46 31.08.2021
5942 Clouds 21 1012 46 10000 3.47 5 11:36 31.08.2021
5943 Clear 27 1008 29 10000 6.18 7 10:55 31.08.2021
5944 Clear 28 1008 26 10000 3.07 79 09:45 31.08.2021
5945 Clear 27 1009 28 10000 2.37 83 08:40 31.08.2021
5946 Clear 26 1010 30 10000 1.75 74 07:38 31.08.2021
5947 Clear 23 1012 42 10000 0.64 48 05:55 31.08.2021
5948 Clouds 19 1011 58 10000 0.63 146 23:35 30.08.2021
5949 Clouds 20 1011 52 10000 1.14 339 21:53 30.08.2021
5950 Clouds 20 1011 52 10000 1.14 339 21:32 30.08.2021
5951 Clouds 20 1011 51 10000 1.53 341 20:32 30.08.2021
5952 Clouds 22 1010 43 10000 2.03 32 19:29 30.08.2021
5953 Clouds 23 1018 38 10000 3.6 100 18:44 30.08.2021
5954 Clouds 24 1018 33 10000 1.03 210 17:46 30.08.2021
5955 Clouds 24 1017 33 10000 1.54 90 16:24 30.08.2021
5956 Clouds 24 1007 36 10000 1.91 91 15:39 30.08.2021
5957 Clouds 25 1018 29 10000 2.57 0 13:45 30.08.2021
5958 Clouds 24 1019 35 10000 6.17 330 12:29 30.08.2021
5959 Clouds 25 1019 33 10000 3.6 10 10:33 30.08.2021
5960 Clouds 23 1016 49 10000 3.6 120 23:29 29.08.2021
5961 Clouds 21 1008 41 10000 1.99 354 21:33 29.08.2021
5962 Clouds 22 1008 39 10000 2.18 23 20:22 29.08.2021
5963 Clouds 24 1015 46 10000 1.54 80 19:19 29.08.2021
5964 Clouds 23 1006 39 10000 2.48 40 17:50 29.08.2021
5965 Clouds 26 1003 22 10000 2.83 34 15:49 29.08.2021
5966 Clouds 30 1001 14 10000 3.87 1 14:20 29.08.2021
5967 Clear 30 1012 12 10000 1.03 0 13:44 29.08.2021
5968 Clouds 30 1001 15 10000 3.78 351 12:32 29.08.2021
5969 Clouds 30 1002 14 10000 3.01 17 11:50 29.08.2021
5970 Clear 30 1013 13 10000 2.57 0 11:22 29.08.2021
5971 Clear 29 1002 15 10000 1.8 53 10:42 29.08.2021
5972 Clear 28 1004 16 10000 1.18 90 10:23 29.08.2021
5973 Clear 25 1006 18 10000 0.8 37 07:47 29.08.2021
5974 Clouds 21 1014 56 10000 0.51 190 00:25 29.08.2021
5975 Clouds 20 1006 27 10000 1.7 335 21:53 28.08.2021
5976 Clear 24 1014 14 10000 1.03 30 20:22 28.08.2021
5977 Clouds 23 1006 25 10000 2.69 5 18:33 28.08.2021
5978 Clouds 24 1005 24 10000 2.96 14 17:59 28.08.2021
5979 Clouds 25 1004 20 10000 3.03 43 16:59 28.08.2021
5980 Clouds 26 1002 17 10000 4.38 20 15:33 28.08.2021
5981 Clear 30 1010 8 10000 4.63 320 14:20 28.08.2021
5982 Clear 32 1011 8 10000 3.09 0 13:44 28.08.2021
5983 Clear 30 1011 8 10000 3.09 0 12:42 28.08.2021
5984 Clear 30 1001 11 10000 3.38 32 11:53 28.08.2021
5985 Clear 30 1002 12 10000 2.13 46 10:35 28.08.2021
5986 Clear 27 1005 13 10000 1.3 40 08:39 28.08.2021
5987 Clear 24 1015 12 10000 2.06 300 06:24 28.08.2021
5988 Clear 25 1014 10 10000 4.12 310 22:28 27.08.2021
5989 Clear 20 1008 21 10000 1.7 2 20:56 27.08.2021
5990 Clear 21 1007 19 10000 2.31 353 20:19 27.08.2021
5991 Clear 22 1007 18 10000 2.37 351 18:57 27.08.2021
5992 Clear 22 1007 18 10000 2.37 351 18:37 27.08.2021
5993 Clear 24 1005 15 10000 2.72 16 16:55 27.08.2021
5994 Clear 29 1002 11 10000 6.44 7 15:22 27.08.2021
5995 Clear 29 1002 11 10000 6.44 7 15:21 27.08.2021
5996 Clear 32 1011 7 10000 8.23 320 14:38 27.08.2021
5997 Clear 32 1012 8 10000 2.57 0 12:30 27.08.2021
5998 Clouds 31 1013 8 10000 4.12 350 11:24 27.08.2021
5999 Clear 30 1003 11 10000 1.62 38 10:42 27.08.2021
6000 Clear 29 1004 12 10000 1.29 45 09:30 27.08.2021
6001 Clear 28 1015 9 10000 2.57 0 08:41 27.08.2021
6002 Clear 22 1008 20 10000 0.66 31 05:53 27.08.2021
6003 Clear 22 1013 15 10000 2.06 300 02:44 27.08.2021
6004 Clear 22 1012 15 10000 2.06 0 00:31 27.08.2021
6005 Clear 25 1012 12 10000 3.09 340 22:28 26.08.2021
6006 Clear 19 1006 25 10000 1.31 352 21:57 26.08.2021
6007 Clear 26 1012 11 10000 4.12 360 19:54 26.08.2021
6008 Clear 21 1006 20 10000 2.1 7 18:49 26.08.2021
6009 Clear 27 1011 12 10000 5.14 350 17:34 26.08.2021
6010 Clear 29 1010 10 10000 5.14 360 16:32 26.08.2021
6011 Clear 25 1002 15 10000 3.27 5 15:53 26.08.2021
6012 Clear 32 1010 7 10000 2.57 330 13:29 26.08.2021
6013 Clear 32 1010 7 10000 4.12 350 12:49 26.08.2021
6014 Clear 32 1011 7 10000 1.03 0 11:51 26.08.2021
6015 Clear 29 1002 13 10000 1.25 43 09:40 26.08.2021
6016 Clear 26 1005 16 10000 1.13 40 08:27 26.08.2021
6017 Clear 17 1006 27 10000 1.08 312 00:46 26.08.2021
6018 Clear 18 1006 25 10000 1.15 355 22:46 25.08.2021
6019 Clear 18 1006 25 10000 0.96 355 22:26 25.08.2021
6020 Clear 19 1006 23 10000 1.3 353 20:58 25.08.2021
6021 Clear 26 1013 10 10000 4.12 10 20:31 25.08.2021
6022 Clear 20 1006 22 10000 1.97 358 19:52 25.08.2021
6023 Haze 27 1012 10 4800 5.66 320 18:18 25.08.2021
6024 Clear 26 1002 15 10000 3.61 14 15:59 25.08.2021
6025 Haze 31 1010 8 8000 5.66 320 15:39 25.08.2021
6026 Clear 33 1010 8 10000 4.12 290 14:47 25.08.2021
6027 Clear 31 1000 10 10000 5.14 15 13:54 25.08.2021
6028 Clouds 34 1011 7 10000 3.09 300 12:23 25.08.2021
6029 Clouds 34 1012 7 10000 2.06 0 11:21 25.08.2021
6030 Clear 29 1003 13 10000 1.35 57 10:18 25.08.2021
6031 Clouds 31 1014 7 10000 2.06 0 09:40 25.08.2021
6032 Clear 30 1014 9 10000 2.57 0 08:38 25.08.2021
6033 Clear 26 1006 15 10000 1.03 43 07:31 25.08.2021
6034 Clear 24 1014 14 10000 2.57 0 01:25 25.08.2021
6035 Clear 25 1014 12 10000 1.54 0 23:31 24.08.2021
6036 Clear 26 1014 11 10000 2.57 0 21:21 24.08.2021
6037 Clear 27 1014 9 10000 2.57 0 20:21 24.08.2021
6038 Clear 27 1014 9 10000 2.57 0 19:43 24.08.2021
6039 Clear 24 1006 18 10000 2.11 358 17:55 24.08.2021
6040 Haze 28 1013 9 8000 3.09 330 17:22 24.08.2021
6041 Clear 30 1012 10 10000 3.6 320 16:23 24.08.2021
6042 Clear 32 1001 9 10000 4.42 22 13:54 24.08.2021
6043 Clouds 35 1013 7 10000 2.06 0 12:45 24.08.2021
6044 Clear 31 1003 12 10000 1.58 51 11:21 24.08.2021
6045 Clouds 33 1014 8 10000 1.03 0 10:47 24.08.2021
6046 Clear 30 1004 13 10000 1.39 56 09:53 24.08.2021
6047 Clear 29 1016 11 10000 2.06 320 07:42 24.08.2021
6048 Clear 24 1009 20 10000 0.99 27 05:57 24.08.2021
6049 Clear 20 1016 30 10000 1.03 50 03:47 24.08.2021
6050 Clear 20 1008 26 10000 0.62 315 23:54 23.08.2021
6051 Clear 25 1016 14 10000 1.54 0 22:46 23.08.2021
6052 Clear 26 1016 15 10000 1.54 0 21:36 23.08.2021
6053 Clear 23 1008 22 10000 1.81 347 19:55 23.08.2021
6054 Clouds 28 1015 36 10000 1.03 30 18:25 23.08.2021
6055 Clouds 32 1013 12 10000 2.06 0 15:45 23.08.2021
6056 Clouds 32 1002 12 10000 4.43 38 13:57 23.08.2021
6057 Clear 35 1014 10 10000 1.03 0 12:33 23.08.2021
6058 Clear 31 1003 13 10000 2.03 76 10:52 23.08.2021
6059 Clouds 32 1015 13 10000 0.51 340 10:21 23.08.2021
6060 Clear 29 1017 20 10000 1.54 20 08:49 23.08.2021
6061 Haze 27 1017 32 9000 1.03 0 07:41 23.08.2021
6062 Clear 26 1017 34 10000 0.51 0 06:41 23.08.2021
6063 Clear 19 1008 30 10000 0.5 306 01:57 23.08.2021
6064 Haze 23 1016 35 4000 0.51 30 00:46 23.08.2021
6065 Haze 23 1017 35 8000 0.51 0 22:42 22.08.2021
6066 Haze 23 1017 35 8000 0.51 0 22:42 22.08.2021
6067 Haze 25 1017 27 8000 0 0 21:30 22.08.2021
6068 Clear 26 1017 21 10000 0.51 320 20:19 22.08.2021
6069 Clear 27 1017 32 10000 1.03 60 18:33 22.08.2021
6070 Clouds 28 1005 21 10000 3.51 357 15:56 22.08.2021
6071 Clouds 30 1004 16 10000 3.59 8 14:54 22.08.2021
6072 Clouds 32 1016 9 10000 2.57 160 13:47 22.08.2021
6073 Clouds 32 1016 9 10000 2.57 160 13:19 22.08.2021
6074 Clear 33 1016 9 10000 2.06 0 12:48 22.08.2021
6075 Clouds 31 1017 14 10000 1.54 0 11:45 22.08.2021
6076 Clouds 31 1017 14 10000 1.54 0 11:20 22.08.2021
6077 Clear 28 1020 28 10000 1.03 0 08:44 22.08.2021
6078 Clear 27 1010 27 10000 0.54 88 07:53 22.08.2021
6079 Haze 21 1020 49 6000 0.51 300 03:38 22.08.2021
6080 Clear 21 1011 41 10000 0.98 349 22:37 21.08.2021
6081 Clear 21 1011 41 10000 0.98 349 22:37 21.08.2021
6082 Clear 25 1019 29 10000 1.03 40 21:40 21.08.2021
6083 Clouds 24 1010 34 10000 1.96 28 18:55 21.08.2021
6084 Clouds 24 1010 34 10000 1.96 28 18:37 21.08.2021
6085 Clouds 25 1008 28 10000 2.5 78 16:58 21.08.2021
6086 Clear 29 1017 17 10000 1.54 0 16:32 21.08.2021
6087 Clouds 30 1017 15 10000 3.09 320 15:39 21.08.2021
6088 Clouds 30 1017 15 10000 3.09 320 15:20 21.08.2021
6089 Clouds 32 1017 10 10000 1.54 0 13:36 21.08.2021
6090 Clouds 31 1017 9 10000 1.03 0 12:39 21.08.2021
6091 Clouds 29 1019 11 10000 2.06 0 10:43 21.08.2021
6092 Clear 26 1011 27 10000 0.95 90 07:51 21.08.2021
6093 Haze 20 1019 37 6000 0 0 00:26 21.08.2021
6094 Clear 18 1019 45 10000 1.54 60 22:28 20.08.2021
6095 Haze 22 1020 30 8000 1.03 0 19:31 20.08.2021
6096 Clouds 23 1010 31 10000 3.06 27 16:57 20.08.2021
6097 Haze 26 1016 24 6000 5.14 310 14:34 20.08.2021
6098 Clouds 26 1006 29 10000 3.57 88 11:55 20.08.2021
6099 Clouds 30 1015 15 10000 3.6 80 11:27 20.08.2021
6100 Clear 29 1015 17 10000 2.06 0 10:21 20.08.2021
6101 Clear 27 1006 28 10000 1.49 29 09:18 20.08.2021
6102 Clear 28 1017 26 10000 1.03 360 08:36 20.08.2021
6103 Haze 19 1016 52 3200 1.03 280 04:40 20.08.2021
6104 Clear 20 1009 47 10000 0.83 1 04:20 20.08.2021
6105 Haze 21 1015 43 9000 0.51 240 23:27 19.08.2021
6106 Clear 22 1016 37 10000 1.54 0 22:37 19.08.2021
6107 Haze 23 1015 35 9000 2.06 0 21:49 19.08.2021
6108 Clouds 22 1007 41 10000 1.9 31 19:59 19.08.2021
6109 Haze 25 1014 31 6000 3.09 270 17:37 19.08.2021
6110 Clear 28 1012 20 10000 0.51 0 16:42 19.08.2021
6111 Clear 29 1012 23 10000 2.57 0 14:33 19.08.2021
6112 Haze 30 1012 19 6000 4.63 190 12:45 19.08.2021
6113 Haze 30 1012 19 6000 4.63 190 12:27 19.08.2021
6114 Clouds 31 1014 14 10000 1.03 0 10:47 19.08.2021
6115 Clouds 31 1014 14 10000 1.03 0 10:47 19.08.2021
6116 Clouds 31 1015 19 10000 1.03 0 09:48 19.08.2021
6117 Clouds 31 1015 19 10000 1.03 0 09:26 19.08.2021
6118 Clear 30 1016 20 10000 1.03 0 08:24 19.08.2021
6119 Haze 21 1015 49 9000 0 0 03:34 19.08.2021
6120 Clear 19 1006 47 10000 0.85 221 01:58 19.08.2021
6121 Clear 19 1007 49 10000 0.65 196 01:58 19.08.2021
6122 Clear 23 1014 35 10000 0.51 250 23:21 18.08.2021
6123 Clear 24 1014 33 10000 0.51 30 22:25 18.08.2021
6124 Clear 25 1014 31 10000 1.54 0 20:39 18.08.2021
6125 Clear 25 1014 31 10000 1.54 0 20:18 18.08.2021
6126 Clear 25 1014 31 10000 1.54 0 20:18 18.08.2021
6127 Clear 22 1006 39 10000 1.58 347 18:58 18.08.2021
6128 Clear 26 1014 27 10000 1.03 0 18:33 18.08.2021
6129 Clear 24 1005 36 10000 2.75 352 16:41 18.08.2021
6130 Clear 30 1013 17 10000 3.09 0 15:40 18.08.2021
6131 Clear 30 1013 17 10000 3.09 0 15:21 18.08.2021
6132 Clouds 32 1013 15 10000 3.6 290 12:44 18.08.2021
6133 Clouds 32 1013 15 10000 3.6 290 12:26 18.08.2021
6134 Clouds 32 1014 14 10000 2.57 0 11:22 18.08.2021
6135 Clear 27 1007 32 10000 1.58 74 07:49 18.08.2021
6136 Clear 20 1007 44 10000 1.12 27 00:48 18.08.2021
6137 Haze 23 1016 35 9000 1.54 0 22:32 17.08.2021
6138 Haze 23 1016 31 8000 1.54 20 21:43 17.08.2021
6139 Haze 24 1016 29 8000 1.54 20 20:45 17.08.2021
6140 Haze 25 1016 27 8000 1.54 10 19:20 17.08.2021
6141 Clouds 25 1006 30 10000 2.26 47 17:33 17.08.2021
6142 Haze 27 1016 24 8000 1.54 100 16:46 17.08.2021
6143 Haze 28 1016 23 8000 6.17 100 15:40 17.08.2021
6144 Haze 29 1016 21 6000 4.63 110 14:39 17.08.2021
6145 Clouds 30 1017 17 800 8.75 220 12:36 17.08.2021
6146 Haze 32 1018 25 8000 3.09 0 09:27 17.08.2021
6147 Clear 26 1009 35 10000 1.21 62 08:21 17.08.2021
6148 Haze 28 1019 39 8000 3.09 0 06:40 17.08.2021
6149 Haze 22 1017 40 8000 1.54 0 23:18 16.08.2021
6150 Clear 21 1009 48 10000 0.95 281 22:47 16.08.2021
6151 Clear 21 1009 48 10000 0.59 321 22:28 16.08.2021
6152 Haze 24 1017 35 8000 1.54 0 21:36 16.08.2021
6153 Clear 22 1009 47 10000 1.94 24 20:50 16.08.2021
6154 Haze 24 1017 33 8000 1.54 10 19:26 16.08.2021
6155 Haze 24 1016 35 8000 4.63 20 18:25 16.08.2021
6156 Clear 24 1008 42 10000 2.75 40 17:52 16.08.2021
6157 Clear 26 1006 32 10000 4.67 82 15:53 16.08.2021
6158 Clear 28 1005 21 10000 6.33 76 14:57 16.08.2021
6159 Clear 30 1004 15 10000 4.9 69 13:39 16.08.2021
6160 Clear 30 1004 14 10000 3.55 68 12:56 16.08.2021
6161 Clear 29 1006 15 10000 2.08 72 11:29 16.08.2021
6162 Clear 26 1009 19 10000 1.59 61 08:53 16.08.2021
6163 Clear 26 1009 19 10000 1.59 61 08:53 16.08.2021
6164 Clouds 25 1019 36 10000 3.09 0 07:45 16.08.2021
6165 Clouds 25 1019 36 10000 3.09 0 07:26 16.08.2021
6166 Clear 17 1010 48 10000 0.9 357 02:45 16.08.2021
6167 Clear 20 1015 64 10000 1.54 0 23:32 15.08.2021
6168 Clear 20 1008 57 10000 2.09 36 20:51 15.08.2021
6169 Clear 25 1013 13 10000 3.09 20 18:48 15.08.2021
6170 Clear 25 1013 13 10000 3.09 20 18:18 15.08.2021
6171 Haze 25 1013 14 6000 5.14 30 17:41 15.08.2021
6172 Clear 28 1010 24 10000 3.6 60 16:28 15.08.2021
6173 Clouds 31 1010 7 10000 7.2 360 14:50 15.08.2021
6174 Clouds 31 1010 7 10000 7.2 360 14:30 15.08.2021
6175 Clouds 30 1011 8 10000 4.12 120 11:44 15.08.2021
6176 Clear 28 1013 13 10000 3.09 0 09:41 15.08.2021
6177 Clear 22 1013 20 10000 3.09 340 05:21 15.08.2021
6178 Clear 21 1011 21 10000 3.6 340 00:43 15.08.2021
6179 Clouds 23 1011 20 10000 2.57 100 22:47 14.08.2021
6180 Clouds 24 1011 16 10000 4.63 30 20:59 14.08.2021
6181 Clouds 25 1011 15 10000 6.17 10 19:44 14.08.2021
6182 Clouds 25 1011 15 10000 6.17 10 19:23 14.08.2021
6183 Clouds 27 1009 14 9000 7.72 30 17:21 14.08.2021
6184 Clouds 27 1007 13 8000 7.72 20 15:52 14.08.2021
6185 Haze 29 1008 15 9000 8.75 360 14:32 14.08.2021
6186 Clear 31 998 11 10000 3.25 60 12:22 14.08.2021
6187 Clouds 32 1010 12 10000 4.12 10 10:53 14.08.2021
6188 Clear 27 1012 16 10000 5.14 20 07:48 14.08.2021
6189 Clear 24 1011 17 10000 5.14 10 23:54 13.08.2021
6190 Clear 24 1012 17 10000 5.14 360 22:30 13.08.2021
6191 Clear 25 1012 16 10000 7.2 70 21:40 13.08.2021
6192 Clear 29 1011 12 10000 7.2 20 18:49 13.08.2021
6193 Clear 29 1011 12 10000 7.2 20 17:56 13.08.2021
6194 Clear 30 1010 10 10000 9.77 10 16:32 13.08.2021
6195 Clouds 34 1010 8 10000 6.69 10 14:30 13.08.2021
6196 Clouds 34 1012 8 10000 1.54 0 11:20 13.08.2021
6197 Clear 32 1014 15 10000 2.06 0 09:49 13.08.2021
6198 Clear 31 1014 19 10000 1.54 0 08:36 13.08.2021
6199 Clear 29 1014 24 10000 3.09 0 07:20 13.08.2021
6200 Clear 26 1015 31 10000 1.03 0 04:59 13.08.2021
6201 Clear 26 1015 11 10000 1.03 0 23:49 12.08.2021
6202 Clear 23 1007 19 10000 1.91 343 21:21 12.08.2021
6203 Clear 28 1014 8 10000 3.09 40 20:22 12.08.2021
6204 Clear 29 1014 6 10000 7.2 20 19:45 12.08.2021
6205 Clear 30 1014 6 10000 7.2 20 17:51 12.08.2021
6206 Clouds 32 1013 6 10000 5.14 350 16:29 12.08.2021
6207 Clouds 34 1012 7 10000 7.72 360 14:52 12.08.2021
6208 Clear 34 1001 8 10000 3.63 62 12:59 12.08.2021
6209 Clouds 34 1014 16 10000 6.17 30 11:20 12.08.2021
6210 Clear 29 1007 20 10000 0.65 73 07:57 12.08.2021
6211 Clear 21 1015 46 9000 1.03 0 01:52 12.08.2021
6212 Clear 23 1007 30 10000 1.66 359 22:54 11.08.2021
6213 Clear 25 1014 44 10000 1.54 110 20:45 11.08.2021
6214 Clear 27 1012 34 10000 2.57 60 18:28 11.08.2021
6215 Clear 34 1010 7 10000 6.17 360 15:39 11.08.2021
6216 Clear 34 1010 7 10000 6.17 360 15:20 11.08.2021
6217 Clear 35 1010 7 10000 3.09 0 14:22 11.08.2021
6218 Clear 34 1012 7 10000 4.63 60 12:30 11.08.2021
6219 Clear 33 1012 9 10000 3.09 0 11:46 11.08.2021
6220 Clear 33 1012 9 10000 3.09 0 11:22 11.08.2021
6221 Clear 31 1014 13 10000 3.09 0 09:46 11.08.2021
6222 Clear 30 1015 15 10000 2.06 0 07:59 11.08.2021
6223 Clear 22 1013 21 10000 1.03 210 23:34 10.08.2021
6224 Clear 24 1013 16 10000 1.54 300 22:32 10.08.2021
6225 Clear 24 1013 13 10000 2.06 300 21:19 10.08.2021
6226 Clear 26 1013 12 10000 2.57 270 19:52 10.08.2021
6227 Clear 29 1012 11 10000 8.75 40 18:33 10.08.2021
6228 Clear 31 1010 11 10000 7.2 10 16:37 10.08.2021
6229 Clear 31 1001 10 10000 3.07 27 14:52 10.08.2021
6230 Clear 34 1012 8 10000 4.12 360 12:22 10.08.2021
6231 Clear 32 1014 11 10000 3.09 0 09:51 10.08.2021
6232 Clear 26 1007 16 10000 1.13 39 06:55 10.08.2021
6233 Clear 25 1015 19 10000 2.57 290 04:58 10.08.2021
6234 Clear 26 1015 15 10000 8.23 20 23:42 09.08.2021
6235 Clear 26 1015 15 10000 8.23 20 21:55 09.08.2021
6236 Clear 26 1016 15 10000 7.2 30 21:35 09.08.2021
6237 Clear 27 1015 13 10000 7.2 30 19:37 09.08.2021
6238 Clear 28 1014 12 10000 9.26 30 17:53 09.08.2021
6239 Clear 31 1013 11 10000 6.69 30 15:35 09.08.2021
6240 Clear 33 1013 10 10000 5.14 360 13:52 09.08.2021
6241 Clear 33 1014 9 10000 3.09 0 13:27 09.08.2021
6242 Clear 31 1005 9 10000 1.45 96 10:50 09.08.2021
6243 Clear 30 1017 10 10000 4.63 360 08:26 09.08.2021
6244 Clear 26 1016 12 10000 7.2 20 23:27 08.08.2021
6245 Clear 26 1016 13 10000 8.75 30 21:26 08.08.2021
6246 Clouds 28 1016 12 10000 8.23 20 19:46 08.08.2021
6247 Clouds 29 1014 11 10000 7.2 30 16:55 08.08.2021
6248 Clouds 31 1013 11 10000 5.14 10 15:42 08.08.2021
6249 Clouds 33 1013 14 10000 2.06 0 13:26 08.08.2021
6250 Clouds 34 1014 15 10000 2.06 0 11:25 08.08.2021
6251 Clouds 27 1017 39 10000 1.54 0 06:45 08.08.2021
6252 Clouds 25 1017 47 9000 1.03 0 05:37 08.08.2021
6253 Clouds 23 1015 56 10000 1.03 0 00:32 08.08.2021
6254 Clouds 26 1015 21 10000 2.57 350 22:20 07.08.2021
6255 Clouds 25 1015 50 10000 1.03 0 21:41 07.08.2021
6256 Clouds 28 1015 16 10000 3.6 30 20:35 07.08.2021
6257 Clouds 29 1013 28 10000 5.14 40 17:37 07.08.2021
6258 Clouds 31 1012 13 10000 4.63 10 16:43 07.08.2021
6259 Clouds 33 1012 14 10000 3.09 0 14:28 07.08.2021
6260 Clouds 32 1012 13 10000 3.09 0 13:31 07.08.2021
6261 Clouds 32 1014 12 10000 3.09 0 10:24 07.08.2021
6262 Clear 24 1015 33 9000 1.54 0 05:45 07.08.2021
6263 Clear 23 1013 21 10000 1.03 0 23:55 06.08.2021
6264 Clouds 24 1013 38 10000 1.03 0 21:38 06.08.2021
6265 Clouds 25 1013 33 10000 2.57 240 20:31 06.08.2021
6266 Clouds 25 1013 33 10000 2.57 240 19:56 06.08.2021
6267 Clouds 26 1012 29 10000 2.06 110 18:30 06.08.2021
6268 Clouds 32 1010 12 10000 6.17 360 15:46 06.08.2021
6269 Clouds 31 1013 13 10000 3.09 0 10:41 06.08.2021
6270 Clouds 30 1014 14 10000 3.09 0 09:26 06.08.2021
6271 Clear 28 1014 17 10000 5.14 360 07:19 06.08.2021
6272 Clear 25 1013 18 10000 8.23 20 23:31 05.08.2021
6273 Clear 25 1013 18 10000 7.2 30 21:32 05.08.2021
6274 Clear 26 1013 17 10000 6.17 40 19:59 05.08.2021
6275 Clouds 25 1004 25 10000 1.93 350 18:58 05.08.2021
6276 Clouds 30 1010 15 10000 6.17 360 16:21 05.08.2021
6277 Clouds 32 1010 12 10000 6.69 360 14:18 05.08.2021
6278 Clouds 32 1011 12 10000 4.12 10 10:53 05.08.2021
6279 Clear 29 1013 15 10000 6.17 350 08:21 05.08.2021
6280 Clear 22 1013 23 10000 2.57 50 03:45 05.08.2021
6281 Clear 25 1014 18 10000 5.14 10 22:41 04.08.2021
6282 Clouds 25 1014 18 10000 4.63 360 21:28 04.08.2021
6283 Clouds 25 1014 18 10000 3.6 350 20:41 04.08.2021
6284 Clouds 28 1011 15 10000 5.66 30 17:24 04.08.2021
6285 Clouds 31 1010 13 10000 7.2 360 14:59 04.08.2021
6286 Clouds 33 1010 14 10000 5.14 10 14:41 04.08.2021
6287 Clouds 31 1014 18 10000 6.17 350 09:30 04.08.2021
6288 Clouds 24 1014 41 10000 2.57 170 23:20 03.08.2021
6289 Clouds 26 1013 24 10000 5.14 350 20:32 03.08.2021
6290 Clouds 26 1013 36 10000 1.54 290 18:58 03.08.2021
6291 Clouds 27 1011 32 10000 3.09 90 17:31 03.08.2021
6292 Clouds 27 1011 32 10000 3.09 90 17:30 03.08.2021
6293 Clouds 31 1000 20 10000 5.31 351 13:57 03.08.2021
6294 Clear 32 1000 18 10000 2.72 83 10:58 03.08.2021
6295 Clear 31 1001 19 10000 2.36 85 09:50 03.08.2021
6296 Clear 25 1012 47 10000 2.06 190 22:58 02.08.2021
6297 Clouds 30 1009 35 10000 6.17 110 16:45 02.08.2021
6298 Clouds 32 1008 15 10000 6.69 360 15:35 02.08.2021
6299 Clouds 33 1009 14 10000 3.09 0 12:40 02.08.2021
6300 Clear 32 999 14 10000 3.08 77 11:57 02.08.2021
6301 Clouds 32 1011 17 10000 2.57 0 10:26 02.08.2021
6302 Clear 29 1012 26 10000 2.06 0 07:40 02.08.2021
6303 Clouds 27 1009 17 10000 4.63 10 19:33 01.08.2021
6304 Clouds 29 1008 17 10000 5.66 30 17:45 01.08.2021
6305 Clouds 33 1008 19 10000 3.09 0 11:39 01.08.2021
6306 Clouds 33 1008 19 10000 3.09 0 10:55 01.08.2021
6307 Clear 23 1003 35 10000 1.11 355 03:49 01.08.2021
6308 Clouds 22 1011 64 9000 1.54 360 00:34 01.08.2021
6309 Clouds 22 1012 64 10000 1.54 80 22:36 31.07.2021
6310 Clouds 24 1012 53 10000 2.57 330 19:28 31.07.2021
6311 Clouds 26 1011 50 10000 5.14 130 16:37 31.07.2021
6312 Clouds 27 1010 44 10000 5.14 50 15:27 31.07.2021
6313 Haze 29 1011 39 8000 5.14 40 10:28 31.07.2021
6314 Clear 23 1011 73 8000 1.03 0 03:31 31.07.2021
6315 Clear 25 1012 47 8000 3.09 340 22:25 30.07.2021
6316 Clouds 27 1011 29 9000 4.63 350 20:23 30.07.2021
6317 Clouds 33 1007 14 9000 4.63 10 14:19 30.07.2021
6318 Clear 26 1009 61 10000 4.63 130 19:57 29.07.2021
6319 Haze 31 1008 25 8000 6.17 350 08:18 29.07.2021
6320 Haze 25 1009 65 8000 3.09 0 04:51 29.07.2021
6321 Clear 24 1009 64 10000 3.09 100 22:26 28.07.2021
6322 Haze 29 1006 45 8000 3.09 70 17:47 28.07.2021
6323 Haze 29 1006 45 8000 3.09 70 16:54 28.07.2021
6324 Haze 33 1006 17 6000 3.09 0 09:39 28.07.2021
6325 Haze 29 1006 21 5000 5.14 10 23:45 27.07.2021
6326 Haze 30 1006 19 5000 6.69 30 21:31 27.07.2021
6327 Haze 34 1003 15 8000 8.23 50 14:53 27.07.2021
6328 Haze 37 1004 12 8000 5.14 30 12:58 27.07.2021
6329 Clear 36 1006 12 10000 5.14 350 10:20 27.07.2021
6330 Clear 30 1007 19 10000 7.2 20 22:23 26.07.2021
6331 Clear 36 1006 12 10000 6.17 10 15:33 26.07.2021
6332 Clear 35 1010 13 10000 3.09 0 08:28 26.07.2021
6333 Clear 35 1010 13 10000 3.09 0 08:28 26.07.2021
6334 Clear 26 1002 21 10000 1.71 8 20:57 25.07.2021
6335 Clear 31 1010 15 10000 5.14 350 19:23 25.07.2021
6336 Clear 34 1008 14 10000 7.2 20 16:22 25.07.2021
6337 Clear 38 1010 12 10000 4.12 340 10:57 25.07.2021
6338 Clear 33 1012 15 10000 5.14 340 08:20 25.07.2021
6339 Clear 22 1012 40 10000 0.51 0 02:34 25.07.2021
6340 Clear 30 1012 17 10000 5.14 20 20:20 24.07.2021
6341 Clouds 33 1010 15 10000 3.09 10 15:50 24.07.2021
6342 Clear 23 1013 43 10000 1.54 0 04:20 24.07.2021
6343 Clouds 29 1010 26 10000 6.17 110 14:46 23.07.2021
6344 Clouds 33 1010 16 9000 9.26 280 12:42 23.07.2021
6345 Clear 28 1013 30 10000 2.57 0 07:34 23.07.2021
6346 Clear 23 1010 27 10000 3.6 350 22:43 22.07.2021
6347 Clouds 32 1007 12 10000 4.12 0 13:24 22.07.2021
6348 Clouds 31 1009 14 10000 6.17 20 09:58 22.07.2021
6349 Clouds 28 1010 16 10000 4.12 340 08:23 22.07.2021
6350 Clouds 28 1010 16 10000 4.12 340 08:23 22.07.2021
6351 Clear 24 1010 23 10000 5.14 20 21:47 21.07.2021
6352 Clear 24 1010 23 10000 5.14 20 21:29 21.07.2021
6353 Clouds 29 1007 17 10000 7.2 350 15:20 21.07.2021
6354 Clear 28 999 15 10000 1.15 80 09:50 21.07.2021
6355 Clear 28 999 15 10000 1.15 80 09:50 21.07.2021
6356 Clouds 29 1010 17 10000 3.09 0 08:47 21.07.2021
6357 Clear 22 1010 43 10000 1.03 230 23:47 20.07.2021
6358 Clouds 26 1009 27 10000 4.12 200 17:43 20.07.2021
6359 Clouds 26 1008 29 10000 3.6 270 16:26 20.07.2021
6360 Clouds 27 1006 24 10000 5.14 280 15:26 20.07.2021
6361 Clouds 29 1008 23 10000 3.09 140 11:18 20.07.2021
6362 Clouds 21 1010 60 10000 1.54 320 04:48 20.07.2021
6363 Clouds 21 1010 88 10000 2.57 140 22:35 19.07.2021
6364 Haze 30 1004 48 9000 5.14 110 15:26 19.07.2021
6365 Clouds 34 1005 17 10000 3.09 0 12:37 19.07.2021
6366 Clear 31 1009 16 10000 6.17 20 19:44 18.07.2021
6367 Clouds 35 1008 13 9000 7.2 10 15:20 18.07.2021
6368 Clear 37 1011 12 10000 3.09 0 10:19 18.07.2021
6369 Clear 27 1012 21 10000 0.51 0 22:27 17.07.2021
6370 Clouds 25 1005 24 10000 1.38 332 21:54 17.07.2021
6371 Clear 28 1013 17 10000 1.54 330 21:35 17.07.2021
6372 Clouds 36 1013 14 10000 6.17 350 12:34 17.07.2021
6373 Clear 32 1015 17 10000 6.17 350 10:21 17.07.2021
6374 Clear 25 1017 41 10000 1.54 0 04:46 17.07.2021
6375 Clouds 31 1015 33 10000 5.14 10 14:23 16.07.2021
6376 Clouds 32 1017 31 10000 3.09 0 09:44 16.07.2021
6377 Clear 26 1019 50 8000 1.54 0 05:46 16.07.2021
6378 Clouds 32 1013 29 10000 5.66 90 14:20 15.07.2021
6379 Clouds 33 1013 27 10000 3.09 0 13:48 15.07.2021
6380 Clouds 26 1018 50 10000 3.09 0 07:44 15.07.2021
6381 Clear 22 1016 64 10000 3.09 90 21:47 14.07.2021
6382 Clouds 28 1002 39 10000 4.8 86 15:58 14.07.2021
6383 Clouds 28 1014 42 10000 7.2 10 09:56 14.07.2021
6384 Clear 19 1015 77 10000 1.54 120 23:20 13.07.2021
6385 Clear 22 1015 68 10000 3.6 130 19:59 13.07.2021
6386 Clouds 22 1014 64 10000 4.63 120 19:39 13.07.2021
6387 Clouds 22 1014 64 10000 4.63 120 19:19 13.07.2021
6388 Clouds 23 1014 64 10000 3.09 120 18:43 13.07.2021
6389 Clouds 23 1014 64 10000 3.09 120 18:23 13.07.2021
6390 Clouds 27 1012 50 10000 7.72 130 13:22 13.07.2021
6391 Clouds 26 1014 53 9000 5.14 140 09:23 13.07.2021
6392 Clear 25 1013 61 9000 8.23 120 20:24 12.07.2021
6393 Clouds 33 1011 13 10000 5.14 10 16:46 12.07.2021
6394 Clear 36 998 8 10000 3.17 55 12:50 12.07.2021
6395 Clouds 24 1014 27 8000 1.54 90 23:22 11.07.2021
6396 Clouds 25 1007 22 10000 1.59 347 19:57 11.07.2021
6397 Haze 36 1012 11 8000 4.63 350 12:41 11.07.2021
6398 Haze 25 1013 23 8000 1.54 340 23:48 10.07.2021
6399 Haze 35 1010 15 5000 8.75 360 15:30 10.07.2021
6400 Clear 33 1014 16 6000 1.54 0 07:50 10.07.2021
6401 Haze 26 1013 24 5000 1.54 270 02:18 10.07.2021
6402 Haze 31 1012 15 7000 8.23 30 18:20 09.07.2021
6403 Clouds 37 1010 9 10000 7.2 350 14:49 09.07.2021
6404 Clouds 37 1012 8 10000 6.69 30 12:24 09.07.2021
6405 Clear 25 1014 19 10000 1.03 230 23:52 08.07.2021
6406 Clear 27 1014 12 10000 3.09 330 22:48 08.07.2021
6407 Clear 26 1005 16 10000 1.81 357 18:57 08.07.2021
6408 Clear 32 1012 13 10000 6.69 20 17:43 08.07.2021
6409 Clear 35 1012 11 10000 9.26 40 13:32 08.07.2021
6410 Clear 36 1012 11 10000 6.17 50 12:45 08.07.2021
6411 Clear 35 1013 11 10000 7.72 20 11:32 08.07.2021
6412 Clear 35 1013 10 10000 6.17 40 09:55 08.07.2021
6413 Clear 28 1014 16 10000 6.17 350 05:30 08.07.2021
6414 Clear 27 1014 17 10000 8.23 20 02:22 08.07.2021
6415 Clear 21 1007 26 10000 1.01 311 22:56 07.07.2021
6416 Clear 28 1014 17 10000 7.72 20 22:19 07.07.2021
6417 Clear 28 1015 18 10000 7.72 10 21:41 07.07.2021
6418 Clear 28 1015 18 10000 7.72 10 21:22 07.07.2021
6419 Clear 29 1015 17 10000 7.2 20 19:57 07.07.2021
6420 Clear 30 1015 15 10000 10.29 20 19:28 07.07.2021
6421 Clear 31 1014 12 10000 7.72 20 17:36 07.07.2021
6422 Clouds 33 1013 10 10000 9.26 20 15:45 07.07.2021
6423 Clouds 33 1013 10 10000 9.26 20 15:45 07.07.2021
6424 Clouds 34 1013 12 10000 6.69 50 12:26 07.07.2021
6425 Clouds 32 1015 14 10000 6.69 350 08:39 07.07.2021
6426 Clear 30 1015 17 10000 2.06 260 06:46 07.07.2021
6427 Clear 27 1015 21 10000 3.09 300 05:47 07.07.2021
6428 Clear 28 1015 18 10000 6.17 10 21:32 06.07.2021
6429 Clear 29 1014 17 10000 6.69 20 19:30 06.07.2021
6430 Clear 28 1014 18 10000 3.6 40 18:47 06.07.2021
6431 Clear 28 1014 18 10000 3.6 40 18:28 06.07.2021
6432 Clouds 33 1012 15 10000 4.63 140 13:46 06.07.2021
6433 Clouds 33 1013 15 10000 2.57 0 12:34 06.07.2021
6434 Clouds 31 1015 19 10000 3.09 0 09:41 06.07.2021
6435 Clouds 30 1016 25 10000 3.09 0 08:34 06.07.2021
6436 Clear 26 1016 31 10000 3.09 0 06:45 06.07.2021
6437 Clear 20 1015 49 10000 1.03 0 01:41 06.07.2021
6438 Clear 22 1016 37 10000 1.03 20 22:43 05.07.2021
6439 Clouds 25 1016 31 10000 2.57 130 18:52 05.07.2021
6440 Clouds 27 1014 29 10000 6.17 140 15:45 05.07.2021
6441 Clouds 25 1017 36 9000 1.03 0 07:26 05.07.2021
6442 Clouds 21 1016 52 9000 2.06 0 05:46 05.07.2021
6443 Clear 20 1016 52 10000 1.03 0 04:40 05.07.2021
6444 Clear 20 1015 49 10000 1.03 0 23:18 04.07.2021
6445 Clouds 22 1015 43 10000 1.03 140 19:24 04.07.2021
6446 Clouds 19 1010 59 10000 0.86 146 16:51 04.07.2021
6447 Clouds 23 1016 43 10000 6.17 160 12:58 04.07.2021
6448 Clouds 31 1015 23 10000 5.14 340 09:24 04.07.2021
6449 Clouds 23 1013 46 9000 2.57 90 23:34 03.07.2021
6450 Clouds 23 1013 46 9000 1.54 90 22:40 03.07.2021
6451 Clear 31 999 11 10000 1.83 28 14:58 03.07.2021
6452 Clouds 33 1012 12 10000 3.09 0 12:38 03.07.2021
6453 Clouds 32 1013 12 10000 4.63 360 09:39 03.07.2021
6454 Clouds 32 1013 12 10000 4.63 360 09:20 03.07.2021
6455 Clouds 30 1014 13 10000 1.54 0 08:44 03.07.2021
6456 Clouds 28 1010 17 9000 12.86 20 17:28 02.07.2021
6457 Clear 29 1013 14 10000 5.66 20 07:41 02.07.2021
6458 Clear 28 1013 15 10000 7.2 320 06:24 02.07.2021
6459 Clear 23 1012 18 10000 4.63 350 22:57 01.07.2021
6460 Clear 25 1012 16 10000 6.17 360 22:29 01.07.2021
6461 Clear 26 1012 17 10000 6.17 10 21:33 01.07.2021
6462 Clear 27 1012 16 10000 9.77 20 19:37 01.07.2021
6463 Clear 27 1012 16 10000 9.77 20 19:18 01.07.2021
6464 Clear 27 1011 14 10000 12.35 20 18:38 01.07.2021
6465 Clouds 25 1003 17 10000 3.84 11 17:19 01.07.2021
6466 Clouds 30 1010 12 10000 10.29 10 15:31 01.07.2021
6467 Clouds 31 1010 11 10000 10.29 360 14:25 01.07.2021
6468 Clouds 31 1011 12 10000 7.2 350 11:27 01.07.2021
6469 Clear 30 1003 12 10000 2.68 8 08:53 01.07.2021
6470 Clear 24 1014 19 10000 7.72 10 23:23 30.06.2021
6471 Clear 25 1014 18 10000 8.23 10 22:21 30.06.2021
6472 Clear 25 1014 18 10000 6.69 20 21:44 30.06.2021
6473 Clear 25 1014 18 10000 6.69 20 20:59 30.06.2021
6474 Clear 26 1013 17 10000 7.72 20 19:43 30.06.2021
6475 Clouds 29 1012 15 10000 7.72 10 16:42 30.06.2021
6476 Clouds 32 1012 12 10000 6.17 350 13:25 30.06.2021
6477 Clouds 32 1014 13 10000 7.2 350 08:56 30.06.2021
6478 Clouds 20 1007 27 10000 0.42 323 22:36 29.06.2021
6479 Clouds 26 1005 20 10000 1.94 9 19:29 29.06.2021
6480 Clear 29 1013 17 10000 5.14 20 17:44 29.06.2021
6481 Clear 29 1013 17 10000 5.14 20 17:24 29.06.2021
6482 Clouds 29 1003 18 10000 4.83 326 15:50 29.06.2021
6483 Clouds 30 1003 16 10000 6.28 332 14:54 29.06.2021
6484 Clouds 33 1013 14 10000 5.14 350 13:20 29.06.2021
6485 Clear 21 1016 35 10000 1.03 270 01:24 29.06.2021
6486 Clear 22 1017 35 10000 2.06 280 21:59 28.06.2021
6487 Clear 22 1018 35 10000 2.06 90 20:25 28.06.2021
6488 Clouds 27 1017 24 10000 8.23 90 17:32 28.06.2021
6489 Clouds 27 1017 24 10000 8.23 90 16:57 28.06.2021
6490 Clouds 29 1016 17 10000 5.14 20 14:30 28.06.2021
6491 Clouds 32 1017 14 10000 3.09 0 11:34 28.06.2021
6492 Clouds 17 1020 51 7000 1.03 0 23:47 27.06.2021
6493 Clouds 16 1020 55 9000 1.03 0 22:31 27.06.2021
6494 Clouds 20 1021 40 10000 2.57 300 19:43 27.06.2021
6495 Clear 21 1020 37 10000 6.17 330 16:55 27.06.2021
6496 Clear 23 1019 38 10000 4.63 300 15:39 27.06.2021
6497 Clouds 30 1018 25 10000 3.09 0 10:30 27.06.2021
6498 Clear 20 1017 42 10000 1.54 100 00:27 27.06.2021
6499 Clear 22 1016 40 10000 5.14 80 21:26 26.06.2021
6500 Clear 22 1016 40 10000 4.12 100 20:47 26.06.2021
6501 Clear 24 1015 33 10000 6.17 100 19:26 26.06.2021
6502 Clouds 29 1012 17 10000 7.2 120 15:39 26.06.2021
6503 Clear 30 1001 9 10000 4.09 38 13:52 26.06.2021
6504 Clouds 29 1014 8 10000 3.09 0 10:39 26.06.2021
6505 Clear 26 1015 12 10000 1.54 0 06:23 26.06.2021
6506 Clear 23 1014 14 10000 7.2 50 21:24 25.06.2021
6507 Clouds 20 1007 16 10000 1.67 15 20:34 25.06.2021
6508 Clouds 22 1005 17 10000 1.54 56 17:58 25.06.2021
6509 Clouds 26 1010 11 10000 8.75 30 17:30 25.06.2021
6510 Clouds 26 1003 15 10000 4.73 330 15:59 25.06.2021
6511 Clouds 31 1010 8 10000 8.75 350 13:27 25.06.2021
6512 Clouds 30 1013 10 10000 4.12 350 09:51 25.06.2021
6513 Clear 27 1014 12 10000 5.14 350 07:22 25.06.2021
6514 Clear 19 1008 21 10000 0.77 335 03:59 25.06.2021
6515 Clear 23 1013 13 10000 4.12 40 23:40 24.06.2021
6516 Clear 25 1013 12 10000 6.17 20 21:48 24.06.2021
6517 Clear 25 1013 12 10000 8.23 30 20:41 24.06.2021
6518 Clear 26 1013 11 10000 8.23 20 19:39 24.06.2021
6519 Clear 27 1012 12 10000 6.17 30 17:29 24.06.2021
6520 Clouds 31 1011 7 10000 8.23 360 15:23 24.06.2021
6521 Clouds 31 1011 7 10000 8.23 360 14:51 24.06.2021
6522 Clear 32 1002 7 10000 4.08 46 12:54 24.06.2021
6523 Clear 30 1016 7 10000 2.57 0 09:46 24.06.2021
6524 Clear 27 1008 10 10000 1.1 51 08:26 24.06.2021
6525 Clear 26 1016 11 10000 3.09 0 06:29 24.06.2021
6526 Clear 23 1017 10 10000 5.14 30 23:33 23.06.2021
6527 Clear 24 1017 9 10000 7.72 10 22:25 23.06.2021
6528 Clouds 19 1010 22 10000 1.28 15 20:59 23.06.2021
6529 Clear 19 1010 21 10000 1.21 15 19:51 23.06.2021
6530 Clear 26 1015 10 10000 7.72 30 18:28 23.06.2021
6531 Clouds 23 1007 15 10000 2.83 20 16:52 23.06.2021
6532 Clouds 31 1014 8 10000 7.72 360 14:31 23.06.2021
6533 Clouds 33 1015 6 10000 7.72 310 12:38 23.06.2021
6534 Clouds 32 1016 7 10000 4.12 360 11:22 23.06.2021
6535 Clear 29 1017 10 10000 6.17 340 09:26 23.06.2021
6536 Clear 28 1018 9 10000 7.72 350 08:38 23.06.2021
6537 Clear 27 1018 11 10000 7.2 350 07:48 23.06.2021
6538 Clear 22 1017 21 10000 1.54 0 04:35 23.06.2021
6539 Clear 15 1010 29 10000 0.75 336 01:50 23.06.2021
6540 Clear 16 1010 27 10000 0.87 338 23:58 22.06.2021
6541 Clear 23 1015 13 10000 5.14 30 23:32 22.06.2021
6542 Clear 24 1016 12 10000 7.72 30 22:32 22.06.2021
6543 Clear 24 1016 12 10000 7.2 20 21:39 22.06.2021
6544 Clear 24 1015 13 10000 5.14 20 20:27 22.06.2021
6545 Clear 24 1015 14 9000 6.17 10 18:59 22.06.2021
6546 Clear 26 1014 12 10000 10.29 40 18:28 22.06.2021
6547 Clear 26 1014 12 10000 6.17 30 17:27 22.06.2021
6548 Clear 28 1014 12 10000 6.17 20 16:48 22.06.2021
6549 Clouds 30 1014 12 10000 6.69 360 14:54 22.06.2021
6550 Clouds 31 1014 11 10000 5.14 340 14:25 22.06.2021
6551 Clouds 32 1014 9 10000 3.09 0 13:34 22.06.2021
6552 Clear 29 1004 9 10000 1.84 56 11:53 22.06.2021
6553 Clear 30 1016 10 10000 4.63 10 10:37 22.06.2021
6554 Clear 25 1009 12 10000 0.8 64 07:59 22.06.2021
6555 Clear 18 1016 24 10000 1.03 0 00:50 22.06.2021
6556 Clear 21 1016 17 10000 5.14 30 23:32 21.06.2021
6557 Clear 22 1016 16 10000 5.14 20 22:29 21.06.2021
6558 Clear 23 1017 15 10000 7.72 20 21:28 21.06.2021
6559 Clear 23 1017 15 10000 8.75 20 20:46 21.06.2021
6560 Clear 19 1010 20 10000 2.1 14 19:55 21.06.2021
6561 Clear 20 1009 19 10000 2.05 23 18:58 21.06.2021
6562 Clear 24 1015 16 9000 7.2 50 17:36 21.06.2021
6563 Clear 26 1014 14 9000 4.12 20 16:46 21.06.2021
6564 Clear 26 1014 14 9000 4.12 20 16:25 21.06.2021
6565 Clouds 28 1013 13 9000 6.69 360 15:45 21.06.2021
6566 Clouds 29 1013 13 9000 5.66 360 14:18 21.06.2021
6567 Clouds 30 1014 12 10000 5.14 330 13:34 21.06.2021
6568 Clouds 29 1014 12 10000 4.12 330 12:38 21.06.2021
6569 Clouds 29 1014 12 10000 4.12 330 11:52 21.06.2021
6570 Clouds 27 1016 14 10000 6.69 360 10:31 21.06.2021
6571 Clouds 27 1016 13 10000 7.72 360 09:29 21.06.2021
6572 Clouds 26 1016 14 10000 5.14 350 08:22 21.06.2021
6573 Clear 26 1017 17 10000 4.63 10 07:28 21.06.2021
6574 Clear 21 1015 23 10000 7.2 10 00:43 21.06.2021
6575 Clouds 18 1009 30 10000 0.22 317 23:35 20.06.2021
6576 Clouds 18 1009 28 10000 1.53 349 22:58 20.06.2021
6577 Clear 22 1016 21 10000 7.72 20 22:18 20.06.2021
6578 Clear 22 1016 21 10000 6.69 20 21:28 20.06.2021
6579 Clear 23 1015 20 10000 8.75 20 19:42 20.06.2021
6580 Clear 23 1015 20 10000 8.75 20 19:23 20.06.2021
6581 Clouds 23 1014 20 10000 11.32 10 18:21 20.06.2021
6582 Clouds 23 1005 18 10000 4.57 7 16:51 20.06.2021
6583 Clouds 25 1003 13 10000 8.13 11 15:55 20.06.2021
6584 Clouds 28 1011 11 10000 9.26 350 15:33 20.06.2021
6585 Clouds 29 1011 10 10000 7.72 340 14:48 20.06.2021
6586 Clouds 30 1011 10 10000 7.72 30 13:41 20.06.2021
6587 Clouds 30 1011 10 10000 7.72 30 12:57 20.06.2021
6588 Clouds 29 1012 10 10000 5.14 20 11:46 20.06.2021
6589 Clear 29 1013 10 10000 3.6 350 10:40 20.06.2021
6590 Clear 27 1015 9 10000 5.14 350 09:46 20.06.2021
6591 Clear 26 1015 11 10000 2.57 300 07:42 20.06.2021
6592 Clear 23 1014 14 10000 8.23 10 23:43 19.06.2021
6593 Clear 23 1014 14 10000 8.23 10 22:59 19.06.2021
6594 Clear 17 1008 21 10000 0.88 360 21:53 19.06.2021
6595 Clear 23 1014 14 10000 7.2 20 21:27 19.06.2021
6596 Clear 19 1007 17 10000 1.42 14 18:55 19.06.2021
6597 Clear 19 1007 17 10000 1.42 14 18:55 19.06.2021
6598 Clear 25 1013 10 10000 10.8 20 18:22 19.06.2021
6599 Clear 25 1012 10 10000 9.26 10 17:27 19.06.2021
6600 Clouds 27 1012 9 10000 9.26 20 16:49 19.06.2021
6601 Clouds 28 1011 9 9000 10.29 20 15:42 19.06.2021
6602 Clouds 30 1012 8 10000 6.69 360 13:23 19.06.2021
6603 Clear 29 1002 7 10000 4.22 23 11:59 19.06.2021
6604 Clear 29 1014 8 10000 5.14 360 10:49 19.06.2021
6605 Clear 29 1014 8 10000 5.14 360 10:49 19.06.2021
6606 Clear 29 1014 8 10000 5.14 360 10:49 19.06.2021
6607 Clear 29 1014 8 10000 5.14 360 10:27 19.06.2021
6608 Clear 27 1004 8 10000 1.68 36 09:58 19.06.2021
6609 Clear 27 1015 9 10000 7.72 340 08:25 19.06.2021
6610 Clear 24 1016 12 10000 5.14 360 06:36 19.06.2021
6611 Clear 17 1015 22 10000 1.54 320 03:31 19.06.2021
6612 Clear 19 1015 14 10000 1.54 350 00:23 19.06.2021
6613 Clear 20 1015 13 10000 2.57 320 23:40 18.06.2021
6614 Clear 20 1015 13 10000 2.57 320 22:55 18.06.2021
6615 Clear 22 1014 12 10000 7.72 10 22:35 18.06.2021
6616 Clear 17 1008 18 10000 1.34 353 21:50 18.06.2021
6617 Clear 18 1008 17 10000 1.18 13 21:26 18.06.2021
6618 Clear 23 1015 11 10000 8.75 30 20:24 18.06.2021
6619 Clear 24 1013 9 10000 8.23 30 18:46 18.06.2021
6620 Clear 25 1013 9 10000 7.2 30 17:51 18.06.2021
6621 Clear 27 1012 9 10000 5.66 10 16:39 18.06.2021
6622 Clear 28 1011 9 10000 8.23 360 15:46 18.06.2021
6623 Clear 30 1011 7 10000 7.72 340 14:41 18.06.2021
6624 Clear 30 1012 7 10000 6.69 300 13:44 18.06.2021
6625 Clear 30 1012 7 10000 6.69 300 12:56 18.06.2021
6626 Clear 30 1012 7 10000 8.23 330 12:34 18.06.2021
6627 Clear 29 1013 6 10000 3.09 0 11:46 18.06.2021
6628 Clear 29 1013 6 10000 3.09 0 10:57 18.06.2021
6629 Clear 29 1013 6 10000 3.09 0 10:57 18.06.2021
6630 Clear 27 1014 7 10000 5.66 20 10:24 18.06.2021
6631 Clear 26 1005 7 10000 1.48 75 09:57 18.06.2021
6632 Clear 27 1015 10 10000 8.23 10 09:21 18.06.2021
6633 Clear 27 1015 9 10000 5.66 330 08:32 18.06.2021
6634 Clear 24 1015 10 10000 6.17 340 07:36 18.06.2021
6635 Clear 22 1016 13 10000 1.54 0 05:36 18.06.2021
6636 Clear 20 1014 10 10000 7.72 10 00:35 18.06.2021
6637 Clear 21 1014 10 10000 6.17 20 23:28 17.06.2021
6638 Clear 21 1015 10 10000 5.14 20 22:27 17.06.2021
6639 Clear 17 1008 17 10000 2.1 357 21:58 17.06.2021
6640 Clear 21 1015 11 10000 6.17 30 21:19 17.06.2021
6641 Clear 22 1014 11 10000 6.17 40 20:33 17.06.2021
6642 Clear 18 1007 16 10000 1.57 31 19:57 17.06.2021
6643 Clear 22 1014 11 10000 7.72 40 19:27 17.06.2021
6644 Clouds 20 1006 14 10000 2.51 16 17:50 17.06.2021
6645 Clouds 24 1012 10 10000 5.14 20 17:23 17.06.2021
6646 Clouds 25 1010 10 10000 7.72 360 16:30 17.06.2021
6647 Clouds 25 1010 10 10000 7.72 360 15:53 17.06.2021
6648 Clouds 28 1010 8 10000 7.2 10 14:33 17.06.2021
6649 Clouds 29 1011 8 10000 6.17 10 13:46 17.06.2021
6650 Clouds 28 1011 7 10000 10.29 70 12:31 17.06.2021
6651 Clouds 28 1012 7 10000 3.09 0 11:41 17.06.2021
6652 Clear 27 1012 8 10000 5.14 360 10:44 17.06.2021
6653 Clear 27 1012 8 10000 5.14 360 10:23 17.06.2021
6654 Clear 27 1013 9 10000 6.69 350 09:42 17.06.2021
6655 Clear 26 1013 9 10000 7.2 360 08:52 17.06.2021
6656 Clear 25 1013 10 10000 7.2 360 07:51 17.06.2021
6657 Clear 23 1013 11 10000 3.09 0 06:23 17.06.2021
6658 Clear 19 1012 14 10000 8.23 360 01:54 17.06.2021
6659 Clear 20 1013 12 10000 7.72 10 23:40 16.06.2021